# Wetter Temperatur Luftdruck Luftfeuchtigkeit Sichtweite Windgeschwindigkeit Windrichtung Zeit
1 Clouds 20 1008 34 10000 5.8 291 10:50 14.08.2022
2 Clouds 21 1007 31 10000 5.32 291 08:52 14.08.2022
3 Clear 19 1009 38 10000 2.41 274 06:22 14.08.2022
4 Clear 14 1011 61 10000 0.45 41 02:57 14.08.2022
5 Clouds 9 1011 83 10000 0.47 98 00:33 14.08.2022
6 Clouds 8 1010 83 10000 0.45 91 22:56 13.08.2022
7 Clear 8 1010 83 10000 0.22 48 21:43 13.08.2022
8 Clear 8 1010 82 10000 0.43 305 20:46 13.08.2022
9 Clouds 9 1010 82 10000 1.02 16 19:45 13.08.2022
10 Clouds 10 1009 78 10000 1.22 11 17:59 13.08.2022
11 Clouds 11 1008 73 10000 1.31 283 15:40 13.08.2022
12 Clouds 17 1006 50 10000 3.14 273 14:28 13.08.2022
13 Clouds 17 1006 50 10000 3.14 273 13:41 13.08.2022
14 Clouds 18 1006 50 10000 3.56 318 11:53 13.08.2022
15 Clouds 17 1005 52 10000 3.68 318 10:31 13.08.2022
16 Clouds 18 1005 51 10000 4.33 316 09:19 13.08.2022
17 Clouds 15 1007 68 10000 1.55 316 05:57 13.08.2022
18 Clouds 13 1008 85 10000 0.87 19 00:30 13.08.2022
19 Rain 15 1007 59 10000 1.72 90 22:23 12.08.2022
20 Clouds 16 1007 46 10000 1.11 144 20:58 12.08.2022
21 Clouds 17 1006 38 10000 1.59 127 19:43 12.08.2022
22 Clouds 17 1006 39 10000 1.3 63 18:52 12.08.2022
23 Clouds 17 1006 38 10000 1.34 87 17:36 12.08.2022
24 Clouds 18 1007 38 10000 1.43 34 16:24 12.08.2022
25 Clouds 18 1006 36 10000 1.35 6 14:44 12.08.2022
26 Clouds 23 1005 27 10000 2.09 294 12:57 12.08.2022
27 Clouds 25 1004 26 10000 4.9 282 11:19 12.08.2022
28 Clouds 25 1006 27 10000 4.26 248 08:47 12.08.2022
29 Clouds 23 1007 32 10000 3.26 264 07:26 12.08.2022
30 Clouds 19 1010 45 10000 3.13 229 03:35 12.08.2022
31 Clouds 12 1010 71 10000 1.78 66 00:28 12.08.2022
32 Clouds 12 1010 71 10000 1.78 66 23:35 11.08.2022
33 Clouds 12 1011 70 10000 2.09 85 22:35 11.08.2022
34 Clouds 12 1011 71 10000 1.71 80 21:43 11.08.2022
35 Clouds 13 1011 65 10000 2.53 74 21:19 11.08.2022
36 Clouds 12 1011 72 10000 1.57 76 20:27 11.08.2022
37 Clear 12 1011 63 10000 2.16 51 19:33 11.08.2022
38 Clear 13 1011 62 10000 2.54 53 18:36 11.08.2022
39 Clear 14 1010 58 10000 2.72 41 16:38 11.08.2022
40 Clear 14 1009 57 10000 1.92 23 15:37 11.08.2022
41 Clouds 19 1008 42 10000 2.13 308 13:51 11.08.2022
42 Clouds 22 1007 35 10000 5.44 335 11:26 11.08.2022
43 Clouds 22 1008 32 10000 0.49 309 07:56 11.08.2022
44 Clouds 18 1010 40 10000 3.79 26 04:44 11.08.2022
45 Clouds 16 1011 45 10000 3.66 25 01:54 11.08.2022
46 Clouds 11 1011 61 10000 2.18 59 22:38 10.08.2022
47 Clouds 12 1011 60 10000 2.34 67 21:44 10.08.2022
48 Clouds 12 1011 59 10000 2.5 64 20:56 10.08.2022
49 Clouds 13 1011 48 10000 2.82 61 19:44 10.08.2022
50 Clouds 14 1011 46 10000 2.89 60 18:45 10.08.2022
51 Clouds 15 1010 41 10000 2.78 60 17:19 10.08.2022
52 Clouds 20 1007 32 10000 2.82 352 13:36 10.08.2022
53 Clouds 20 1007 32 10000 2.82 352 13:36 10.08.2022
54 Clouds 23 1007 25 10000 4.9 324 12:48 10.08.2022
55 Clear 25 1006 22 10000 7.19 303 09:56 10.08.2022
56 Clear 25 1006 24 10000 7.42 297 08:35 10.08.2022
57 Clear 24 1006 27 10000 6.27 283 07:21 10.08.2022
58 Clear 20 1008 42 10000 2.14 292 03:35 10.08.2022
59 Clear 11 1009 75 10000 1.7 108 23:58 09.08.2022
60 Clear 11 1009 75 10000 1.21 95 23:25 09.08.2022
61 Clear 11 1009 75 10000 0.83 111 21:37 09.08.2022
62 Clear 11 1009 74 10000 0.97 117 20:40 09.08.2022
63 Clear 12 1009 75 10000 0.8 358 18:45 09.08.2022
64 Clear 12 1008 72 10000 0.73 312 17:31 09.08.2022
65 Clouds 13 1008 69 10000 0.65 231 16:42 09.08.2022
66 Clouds 14 1007 68 10000 0.76 220 15:59 09.08.2022
67 Clouds 19 1007 45 10000 1.24 292 14:28 09.08.2022
68 Clouds 24 1005 29 10000 7.57 301 10:39 09.08.2022
69 Clouds 25 1005 25 10000 5.02 292 08:51 09.08.2022
70 Clouds 25 1005 23 10000 5.73 321 07:54 09.08.2022
71 Clouds 25 1005 21 10000 2.22 212 04:31 09.08.2022
72 Clouds 14 1009 36 10000 2.72 73 23:46 08.08.2022
73 Clouds 14 1009 37 10000 2.66 75 22:57 08.08.2022
74 Clouds 14 1009 37 10000 2.66 75 22:35 08.08.2022
75 Clouds 14 1009 38 10000 2.63 67 21:27 08.08.2022
76 Clear 14 1009 37 10000 2.41 74 19:51 08.08.2022
77 Clear 14 1009 37 10000 2.32 78 18:58 08.08.2022
78 Clear 15 1009 36 10000 2.12 89 16:47 08.08.2022
79 Clear 16 1008 34 10000 2.45 65 15:45 08.08.2022
80 Clear 22 1006 24 10000 4.44 297 14:29 08.08.2022
81 Clear 26 1005 19 10000 5.4 270 12:29 08.08.2022
82 Clear 26 1005 19 10000 5.97 262 10:19 08.08.2022
83 Clouds 25 1006 21 10000 3.66 260 06:54 08.08.2022
84 Clouds 22 1008 28 10000 0.85 208 03:31 08.08.2022
85 Clouds 13 1009 54 10000 2.31 80 22:42 07.08.2022
86 Clouds 14 1010 52 10000 2.8 82 21:40 07.08.2022
87 Clouds 14 1010 42 10000 2.63 92 20:26 07.08.2022
88 Clouds 14 1010 42 10000 2.63 92 20:26 07.08.2022
89 Clouds 14 1010 42 10000 2.63 92 19:57 07.08.2022
90 Clouds 14 1010 42 10000 2.63 92 19:39 07.08.2022
91 Clouds 14 1010 44 10000 1.81 134 18:35 07.08.2022
92 Clouds 13 1009 55 10000 0.52 139 16:54 07.08.2022
93 Clouds 13 1009 55 10000 0.52 139 16:35 07.08.2022
94 Clear 15 1007 48 10000 1.11 282 15:23 07.08.2022
95 Clouds 20 1006 32 10000 2.28 274 13:34 07.08.2022
96 Clouds 24 1006 22 10000 4.06 257 11:58 07.08.2022
97 Clouds 24 1006 20 10000 3.61 253 10:34 07.08.2022
98 Clear 22 1007 16 10000 2.51 269 07:38 07.08.2022
99 Clear 15 1011 40 10000 0.73 69 03:20 07.08.2022
100 Clouds 9 1013 55 10000 2.03 64 00:57 07.08.2022
101 Clouds 9 1013 55 10000 2.03 64 22:25 06.08.2022
102 Clouds 9 1013 54 10000 2.24 63 21:18 06.08.2022
103 Clouds 10 1013 52 10000 2.5 58 19:41 06.08.2022
104 Clouds 10 1013 51 10000 2.46 58 18:30 06.08.2022
105 Clouds 10 1012 50 10000 2.53 55 17:33 06.08.2022
106 Clouds 14 1009 40 10000 3.23 4 14:48 06.08.2022
107 Clouds 18 1009 34 10000 4.25 352 13:49 06.08.2022
108 Clouds 20 1007 26 10000 3.83 353 11:59 06.08.2022
109 Clouds 20 1007 28 10000 4.34 1 10:33 06.08.2022
110 Clouds 19 1007 34 10000 3.9 332 08:40 06.08.2022
111 Clear 17 1008 55 10000 2.3 284 03:53 06.08.2022
112 Clouds 10 1009 81 10000 1.89 38 23:50 05.08.2022
113 Clouds 11 1009 81 10000 1.95 49 22:32 05.08.2022
114 Clouds 12 1009 75 10000 2.4 40 19:59 05.08.2022
115 Clouds 12 1009 74 10000 2.29 51 18:46 05.08.2022
116 Clouds 13 1008 68 10000 2.69 57 18:25 05.08.2022
117 Clear 14 1007 64 10000 2.5 51 16:49 05.08.2022
118 Clear 16 1006 54 10000 2.09 356 15:22 05.08.2022
119 Clear 16 1006 54 10000 2.09 356 14:31 05.08.2022
120 Clouds 24 1003 29 10000 4.91 311 13:24 05.08.2022
121 Clouds 24 1003 29 10000 4.91 311 12:30 05.08.2022
122 Clouds 25 1003 28 10000 6.75 302 10:53 05.08.2022
123 Clouds 25 1004 25 10000 5.9 280 08:30 05.08.2022
124 Clear 24 1005 27 10000 3.84 254 06:56 05.08.2022
125 Clear 24 1005 27 10000 3.84 254 06:56 05.08.2022
126 Clouds 13 1009 61 10000 1.88 52 01:28 05.08.2022
127 Clouds 12 1009 66 10000 1.92 54 22:32 04.08.2022
128 Clear 12 1009 65 10000 2.09 63 21:27 04.08.2022
129 Clear 12 1009 65 10000 2.09 63 20:44 04.08.2022
130 Clouds 13 1009 63 10000 2.42 58 19:48 04.08.2022
131 Clouds 13 1009 67 10000 2.65 64 18:42 04.08.2022
132 Clouds 13 1010 67 10000 2.53 52 18:23 04.08.2022
133 Clouds 15 1008 62 10000 2.26 66 14:38 04.08.2022
134 Clouds 18 1009 49 10000 3.06 29 13:22 04.08.2022
135 Clouds 23 1006 30 10000 8.75 276 11:33 04.08.2022
136 Clouds 25 1006 24 10000 2.46 252 07:55 04.08.2022
137 Clouds 24 1007 26 10000 1.58 256 06:41 04.08.2022
138 Clouds 18 1011 42 10000 1.33 112 02:35 04.08.2022
139 Clouds 11 1012 67 10000 2.32 79 23:46 03.08.2022
140 Clear 11 1011 67 10000 2.09 85 22:59 03.08.2022
141 Clear 12 1011 63 10000 2.01 72 20:50 03.08.2022
142 Clear 13 1010 58 10000 2.17 68 19:54 03.08.2022
143 Clear 13 1010 56 10000 2.07 77 18:37 03.08.2022
144 Clear 15 1009 54 10000 1.86 26 16:26 03.08.2022
145 Clear 15 1009 54 10000 1.86 26 15:45 03.08.2022
146 Clouds 22 1006 38 10000 3.75 330 13:24 03.08.2022
147 Clouds 24 1005 30 10000 4.49 328 09:51 03.08.2022
148 Clear 23 1006 32 10000 2.37 266 06:29 03.08.2022
149 Clear 20 1007 39 10000 0.71 252 04:21 03.08.2022
150 Clouds 16 1008 50 10000 1.22 72 02:25 03.08.2022
151 Clouds 11 1008 68 10000 1.66 94 23:41 02.08.2022
152 Clouds 13 1008 58 10000 1.46 123 21:59 02.08.2022
153 Clouds 13 1008 58 10000 1.46 123 21:40 02.08.2022
154 Clouds 14 1007 55 10000 1.05 59 19:39 02.08.2022
155 Clouds 15 1007 52 10000 1.09 134 16:49 02.08.2022
156 Clouds 20 1006 34 10000 3.34 250 13:40 02.08.2022
157 Clouds 23 1004 28 10000 4.31 273 10:34 02.08.2022
158 Clouds 22 1005 33 10000 1.34 259 08:27 02.08.2022
159 Clouds 22 1005 33 10000 1.34 259 07:50 02.08.2022
160 Clouds 20 1006 44 10000 0.45 206 04:56 02.08.2022
161 Rain 15 1007 72 10000 1.75 91 01:58 02.08.2022
162 Clouds 12 1007 87 10000 1.64 98 23:21 01.08.2022
163 Clear 11 1007 87 10000 0.44 99 21:19 01.08.2022
164 Clouds 12 1007 81 10000 1.11 111 19:45 01.08.2022
165 Clouds 13 1006 80 10000 1.54 115 18:53 01.08.2022
166 Clouds 15 1006 76 10000 0.46 6 16:55 01.08.2022
167 Clouds 15 1006 76 10000 0.46 6 16:55 01.08.2022
168 Clouds 15 1006 76 10000 0.46 6 16:55 01.08.2022
169 Clouds 17 1005 69 10000 0.71 56 16:29 01.08.2022
170 Clouds 17 1005 69 10000 0.71 56 15:34 01.08.2022
171 Clouds 16 1004 73 10000 0.35 191 14:44 01.08.2022
172 Clouds 20 1003 54 10000 1.39 211 13:29 01.08.2022
173 Clouds 24 1001 34 10000 10.41 235 10:47 01.08.2022
174 Clouds 23 1002 37 10000 5.45 229 08:45 01.08.2022
175 Clouds 25 1001 29 10000 4.37 196 06:51 01.08.2022
176 Clouds 25 1002 28 10000 3.57 223 04:31 01.08.2022
177 Clouds 17 1005 47 10000 2.1 91 00:58 01.08.2022
178 Clouds 15 1005 56 10000 2.37 74 22:44 31.07.2022
179 Clouds 15 1005 59 10000 2.66 65 22:18 31.07.2022
180 Clouds 16 1005 58 10000 3.02 55 20:21 31.07.2022
181 Clouds 17 1005 56 10000 3.24 47 18:38 31.07.2022
182 Clear 17 1002 45 10000 1.7 79 16:22 31.07.2022
183 Clouds 18 1001 39 10000 0.2 133 14:33 31.07.2022
184 Clouds 26 1000 22 10000 2.76 286 12:55 31.07.2022
185 Clouds 27 1000 20 10000 4.5 254 10:53 31.07.2022
186 Clouds 26 1001 22 10000 2.78 263 08:29 31.07.2022
187 Clouds 23 1004 29 10000 1.16 285 04:46 31.07.2022
188 Clouds 13 1007 53 10000 2.48 75 01:20 31.07.2022
189 Clouds 12 1006 60 10000 2.22 80 22:40 30.07.2022
190 Clouds 12 1006 56 10000 2.48 74 21:50 30.07.2022
191 Clouds 13 1006 55 10000 2.66 72 21:24 30.07.2022
192 Clouds 13 1006 54 10000 2.38 73 20:28 30.07.2022
193 Clear 13 1006 55 10000 2.26 88 19:42 30.07.2022
194 Clear 13 1004 58 10000 1.41 90 17:52 30.07.2022
195 Clouds 14 1004 57 10000 1.39 93 16:37 30.07.2022
196 Clouds 16 1003 49 10000 1.37 37 15:29 30.07.2022
197 Clouds 24 1001 26 10000 4.55 298 13:22 30.07.2022
198 Clouds 24 1001 27 10000 4.99 295 12:22 30.07.2022
199 Clouds 25 1001 26 10000 5.67 280 10:45 30.07.2022
200 Clouds 24 1001 26 10000 5.21 262 09:59 30.07.2022
201 Clouds 24 1001 27 10000 6.04 260 08:49 30.07.2022
202 Clouds 23 1002 29 10000 6.03 247 06:55 30.07.2022
203 Clouds 18 1005 35 10000 0.84 153 02:33 30.07.2022
204 Clouds 10 1006 55 10000 2.06 93 23:30 29.07.2022
205 Clear 11 1006 52 10000 2.05 84 21:36 29.07.2022
206 Clear 11 1006 50 10000 2.12 65 20:50 29.07.2022
207 Clouds 11 1005 48 10000 1.95 66 19:34 29.07.2022
208 Clouds 13 1004 47 10000 1.27 45 16:59 29.07.2022
209 Clouds 16 1002 38 10000 1.68 336 14:38 29.07.2022
210 Clouds 21 1001 27 10000 4.78 328 12:41 29.07.2022
211 Clouds 23 1001 24 10000 7.16 300 08:52 29.07.2022
212 Clouds 23 1001 24 10000 6.55 289 08:22 29.07.2022
213 Clouds 20 1003 31 10000 2.38 280 05:19 29.07.2022
214 Clouds 10 1005 57 10000 1.89 89 23:59 28.07.2022
215 Clouds 12 1005 48 10000 2.13 49 21:39 28.07.2022
216 Clouds 12 1005 48 10000 1.79 85 20:52 28.07.2022
217 Clouds 12 1005 47 10000 2.26 92 20:18 28.07.2022
218 Clouds 12 1005 47 10000 2.26 92 19:40 28.07.2022
219 Clouds 12 1005 46 10000 1.71 76 17:46 28.07.2022
220 Clouds 12 1005 46 10000 1.68 52 17:23 28.07.2022
221 Clouds 12 1005 46 10000 1.68 52 16:41 28.07.2022
222 Clouds 19 1003 35 10000 2.24 330 13:57 28.07.2022
223 Clouds 21 1003 27 10000 4.4 305 12:40 28.07.2022
224 Clouds 22 1003 26 10000 5.39 275 08:49 28.07.2022
225 Clouds 18 1005 29 10000 2.54 281 05:41 28.07.2022
226 Clouds 17 1006 30 10000 1.72 282 05:20 28.07.2022
227 Clear 6 1009 73 10000 1.79 58 23:20 27.07.2022
228 Clear 6 1009 73 10000 1.34 58 21:31 27.07.2022
229 Clouds 7 1009 63 10000 1.14 27 19:53 27.07.2022
230 Clouds 8 1009 60 10000 1.29 7 19:20 27.07.2022
231 Clouds 10 1008 53 10000 1.23 304 16:31 27.07.2022
232 Clouds 11 1007 47 10000 1.52 319 15:51 27.07.2022
233 Clouds 13 1007 44 10000 2.03 346 14:41 27.07.2022
234 Clouds 16 1006 36 10000 4.64 332 13:45 27.07.2022
235 Clouds 19 1004 35 10000 3.12 304 10:39 27.07.2022
236 Clouds 16 1007 43 10000 6.93 0 07:53 27.07.2022
237 Clouds 14 1009 52 10000 2.11 59 04:54 27.07.2022
238 Clouds 8 1010 55 10000 2.26 93 23:25 26.07.2022
239 Clouds 8 1010 54 10000 2.13 86 21:52 26.07.2022
240 Clouds 9 1010 54 10000 1.9 80 20:49 26.07.2022
241 Clouds 9 1011 51 10000 2.21 81 19:32 26.07.2022
242 Clouds 10 1011 49 10000 2.43 71 18:40 26.07.2022
243 Clouds 10 1011 48 10000 2.67 63 17:54 26.07.2022
244 Clouds 11 1010 46 10000 2.92 46 15:43 26.07.2022
245 Clouds 13 1009 42 10000 2.69 16 14:43 26.07.2022
246 Clouds 19 1007 24 10000 6.42 301 12:32 26.07.2022
247 Clouds 20 1007 22 10000 6.97 304 10:20 26.07.2022
248 Clouds 20 1007 25 10000 5.37 311 08:27 26.07.2022
249 Rain 11 1011 56 10000 1.37 40 01:55 26.07.2022
250 Clear 7 1010 75 10000 1.9 38 00:20 26.07.2022
251 Clear 7 1010 78 10000 1.58 25 22:40 25.07.2022
252 Clear 7 1010 79 10000 1.49 29 21:43 25.07.2022
253 Clouds 8 1010 77 10000 2.11 31 20:43 25.07.2022
254 Clouds 9 1009 76 10000 2.3 40 20:24 25.07.2022
255 Clouds 9 1009 77 10000 2.45 55 19:24 25.07.2022
256 Clouds 10 1009 78 10000 2.82 46 17:42 25.07.2022
257 Clouds 10 1008 77 10000 2.71 31 17:20 25.07.2022
258 Clouds 20 1001 25 10000 6.85 298 13:27 25.07.2022
259 Clouds 22 1000 19 10000 9.17 287 10:54 25.07.2022
260 Clouds 22 1000 29 10000 7.09 292 07:59 25.07.2022
261 Clouds 14 1003 60 10000 1.28 119 01:36 25.07.2022
262 Clouds 12 1003 68 10000 2.79 105 23:45 24.07.2022
263 Clouds 12 1003 68 10000 1.31 135 22:47 24.07.2022
264 Rain 13 1003 52 10000 1.26 228 21:42 24.07.2022
265 Rain 15 1002 37 10000 0.9 268 21:18 24.07.2022
266 Clouds 15 1002 37 10000 0.9 268 20:44 24.07.2022
267 Clouds 14 1001 36 10000 1.08 68 19:23 24.07.2022
268 Clouds 14 1001 36 10000 1.06 114 18:26 24.07.2022
269 Clouds 15 1001 35 10000 1.46 216 15:55 24.07.2022
270 Clouds 16 1000 35 10000 2.24 227 14:57 24.07.2022
271 Clouds 20 999 30 10000 2.97 238 13:49 24.07.2022
272 Clouds 22 999 22 10000 5.06 252 12:28 24.07.2022
273 Clouds 22 999 22 10000 5.06 252 11:31 24.07.2022
274 Clouds 22 999 23 10000 5.56 245 09:55 24.07.2022
275 Clear 21 1000 27 10000 2.71 247 08:22 24.07.2022
276 Clear 21 1000 27 10000 2.68 245 07:41 24.07.2022
277 Clear 15 1004 50 10000 0.77 63 03:18 24.07.2022
278 Clear 9 1005 71 10000 1.77 63 23:25 23.07.2022
279 Clear 10 1005 70 10000 1.82 45 20:49 23.07.2022
280 Clear 10 1004 67 10000 1.91 34 19:30 23.07.2022
281 Clear 11 1004 67 10000 1.73 42 18:40 23.07.2022
282 Clear 12 1003 64 10000 1.7 35 17:28 23.07.2022
283 Clear 13 1003 60 10000 2.33 24 16:29 23.07.2022
284 Clear 15 1001 53 10000 3.1 5 15:22 23.07.2022
285 Clear 15 1001 53 10000 3.1 5 14:55 23.07.2022
286 Clouds 18 1000 41 10000 4.2 335 14:24 23.07.2022
287 Clouds 22 997 26 10000 7.95 290 11:56 23.07.2022
288 Clouds 22 997 29 10000 9.36 301 10:44 23.07.2022
289 Clouds 22 997 29 10000 8.87 301 09:53 23.07.2022
290 Clouds 20 998 39 10000 6.26 255 08:24 23.07.2022
291 Clouds 14 1002 73 10000 0.92 50 03:38 23.07.2022
292 Clouds 13 1001 74 10000 1.91 147 00:39 23.07.2022
293 Clouds 13 1001 67 10000 0.88 217 21:38 22.07.2022
294 Clouds 13 1001 63 10000 1.01 252 20:33 22.07.2022
295 Clouds 12 1002 72 10000 0.57 173 18:57 22.07.2022
296 Clouds 15 1002 61 10000 0.97 279 17:52 22.07.2022
297 Clouds 14 1002 57 10000 1.33 285 16:31 22.07.2022
298 Clouds 20 1001 36 10000 4.84 287 13:50 22.07.2022
299 Clouds 23 1001 25 10000 5.2 267 10:40 22.07.2022
300 Clouds 22 1002 27 10000 5.99 276 09:25 22.07.2022
301 Clouds 22 1002 28 10000 5.65 270 08:26 22.07.2022
302 Clouds 17 1005 37 10000 2.01 290 04:26 22.07.2022
303 Clouds 11 1007 57 10000 1.41 81 23:45 21.07.2022
304 Clouds 11 1007 59 10000 1.72 74 22:25 21.07.2022
305 Clouds 10 1007 65 10000 1.98 61 20:48 21.07.2022
306 Clouds 9 1009 71 10000 2.22 63 18:54 21.07.2022
307 Clear 10 1010 66 10000 2.67 61 17:29 21.07.2022
308 Clear 10 1010 66 10000 2.67 61 16:53 21.07.2022
309 Clear 13 1008 55 10000 2.72 52 14:52 21.07.2022
310 Clouds 16 1007 45 10000 3.54 41 14:24 21.07.2022
311 Clouds 17 1007 44 10000 4.37 22 12:27 21.07.2022
312 Clouds 17 1007 45 10000 4.79 23 10:39 21.07.2022
313 Clouds 16 1007 49 10000 5.24 24 08:54 21.07.2022
314 Clouds 16 1007 49 10000 5.24 24 08:35 21.07.2022
315 Clouds 14 1009 65 10000 4.03 22 07:23 21.07.2022
316 Clouds 13 1008 66 10000 2.16 353 03:55 21.07.2022
317 Clouds 10 1009 80 10000 2.17 48 23:26 20.07.2022
318 Clouds 10 1009 80 10000 2.65 41 22:21 20.07.2022
319 Clouds 11 1009 77 10000 2.39 33 20:50 20.07.2022
320 Clouds 10 1010 78 10000 2.6 38 19:48 20.07.2022
321 Clouds 11 1010 78 10000 2.37 34 19:20 20.07.2022
322 Clouds 11 1010 78 10000 2.37 34 18:33 20.07.2022
323 Clouds 11 1010 78 10000 2.34 45 17:43 20.07.2022
324 Clouds 12 1009 77 10000 2.87 42 15:59 20.07.2022
325 Clouds 13 1008 73 10000 2.86 32 14:54 20.07.2022
326 Clouds 15 1008 64 10000 2.84 32 13:53 20.07.2022
327 Clouds 16 1007 51 10000 2.6 345 11:32 20.07.2022
328 Clouds 21 1004 28 10000 3.43 254 07:39 20.07.2022
329 Clouds 15 1006 43 10000 1.16 40 02:44 20.07.2022
330 Clouds 11 1008 54 10000 2.34 57 00:44 20.07.2022
331 Clouds 10 1008 57 10000 2.76 55 22:41 19.07.2022
332 Clouds 10 1008 58 10000 2.32 64 22:21 19.07.2022
333 Clouds 10 1007 59 10000 2.83 61 20:54 19.07.2022
334 Clouds 10 1008 58 10000 2.92 65 20:18 19.07.2022
335 Clouds 10 1007 56 10000 2.51 71 18:43 19.07.2022
336 Clear 11 1006 55 10000 2.7 68 17:56 19.07.2022
337 Clear 12 1005 54 10000 1.08 18 16:25 19.07.2022
338 Clear 14 1004 48 10000 1.66 299 14:31 19.07.2022
339 Clouds 19 1003 34 10000 6.05 294 11:35 19.07.2022
340 Clouds 19 1003 37 10000 5.3 298 10:31 19.07.2022
341 Clouds 17 1005 52 10000 3.5 309 08:48 19.07.2022
342 Clouds 15 1005 66 10000 2.62 291 08:22 19.07.2022
343 Clouds 12 1006 80 10000 1.89 291 07:18 19.07.2022
344 Clouds 12 1005 82 10000 2.53 250 05:26 19.07.2022
345 Clouds 12 1005 82 10000 2.53 250 04:41 19.07.2022
346 Clouds 14 1001 60 10000 2 143 00:31 19.07.2022
347 Clouds 15 1001 55 10000 2.17 98 23:21 18.07.2022
348 Clouds 15 1001 55 10000 2.17 98 22:55 18.07.2022
349 Clouds 14 1001 57 10000 1.2 133 21:53 18.07.2022
350 Clouds 14 1002 58 10000 1.46 113 20:50 18.07.2022
351 Clouds 13 1003 65 10000 2.05 126 19:24 18.07.2022
352 Clouds 14 1003 57 10000 1.84 188 16:52 18.07.2022
353 Clouds 17 1001 40 10000 4.32 253 15:46 18.07.2022
354 Clouds 23 997 26 10000 3.66 255 14:24 18.07.2022
355 Clouds 24 997 22 10000 4.82 264 12:38 18.07.2022
356 Clouds 25 998 22 10000 6.81 257 10:37 18.07.2022
357 Clouds 25 998 20 10000 7.17 252 08:50 18.07.2022
358 Clouds 25 999 23 10000 5.79 250 06:54 18.07.2022
359 Clouds 14 1004 30 10000 2.59 88 00:36 18.07.2022
360 Clouds 13 1005 28 10000 2.5 91 22:34 17.07.2022
361 Clouds 13 1005 28 10000 2.46 84 21:47 17.07.2022
362 Clouds 13 1005 28 10000 2.69 81 20:55 17.07.2022
363 Clouds 13 1005 28 10000 2.69 81 20:36 17.07.2022
364 Clear 14 1006 31 10000 2.59 92 19:28 17.07.2022
365 Clear 14 1005 30 10000 2.2 99 18:26 17.07.2022
366 Clear 14 1005 30 10000 2.2 99 17:38 17.07.2022
367 Clear 14 1005 31 10000 1.29 119 16:50 17.07.2022
368 Clear 15 1005 32 10000 0.66 206 16:26 17.07.2022
369 Clear 17 1004 31 10000 1.73 247 14:37 17.07.2022
370 Clear 22 1004 25 10000 2.6 257 13:30 17.07.2022
371 Clear 25 1003 17 10000 4.59 262 11:32 17.07.2022
372 Clear 25 1004 18 10000 4.08 262 08:50 17.07.2022
373 Clear 20 1007 25 10000 0.52 162 03:43 17.07.2022
374 Clear 16 1009 34 10000 1.8 80 02:21 17.07.2022
375 Clear 11 1010 40 10000 2.49 75 23:19 16.07.2022
376 Clouds 12 1010 40 10000 2.35 81 21:25 16.07.2022
377 Clouds 13 1010 37 10000 2.29 85 19:25 16.07.2022
378 Clouds 13 1009 37 10000 1.94 85 18:27 16.07.2022
379 Clouds 13 1009 38 10000 1.25 101 16:31 16.07.2022
380 Clear 20 1007 32 10000 1.76 296 13:47 16.07.2022
381 Clear 22 1006 21 10000 4.11 253 10:50 16.07.2022
382 Clear 22 1007 21 10000 3.82 251 09:32 16.07.2022
383 Clear 22 1007 21 10000 3.42 255 08:43 16.07.2022
384 Clear 21 1008 22 10000 3.12 256 08:19 16.07.2022
385 Clear 16 1011 29 10000 0.55 114 03:58 16.07.2022
386 Clear 14 1012 35 10000 1.18 68 02:40 16.07.2022
387 Clear 8 1013 59 10000 2.52 78 23:29 15.07.2022
388 Clear 8 1013 59 10000 2.52 78 22:39 15.07.2022
389 Clear 8 1013 58 10000 2.41 90 21:28 15.07.2022
390 Clear 8 1013 57 10000 1.96 84 20:24 15.07.2022
391 Clear 8 1013 57 10000 1.72 83 18:37 15.07.2022
392 Clear 8 1013 58 10000 0.96 77 17:37 15.07.2022
393 Clear 12 1012 51 10000 1.7 281 14:53 15.07.2022
394 Clouds 16 1010 33 10000 4.02 304 12:57 15.07.2022
395 Clouds 17 1011 33 10000 6.18 294 11:20 15.07.2022
396 Clouds 16 1011 38 10000 7.02 300 09:21 15.07.2022
397 Clouds 11 1013 68 10000 4.81 285 06:24 15.07.2022
398 Clouds 10 1010 85 9862 1.69 218 00:53 15.07.2022
399 Clouds 8 1010 88 10000 1.52 248 00:21 15.07.2022
400 Clouds 9 1009 77 10000 1.7 268 22:45 14.07.2022
401 Clouds 9 1008 76 10000 0.21 34 21:46 14.07.2022
402 Clouds 10 1009 74 10000 1.75 45 21:28 14.07.2022
403 Clouds 10 1009 74 10000 1.75 45 20:44 14.07.2022
404 Rain 12 1009 69 10000 2.48 47 20:20 14.07.2022
405 Clouds 11 1010 77 10000 2.82 64 18:52 14.07.2022
406 Clouds 14 1007 40 10000 0.25 269 16:22 14.07.2022
407 Clear 15 1006 44 10000 0.97 194 15:29 14.07.2022
408 Clear 19 1006 35 10000 1.64 206 13:53 14.07.2022
409 Clear 19 1006 32 10000 1.63 225 13:53 14.07.2022
410 Clear 20 1005 25 10000 2.45 215 12:53 14.07.2022
411 Clear 21 1005 26 10000 2.95 231 11:43 14.07.2022
412 Clear 21 1006 28 10000 3.05 235 11:22 14.07.2022
413 Clear 20 1006 32 10000 2.4 230 09:49 14.07.2022
414 Clouds 17 1009 54 10000 1.71 233 06:54 14.07.2022
415 Clouds 11 1011 88 10000 1.87 215 01:25 14.07.2022
416 Clouds 11 1011 88 10000 1.87 215 00:53 14.07.2022
417 Clouds 11 1010 92 10000 2.36 233 22:33 13.07.2022
418 Clouds 11 1010 94 10000 2.53 233 21:57 13.07.2022
419 Clouds 11 1010 95 10000 2.57 202 20:53 13.07.2022
420 Clouds 11 1008 92 10000 2.66 188 19:30 13.07.2022
421 Clouds 11 1008 91 10000 1.81 179 17:51 13.07.2022
422 Clouds 11 1007 89 10000 2.01 140 16:40 13.07.2022
423 Rain 13 1006 84 10000 1.9 102 15:24 13.07.2022
424 Clouds 13 1005 83 10000 0.91 19 12:55 13.07.2022
425 Clouds 16 1005 63 10000 3.08 156 10:46 13.07.2022
426 Rain 16 1006 61 10000 5.07 182 10:24 13.07.2022
427 Rain 17 1005 50 10000 4.44 163 09:24 13.07.2022
428 Clouds 19 1006 38 10000 7.85 198 06:20 13.07.2022
429 Clouds 17 1006 33 10000 2.26 116 02:21 13.07.2022
430 Clouds 12 1007 43 10000 2.76 99 23:45 12.07.2022
431 Clouds 12 1007 43 10000 2.19 91 21:58 12.07.2022
432 Clouds 12 1007 43 10000 2.19 91 21:32 12.07.2022
433 Clouds 12 1007 42 10000 2.39 84 20:41 12.07.2022
434 Clouds 12 1008 42 10000 2.48 82 19:28 12.07.2022
435 Clouds 13 1008 41 10000 2.5 88 17:50 12.07.2022
436 Clouds 14 1006 39 10000 1.47 120 16:20 12.07.2022
437 Clouds 17 1005 34 10000 0.38 167 14:31 12.07.2022
438 Clouds 23 1004 21 10000 2.18 294 12:48 12.07.2022
439 Clouds 23 1005 20 10000 3.11 302 11:26 12.07.2022
440 Clouds 23 1005 21 10000 3.21 294 10:18 12.07.2022
441 Clouds 23 1005 21 10000 3.21 294 10:18 12.07.2022
442 Clear 22 1007 24 10000 2.65 286 08:24 12.07.2022
443 Clear 20 1007 26 10000 2.1 306 06:59 12.07.2022
444 Clear 19 1008 30 10000 1.52 321 05:42 12.07.2022
445 Clear 13 1012 49 10000 1 46 02:52 12.07.2022
446 Clear 6 1013 81 10000 2.46 56 23:30 11.07.2022
447 Clear 6 1013 82 10000 2.53 55 22:31 11.07.2022
448 Clear 6 1012 83 10000 2.73 50 20:41 11.07.2022
449 Clouds 7 1012 83 10000 2.79 45 19:50 11.07.2022
450 Clouds 7 1012 83 10000 2.96 41 18:32 11.07.2022
451 Clouds 8 1012 80 10000 3.45 36 17:53 11.07.2022
452 Clouds 10 1010 66 10000 3.77 33 16:21 11.07.2022
453 Clouds 13 1009 53 10000 3.61 21 14:49 11.07.2022
454 Clouds 18 1005 33 10000 7.39 6 11:59 11.07.2022
455 Clouds 20 1003 25 10000 8.19 358 10:37 11.07.2022
456 Clouds 20 1003 26 10000 6.19 12 09:49 11.07.2022
457 Clouds 19 1004 28 10000 6.79 6 08:34 11.07.2022
458 Clouds 19 1004 28 10000 4.47 335 06:44 11.07.2022
459 Clouds 10 1007 81 10000 2.41 23 00:22 11.07.2022
460 Clouds 10 1007 81 10000 2.41 23 23:32 10.07.2022
461 Clouds 10 1006 83 10000 2.02 6 22:21 10.07.2022
462 Clouds 9 1006 85 10000 1.82 14 20:54 10.07.2022
463 Clouds 9 1006 89 10000 1.56 41 19:50 10.07.2022
464 Clouds 9 1006 89 10000 1.32 57 18:53 10.07.2022
465 Clouds 10 1006 90 10000 2.4 117 17:41 10.07.2022
466 Rain 11 1006 84 10000 1.99 144 16:58 10.07.2022
467 Clouds 12 1004 66 10000 1.09 282 16:20 10.07.2022
468 Clouds 15 1001 50 10000 1.91 305 14:33 10.07.2022
469 Clouds 20 999 38 10000 7.73 318 12:33 10.07.2022
470 Clouds 21 999 33 10000 6.51 292 11:34 10.07.2022
471 Clouds 21 1000 32 10000 2.09 195 09:28 10.07.2022
472 Clouds 21 1000 32 10000 2.09 195 08:38 10.07.2022
473 Clouds 18 1002 36 10000 6.18 200 05:36 10.07.2022
474 Clouds 14 1003 52 10000 2.55 95 23:32 09.07.2022
475 Clouds 13 1004 53 10000 2.61 81 22:26 09.07.2022
476 Clouds 13 1004 53 10000 2.61 81 22:26 09.07.2022
477 Clouds 13 1004 53 10000 2.61 81 21:31 09.07.2022
478 Clouds 12 1006 62 10000 3.61 65 19:19 09.07.2022
479 Clouds 12 1006 62 10000 3.22 60 18:22 09.07.2022
480 Clouds 12 1006 59 10000 3.65 50 16:59 09.07.2022
481 Clouds 14 1006 52 10000 3.82 37 15:54 09.07.2022
482 Clouds 14 1006 52 10000 3.82 37 15:35 09.07.2022
483 Clouds 21 1002 28 10000 4.43 4 13:54 09.07.2022
484 Clouds 22 1002 27 10000 5.04 9 13:27 09.07.2022
485 Clouds 23 1002 25 10000 6.13 353 11:33 09.07.2022
486 Clouds 24 1002 21 10000 5.27 306 10:24 09.07.2022
487 Clouds 23 1003 22 10000 2.3 332 08:25 09.07.2022
488 Clouds 22 1004 25 10000 1.85 302 06:59 09.07.2022
489 Clouds 19 1006 32 10000 1.52 33 04:34 09.07.2022
490 Clouds 12 1008 44 10000 2.57 68 23:22 08.07.2022
491 Clouds 12 1008 43 10000 2.45 54 21:59 08.07.2022
492 Clouds 13 1008 42 10000 2.46 63 21:18 08.07.2022
493 Clouds 13 1008 42 10000 2.46 63 20:30 08.07.2022
494 Clouds 13 1009 40 10000 3.24 54 18:33 08.07.2022
495 Clouds 13 1009 39 10000 3.16 64 17:33 08.07.2022
496 Clouds 13 1009 39 10000 3.16 64 17:33 08.07.2022
497 Clouds 17 1007 30 10000 2.81 36 14:55 08.07.2022
498 Clouds 21 1006 23 10000 2.95 349 14:29 08.07.2022
499 Clouds 23 1005 16 10000 5.35 296 12:28 08.07.2022
500 Clouds 24 1005 16 10000 5.95 288 10:45 08.07.2022
501 Clouds 24 1006 17 10000 5.19 278 08:55 08.07.2022
502 Clouds 22 1008 21 10000 3.9 279 06:55 08.07.2022
503 Clouds 16 1011 35 10000 0.98 76 03:22 08.07.2022
504 Clear 9 1013 51 10000 2.58 72 23:45 07.07.2022
505 Clear 9 1013 51 10000 2.52 71 22:45 07.07.2022
506 Clear 9 1012 49 10000 2.75 61 20:59 07.07.2022
507 Clear 10 1012 45 10000 2.89 59 18:42 07.07.2022
508 Clouds 11 1011 43 10000 3.02 56 17:41 07.07.2022
509 Clouds 13 1010 37 10000 3 29 15:34 07.07.2022
510 Clouds 19 1007 26 10000 4.42 327 13:30 07.07.2022
511 Clouds 20 1006 23 10000 6.83 321 12:40 07.07.2022
512 Clouds 21 1006 20 10000 7.12 307 12:20 07.07.2022
513 Clouds 21 1006 20 10000 7.12 307 11:31 07.07.2022
514 Clouds 22 1006 19 10000 7.66 295 10:44 07.07.2022
515 Clouds 22 1006 19 10000 8.45 294 10:25 07.07.2022
516 Clouds 22 1005 22 10000 6.49 303 07:40 07.07.2022
517 Clear 18 1007 35 10000 2.61 278 04:44 07.07.2022
518 Clouds 8 1009 65 10000 1.32 101 23:37 06.07.2022
519 Clouds 8 1009 67 10000 1.24 110 23:19 06.07.2022
520 Clouds 8 1009 67 10000 1.24 110 22:57 06.07.2022
521 Clouds 8 1009 67 10000 1.24 110 22:38 06.07.2022
522 Clouds 7 1009 71 10000 0.85 27 21:46 06.07.2022
523 Clouds 8 1009 65 10000 1.2 40 19:39 06.07.2022
524 Clouds 10 1009 61 10000 0.63 96 18:32 06.07.2022
525 Clouds 16 1006 32 10000 4.12 322 16:27 06.07.2022
526 Clouds 17 1004 31 10000 2.77 321 14:58 06.07.2022
527 Clouds 21 1002 26 10000 6.37 300 12:42 06.07.2022
528 Clouds 21 1002 29 10000 5.11 287 11:49 06.07.2022
529 Clouds 22 1001 26 10000 7.17 277 10:20 06.07.2022
530 Clouds 22 1001 23 10000 6.42 262 08:26 06.07.2022
531 Clouds 22 1002 22 10000 6.83 265 07:23 06.07.2022
532 Clouds 21 1003 26 10000 4.8 257 05:28 06.07.2022
533 Clouds 13 1002 29 10000 2.51 96 22:48 05.07.2022
534 Clouds 13 1003 29 10000 2.99 81 21:53 05.07.2022
535 Clouds 13 1003 29 10000 3.23 91 20:39 05.07.2022
536 Clouds 14 1003 27 10000 2.99 76 19:43 05.07.2022
537 Clouds 13 1004 28 10000 2.81 83 19:22 05.07.2022
538 Clouds 14 1003 27 10000 2.62 96 17:47 05.07.2022
539 Clouds 15 1003 26 10000 2.15 121 16:55 05.07.2022
540 Clouds 14 1003 28 10000 1.2 136 15:31 05.07.2022
541 Clouds 19 1002 26 10000 1.58 239 14:28 05.07.2022
542 Clouds 21 1002 18 10000 2.86 236 12:43 05.07.2022
543 Clouds 22 1002 18 10000 2.98 242 11:33 05.07.2022
544 Clouds 22 1002 18 10000 3.23 233 10:40 05.07.2022
545 Clouds 21 1003 20 10000 2.25 255 09:23 05.07.2022
546 Clouds 20 1004 20 10000 2.16 285 07:47 05.07.2022
547 Clear 17 1006 29 10000 0.78 270 04:51 05.07.2022
548 Clear 15 1007 35 10000 0.48 162 04:23 05.07.2022
549 Clear 7 1009 68 10000 2.33 78 23:56 04.07.2022
550 Clear 7 1009 70 10000 1.89 72 23:26 04.07.2022
551 Clear 6 1009 71 10000 1.41 82 22:27 04.07.2022
552 Clear 6 1009 71 10000 1.41 82 21:41 04.07.2022
553 Clear 7 1009 69 10000 1.72 74 20:52 04.07.2022
554 Clear 7 1009 69 10000 1.72 74 20:33 04.07.2022
555 Clouds 8 1009 64 10000 2.33 73 19:54 04.07.2022
556 Clouds 8 1009 69 10000 2.12 81 19:35 04.07.2022
557 Clouds 8 1009 69 10000 1.73 70 17:58 04.07.2022
558 Clouds 10 1008 64 10000 1.81 54 15:50 04.07.2022
559 Clouds 10 1008 64 10000 1.81 54 15:31 04.07.2022
560 Clouds 12 1007 57 10000 2.57 37 13:29 04.07.2022
561 Rain 12 1007 58 10000 4.99 13 12:20 04.07.2022
562 Clouds 14 1007 50 10000 5.44 326 10:34 04.07.2022
563 Clouds 15 1005 46 10000 5.93 333 09:40 04.07.2022
564 Clouds 16 1004 41 10000 3.9 299 07:33 04.07.2022
565 Clouds 14 1005 44 10000 1.95 302 03:36 04.07.2022
566 Clouds 8 1007 74 10000 1.03 96 00:35 04.07.2022
567 Clouds 6 1007 85 10000 1.14 56 22:58 03.07.2022
568 Clouds 7 1007 86 10000 2.57 32 20:58 03.07.2022
569 Clouds 8 1006 86 10000 2.86 10 20:25 03.07.2022
570 Clouds 9 1005 81 10000 2.38 349 19:27 03.07.2022
571 Clouds 9 1005 81 10000 2.38 349 18:35 03.07.2022
572 Clouds 9 1005 78 10000 1.12 323 17:43 03.07.2022
573 Rain 13 1003 52 10000 1.81 312 15:49 03.07.2022
574 Clouds 15 1002 43 10000 2.19 269 14:58 03.07.2022
575 Clouds 17 1000 33 10000 1.92 82 13:59 03.07.2022
576 Clouds 17 1000 33 10000 1.92 82 13:33 03.07.2022
577 Clouds 18 1000 29 10000 3.64 239 12:32 03.07.2022
578 Clouds 23 997 16 10000 7.66 265 11:18 03.07.2022
579 Clouds 23 997 16 10000 7.66 265 10:38 03.07.2022
580 Clouds 24 997 16 10000 6.2 267 09:31 03.07.2022
581 Clouds 24 998 17 10000 6.71 252 07:34 03.07.2022
582 Clouds 16 1002 42 10000 1.21 40 01:42 03.07.2022
583 Clouds 13 1003 52 10000 1.85 62 23:50 02.07.2022
584 Clouds 13 1003 49 10000 2.27 66 22:33 02.07.2022
585 Clouds 12 1004 45 10000 3.35 60 20:37 02.07.2022
586 Clouds 13 1004 36 10000 3.41 55 19:51 02.07.2022
587 Clouds 13 1004 31 10000 3.05 55 19:19 02.07.2022
588 Clouds 14 1004 29 10000 3.16 56 17:41 02.07.2022
589 Clouds 14 1004 29 10000 3.27 45 16:48 02.07.2022
590 Clouds 21 1001 19 10000 4.13 349 13:51 02.07.2022
591 Clouds 24 1000 14 10000 5.83 309 12:19 02.07.2022
592 Clouds 24 1000 14 10000 5.29 290 10:54 02.07.2022
593 Clouds 24 1000 14 10000 5.29 290 10:33 02.07.2022
594 Clouds 24 1001 19 10000 5.16 280 08:54 02.07.2022
595 Clouds 22 1002 26 10000 3.66 277 08:19 02.07.2022
596 Clouds 20 1003 44 10000 2.75 262 06:51 02.07.2022
597 Clouds 17 1004 60 10000 2.07 289 01:44 02.07.2022
598 Rain 15 1003 61 10000 1.19 28 23:37 01.07.2022
599 Rain 16 1004 55 10000 3.26 290 22:40 01.07.2022
600 Rain 15 1003 53 10000 1.13 305 21:40 01.07.2022
601 Clouds 15 1003 53 10000 0.73 106 20:59 01.07.2022
602 Clouds 15 1003 53 10000 0.73 106 20:37 01.07.2022
603 Rain 17 1003 47 10000 1.09 144 19:41 01.07.2022
604 Clouds 16 1003 51 10000 0.92 135 17:52 01.07.2022
605 Clouds 22 1002 30 10000 5.5 261 15:26 01.07.2022
606 Clouds 27 998 22 10000 3.25 297 13:54 01.07.2022
607 Clouds 28 999 17 10000 2.39 241 11:50 01.07.2022
608 Clouds 28 1000 16 10000 6.53 257 10:20 01.07.2022
609 Clouds 29 1000 16 10000 6.22 253 08:50 01.07.2022
610 Clouds 23 1003 21 10000 2.39 142 03:18 01.07.2022
611 Clouds 16 1005 25 10000 2.99 95 00:26 01.07.2022
612 Clouds 16 1005 24 10000 2.98 95 22:56 30.06.2022
613 Clouds 16 1005 24 10000 2.98 95 22:33 30.06.2022
614 Clear 15 1005 24 10000 2.93 90 21:59 30.06.2022
615 Clear 15 1005 24 10000 2.93 90 21:35 30.06.2022
616 Clear 16 1005 25 10000 2.62 87 20:22 30.06.2022
617 Clear 16 1005 25 10000 2.53 88 19:53 30.06.2022
618 Clear 16 1005 25 10000 2.82 94 19:19 30.06.2022
619 Clear 16 1005 25 10000 2.82 94 18:42 30.06.2022
620 Clear 17 1005 24 10000 2.88 91 17:38 30.06.2022
621 Clear 18 1004 24 10000 2.44 80 16:48 30.06.2022
622 Clear 17 1003 24 10000 0.77 83 15:38 30.06.2022
623 Clear 26 1001 18 10000 3.27 252 13:34 30.06.2022
624 Clear 27 1001 13 10000 3.35 257 12:35 30.06.2022
625 Clear 28 1001 13 10000 2.9 264 11:37 30.06.2022
626 Clear 28 1001 13 10000 2.54 277 09:54 30.06.2022
627 Clear 28 1001 13 10000 2.54 277 09:34 30.06.2022
628 Clear 26 1003 15 10000 2.5 276 08:18 30.06.2022
629 Clear 24 1004 20 10000 1.51 293 06:21 30.06.2022
630 Clear 15 1007 61 10000 1.88 86 01:29 30.06.2022
631 Clear 13 1007 70 10000 2.15 77 23:34 29.06.2022
632 Clear 12 1007 73 10000 1.85 71 22:39 29.06.2022
633 Clear 13 1007 73 10000 1.89 72 21:37 29.06.2022
634 Clear 13 1007 72 10000 1.8 68 20:34 29.06.2022
635 Clouds 13 1007 72 10000 2.31 72 19:37 29.06.2022
636 Clouds 14 1007 70 10000 2.97 65 17:45 29.06.2022
637 Clouds 15 1006 65 10000 3.14 58 16:41 29.06.2022
638 Clouds 20 1003 40 10000 3.02 321 15:19 29.06.2022
639 Rain 23 1002 33 10000 2.31 308 12:40 29.06.2022
640 Clouds 27 999 26 10000 9.83 262 11:19 29.06.2022
641 Clouds 28 998 23 10000 6.93 250 09:33 29.06.2022
642 Clouds 28 1000 22 10000 6.47 247 08:26 29.06.2022
643 Clouds 26 1002 23 10000 3.66 247 04:57 29.06.2022
644 Clouds 20 1004 35 10000 1.62 116 01:41 29.06.2022
645 Clouds 18 1005 43 10000 1.58 97 00:36 29.06.2022
646 Clouds 16 1004 46 10000 2.35 93 22:55 28.06.2022
647 Clouds 16 1004 46 10000 2.35 93 22:34 28.06.2022
648 Clouds 16 1004 46 10000 2.23 84 21:55 28.06.2022
649 Clouds 16 1004 46 10000 2.23 84 21:33 28.06.2022
650 Clouds 16 1004 47 10000 1.87 71 20:44 28.06.2022
651 Clouds 17 1004 40 10000 1.86 151 19:34 28.06.2022
652 Clouds 18 1004 37 10000 2.03 159 18:53 28.06.2022
653 Clouds 18 1003 37 10000 1.26 107 17:42 28.06.2022
654 Clouds 20 1002 33 10000 1.5 357 16:21 28.06.2022
655 Clouds 20 1002 33 10000 1.5 357 15:42 28.06.2022
656 Clouds 27 999 22 10000 4.02 310 14:21 28.06.2022
657 Clouds 27 999 22 10000 4.02 310 13:54 28.06.2022
658 Clouds 29 998 14 10000 4.38 278 13:20 28.06.2022
659 Clouds 30 998 13 10000 8.13 259 11:21 28.06.2022
660 Clouds 31 998 13 10000 6.98 254 09:36 28.06.2022
661 Clouds 31 999 13 10000 5.6 240 08:44 28.06.2022
662 Clear 30 1000 14 10000 5.89 240 07:43 28.06.2022
663 Clear 29 1000 15 10000 5.3 247 07:19 28.06.2022
664 Clear 20 1005 37 10000 2.58 107 01:33 28.06.2022
665 Clear 15 1007 46 10000 3.07 98 23:44 27.06.2022
666 Clouds 16 1006 42 10000 3.06 95 22:54 27.06.2022
667 Clouds 16 1006 42 10000 2.93 95 21:38 27.06.2022
668 Clouds 16 1006 41 10000 2.85 95 20:53 27.06.2022
669 Clear 16 1006 41 10000 2.67 90 19:36 27.06.2022
670 Clear 17 1006 39 10000 3.07 84 18:33 27.06.2022
671 Clear 19 1005 34 10000 3.06 73 16:36 27.06.2022
672 Clouds 21 1003 32 10000 1.18 315 15:24 27.06.2022
673 Clouds 26 1002 21 10000 2.96 268 13:39 27.06.2022
674 Clouds 28 1002 16 10000 4.39 269 12:56 27.06.2022
675 Clouds 29 1003 15 10000 3.27 254 10:35 27.06.2022
676 Clouds 28 1004 15 10000 2.88 263 09:21 27.06.2022
677 Clouds 28 1004 15 10000 2.61 260 08:31 27.06.2022
678 Clouds 28 1005 16 10000 2.62 266 07:38 27.06.2022
679 Clouds 24 1008 22 10000 0.9 205 03:58 27.06.2022
680 Clear 16 1010 38 10000 1.98 71 01:18 27.06.2022
681 Clouds 14 1010 40 10000 2.22 75 22:27 26.06.2022
682 Clear 15 1009 39 10000 2.45 72 20:53 26.06.2022
683 Clear 15 1009 38 10000 2.51 77 19:44 26.06.2022
684 Clear 16 1009 36 10000 2.55 75 18:32 26.06.2022
685 Clear 16 1008 34 10000 2 84 17:22 26.06.2022
686 Clear 20 1006 31 10000 0.39 53 15:27 26.06.2022
687 Clear 25 1004 24 10000 1.27 282 13:53 26.06.2022
688 Clear 26 1004 19 10000 1.9 285 13:20 26.06.2022
689 Clouds 26 1005 19 10000 2.87 271 11:26 26.06.2022
690 Clouds 26 1005 20 10000 3.05 267 10:28 26.06.2022
691 Clouds 26 1005 20 10000 3.05 267 09:39 26.06.2022
692 Clear 25 1006 21 10000 2.76 266 07:45 26.06.2022
693 Clear 18 1010 38 10000 0.98 42 02:52 26.06.2022
694 Clear 11 1010 56 10000 2.34 55 00:21 26.06.2022
695 Clear 11 1010 56 10000 2.34 55 23:51 25.06.2022
696 Clear 11 1010 55 10000 2.4 58 23:24 25.06.2022
697 Clear 12 1010 55 10000 2.25 55 22:27 25.06.2022
698 Clear 12 1010 55 10000 2.25 55 21:46 25.06.2022
699 Clear 12 1010 54 10000 2.27 50 21:20 25.06.2022
700 Clear 12 1010 54 10000 2.27 50 20:30 25.06.2022
701 Clouds 12 1009 53 10000 2.29 53 19:54 25.06.2022
702 Clouds 14 1009 47 10000 3.3 41 18:19 25.06.2022
703 Clouds 14 1009 47 10000 3.3 41 18:19 25.06.2022
704 Clouds 15 1008 45 10000 3.52 36 17:24 25.06.2022
705 Clouds 17 1007 42 10000 3.93 22 15:42 25.06.2022
706 Rain 22 1003 31 10000 5.74 8 13:48 25.06.2022
707 Clouds 23 1002 30 10000 5.1 17 12:38 25.06.2022
708 Clouds 25 1001 28 10000 5.87 14 10:58 25.06.2022
709 Rain 24 1001 29 10000 6.48 16 09:22 25.06.2022
710 Clouds 24 1001 29 10000 6.48 16 08:41 25.06.2022
711 Clouds 24 1001 28 10000 4.9 24 08:19 25.06.2022
712 Rain 21 1003 39 10000 3.35 47 05:23 25.06.2022
713 Clouds 17 1004 55 10000 2.84 320 00:43 25.06.2022
714 Clouds 17 1003 51 10000 2.49 16 22:56 24.06.2022
715 Clouds 17 1003 53 10000 2.79 352 21:44 24.06.2022
716 Clouds 17 1003 55 10000 2.51 28 21:19 24.06.2022
717 Clouds 17 1002 55 10000 2.71 42 20:19 24.06.2022
718 Clouds 17 1002 48 10000 3.36 41 19:22 24.06.2022
719 Clouds 17 1002 48 10000 3.36 41 18:49 24.06.2022
720 Clouds 17 1002 48 10000 3.36 41 18:30 24.06.2022
721 Clouds 19 1001 38 10000 3.53 36 17:41 24.06.2022
722 Clouds 19 999 34 10000 1.1 288 15:51 24.06.2022
723 Clouds 26 998 22 10000 4.75 308 14:28 24.06.2022
724 Clouds 26 998 22 10000 4.75 308 13:55 24.06.2022
725 Clouds 29 997 17 10000 7.14 298 11:54 24.06.2022
726 Clouds 29 997 17 10000 7.14 298 11:34 24.06.2022
727 Clouds 30 997 15 10000 7.03 278 10:22 24.06.2022
728 Clouds 30 997 15 10000 7.03 278 09:40 24.06.2022
729 Clouds 30 997 14 10000 6.94 266 08:52 24.06.2022
730 Clouds 29 998 14 10000 6.99 243 06:50 24.06.2022
731 Clouds 29 998 14 10000 6.99 243 06:31 24.06.2022
732 Clouds 28 999 14 10000 5.83 244 05:55 24.06.2022
733 Clouds 21 1002 27 10000 2.19 116 01:36 24.06.2022
734 Clouds 17 1004 31 10000 3.14 102 22:55 23.06.2022
735 Clouds 17 1004 31 10000 3.14 102 22:33 23.06.2022
736 Clouds 18 1004 33 10000 2.91 103 20:56 23.06.2022
737 Clouds 18 1004 33 10000 2.91 103 20:32 23.06.2022
738 Clouds 19 1005 30 10000 2.59 89 18:59 23.06.2022
739 Clouds 19 1005 29 10000 2.52 84 17:50 23.06.2022
740 Clouds 19 1005 31 10000 2.03 92 16:50 23.06.2022
741 Clouds 19 1005 30 10000 1.53 104 15:43 23.06.2022
742 Clear 21 1004 32 10000 1.38 164 15:23 23.06.2022
743 Clear 27 1004 18 10000 2.35 223 13:21 23.06.2022
744 Clear 28 1005 19 10000 1.8 234 11:23 23.06.2022
745 Clear 28 1005 19 10000 1.8 234 10:31 23.06.2022
746 Clear 27 1006 21 10000 2.85 269 08:35 23.06.2022
747 Clear 19 1011 35 10000 0.71 104 02:38 23.06.2022
748 Clear 12 1013 54 10000 2.47 69 00:26 23.06.2022
749 Clear 12 1012 56 10000 2.18 71 23:27 22.06.2022
750 Clear 12 1012 56 10000 2.18 71 22:31 22.06.2022
751 Clear 13 1012 55 10000 2.82 62 20:57 22.06.2022
752 Clear 13 1012 55 10000 2.58 46 20:25 22.06.2022
753 Clear 13 1012 56 10000 2.26 48 19:50 22.06.2022
754 Clear 14 1011 51 10000 3.13 44 18:21 22.06.2022
755 Clear 15 1011 47 10000 3.24 31 17:26 22.06.2022
756 Clear 17 1009 39 10000 3.29 357 16:18 22.06.2022
757 Clear 19 1007 34 10000 2.88 311 15:25 22.06.2022
758 Clear 22 1006 26 10000 5.46 304 13:52 22.06.2022
759 Clear 24 1006 22 10000 7.06 306 13:26 22.06.2022
760 Clear 24 1006 22 10000 7.06 306 12:56 22.06.2022
761 Clear 25 1005 20 10000 7.38 308 11:47 22.06.2022
762 Clear 25 1005 20 10000 7.88 304 10:54 22.06.2022
763 Clear 25 1005 20 10000 8.22 294 09:54 22.06.2022
764 Clouds 25 1005 19 10000 7.84 287 07:56 22.06.2022
765 Clouds 21 1006 22 10000 1.85 267 03:40 22.06.2022
766 Clouds 14 1008 41 10000 1.9 88 01:23 22.06.2022
767 Clouds 11 1007 40 10000 2.45 69 23:41 21.06.2022
768 Clouds 12 1007 32 10000 2.45 66 21:49 21.06.2022
769 Clear 13 1006 30 10000 2.46 71 19:50 21.06.2022
770 Clear 13 1006 31 10000 2.55 58 18:32 21.06.2022
771 Clear 14 1005 34 10000 2.78 35 17:25 21.06.2022
772 Clouds 22 1001 24 10000 6.22 321 13:33 21.06.2022
773 Clouds 24 1000 16 10000 6.97 260 11:30 21.06.2022
774 Clouds 25 1000 16 10000 6.56 265 09:48 21.06.2022
775 Clear 25 1000 16 10000 4.86 256 08:37 21.06.2022
776 Clear 23 1001 20 10000 2.49 276 05:41 21.06.2022
777 Clouds 14 1003 40 10000 2.19 59 00:43 21.06.2022
778 Clouds 12 1003 41 10000 2.29 62 23:18 20.06.2022
779 Clouds 12 1003 40 10000 2.49 59 21:52 20.06.2022
780 Clouds 13 1003 38 10000 2.61 54 20:47 20.06.2022
781 Clouds 13 1003 38 10000 2.17 57 19:39 20.06.2022
782 Clouds 14 1002 37 10000 2 61 18:45 20.06.2022
783 Clouds 14 1002 36 10000 1.72 58 17:52 20.06.2022
784 Clouds 14 1002 37 10000 0.84 33 17:29 20.06.2022
785 Clouds 16 1001 35 10000 0.72 226 15:56 20.06.2022
786 Clouds 22 999 22 10000 6.15 241 12:54 20.06.2022
787 Clouds 23 999 20 10000 6.98 234 10:58 20.06.2022
788 Clouds 24 999 20 10000 6.37 228 09:41 20.06.2022
789 Clouds 24 1000 22 10000 6.77 215 08:44 20.06.2022
790 Clouds 23 1001 20 10000 3.95 253 06:19 20.06.2022
791 Clouds 16 1004 26 10000 1.72 80 02:29 20.06.2022
792 Clouds 12 1005 30 10000 2.56 88 00:26 20.06.2022
793 Clouds 11 1005 30 10000 2.47 82 22:59 19.06.2022
794 Clouds 12 1005 31 10000 2.76 94 21:58 19.06.2022
795 Clouds 12 1005 31 10000 2.76 94 21:40 19.06.2022
796 Clouds 12 1005 32 10000 2.74 87 20:39 19.06.2022
797 Clouds 12 1005 37 10000 2.7 88 19:48 19.06.2022
798 Clouds 13 1005 37 10000 2.4 85 18:57 19.06.2022
799 Clouds 13 1005 37 10000 2.4 85 18:30 19.06.2022
800 Clouds 13 1004 35 10000 2.02 66 17:22 19.06.2022
801 Clouds 13 1004 35 10000 2.02 66 16:35 19.06.2022
802 Clouds 14 1003 32 10000 1.21 51 15:42 19.06.2022
803 Clouds 17 1002 28 10000 1.76 246 14:58 19.06.2022
804 Clouds 21 1001 21 10000 2.64 256 14:20 19.06.2022
805 Clouds 21 1001 21 10000 2.64 256 14:20 19.06.2022
806 Clouds 21 1001 21 10000 2.64 256 13:36 19.06.2022
807 Clouds 23 1001 17 10000 5.88 256 11:40 19.06.2022
808 Clouds 23 1001 17 10000 6.34 248 10:47 19.06.2022
809 Clear 23 1002 18 10000 3.7 256 08:54 19.06.2022
810 Clear 22 1002 20 10000 2.67 260 08:22 19.06.2022
811 Clear 20 1004 25 10000 1.59 275 05:59 19.06.2022
812 Clear 15 1007 43 10000 0.21 56 02:59 19.06.2022
813 Clear 9 1008 58 10000 2.34 68 00:26 19.06.2022
814 Clear 9 1008 58 10000 2.34 68 23:36 18.06.2022
815 Clear 9 1008 58 10000 2.39 66 22:55 18.06.2022
816 Clear 10 1008 56 10000 2.4 62 21:43 18.06.2022
817 Clear 10 1008 55 10000 2.29 58 20:49 18.06.2022
818 Clear 10 1008 55 10000 2.29 58 20:49 18.06.2022
819 Clouds 11 1007 55 10000 2.5 56 19:48 18.06.2022
820 Clouds 11 1007 52 10000 2.57 54 18:54 18.06.2022
821 Clouds 12 1007 49 10000 2.41 38 17:54 18.06.2022
822 Clouds 13 1007 44 10000 2.46 13 17:23 18.06.2022
823 Clouds 14 1006 39 10000 1.96 331 15:38 18.06.2022
824 Clouds 16 1005 35 10000 2.03 296 14:49 18.06.2022
825 Clouds 18 1004 29 10000 2.76 297 13:53 18.06.2022
826 Clouds 20 1003 22 10000 4.26 286 11:58 18.06.2022
827 Clouds 20 1004 22 10000 5.94 288 10:57 18.06.2022
828 Clouds 21 1003 21 10000 5.16 278 09:28 18.06.2022
829 Clouds 21 1003 21 10000 5.16 278 08:33 18.06.2022
830 Clouds 21 1003 23 10000 4 277 07:32 18.06.2022
831 Clouds 17 1006 37 10000 1.51 262 04:20 18.06.2022
832 Clouds 13 1007 62 10000 1.19 30 01:27 18.06.2022
833 Clouds 13 1007 62 10000 1.19 30 01:27 18.06.2022
834 Clouds 13 1007 62 10000 1.19 30 00:50 18.06.2022
835 Clouds 11 1006 68 10000 1.32 23 00:21 18.06.2022
836 Clouds 11 1006 67 10000 1.18 28 23:29 17.06.2022
837 Clouds 11 1006 68 10000 1.4 56 21:44 17.06.2022
838 Clouds 12 1006 69 10000 1.42 13 20:29 17.06.2022
839 Clouds 11 1007 72 10000 1.59 58 19:19 17.06.2022
840 Clouds 11 1006 74 10000 1.79 92 17:47 17.06.2022
841 Clouds 12 1006 72 10000 1.98 109 16:43 17.06.2022
842 Clouds 12 1006 70 10000 1.5 148 16:19 17.06.2022
843 Clouds 12 1006 70 10000 1.5 148 15:37 17.06.2022
844 Clouds 17 1005 52 10000 3.01 250 14:22 17.06.2022
845 Clouds 17 1005 49 10000 2.15 256 13:57 17.06.2022
846 Rain 17 1005 49 10000 2.15 256 13:37 17.06.2022
847 Clouds 18 1004 48 10000 5.12 259 12:20 17.06.2022
848 Clouds 18 1004 48 10000 5.12 259 11:49 17.06.2022
849 Rain 18 1004 48 10000 5.12 259 11:30 17.06.2022
850 Rain 20 1002 44 10000 6.88 249 08:39 17.06.2022
851 Rain 22 1001 35 10000 5.87 244 07:53 17.06.2022
852 Rain 20 1002 40 10000 1.95 205 06:35 17.06.2022
853 Clouds 20 1002 33 10000 1.05 102 03:25 17.06.2022
854 Rain 16 1003 48 10000 2.29 91 01:27 17.06.2022
855 Clouds 14 1003 52 10000 1.98 83 23:34 16.06.2022
856 Clouds 14 1003 52 10000 2.14 89 22:38 16.06.2022
857 Clouds 14 1003 52 10000 2.14 89 22:38 16.06.2022
858 Clouds 14 1003 51 10000 1.83 90 21:19 16.06.2022
859 Clouds 14 1003 51 10000 1.83 90 20:50 16.06.2022
860 Clouds 15 1004 53 10000 2.08 93 20:21 16.06.2022
861 Clouds 15 1004 53 10000 1.35 70 18:51 16.06.2022
862 Clouds 15 1004 52 10000 1.98 97 17:50 16.06.2022
863 Clouds 15 1004 52 10000 1.98 97 17:49 16.06.2022
864 Clouds 15 1004 54 10000 2.04 107 17:27 16.06.2022
865 Clouds 15 1004 57 10000 2.32 90 16:19 16.06.2022
866 Clouds 16 1003 58 10000 2.53 99 15:21 16.06.2022
867 Clouds 17 1003 53 10000 3.17 105 14:27 16.06.2022
868 Clouds 26 998 25 10000 5.58 254 12:53 16.06.2022
869 Clouds 26 998 25 10000 5.58 254 12:34 16.06.2022
870 Clouds 26 998 24 10000 6.09 254 11:48 16.06.2022
871 Clouds 27 998 22 10000 6.07 261 10:41 16.06.2022
872 Clouds 27 999 21 10000 6.24 260 09:43 16.06.2022
873 Clouds 27 999 20 10000 5.47 256 08:59 16.06.2022
874 Clouds 27 999 20 10000 3.94 274 07:41 16.06.2022
875 Clouds 26 1000 21 10000 3.75 281 06:36 16.06.2022
876 Clouds 23 1002 33 10000 0.23 141 04:24 16.06.2022
877 Clouds 18 1005 48 10000 0.96 93 01:52 16.06.2022
878 Clouds 15 1005 58 10000 1.44 97 01:23 16.06.2022
879 Clouds 13 1005 63 10000 1.49 95 00:29 16.06.2022
880 Clouds 13 1005 65 10000 1.41 75 22:54 15.06.2022
881 Clouds 13 1005 64 10000 1.5 74 21:48 15.06.2022
882 Clouds 14 1006 65 10000 1.61 45 21:19 15.06.2022
883 Clouds 14 1006 65 10000 1.61 45 20:37 15.06.2022
884 Clouds 14 1006 66 10000 1.71 49 20:18 15.06.2022
885 Clouds 15 1004 59 10000 1.12 54 18:41 15.06.2022
886 Clouds 15 1004 60 10000 1.3 77 17:53 15.06.2022
887 Rain 15 1005 61 10000 1.11 74 16:34 15.06.2022
888 Clouds 17 1005 62 10000 1.73 342 15:22 15.06.2022
889 Clouds 16 1004 62 10000 3.73 71 13:29 15.06.2022
890 Clouds 16 1004 62 10000 3.73 71 12:47 15.06.2022
891 Clouds 29 999 18 10000 7.72 253 11:28 15.06.2022
892 Clouds 29 999 16 10000 6.19 252 10:22 15.06.2022
893 Clouds 29 999 16 10000 6.19 252 09:34 15.06.2022
894 Clouds 29 1001 18 10000 6.93 247 07:58 15.06.2022
895 Clouds 28 1002 20 10000 4.23 245 05:58 15.06.2022
896 Clouds 24 1004 21 10000 1.14 220 02:56 15.06.2022
897 Clouds 21 1004 27 10000 1.37 135 01:37 15.06.2022
898 Clouds 18 1005 34 10000 2.13 103 00:41 15.06.2022
899 Clouds 16 1005 34 10000 2.27 92 23:38 14.06.2022
900 Clouds 16 1005 32 10000 2.32 81 22:51 14.06.2022
901 Clouds 17 1005 31 10000 2.58 78 21:47 14.06.2022
902 Clouds 17 1005 30 10000 2.62 72 21:26 14.06.2022
903 Clouds 17 1005 30 10000 2.62 72 20:41 14.06.2022
904 Clouds 18 1005 33 10000 2.64 67 19:58 14.06.2022
905 Clouds 19 1005 31 10000 2.36 72 18:45 14.06.2022
906 Clouds 20 1004 29 10000 2.55 60 17:20 14.06.2022
907 Clouds 20 1004 29 10000 2.55 60 16:43 14.06.2022
908 Clouds 20 1004 30 10000 2.25 44 15:49 14.06.2022
909 Clouds 22 1003 29 10000 2.33 8 14:56 14.06.2022
910 Clouds 26 1003 23 10000 3.63 332 14:18 14.06.2022
911 Clouds 28 1002 18 10000 6.02 297 13:29 14.06.2022
912 Clouds 29 1002 17 10000 6.23 279 12:19 14.06.2022
913 Clouds 29 1002 16 10000 6.28 267 10:59 14.06.2022
914 Clouds 29 1002 16 10000 6.28 267 10:59 14.06.2022
915 Clouds 29 1003 16 10000 6.5 261 10:29 14.06.2022
916 Clouds 29 1003 16 10000 6.35 261 09:26 14.06.2022
917 Clouds 29 1003 16 10000 6.35 261 08:40 14.06.2022
918 Clouds 28 1004 17 10000 5.44 249 06:53 14.06.2022
919 Clouds 25 1006 20 10000 1.47 245 04:27 14.06.2022
920 Clouds 21 1007 23 10000 1.39 89 01:50 14.06.2022
921 Clouds 16 1007 27 10000 2.17 94 00:27 14.06.2022
922 Clouds 17 1007 23 10000 2.23 94 22:59 13.06.2022
923 Clouds 17 1007 24 10000 2.24 98 22:23 13.06.2022
924 Clouds 17 1007 24 10000 2.24 98 21:41 13.06.2022
925 Clouds 17 1007 23 10000 2.54 95 19:59 13.06.2022
926 Clouds 17 1007 22 10000 2.76 96 19:25 13.06.2022
927 Clouds 18 1007 21 10000 2.49 104 17:57 13.06.2022
928 Clouds 18 1006 22 10000 1.63 97 17:27 13.06.2022
929 Clouds 18 1006 22 10000 1.63 97 16:31 13.06.2022
930 Clear 21 1004 23 10000 1.31 147 14:52 13.06.2022
931 Clear 21 1004 23 10000 1.31 147 14:32 13.06.2022
932 Clear 26 1004 24 10000 0.9 220 13:36 13.06.2022
933 Clear 28 1005 12 10000 2.6 244 12:23 13.06.2022
934 Clear 28 1005 12 10000 3.5 244 10:58 13.06.2022
935 Clouds 28 1005 13 10000 3.9 248 10:26 13.06.2022
936 Clouds 28 1006 14 10000 3.79 253 08:59 13.06.2022
937 Clear 26 1008 14 10000 1.93 256 06:55 13.06.2022
938 Clear 25 1009 16 10000 1.19 236 05:36 13.06.2022
939 Clouds 21 1011 23 10000 1.51 109 02:47 13.06.2022
940 Clouds 18 1012 26 10000 1.81 96 01:36 13.06.2022
941 Clouds 18 1012 26 10000 1.81 96 01:36 13.06.2022
942 Clouds 13 1012 30 10000 2.58 88 23:50 12.06.2022
943 Clear 13 1012 29 10000 2.43 88 22:44 12.06.2022
944 Clear 13 1012 29 10000 2.31 92 21:58 12.06.2022
945 Clear 13 1012 28 10000 2.23 93 20:54 12.06.2022
946 Clear 14 1011 28 10000 2.18 92 20:19 12.06.2022
947 Clear 14 1011 28 10000 2.18 92 19:30 12.06.2022
948 Clear 15 1011 26 10000 1.98 97 17:41 12.06.2022
949 Clear 16 1010 25 10000 1.61 34 15:58 12.06.2022
950 Clear 18 1008 26 10000 1.53 13 14:56 12.06.2022
951 Clear 22 1008 22 10000 1.84 358 14:20 12.06.2022
952 Clear 23 1008 25 10000 0.87 304 13:49 12.06.2022
953 Clear 24 1007 15 10000 2.03 335 12:35 12.06.2022
954 Clear 25 1007 14 10000 2.71 333 11:36 12.06.2022
955 Clear 25 1008 13 10000 3.05 330 10:21 12.06.2022
956 Clear 24 1008 13 10000 3.09 329 08:54 12.06.2022
957 Clear 24 1008 13 10000 3.09 329 08:35 12.06.2022
958 Clear 23 1008 14 10000 3.02 334 07:32 12.06.2022
959 Clear 19 1011 19 10000 1.63 316 04:35 12.06.2022
960 Clear 16 1013 25 10000 0.76 41 02:33 12.06.2022
961 Clear 14 1013 33 10000 0.9 61 01:36 12.06.2022
962 Clear 11 1013 42 10000 1.64 79 00:58 12.06.2022
963 Clear 9 1013 42 10000 2.15 74 00:20 12.06.2022
964 Clear 9 1013 40 10000 2.12 74 23:29 11.06.2022
965 Clear 9 1013 40 10000 2.12 74 22:38 11.06.2022
966 Clear 9 1013 39 10000 2.02 74 21:37 11.06.2022
967 Clear 10 1013 38 10000 1.76 71 20:33 11.06.2022
968 Clear 10 1013 36 10000 1.53 70 19:39 11.06.2022
969 Clear 10 1012 35 10000 1.47 76 18:56 11.06.2022
970 Clear 10 1012 35 10000 1.47 76 18:33 11.06.2022
971 Clear 11 1012 34 10000 0.93 83 17:50 11.06.2022
972 Clear 11 1011 32 10000 0.37 132 17:26 11.06.2022
973 Clear 11 1011 32 10000 0.37 132 16:50 11.06.2022
974 Clear 12 1011 31 10000 0.99 212 16:26 11.06.2022
975 Clear 14 1010 31 10000 2.05 242 15:27 11.06.2022
976 Clear 18 1009 25 10000 3.92 255 13:53 11.06.2022
977 Clear 18 1009 25 10000 3.92 255 13:53 11.06.2022
978 Clear 20 1009 20 10000 4.53 254 12:25 11.06.2022
979 Clear 20 1009 20 10000 3.53 253 10:46 11.06.2022
980 Clear 20 1009 22 10000 2.99 257 09:43 11.06.2022
981 Clear 19 1010 23 10000 2.84 264 08:46 11.06.2022
982 Clear 17 1011 26 10000 2.09 276 06:47 11.06.2022
983 Clear 16 1012 29 10000 1.58 289 05:58 11.06.2022
984 Clear 12 1014 36 10000 0.9 13 03:45 11.06.2022
985 Clear 9 1016 47 10000 1.5 44 01:52 11.06.2022
986 Clear 7 1017 56 10000 1.95 55 01:26 11.06.2022
987 Clear 5 1017 63 10000 1.99 57 23:28 10.06.2022
988 Clear 5 1017 63 10000 1.83 56 22:29 10.06.2022
989 Clear 5 1017 63 10000 1.83 56 21:47 10.06.2022
990 Clear 5 1017 61 10000 2.09 63 20:39 10.06.2022
991 Clear 6 1017 59 10000 2.31 62 20:20 10.06.2022
992 Clear 6 1017 55 10000 1.95 61 19:19 10.06.2022
993 Clear 6 1017 55 10000 1.95 61 18:46 10.06.2022
994 Clear 7 1017 53 10000 2.06 61 17:54 10.06.2022
995 Clear 8 1016 50 10000 2.49 57 17:23 10.06.2022
996 Clouds 8 1016 45 10000 2.91 46 16:28 10.06.2022
997 Clouds 8 1016 45 10000 2.91 46 15:40 10.06.2022
998 Clouds 12 1014 30 10000 4.84 23 14:29 10.06.2022
999 Clouds 13 1012 30 10000 5.13 21 13:19 10.06.2022
1000 Clouds 14 1012 28 10000 5.36 11 11:59 10.06.2022
1001 Clouds 14 1012 28 10000 5.07 16 10:51 10.06.2022
1002 Clouds 14 1013 28 10000 4.87 8 09:57 10.06.2022
1003 Clouds 14 1013 29 10000 4.89 4 08:48 10.06.2022
1004 Clouds 13 1014 30 10000 4.84 15 07:50 10.06.2022
1005 Clear 12 1014 32 10000 4.18 17 06:47 10.06.2022
1006 Clear 11 1015 36 10000 3.56 15 06:28 10.06.2022
1007 Clear 10 1016 42 10000 3.17 13 04:52 10.06.2022
1008 Clouds 6 1017 62 10000 2.65 15 01:59 10.06.2022
1009 Clouds 6 1017 62 10000 2.65 15 01:36 10.06.2022
1010 Clouds 6 1017 62 10000 2.65 15 01:36 10.06.2022
1011 Clouds 5 1017 70 10000 1.85 9 23:57 09.06.2022
1012 Clouds 4 1018 73 10000 2.27 34 22:24 09.06.2022
1013 Clouds 4 1018 73 10000 2.27 34 21:38 09.06.2022
1014 Clouds 3 1018 83 10000 2.05 36 21:18 09.06.2022
1015 Clouds 3 1018 83 10000 2.05 36 20:36 09.06.2022
1016 Clouds 2 1018 80 10000 2.42 35 19:41 09.06.2022
1017 Clouds 3 1018 71 10000 3.23 35 18:36 09.06.2022
1018 Clouds 4 1016 61 10000 3.11 4 17:28 09.06.2022
1019 Clouds 6 1015 54 10000 4.71 355 16:28 09.06.2022
1020 Clouds 7 1012 48 10000 6.17 343 14:42 09.06.2022
1021 Clouds 10 1010 36 10000 5.25 329 14:23 09.06.2022
1022 Clouds 10 1010 37 10000 3.35 10 13:30 09.06.2022
1023 Clouds 10 1010 37 10000 3.35 10 12:46 09.06.2022
1024 Clouds 11 1009 37 10000 5.15 16 11:20 09.06.2022
1025 Clouds 12 1008 36 10000 4.57 16 09:54 09.06.2022
1026 Clouds 12 1008 36 10000 4.57 16 09:36 09.06.2022
1027 Clouds 11 1009 52 10000 5.39 350 08:27 09.06.2022
1028 Clouds 11 1009 47 10000 6.22 336 07:23 09.06.2022
1029 Clouds 6 1012 71 10000 3.31 46 03:28 09.06.2022
1030 Rain 5 1013 75 10000 2.94 57 23:55 08.06.2022
1031 Clouds 6 1013 63 10000 3.95 33 22:59 08.06.2022
1032 Clouds 8 1012 48 10000 3.05 38 22:27 08.06.2022
1033 Clouds 8 1012 48 10000 3.05 38 21:57 08.06.2022
1034 Clouds 9 1012 42 10000 1.42 40 21:24 08.06.2022
1035 Clouds 9 1012 41 10000 0.11 344 20:22 08.06.2022
1036 Clouds 8 1013 42 10000 1.08 26 19:39 08.06.2022
1037 Clouds 8 1013 42 10000 1.08 26 19:39 08.06.2022
1038 Clouds 8 1012 43 10000 0.45 79 18:48 08.06.2022
1039 Clouds 9 1012 40 10000 2.22 91 17:30 08.06.2022
1040 Clouds 9 1012 42 10000 1.43 73 15:52 08.06.2022
1041 Clouds 14 1010 30 10000 5.08 339 14:18 08.06.2022
1042 Clouds 16 1009 20 10000 9.03 295 12:29 08.06.2022
1043 Clouds 16 1009 20 10000 9.03 295 11:34 08.06.2022
1044 Clouds 16 1008 20 10000 8.52 297 10:30 08.06.2022
1045 Clouds 16 1008 21 10000 7.18 300 09:28 08.06.2022
1046 Clouds 16 1008 21 10000 7.18 300 08:49 08.06.2022
1047 Clouds 14 1010 29 10000 3.68 328 06:36 08.06.2022
1048 Clouds 10 1012 57 10000 3.72 342 04:22 08.06.2022
1049 Clouds 8 1012 61 10000 1.68 113 00:56 08.06.2022
1050 Clouds 8 1012 59 10000 1.73 79 23:31 07.06.2022
1051 Clouds 8 1012 52 10000 1.97 342 22:49 07.06.2022
1052 Clouds 8 1012 52 10000 1.97 342 22:31 07.06.2022
1053 Clouds 9 1010 43 10000 1.59 326 21:35 07.06.2022
1054 Clouds 9 1010 40 10000 1.41 54 20:59 07.06.2022
1055 Clouds 9 1010 40 10000 1.41 54 20:33 07.06.2022
1056 Clouds 8 1011 45 10000 1.37 121 19:48 07.06.2022
1057 Clouds 8 1011 44 10000 1.03 149 18:24 07.06.2022
1058 Clouds 10 1010 41 10000 1.03 205 17:27 07.06.2022
1059 Clouds 10 1010 41 10000 1.03 205 16:43 07.06.2022
1060 Clouds 10 1010 40 10000 1.14 238 15:56 07.06.2022
1061 Clouds 11 1009 38 10000 1.85 278 15:26 07.06.2022
1062 Clouds 11 1009 38 10000 1.85 278 14:52 07.06.2022
1063 Clouds 11 1009 38 10000 1.85 278 14:34 07.06.2022
1064 Clouds 14 1008 30 10000 3.66 311 13:32 07.06.2022
1065 Clouds 15 1008 25 10000 5.37 303 12:52 07.06.2022
1066 Clouds 16 1008 21 10000 6.26 284 11:48 07.06.2022
1067 Clouds 17 1008 20 10000 4.54 279 10:27 07.06.2022
1068 Clouds 17 1009 20 10000 4.04 270 08:51 07.06.2022
1069 Clouds 16 1009 22 10000 3.17 278 07:35 07.06.2022
1070 Clouds 15 1010 23 10000 2.31 299 06:38 07.06.2022
1071 Clouds 15 1010 23 10000 2.31 299 06:38 07.06.2022
1072 Clouds 11 1013 19 10000 1.08 350 04:20 07.06.2022
1073 Clouds 5 1015 40 10000 1.53 49 01:27 07.06.2022
1074 Clouds 5 1015 40 10000 1.53 49 01:27 07.06.2022
1075 Clear 3 1016 48 10000 2.45 52 23:46 06.06.2022
1076 Clear 3 1016 53 10000 2.3 44 22:54 06.06.2022
1077 Clear 4 1015 56 10000 2.1 43 22:29 06.06.2022
1078 Clear 4 1015 57 10000 2.49 43 20:43 06.06.2022
1079 Clouds 6 1015 59 10000 2.78 31 19:24 06.06.2022
1080 Clouds 6 1015 59 10000 2.78 31 18:48 06.06.2022
1081 Clouds 6 1014 57 10000 2.76 43 17:59 06.06.2022
1082 Clouds 7 1014 54 10000 2.83 37 16:57 06.06.2022
1083 Clouds 8 1014 49 10000 3.08 20 15:57 06.06.2022
1084 Clear 10 1012 45 10000 4.44 4 14:59 06.06.2022
1085 Clouds 13 1010 37 10000 6.3 340 14:26 06.06.2022
1086 Clouds 14 1009 27 10000 8.63 320 13:21 06.06.2022
1087 Clouds 14 1009 27 10000 8.63 320 12:35 06.06.2022
1088 Clouds 15 1008 25 10000 8.8 311 11:50 06.06.2022
1089 Clouds 16 1008 20 10000 9.72 290 10:21 06.06.2022
1090 Clouds 15 1009 23 10000 9.53 293 09:23 06.06.2022
1091 Clouds 15 1009 23 10000 9.53 293 08:31 06.06.2022
1092 Clouds 13 1010 34 10000 7.11 271 07:24 06.06.2022
1093 Clouds 7 1013 82 7498 2.13 304 04:42 06.06.2022
1094 Clouds 11 1008 54 10000 2.06 263 02:19 06.06.2022
1095 Clouds 9 1009 60 10000 2.29 92 00:57 06.06.2022
1096 Clouds 9 1009 60 10000 2.29 92 00:57 06.06.2022
1097 Clouds 9 1009 60 10000 2.29 92 00:35 06.06.2022
1098 Clear 7 1009 71 10000 1.69 106 23:28 05.06.2022
1099 Clear 7 1009 71 10000 1.69 106 22:33 05.06.2022
1100 Clouds 8 1010 68 10000 1.21 252 20:34 05.06.2022
1101 Clouds 11 1010 57 10000 2 189 19:26 05.06.2022
1102 Clouds 11 1010 52 10000 2.16 222 18:26 05.06.2022
1103 Clouds 11 1010 52 10000 2.16 222 17:46 05.06.2022
1104 Clouds 12 1009 44 10000 1.22 238 17:22 05.06.2022
1105 Clouds 12 1009 44 10000 1.22 238 16:48 05.06.2022
1106 Clouds 13 1008 37 10000 1.54 287 15:47 05.06.2022
1107 Clouds 16 1006 29 10000 0.74 305 14:21 05.06.2022
1108 Clouds 17 1007 24 10000 0.57 280 12:34 05.06.2022
1109 Clouds 17 1007 24 10000 0.9 286 11:30 05.06.2022
1110 Clouds 16 1009 27 10000 1.8 245 10:25 05.06.2022
1111 Clouds 16 1009 27 10000 1.8 245 09:58 05.06.2022
1112 Clouds 15 1011 29 10000 3.42 231 08:25 05.06.2022
1113 Clouds 15 1010 26 10000 4.84 232 06:48 05.06.2022
1114 Clouds 14 1010 26 10000 3.46 178 05:20 05.06.2022
1115 Clouds 15 1009 20 10000 2.67 207 02:58 05.06.2022
1116 Clouds 13 1009 21 10000 2.03 132 01:30 05.06.2022
1117 Clouds 10 1009 20 10000 2.61 115 23:49 04.06.2022
1118 Clouds 10 1009 18 10000 2.72 100 21:39 04.06.2022
1119 Clouds 11 1009 18 10000 2.74 98 19:49 04.06.2022
1120 Clouds 11 1010 18 10000 2.38 99 17:50 04.06.2022
1121 Clear 11 1009 22 10000 0.58 278 16:22 04.06.2022
1122 Clear 11 1009 22 10000 0.58 278 15:54 04.06.2022
1123 Clear 13 1009 21 10000 2.13 274 14:36 04.06.2022
1124 Clouds 19 1007 12 10000 4.85 253 11:48 04.06.2022
1125 Clouds 19 1007 12 10000 4.83 248 10:57 04.06.2022
1126 Clear 19 1008 13 10000 5.94 239 10:20 04.06.2022
1127 Clear 19 1008 13 10000 5.94 239 09:41 04.06.2022
1128 Clear 19 1008 14 10000 5.93 243 08:40 04.06.2022
1129 Clear 16 1010 18 10000 2.41 223 07:27 04.06.2022
1130 Clear 14 1012 19 10000 1.16 159 04:33 04.06.2022
1131 Clear 14 1012 19 10000 1.16 159 04:33 04.06.2022
1132 Clear 14 1012 19 10000 1.16 159 04:33 04.06.2022
1133 Clear 14 1012 19 10000 1.16 159 04:33 04.06.2022
1134 Clear 14 1012 19 10000 1.16 159 04:33 04.06.2022
1135 Clear 6 1016 39 10000 2.43 85 00:48 04.06.2022
1136 Clear 4 1016 41 10000 2.51 87 23:31 03.06.2022
1137 Clear 5 1016 41 10000 2.05 79 22:28 03.06.2022
1138 Clear 5 1015 40 10000 2 83 20:42 03.06.2022
1139 Clear 6 1015 38 10000 1.9 85 20:18 03.06.2022
1140 Clear 6 1015 36 10000 1.45 73 17:39 03.06.2022
1141 Clear 7 1015 36 10000 0.97 35 16:37 03.06.2022
1142 Clear 10 1014 32 10000 1.99 312 14:53 03.06.2022
1143 Clouds 13 1012 23 10000 4.21 319 12:52 03.06.2022
1144 Clouds 13 1012 23 10000 4.06 315 10:36 03.06.2022
1145 Clouds 13 1012 24 10000 3.91 325 09:37 03.06.2022
1146 Clear 12 1013 26 10000 4.39 330 07:54 03.06.2022
1147 Clear 11 1013 27 10000 4.47 338 07:26 03.06.2022
1148 Clear 11 1013 27 10000 4.47 338 06:31 03.06.2022
1149 Clear 9 1014 30 10000 4.03 342 04:40 03.06.2022
1150 Clouds 4 1014 92 504 1.23 274 00:22 03.06.2022
1151 Clouds 4 1014 96 62 2.38 234 22:35 02.06.2022
1152 Clouds 5 1012 81 4875 1.62 241 21:29 02.06.2022
1153 Clouds 7 1010 64 10000 3.92 313 20:22 02.06.2022
1154 Clouds 8 1009 41 10000 4.59 296 19:41 02.06.2022
1155 Clouds 10 1007 31 10000 2.7 300 19:19 02.06.2022
1156 Clouds 12 1005 24 10000 5.81 293 16:46 02.06.2022
1157 Clouds 13 1004 28 10000 4.42 274 16:20 02.06.2022
1158 Clouds 15 1002 38 10000 3.06 235 13:47 02.06.2022
1159 Clouds 16 1001 34 10000 6.7 223 13:26 02.06.2022
1160 Clouds 18 1000 21 10000 6.45 276 11:18 02.06.2022
1161 Clouds 19 1001 21 10000 7.45 277 10:19 02.06.2022
1162 Clouds 18 1001 22 10000 8.33 282 09:27 02.06.2022
1163 Clouds 18 1002 27 10000 7.17 284 08:25 02.06.2022
1164 Clouds 18 1002 27 10000 7.44 288 06:50 02.06.2022
1165 Clouds 15 1003 42 10000 6.29 286 03:54 02.06.2022
1166 Clear 14 1003 46 10000 4.57 284 02:30 02.06.2022
1167 Clouds 12 1003 72 10000 2.2 219 23:43 01.06.2022
1168 Clouds 12 1003 72 10000 2.2 219 23:43 01.06.2022
1169 Rain 12 1002 71 10000 2.48 208 22:21 01.06.2022
1170 Clouds 12 1002 71 10000 2.48 208 21:32 01.06.2022
1171 Clouds 13 1001 73 10000 2.86 200 20:39 01.06.2022
1172 Rain 14 1001 64 10000 2.34 231 19:52 01.06.2022
1173 Clouds 13 1000 63 10000 1.86 236 18:58 01.06.2022
1174 Clouds 14 999 53 10000 4.25 196 17:40 01.06.2022
1175 Clouds 15 999 51 10000 6.65 203 16:33 01.06.2022
1176 Clouds 14 1001 74 10000 2.98 114 14:52 01.06.2022
1177 Clouds 14 1002 74 10000 4.02 136 13:44 01.06.2022
1178 Clouds 21 997 38 10000 13.66 257 11:41 01.06.2022
1179 Clouds 20 999 38 10000 5.88 199 09:36 01.06.2022
1180 Clouds 21 1000 33 10000 9.52 220 08:29 01.06.2022
1181 Clouds 20 1001 38 10000 12.86 224 07:21 01.06.2022
1182 Clouds 21 1001 30 10000 9.79 239 04:59 01.06.2022
1183 Clouds 13 1004 30 10000 2.45 102 23:57 31.05.2022
1184 Clouds 13 1004 27 10000 2.43 96 22:59 31.05.2022
1185 Clouds 13 1004 27 10000 2.43 96 22:33 31.05.2022
1186 Clouds 13 1005 26 10000 2.29 98 21:45 31.05.2022
1187 Clouds 14 1005 24 10000 2.01 94 20:45 31.05.2022
1188 Clouds 14 1005 16 10000 2.48 96 19:53 31.05.2022
1189 Clouds 14 1005 16 10000 1.88 116 18:45 31.05.2022
1190 Clouds 15 1005 17 10000 1.66 121 17:49 31.05.2022
1191 Clouds 15 1005 18 10000 1.28 139 16:48 31.05.2022
1192 Clouds 16 1005 19 10000 0.91 164 15:40 31.05.2022
1193 Clouds 19 1004 26 10000 0.28 202 13:38 31.05.2022
1194 Clouds 21 1005 14 10000 1.33 246 12:19 31.05.2022
1195 Clouds 21 1006 14 10000 1.89 248 10:52 31.05.2022
1196 Clouds 20 1007 16 10000 2.69 251 08:41 31.05.2022
1197 Clouds 18 1008 18 10000 1.37 250 06:57 31.05.2022
1198 Clouds 16 1011 25 10000 0.74 278 04:46 31.05.2022
1199 Clouds 6 1015 59 10000 1.41 75 23:53 30.05.2022
1200 Clouds 6 1015 58 10000 1.55 64 23:25 30.05.2022
1201 Clouds 6 1015 58 10000 1.55 64 22:44 30.05.2022
1202 Clouds 7 1015 58 10000 1.83 53 21:47 30.05.2022
1203 Clouds 7 1015 56 10000 2.16 44 21:29 30.05.2022
1204 Clouds 8 1015 52 10000 2.3 46 19:51 30.05.2022
1205 Clouds 9 1014 47 10000 2.84 32 18:26 30.05.2022
1206 Clear 10 1014 43 10000 3.5 30 17:23 30.05.2022
1207 Clear 10 1014 43 10000 3.5 30 16:36 30.05.2022
1208 Clear 16 1010 26 10000 5.58 348 13:44 30.05.2022
1209 Clear 19 1008 19 10000 9.21 338 12:19 30.05.2022
1210 Clear 22 1005 23 10000 11.41 320 10:26 30.05.2022
1211 Clear 22 1005 20 10000 10.28 302 09:19 30.05.2022
1212 Clouds 18 1008 35 10000 1.78 321 06:28 30.05.2022
1213 Clouds 18 1008 35 10000 1.78 321 05:38 30.05.2022
1214 Clouds 14 1012 34 10000 1.32 90 01:30 30.05.2022
1215 Clear 9 1012 42 10000 1.49 141 22:49 29.05.2022
1216 Clear 9 1012 43 10000 0.97 113 22:29 29.05.2022
1217 Clear 10 1012 42 10000 0.8 47 20:51 29.05.2022
1218 Clear 10 1012 38 10000 1.01 98 19:30 29.05.2022
1219 Clear 11 1012 36 10000 1.75 88 18:35 29.05.2022
1220 Clear 12 1013 34 10000 1.96 40 16:51 29.05.2022
1221 Clear 13 1012 32 10000 2.58 14 15:47 29.05.2022
1222 Clear 15 1011 30 10000 2.85 0 14:56 29.05.2022
1223 Clouds 18 1009 24 10000 4.43 345 13:46 29.05.2022
1224 Clouds 20 1009 20 10000 7.95 314 11:34 29.05.2022
1225 Clouds 20 1009 20 10000 7.71 310 10:38 29.05.2022
1226 Clouds 19 1010 20 10000 7.32 316 08:39 29.05.2022
1227 Clouds 15 1012 22 10000 2.56 278 05:22 29.05.2022
1228 Clouds 15 1012 22 10000 2.56 278 04:43 29.05.2022
1229 Clouds 11 1014 26 10000 0.75 246 02:50 29.05.2022
1230 Clouds 6 1014 39 10000 1 45 23:49 28.05.2022
1231 Clouds 6 1014 37 10000 1.24 63 23:26 28.05.2022
1232 Clear 6 1014 37 10000 1.53 23 22:25 28.05.2022
1233 Clear 6 1014 37 10000 1.53 23 21:31 28.05.2022
1234 Clear 7 1013 34 10000 1.53 343 19:24 28.05.2022
1235 Clear 7 1013 34 10000 1.53 343 18:46 28.05.2022
1236 Clear 8 1013 32 10000 1.77 328 17:35 28.05.2022
1237 Clear 9 1013 30 10000 2 329 16:35 28.05.2022
1238 Clear 10 1012 28 10000 2.46 343 15:38 28.05.2022
1239 Clear 14 1008 20 10000 5.93 336 14:18 28.05.2022
1240 Clear 15 1007 19 10000 6.97 342 12:44 28.05.2022
1241 Clear 16 1006 18 10000 7.34 339 11:57 28.05.2022
1242 Clear 16 1005 19 10000 7.21 342 10:49 28.05.2022
1243 Clear 16 1005 20 10000 7.72 346 09:57 28.05.2022
1244 Clear 16 1005 20 10000 7.63 350 08:45 28.05.2022
1245 Clouds 14 1006 25 10000 7.37 355 07:23 28.05.2022
1246 Clouds 12 1005 39 10000 5.77 353 05:24 28.05.2022
1247 Clouds 12 1004 52 10000 4.63 344 02:43 28.05.2022
1248 Clouds 10 1004 74 10000 2.51 8 00:32 28.05.2022
1249 Clouds 11 1002 69 10000 3.15 348 22:51 27.05.2022
1250 Clouds 12 1001 70 10000 1.79 336 21:43 27.05.2022
1251 Clouds 12 1001 71 10000 1.14 313 20:49 27.05.2022
1252 Clouds 12 1001 72 10000 1.9 7 20:23 27.05.2022
1253 Clouds 12 1001 72 10000 1.9 7 19:41 27.05.2022
1254 Clouds 11 1002 81 10000 0.43 321 19:21 27.05.2022
1255 Clouds 12 1002 81 10000 0.68 59 17:52 27.05.2022
1256 Clouds 12 1002 79 10000 1.64 96 16:38 27.05.2022
1257 Clouds 14 1001 65 10000 0.86 210 15:22 27.05.2022
1258 Clouds 16 1000 56 10000 1.23 84 13:44 27.05.2022
1259 Clouds 16 1000 56 10000 2.9 22 12:35 27.05.2022
1260 Clouds 17 1001 51 10000 1.09 21 11:33 27.05.2022
1261 Clouds 17 1001 53 10000 1.26 45 10:52 27.05.2022
1262 Clouds 19 1001 42 10000 3.08 270 10:26 27.05.2022
1263 Clouds 19 1001 42 10000 3.08 270 09:32 27.05.2022
1264 Clouds 19 1002 45 10000 3.36 256 07:42 27.05.2022
1265 Clouds 16 1004 57 10000 1.55 255 05:32 27.05.2022
1266 Clouds 15 1006 64 10000 0.99 299 02:25 27.05.2022
1267 Clouds 13 1005 67 10000 1.32 29 00:19 27.05.2022
1268 Clouds 14 1005 64 10000 1.07 11 22:30 26.05.2022
1269 Clouds 14 1005 63 10000 0.94 23 21:34 26.05.2022
1270 Clouds 15 1005 61 10000 2.15 93 19:51 26.05.2022
1271 Clouds 15 1006 60 10000 2.79 32 19:19 26.05.2022
1272 Clouds 15 1006 58 10000 2.41 43 17:36 26.05.2022
1273 Clouds 15 1006 58 10000 2.41 43 17:36 26.05.2022
1274 Clouds 16 1006 55 10000 2.94 49 16:36 26.05.2022
1275 Clouds 16 1005 51 10000 3.32 47 15:41 26.05.2022
1276 Clouds 21 1003 30 10000 3.93 318 14:21 26.05.2022
1277 Clouds 22 1004 28 10000 6.7 313 12:35 26.05.2022
1278 Clouds 24 1004 27 10000 6.94 304 11:21 26.05.2022
1279 Clouds 23 1005 28 10000 7.03 311 09:40 26.05.2022
1280 Clouds 23 1006 27 10000 6.78 304 08:57 26.05.2022
1281 Clouds 24 1006 25 10000 6.95 283 07:38 26.05.2022
1282 Clouds 20 1011 25 10000 1.51 209 02:59 26.05.2022
1283 Clouds 13 1013 35 10000 2.45 103 00:20 26.05.2022
1284 Clouds 13 1013 34 10000 2.18 103 23:19 25.05.2022
1285 Clouds 14 1013 33 10000 2.03 114 21:47 25.05.2022
1286 Clouds 14 1013 33 10000 1.69 132 21:28 25.05.2022
1287 Clouds 15 1012 32 10000 1.81 116 19:59 25.05.2022
1288 Clouds 15 1013 31 10000 1.32 118 19:19 25.05.2022
1289 Clouds 16 1013 32 10000 0.79 148 17:30 25.05.2022
1290 Clouds 16 1012 30 10000 1.18 202 16:36 25.05.2022
1291 Clouds 17 1012 28 10000 1.47 213 15:53 25.05.2022
1292 Clouds 19 1012 28 10000 2 242 14:51 25.05.2022
1293 Clouds 19 1012 28 10000 2 242 14:32 25.05.2022
1294 Clouds 22 1011 23 10000 3.08 267 13:35 25.05.2022
1295 Clear 24 1012 20 10000 4.29 264 12:24 25.05.2022
1296 Clear 24 1012 19 10000 4.15 264 10:43 25.05.2022
1297 Clear 24 1013 19 10000 4.09 264 09:53 25.05.2022
1298 Clear 23 1014 21 10000 4.42 260 08:22 25.05.2022
1299 Clear 22 1015 25 10000 3.66 253 06:53 25.05.2022
1300 Clear 16 1019 41 10000 1.11 147 03:19 25.05.2022
1301 Clouds 11 1020 56 10000 1.63 142 23:53 24.05.2022
1302 Clouds 11 1019 55 10000 1.48 133 23:23 24.05.2022
1303 Clear 12 1019 54 10000 1.49 127 22:19 24.05.2022
1304 Clear 12 1019 54 10000 1.49 127 21:38 24.05.2022
1305 Clear 12 1018 53 10000 1.38 119 21:19 24.05.2022
1306 Clouds 13 1018 51 10000 1.76 110 19:45 24.05.2022
1307 Clouds 14 1017 45 10000 2.01 71 18:50 24.05.2022
1308 Clouds 15 1017 43 10000 1.96 81 16:41 24.05.2022
1309 Clouds 16 1016 42 10000 2.3 81 16:19 24.05.2022
1310 Clouds 16 1016 42 10000 2.3 81 16:19 24.05.2022
1311 Clouds 17 1016 43 10000 2.14 85 14:50 24.05.2022
1312 Clouds 21 1013 28 10000 1.87 212 13:52 24.05.2022
1313 Clouds 22 1012 23 10000 3.55 229 12:46 24.05.2022
1314 Clouds 23 1013 21 10000 7.61 232 10:29 24.05.2022
1315 Clouds 23 1013 21 10000 7.61 232 09:43 24.05.2022
1316 Clouds 23 1013 20 10000 7.88 233 08:49 24.05.2022
1317 Clouds 22 1013 23 10000 3.57 258 06:56 24.05.2022
1318 Clouds 18 1015 34 10000 0.6 115 03:48 24.05.2022
1319 Clouds 15 1016 45 10000 2.12 52 01:50 24.05.2022
1320 Clouds 13 1017 50 10000 2.35 47 01:19 24.05.2022
1321 Clouds 12 1015 50 10000 2.97 50 22:51 23.05.2022
1322 Clouds 12 1015 48 10000 2.89 54 21:55 23.05.2022
1323 Clouds 13 1015 45 10000 3.12 48 21:26 23.05.2022
1324 Clouds 14 1014 43 10000 3.11 47 20:26 23.05.2022
1325 Clouds 13 1015 45 10000 3.21 46 19:31 23.05.2022
1326 Clear 14 1015 42 10000 3.3 46 18:54 23.05.2022
1327 Clear 15 1015 39 10000 3.72 47 18:27 23.05.2022
1328 Clear 15 1014 36 10000 3.99 47 17:20 23.05.2022
1329 Clear 18 1011 27 10000 4.01 19 14:52 23.05.2022
1330 Clouds 23 1008 13 10000 5.31 334 12:56 23.05.2022
1331 Clouds 24 1008 10 10000 5.96 312 11:31 23.05.2022
1332 Clouds 25 1008 10 10000 6.25 298 09:50 23.05.2022
1333 Clouds 24 1008 13 10000 5.13 278 09:28 23.05.2022
1334 Clouds 24 1008 16 10000 3.71 260 08:20 23.05.2022
1335 Clouds 23 1009 18 10000 3.06 249 06:45 23.05.2022
1336 Clouds 20 1010 21 10000 1.78 251 05:25 23.05.2022
1337 Clouds 16 1011 28 10000 1.6 102 02:23 23.05.2022
1338 Clouds 16 1011 27 10000 1.73 103 01:37 23.05.2022
1339 Clouds 12 1011 28 10000 2.1 93 00:20 23.05.2022
1340 Clouds 12 1010 27 10000 1.88 92 22:36 22.05.2022
1341 Clouds 12 1010 26 10000 1.84 96 21:55 22.05.2022
1342 Clouds 12 1010 27 10000 1.51 82 20:54 22.05.2022
1343 Clouds 12 1010 27 10000 1.51 82 20:31 22.05.2022
1344 Clouds 13 1010 28 10000 0.94 73 19:56 22.05.2022
1345 Clear 13 1009 27 10000 0.82 75 18:55 22.05.2022
1346 Clear 14 1009 27 10000 0.1 307 18:25 22.05.2022
1347 Clear 14 1009 27 10000 0.1 307 17:34 22.05.2022
1348 Clear 14 1009 27 10000 0.6 316 16:36 22.05.2022
1349 Clear 17 1007 24 10000 1.66 274 14:49 22.05.2022
1350 Clouds 20 1007 22 10000 1.71 258 13:54 22.05.2022
1351 Clouds 22 1006 13 10000 2.53 259 12:52 22.05.2022
1352 Clouds 22 1006 13 10000 2.44 257 11:47 22.05.2022
1353 Clouds 22 1007 13 10000 3.01 268 09:45 22.05.2022
1354 Clouds 22 1008 14 10000 2.66 269 08:54 22.05.2022
1355 Clear 20 1009 17 10000 2.09 258 07:22 22.05.2022
1356 Clear 19 1010 19 10000 1.7 225 06:23 22.05.2022
1357 Clear 14 1014 33 10000 1.37 72 02:33 22.05.2022
1358 Clear 10 1015 46 10000 2.37 57 00:44 22.05.2022
1359 Clear 8 1015 48 10000 2.55 55 23:55 21.05.2022
1360 Clear 9 1014 48 10000 2.3 58 23:21 21.05.2022
1361 Clear 9 1014 47 10000 2.56 45 21:45 21.05.2022
1362 Clear 10 1014 45 10000 2.76 43 21:25 21.05.2022
1363 Clouds 11 1014 43 10000 2.86 43 20:25 21.05.2022
1364 Clear 10 1014 43 10000 3 39 19:35 21.05.2022
1365 Clear 12 1014 35 10000 3.45 36 17:57 21.05.2022
1366 Clear 13 1014 30 10000 3.5 34 16:53 21.05.2022
1367 Clear 15 1011 27 10000 3.59 10 14:38 21.05.2022
1368 Clouds 18 1010 23 10000 5.29 19 13:53 21.05.2022
1369 Clouds 19 1009 20 10000 6.52 18 12:57 21.05.2022
1370 Clouds 19 1009 20 10000 6.52 18 12:37 21.05.2022
1371 Clouds 20 1009 19 10000 7.35 359 10:44 21.05.2022
1372 Clouds 21 1009 20 10000 7.99 356 09:48 21.05.2022
1373 Clouds 21 1009 20 10000 6.75 353 08:58 21.05.2022
1374 Clouds 21 1009 20 10000 6.75 353 08:33 21.05.2022
1375 Clouds 18 1011 34 10000 2.37 266 04:33 21.05.2022
1376 Rain 12 1012 52 10000 1.63 50 00:58 21.05.2022
1377 Clouds 11 1012 54 10000 2.2 64 23:22 20.05.2022
1378 Clouds 11 1012 55 10000 1.93 67 22:24 20.05.2022
1379 Clouds 11 1012 55 10000 1.93 67 21:49 20.05.2022
1380 Clouds 11 1012 56 10000 2.37 53 20:58 20.05.2022
1381 Clouds 12 1012 56 10000 2.44 60 20:29 20.05.2022
1382 Clouds 12 1011 54 10000 2.04 81 19:27 20.05.2022
1383 Clouds 12 1011 54 10000 2.04 81 18:47 20.05.2022
1384 Clouds 13 1011 53 10000 2.53 82 17:37 20.05.2022
1385 Clouds 14 1011 49 10000 3.06 74 16:21 20.05.2022
1386 Clouds 14 1011 49 10000 3.06 74 15:53 20.05.2022
1387 Clouds 16 1009 42 10000 1.86 53 14:31 20.05.2022
1388 Clouds 19 1008 33 10000 1.04 0 13:56 20.05.2022
1389 Clouds 21 1007 22 10000 2.86 287 11:45 20.05.2022
1390 Clouds 21 1008 23 10000 2.87 248 10:23 20.05.2022
1391 Clouds 21 1009 25 10000 2.07 231 08:45 20.05.2022
1392 Clear 19 1011 32 10000 1.42 243 07:25 20.05.2022
1393 Clear 19 1011 32 10000 1.42 243 06:36 20.05.2022
1394 Clear 16 1013 40 10000 1.26 269 05:22 20.05.2022
1395 Clear 10 1015 66 10000 1.53 84 00:54 20.05.2022
1396 Clear 9 1015 70 10000 1.52 96 22:57 19.05.2022
1397 Clear 9 1015 70 10000 1.66 84 22:25 19.05.2022
1398 Clear 9 1015 70 10000 1.66 84 21:48 19.05.2022
1399 Clouds 10 1015 69 10000 1.67 94 21:23 19.05.2022
1400 Clouds 10 1015 69 10000 1.67 94 20:40 19.05.2022
1401 Clouds 10 1014 71 10000 1.05 77 19:53 19.05.2022
1402 Clouds 10 1015 70 10000 1.6 97 18:34 19.05.2022
1403 Clouds 10 1015 70 10000 1.75 76 17:31 19.05.2022
1404 Rain 12 1014 62 10000 0.74 80 15:21 19.05.2022
1405 Clouds 13 1014 56 10000 2.84 52 14:26 19.05.2022
1406 Clouds 14 1013 52 10000 4.82 34 13:50 19.05.2022
1407 Clouds 19 1010 28 10000 3.8 279 11:46 19.05.2022
1408 Clouds 20 1011 25 10000 3.44 247 09:34 19.05.2022
1409 Clouds 18 1012 30 10000 1.77 251 08:18 19.05.2022
1410 Clouds 17 1014 37 10000 1.12 261 06:18 19.05.2022
1411 Clouds 13 1016 52 10000 1.32 119 02:54 19.05.2022
1412 Clouds 9 1016 64 10000 1.75 95 00:44 19.05.2022
1413 Clouds 8 1015 68 10000 1.36 105 22:53 18.05.2022
1414 Clouds 8 1015 68 10000 1.36 105 22:35 18.05.2022
1415 Clouds 9 1015 68 10000 1.57 99 21:31 18.05.2022
1416 Clouds 9 1015 69 10000 1.49 94 20:54 18.05.2022
1417 Clouds 9 1015 69 10000 1.99 87 20:18 18.05.2022
1418 Clouds 9 1016 75 10000 1.6 89 18:34 18.05.2022
1419 Clouds 9 1016 74 10000 2.09 79 17:41 18.05.2022
1420 Clouds 9 1016 75 10000 1.96 64 17:23 18.05.2022
1421 Clouds 9 1016 75 10000 1.96 64 16:35 18.05.2022
1422 Clouds 9 1016 75 10000 1.31 71 15:42 18.05.2022
1423 Clouds 9 1016 77 10000 3.29 90 14:48 18.05.2022
1424 Clouds 10 1015 75 10000 3.58 96 13:47 18.05.2022
1425 Clouds 11 1014 73 10000 3.49 79 12:51 18.05.2022
1426 Clouds 10 1014 71 10000 4.9 113 11:37 18.05.2022
1427 Clouds 17 1010 36 10000 1.9 174 11:19 18.05.2022
1428 Clouds 20 1009 26 10000 3.16 302 09:56 18.05.2022
1429 Clouds 19 1010 23 10000 2.21 290 07:54 18.05.2022
1430 Clouds 19 1010 25 10000 2.02 297 06:48 18.05.2022
1431 Clouds 12 1013 47 10000 1.38 35 01:53 18.05.2022
1432 Clouds 8 1013 62 10000 1.75 47 00:23 18.05.2022
1433 Clouds 8 1012 60 10000 1.76 66 22:18 17.05.2022
1434 Clouds 9 1012 58 10000 1.98 69 21:20 17.05.2022
1435 Clouds 10 1012 56 10000 2.45 69 20:22 17.05.2022
1436 Clouds 10 1012 52 10000 2.63 66 19:28 17.05.2022
1437 Clouds 11 1012 52 10000 2.84 53 17:52 17.05.2022
1438 Clouds 11 1012 49 10000 3.08 35 17:18 17.05.2022
1439 Clouds 11 1012 49 10000 3.08 35 16:31 17.05.2022
1440 Clouds 13 1011 41 10000 4.36 47 15:32 17.05.2022
1441 Clouds 14 1009 34 10000 5.28 34 14:31 17.05.2022
1442 Clouds 15 1008 33 10000 5.65 358 13:37 17.05.2022
1443 Clouds 18 1006 21 10000 4.33 351 11:58 17.05.2022
1444 Clouds 18 1007 20 10000 2.15 322 09:38 17.05.2022
1445 Clouds 18 1007 20 10000 2.96 321 08:36 17.05.2022
1446 Clouds 17 1008 22 10000 2.48 307 06:52 17.05.2022
1447 Clouds 15 1009 20 10000 0.01 105 04:24 17.05.2022
1448 Clouds 12 1009 24 10000 1.84 102 00:46 17.05.2022
1449 Clouds 11 1009 22 10000 1.67 106 22:44 16.05.2022
1450 Clouds 11 1009 22 10000 1.42 89 21:52 16.05.2022
1451 Clouds 11 1009 23 10000 1.05 101 20:49 16.05.2022
1452 Clouds 11 1009 23 10000 1.01 107 19:57 16.05.2022
1453 Clouds 12 1010 22 10000 0.91 130 18:21 16.05.2022
1454 Clouds 13 1010 23 10000 0.69 307 16:24 16.05.2022
1455 Clouds 14 1009 20 10000 1.52 278 14:38 16.05.2022
1456 Clouds 18 1008 13 10000 1.98 247 13:23 16.05.2022
1457 Clouds 19 1008 12 10000 1.67 247 11:31 16.05.2022
1458 Clouds 18 1010 13 10000 1.84 253 09:47 16.05.2022
1459 Clouds 17 1012 14 10000 1.14 263 07:21 16.05.2022
1460 Clouds 15 1014 15 10000 0.63 243 04:41 16.05.2022
1461 Clear 6 1016 20 10000 2.04 81 23:44 15.05.2022
1462 Clear 6 1016 20 10000 1.68 79 22:34 15.05.2022
1463 Clear 7 1016 19 10000 2.04 79 21:47 15.05.2022
1464 Clear 7 1016 18 10000 1.75 87 20:59 15.05.2022
1465 Clear 7 1017 19 10000 1.31 102 19:53 15.05.2022
1466 Clear 8 1017 20 10000 0.4 161 17:52 15.05.2022
1467 Clear 9 1017 19 10000 0.57 297 16:31 15.05.2022
1468 Clouds 14 1016 14 10000 2.96 271 13:59 15.05.2022
1469 Clear 16 1015 11 10000 4.26 275 12:57 15.05.2022
1470 Clear 16 1015 10 10000 4.27 268 11:41 15.05.2022
1471 Clear 17 1016 11 10000 3.58 254 10:29 15.05.2022
1472 Clear 16 1016 11 10000 2.75 251 08:46 15.05.2022
1473 Clouds 15 1018 12 10000 2.09 255 06:58 15.05.2022
1474 Clouds 14 1019 13 10000 1.82 258 05:57 15.05.2022
1475 Clear 6 1022 27 10000 1.93 84 00:57 15.05.2022
1476 Clear 4 1022 25 10000 1.81 85 23:47 14.05.2022
1477 Clear 4 1021 25 10000 1.46 88 23:29 14.05.2022
1478 Clear 5 1021 25 10000 1.21 102 21:29 14.05.2022
1479 Clear 5 1021 25 10000 1.21 102 20:53 14.05.2022
1480 Clouds 6 1021 25 10000 0.98 113 19:40 14.05.2022
1481 Clouds 6 1021 25 10000 0.71 140 19:20 14.05.2022
1482 Clouds 6 1021 25 10000 0.71 140 18:46 14.05.2022
1483 Clouds 7 1021 24 10000 0.36 154 16:56 14.05.2022
1484 Clouds 8 1020 23 10000 0.74 266 15:33 14.05.2022
1485 Clouds 10 1019 21 10000 2.14 265 14:34 14.05.2022
1486 Clouds 10 1019 21 10000 2.14 265 14:34 14.05.2022
1487 Clouds 14 1016 14 10000 3.7 276 12:34 14.05.2022
1488 Clouds 14 1016 14 10000 3.72 271 11:35 14.05.2022
1489 Clouds 14 1017 14 10000 2.55 270 10:21 14.05.2022
1490 Clouds 14 1017 14 10000 2.55 270 09:54 14.05.2022
1491 Clouds 14 1018 14 10000 1.82 271 08:49 14.05.2022
1492 Clouds 12 1019 15 10000 2.37 269 06:47 14.05.2022
1493 Clouds 8 1022 22 10000 0.47 115 02:46 14.05.2022
1494 Clouds 2 1023 32 10000 1.92 87 23:44 13.05.2022
1495 Clouds 2 1023 31 10000 1.93 88 23:18 13.05.2022
1496 Clouds 2 1023 31 10000 1.93 88 22:43 13.05.2022
1497 Clouds 2 1022 31 10000 2 86 22:18 13.05.2022
1498 Clouds 3 1022 30 10000 1.99 91 20:46 13.05.2022
1499 Clouds 3 1022 30 10000 1.85 95 20:27 13.05.2022
1500 Clouds 4 1022 29 10000 1.77 108 19:28 13.05.2022
1501 Clouds 4 1021 28 10000 1.69 115 17:51 13.05.2022
1502 Clouds 5 1021 26 10000 1.47 115 17:28 13.05.2022
1503 Clouds 6 1021 24 10000 1.29 125 16:20 13.05.2022
1504 Clouds 6 1019 22 10000 1.29 167 15:29 13.05.2022
1505 Clouds 9 1018 17 10000 1.82 195 13:48 13.05.2022
1506 Clouds 11 1017 14 10000 1.67 210 12:32 13.05.2022
1507 Clouds 11 1018 14 10000 1.67 251 11:22 13.05.2022
1508 Clouds 11 1019 14 10000 1.71 266 09:34 13.05.2022
1509 Clear 10 1019 15 10000 1.65 261 08:44 13.05.2022
1510 Clear 10 1020 15 10000 1.37 241 07:48 13.05.2022
1511 Clear 9 1020 15 10000 2.15 247 06:33 13.05.2022
1512 Clear 9 1020 15 10000 2.15 247 06:33 13.05.2022
1513 Clear 9 1020 15 10000 2.15 247 06:33 13.05.2022
1514 Clear 5 1024 29 10000 1.17 129 03:29 13.05.2022
1515 Clear 0 1025 40 10000 2.1 95 00:24 13.05.2022
1516 Clouds 1 1025 40 10000 2.1 93 22:45 12.05.2022
1517 Clouds 1 1025 39 10000 2.06 92 21:56 12.05.2022
1518 Clouds 1 1025 39 10000 2.06 92 21:56 12.05.2022
1519 Clear 2 1025 38 10000 1.85 102 20:29 12.05.2022
1520 Clear 2 1025 38 10000 1.55 117 18:59 12.05.2022
1521 Clear 3 1024 33 10000 1.63 190 17:23 12.05.2022
1522 Clouds 4 1024 27 10000 2.06 212 16:18 12.05.2022
1523 Clouds 5 1022 22 10000 2.61 231 14:41 12.05.2022
1524 Clouds 8 1021 14 10000 1.58 250 13:41 12.05.2022
1525 Clouds 9 1021 12 10000 1.5 312 10:46 12.05.2022
1526 Clouds 8 1023 12 10000 0.26 338 09:28 12.05.2022
1527 Clouds 8 1023 12 10000 0.26 338 08:51 12.05.2022
1528 Clear 7 1024 14 10000 0.3 224 07:40 12.05.2022
1529 Clear 5 1026 17 10000 1.6 96 06:19 12.05.2022
1530 Clear 1 1029 39 10000 2.45 59 02:56 12.05.2022
1531 Clouds -2 1031 63 10000 2.59 60 00:35 12.05.2022
1532 Clouds -3 1030 68 10000 2.61 42 22:36 11.05.2022
1533 Clouds -2 1029 66 10000 2.66 31 21:50 11.05.2022
1534 Clouds -2 1027 64 10000 2.5 26 21:23 11.05.2022
1535 Clouds 0 1025 58 10000 3.05 33 18:49 11.05.2022
1536 Clouds 1 1023 60 10000 5.86 42 16:55 11.05.2022
1537 Snow 1 1021 60 10000 4.84 16 15:31 11.05.2022
1538 Snow 1 1021 60 10000 4.84 16 15:31 11.05.2022
1539 Snow 1 1021 60 10000 4.84 16 15:31 11.05.2022
1540 Snow 1 1021 60 10000 4.84 16 15:31 11.05.2022
1541 Snow 1 1021 60 10000 4.84 16 15:31 11.05.2022
1542 Snow 1 1021 60 10000 4.84 16 15:31 11.05.2022
1543 Clouds 2 1018 36 10000 3.02 342 14:39 11.05.2022
1544 Clouds 4 1016 21 10000 4.89 298 14:18 11.05.2022
1545 Clouds 7 1014 18 10000 7.67 312 11:54 11.05.2022
1546 Clouds 7 1014 17 10000 8.02 302 10:44 11.05.2022
1547 Clouds 7 1014 16 10000 6.93 293 08:40 11.05.2022
1548 Clouds 5 1018 21 10000 2.19 271 05:28 11.05.2022
1549 Clear -1 1022 29 10000 1.73 86 00:43 11.05.2022
1550 Clear -2 1021 31 10000 1.45 91 22:31 10.05.2022
1551 Clear -2 1021 31 10000 1.19 94 21:56 10.05.2022
1552 Clear -2 1021 31 10000 0.87 93 20:56 10.05.2022
1553 Clear -2 1021 30 10000 0.79 359 19:37 10.05.2022
1554 Clear 0 1020 28 10000 0.7 18 17:58 10.05.2022
1555 Clear 1 1020 26 10000 1.31 353 17:21 10.05.2022
1556 Clear 2 1019 22 10000 2.17 316 15:28 10.05.2022
1557 Clouds 5 1016 17 10000 6.45 311 12:45 10.05.2022
1558 Clouds 6 1016 18 10000 7.44 302 11:51 10.05.2022
1559 Clouds 7 1016 18 10000 7.83 299 11:20 10.05.2022
1560 Clouds 7 1016 18 10000 6.76 291 10:26 10.05.2022
1561 Clouds 6 1017 18 10000 5.05 278 09:25 10.05.2022
1562 Clear 4 1020 18 10000 2.98 271 07:22 10.05.2022
1563 Clear 0 1025 22 10000 1.53 314 03:57 10.05.2022
1564 Clear -4 1027 34 10000 1.48 35 00:57 10.05.2022
1565 Clear -4 1027 35 10000 1.89 21 22:56 09.05.2022
1566 Clear -4 1027 33 10000 1.96 18 21:50 09.05.2022
1567 Clear -3 1026 32 10000 1.99 7 20:54 09.05.2022
1568 Clear -2 1026 29 10000 1.99 358 19:23 09.05.2022
1569 Clear -1 1025 27 10000 2.06 355 17:51 09.05.2022
1570 Clear -1 1025 25 10000 1.87 357 16:38 09.05.2022
1571 Clear 0 1024 23 10000 2.83 352 15:52 09.05.2022
1572 Clear 1 1023 21 10000 3.86 349 15:24 09.05.2022
1573 Clouds 3 1020 17 10000 5.33 342 14:29 09.05.2022
1574 Clouds 3 1020 17 10000 5.33 342 13:50 09.05.2022
1575 Clouds 4 1018 15 10000 6.47 335 12:26 09.05.2022
1576 Clouds 4 1018 15 10000 6.47 335 11:32 09.05.2022
1577 Clouds 5 1018 15 10000 7.56 327 10:42 09.05.2022
1578 Clouds 6 1018 14 10000 7.98 315 08:45 09.05.2022
1579 Clouds 5 1018 19 10000 8.04 310 07:54 09.05.2022
1580 Clouds 3 1019 34 10000 3.12 349 03:21 09.05.2022
1581 Clouds 1 1019 52 10000 2.74 8 23:37 08.05.2022
1582 Clouds 2 1018 56 10000 2.6 7 22:56 08.05.2022
1583 Clear 2 1018 61 10000 2.51 1 21:55 08.05.2022
1584 Clear 3 1017 66 10000 2.46 355 20:35 08.05.2022
1585 Clouds 4 1017 67 10000 2.23 332 19:45 08.05.2022
1586 Clouds 4 1016 66 10000 1.98 321 18:54 08.05.2022
1587 Clouds 5 1015 65 10000 2.02 343 18:18 08.05.2022
1588 Clouds 5 1015 66 10000 3.34 359 16:44 08.05.2022
1589 Clouds 7 1013 65 10000 3.95 2 15:39 08.05.2022
1590 Clouds 11 1009 58 10000 4.36 308 14:45 08.05.2022
1591 Clouds 10 1008 68 10000 4.07 310 12:33 08.05.2022
1592 Clouds 19 1002 17 10000 8.31 254 10:32 08.05.2022
1593 Clouds 19 1004 17 10000 9.67 256 09:57 08.05.2022
1594 Clouds 18 1005 21 10000 9.13 251 08:57 08.05.2022
1595 Clouds 18 1007 24 10000 8.66 240 07:25 08.05.2022
1596 Clouds 16 1010 34 10000 8.01 231 03:40 08.05.2022
1597 Clouds 15 1011 37 10000 6.34 230 02:47 08.05.2022
1598 Clouds 10 1012 32 10000 3.12 134 00:28 08.05.2022
1599 Clouds 10 1012 32 10000 3.12 134 23:50 07.05.2022
1600 Clouds 10 1013 30 10000 2.98 120 22:46 07.05.2022
1601 Clouds 10 1013 28 10000 2.99 118 21:59 07.05.2022
1602 Clouds 10 1013 28 10000 2.99 118 21:34 07.05.2022
1603 Clouds 10 1013 26 10000 2.71 117 20:34 07.05.2022
1604 Clear 10 1014 27 10000 2.6 114 19:44 07.05.2022
1605 Clear 11 1014 24 10000 2.14 134 17:35 07.05.2022
1606 Clear 12 1015 23 10000 1.66 186 15:46 07.05.2022
1607 Clear 16 1013 20 10000 2.68 237 13:58 07.05.2022
1608 Clear 18 1013 14 10000 2.52 236 10:46 07.05.2022
1609 Clear 18 1014 14 10000 1.86 263 09:19 07.05.2022
1610 Clear 17 1015 15 10000 1.79 285 07:50 07.05.2022
1611 Clear 16 1016 16 10000 1.81 308 06:43 07.05.2022
1612 Clear 14 1017 20 10000 2.39 331 04:41 07.05.2022
1613 Clouds 8 1017 60 10000 1.29 31 01:24 07.05.2022
1614 Clouds 7 1016 66 10000 1.07 38 23:37 06.05.2022
1615 Clouds 9 1015 66 10000 0.86 42 22:27 06.05.2022
1616 Clouds 9 1015 66 10000 0.86 42 21:43 06.05.2022
1617 Clear 8 1015 70 10000 0.66 321 20:33 06.05.2022
1618 Clouds 9 1015 73 10000 1.55 211 19:29 06.05.2022
1619 Clouds 9 1015 73 10000 1.55 211 19:29 06.05.2022
1620 Clouds 9 1015 73 10000 1.55 211 18:57 06.05.2022
1621 Clouds 10 1014 68 10000 2.25 189 17:38 06.05.2022
1622 Clouds 12 1014 61 10000 1.9 177 16:23 06.05.2022
1623 Clouds 12 1014 61 10000 1.9 177 15:39 06.05.2022
1624 Clouds 12 1013 56 10000 3.89 200 14:33 06.05.2022
1625 Clouds 15 1010 50 10000 8.39 250 12:53 06.05.2022
1626 Clouds 15 1010 50 10000 8.39 250 12:33 06.05.2022
1627 Clouds 16 1009 40 10000 10.15 254 11:41 06.05.2022
1628 Clouds 18 1009 26 10000 6.36 229 10:26 06.05.2022
1629 Clouds 18 1009 26 10000 6.36 229 09:39 06.05.2022
1630 Clouds 17 1010 27 10000 5.75 227 07:59 06.05.2022
1631 Clouds 17 1010 28 10000 4.64 233 06:39 06.05.2022
1632 Clouds 14 1012 29 10000 2.27 216 04:37 06.05.2022
1633 Clouds 12 1013 32 10000 1.34 129 02:43 06.05.2022
1634 Clouds 7 1014 41 10000 2.1 116 23:36 05.05.2022
1635 Clouds 8 1013 33 10000 1.8 171 21:52 05.05.2022
1636 Clouds 9 1013 29 10000 1.67 189 20:53 05.05.2022
1637 Clouds 9 1013 28 10000 1.2 200 19:49 05.05.2022
1638 Clouds 10 1013 26 10000 0.66 271 16:54 05.05.2022
1639 Clouds 10 1012 25 10000 0.82 291 16:18 05.05.2022
1640 Clouds 11 1011 25 10000 0.76 297 14:43 05.05.2022
1641 Clouds 15 1010 18 10000 2.5 253 13:20 05.05.2022
1642 Clouds 15 1010 16 10000 2.96 251 12:24 05.05.2022
1643 Clouds 15 1010 15 10000 3.39 257 10:30 05.05.2022
1644 Clouds 15 1011 13 10000 2.92 255 09:34 05.05.2022
1645 Clouds 12 1013 10 10000 1.64 221 07:24 05.05.2022
1646 Clouds 5 1017 19 10000 1.84 73 02:33 05.05.2022
1647 Clouds 4 1019 29 10000 1.13 52 01:47 05.05.2022
1648 Clouds 2 1019 38 10000 2.34 57 01:21 05.05.2022
1649 Clouds 2 1019 44 10000 2.42 49 23:31 04.05.2022
1650 Clouds 3 1017 44 10000 2.55 46 22:25 04.05.2022
1651 Clouds 3 1017 44 10000 2.55 46 21:49 04.05.2022
1652 Clouds 4 1016 43 10000 2.82 42 21:26 04.05.2022
1653 Clouds 5 1015 41 10000 3 37 20:22 04.05.2022
1654 Clouds 5 1016 40 10000 2.74 32 19:51 04.05.2022
1655 Clouds 6 1015 39 10000 3 30 18:45 04.05.2022
1656 Clouds 7 1014 39 10000 3.39 31 18:20 04.05.2022
1657 Clouds 8 1013 38 10000 3.66 26 17:28 04.05.2022
1658 Clouds 9 1012 37 10000 5.53 22 15:38 04.05.2022
1659 Clouds 10 1010 37 10000 5.63 13 14:49 04.05.2022
1660 Clouds 12 1007 33 10000 6.02 10 14:20 04.05.2022
1661 Clouds 12 1007 33 10000 6.02 10 14:20 04.05.2022
1662 Clouds 14 1005 28 10000 6.99 357 12:58 04.05.2022
1663 Clouds 16 1004 28 10000 7.79 328 12:28 04.05.2022
1664 Clouds 17 1003 28 10000 8.67 305 10:33 04.05.2022
1665 Clouds 18 1002 28 10000 8.84 291 09:28 04.05.2022
1666 Clouds 18 1002 28 10000 8.84 291 08:33 04.05.2022
1667 Clouds 14 1003 52 10000 4.02 268 05:44 04.05.2022
1668 Clouds 11 1005 67 10000 1.33 183 02:43 04.05.2022
1669 Clouds 9 1005 85 10000 0.69 287 23:31 03.05.2022
1670 Clouds 10 1004 75 10000 1.9 113 22:20 03.05.2022
1671 Clouds 10 1004 75 10000 1.9 113 21:33 03.05.2022
1672 Clouds 10 1004 71 10000 2.58 118 20:52 03.05.2022
1673 Clouds 11 1004 62 10000 2.56 131 19:39 03.05.2022
1674 Clouds 12 1004 51 10000 0.94 90 18:48 03.05.2022
1675 Clouds 14 1003 38 10000 2.81 3 17:38 03.05.2022
1676 Rain 16 1003 26 10000 3.68 251 16:28 03.05.2022
1677 Clouds 16 1002 25 10000 3.1 250 14:43 03.05.2022
1678 Clouds 18 1000 23 10000 4.8 248 12:47 03.05.2022
1679 Clouds 19 1000 24 10000 5.8 243 12:25 03.05.2022
1680 Clouds 19 1000 24 10000 5.8 243 12:25 03.05.2022
1681 Clouds 19 1000 24 10000 6.22 243 10:52 03.05.2022
1682 Clouds 19 1001 26 10000 5.46 252 08:58 03.05.2022
1683 Clouds 18 1003 24 10000 4.72 260 06:46 03.05.2022
1684 Clouds 15 1004 22 10000 2.97 251 04:58 03.05.2022
1685 Clouds 8 1005 24 10000 1.82 123 23:44 02.05.2022
1686 Clouds 8 1005 23 10000 2.17 126 22:34 02.05.2022
1687 Clouds 8 1005 25 10000 1.16 109 21:49 02.05.2022
1688 Clouds 9 1005 22 10000 1.82 130 20:50 02.05.2022
1689 Clouds 10 1006 19 10000 2.27 152 18:35 02.05.2022
1690 Clouds 11 1006 18 10000 2.91 159 17:44 02.05.2022
1691 Clouds 11 1007 17 10000 2.87 157 16:50 02.05.2022
1692 Clouds 12 1006 15 10000 2.75 209 16:20 02.05.2022
1693 Clouds 15 1006 13 10000 5.47 236 15:19 02.05.2022
1694 Clouds 16 1005 14 10000 4.49 233 13:48 02.05.2022
1695 Clouds 18 1005 9 10000 6.83 246 12:18 02.05.2022
1696 Clouds 20 1006 8 10000 5.56 237 10:20 02.05.2022
1697 Clouds 19 1007 9 10000 5.82 231 08:46 02.05.2022
1698 Clouds 19 1008 9 10000 5.88 230 07:39 02.05.2022
1699 Clouds 8 1016 25 10000 2.46 105 01:58 02.05.2022
1700 Clouds 5 1016 27 10000 2.83 100 00:23 02.05.2022
1701 Clouds 5 1016 27 10000 2.83 100 23:46 01.05.2022
1702 Clouds 6 1017 26 10000 2.78 102 21:56 01.05.2022
1703 Clouds 7 1017 25 10000 2.66 102 20:58 01.05.2022
1704 Clear 7 1017 24 10000 2.54 101 19:49 01.05.2022
1705 Clear 8 1018 23 10000 2.18 106 18:55 01.05.2022
1706 Clear 8 1018 22 10000 1.72 121 18:18 01.05.2022
1707 Clear 9 1018 22 10000 1.27 150 16:55 01.05.2022
1708 Clear 10 1018 21 10000 1.27 196 16:23 01.05.2022
1709 Clear 11 1017 20 10000 1.56 224 15:22 01.05.2022
1710 Clouds 16 1016 14 10000 3.33 249 13:23 01.05.2022
1711 Clouds 16 1016 13 10000 3.09 246 10:50 01.05.2022
1712 Clouds 16 1018 13 10000 2.47 254 08:51 01.05.2022
1713 Clouds 15 1018 13 10000 2.52 260 07:42 01.05.2022
1714 Clouds 8 1023 27 10000 1.25 102 02:51 01.05.2022
1715 Clouds 4 1025 38 10000 2.27 94 22:58 30.04.2022
1716 Clouds 4 1024 37 10000 2.37 104 21:35 30.04.2022
1717 Clouds 5 1025 35 10000 2.05 102 20:35 30.04.2022
1718 Clouds 5 1025 35 10000 1.71 110 19:36 30.04.2022
1719 Clear 6 1026 33 10000 1.14 166 17:40 30.04.2022
1720 Clear 7 1026 32 10000 1.23 199 16:34 30.04.2022
1721 Clouds 9 1026 29 10000 2.05 236 15:19 30.04.2022
1722 Clouds 9 1026 29 10000 2.05 236 14:31 30.04.2022
1723 Clear 12 1024 20 10000 3.51 257 12:36 30.04.2022
1724 Clear 12 1024 20 10000 3.51 257 12:36 30.04.2022
1725 Clear 13 1024 20 10000 3.78 253 11:32 30.04.2022
1726 Clear 13 1025 20 10000 3.59 250 10:31 30.04.2022
1727 Clear 12 1026 22 10000 2.55 248 08:34 30.04.2022
1728 Clear 9 1029 27 10000 1.93 257 05:38 30.04.2022
1729 Clear 1 1033 49 10000 2.14 99 00:35 30.04.2022
1730 Clear 1 1033 49 10000 2.16 97 23:36 29.04.2022
1731 Clear 1 1032 47 10000 1.94 100 22:30 29.04.2022
1732 Clear 2 1032 44 10000 1.83 90 21:27 29.04.2022
1733 Clear 2 1032 44 10000 1.83 90 20:38 29.04.2022
1734 Clear 3 1032 42 10000 1.85 88 19:36 29.04.2022
1735 Clear 4 1032 39 10000 2.23 75 17:50 29.04.2022
1736 Clouds 5 1031 37 10000 2.38 66 16:56 29.04.2022
1737 Clouds 6 1029 32 10000 2.42 31 14:50 29.04.2022
1738 Clouds 8 1028 27 10000 2.74 12 14:20 29.04.2022
1739 Clouds 9 1027 24 10000 2.29 32 12:43 29.04.2022
1740 Clouds 10 1027 23 10000 1.91 8 10:58 29.04.2022
1741 Clouds 8 1028 25 10000 1.49 340 08:18 29.04.2022
1742 Clear 7 1029 26 10000 1.36 343 07:27 29.04.2022
1743 Clear 7 1029 26 10000 1.36 343 06:37 29.04.2022
1744 Clear 4 1032 30 10000 1 359 03:34 29.04.2022
1745 Clouds -2 1033 43 10000 2.05 58 00:18 29.04.2022
1746 Clouds -1 1033 42 10000 2.19 56 23:27 28.04.2022
1747 Clouds -1 1033 42 10000 2.19 56 22:41 28.04.2022
1748 Clouds -1 1033 40 10000 2.28 50 21:46 28.04.2022
1749 Clouds -1 1032 39 10000 2.26 50 20:55 28.04.2022
1750 Clouds -1 1032 39 10000 2.24 57 20:22 28.04.2022
1751 Clouds -1 1032 40 10000 2.57 54 19:40 28.04.2022
1752 Clear 0 1031 39 10000 2.62 56 19:21 28.04.2022
1753 Clear 0 1030 40 10000 2.85 55 18:23 28.04.2022
1754 Clear 1 1029 39 10000 2.96 52 16:59 28.04.2022
1755 Clear 2 1027 37 10000 3.12 45 16:21 28.04.2022
1756 Clear 2 1027 37 10000 3.12 45 15:57 28.04.2022
1757 Clear 3 1025 34 10000 3.28 24 15:27 28.04.2022
1758 Clouds 5 1022 26 10000 4.69 20 13:44 28.04.2022
1759 Clouds 6 1021 22 10000 5.8 26 12:38 28.04.2022
1760 Clouds 6 1020 21 10000 6.33 28 11:53 28.04.2022
1761 Clouds 7 1020 22 10000 6.81 27 10:37 28.04.2022
1762 Clouds 7 1019 24 10000 6.76 23 09:52 28.04.2022
1763 Clouds 5 1021 33 10000 6.12 39 08:20 28.04.2022
1764 Clouds 4 1021 39 10000 6.35 34 06:56 28.04.2022
1765 Clouds 3 1022 44 10000 5.46 39 05:54 28.04.2022
1766 Clouds 2 1023 54 10000 4.7 41 04:44 28.04.2022
1767 Snow 1 1024 64 10000 3.6 27 03:40 28.04.2022
1768 Clouds 0 1021 47 10000 2.21 47 23:52 27.04.2022
1769 Clouds 0 1020 48 10000 1.93 57 22:34 27.04.2022
1770 Clouds 1 1020 50 10000 2.32 51 21:51 27.04.2022
1771 Clouds 0 1020 56 10000 2.37 56 20:56 27.04.2022
1772 Clouds 0 1020 56 10000 2.37 56 20:34 27.04.2022
1773 Clouds 0 1020 56 10000 2.37 56 20:34 27.04.2022
1774 Clouds 0 1020 58 10000 2.94 64 19:37 27.04.2022
1775 Clouds 1 1019 53 10000 2.76 63 18:52 27.04.2022
1776 Clouds 1 1019 50 10000 2.84 75 18:21 27.04.2022
1777 Clouds 3 1017 41 10000 3.33 46 16:23 27.04.2022
1778 Clouds 6 1014 23 10000 2.45 294 14:26 27.04.2022
1779 Clouds 7 1013 20 10000 4.15 267 11:45 27.04.2022
1780 Clouds 8 1012 20 10000 4.56 259 11:20 27.04.2022
1781 Clouds 7 1013 25 10000 3.09 245 08:58 27.04.2022
1782 Clouds 5 1016 34 10000 1.98 248 06:45 27.04.2022
1783 Clouds 2 1020 57 10000 0.92 210 03:41 27.04.2022
1784 Clouds -1 1022 77 10000 1.22 103 01:30 27.04.2022
1785 Clouds -3 1022 87 10000 1.67 85 00:36 27.04.2022
1786 Clouds -3 1021 90 10000 1.2 96 23:25 26.04.2022
1787 Clouds -3 1021 90 10000 1.2 96 22:52 26.04.2022
1788 Clouds -3 1021 90 10000 1.2 96 22:34 26.04.2022
1789 Clouds -2 1020 89 10000 1.16 123 21:26 26.04.2022
1790 Clouds -2 1020 89 10000 1.16 123 20:40 26.04.2022
1791 Clouds -2 1020 88 10000 1.26 135 19:48 26.04.2022
1792 Clouds -1 1020 86 10000 1.48 125 19:26 26.04.2022
1793 Clouds -1 1020 86 10000 1.48 125 18:42 26.04.2022
1794 Clouds -1 1020 84 10000 1.58 131 17:50 26.04.2022
1795 Clouds 1 1019 76 10000 1.84 135 16:26 26.04.2022
1796 Clouds 2 1016 71 10000 1.01 301 13:58 26.04.2022
1797 Clouds 3 1015 62 6733 3.2 285 13:29 26.04.2022
1798 Clouds 4 1013 49 10000 3.17 304 11:48 26.04.2022
1799 Clouds 5 1012 42 10000 1.76 252 10:31 26.04.2022
1800 Clouds 3 1016 57 10000 2.88 185 08:47 26.04.2022
1801 Clouds 3 1016 44 10000 3.79 181 06:57 26.04.2022
1802 Clouds 0 1019 17 10000 1.21 148 04:23 26.04.2022
1803 Clouds -4 1022 26 10000 1.93 82 00:57 26.04.2022
1804 Clouds -4 1022 27 10000 2.38 81 00:20 26.04.2022
1805 Clouds -5 1024 28 10000 2.34 79 22:19 25.04.2022
1806 Clouds -5 1024 28 10000 2.34 79 21:33 25.04.2022
1807 Clouds -5 1025 29 10000 2.47 79 20:34 25.04.2022
1808 Clouds -5 1025 30 10000 2.09 90 18:54 25.04.2022
1809 Clouds -4 1025 28 10000 2.07 81 17:41 25.04.2022
1810 Clouds -3 1024 28 10000 1.9 77 16:50 25.04.2022
1811 Clear -2 1022 23 10000 1.56 30 15:23 25.04.2022
1812 Clear -2 1022 23 10000 1.56 30 14:34 25.04.2022
1813 Clear 1 1019 14 10000 2.29 283 13:29 25.04.2022
1814 Clear 2 1019 13 10000 2.59 285 10:58 25.04.2022
1815 Clear 1 1019 14 10000 2.59 286 09:42 25.04.2022
1816 Clear -1 1023 20 10000 1.14 311 08:23 25.04.2022
1817 Clear -4 1026 25 10000 1.57 338 06:18 25.04.2022
1818 Clear -8 1029 37 10000 2.38 34 01:49 25.04.2022
1819 Clear -8 1027 45 10000 2.14 6 23:57 24.04.2022
1820 Clear -8 1026 45 10000 2.62 358 23:28 24.04.2022
1821 Clear -8 1026 45 10000 2.62 358 22:39 24.04.2022
1822 Clear -7 1025 47 10000 3.1 347 21:56 24.04.2022
1823 Clear -7 1024 48 10000 2.62 332 21:22 24.04.2022
1824 Clear -7 1024 48 10000 2.62 332 20:46 24.04.2022
1825 Clouds -6 1023 48 10000 2.94 350 20:21 24.04.2022
1826 Clouds -5 1021 45 10000 4.06 355 18:54 24.04.2022
1827 Clouds -5 1019 52 10000 4.75 8 17:54 24.04.2022
1828 Clouds -5 1019 52 10000 4.75 8 17:54 24.04.2022
1829 Clouds -4 1016 63 10000 5.08 5 17:21 24.04.2022
1830 Clouds -4 1016 63 10000 5.08 5 16:55 24.04.2022
1831 Clouds -1 1011 67 10000 5 8 16:29 24.04.2022
1832 Clouds -1 1011 67 10000 5 8 15:52 24.04.2022
1833 Clouds 1 1005 65 10000 4.64 356 14:40 24.04.2022
1834 Clouds 4 1000 63 10000 5.37 344 13:38 24.04.2022
1835 Rain 6 998 58 10000 6.08 298 13:18 24.04.2022
1836 Clouds 7 996 66 5810 6.44 249 11:50 24.04.2022
1837 Clouds 6 997 72 8163 5.96 235 10:48 24.04.2022
1838 Clouds 7 997 62 10000 10.23 268 09:47 24.04.2022
1839 Clouds 11 996 33 10000 12.5 255 08:18 24.04.2022
1840 Clouds 10 998 34 10000 11.05 242 05:45 24.04.2022
1841 Clouds 6 1003 39 10000 2.55 203 02:48 24.04.2022
1842 Clouds 2 1005 53 10000 2.01 165 00:45 24.04.2022
1843 Clouds 2 1006 52 10000 2.19 167 23:55 23.04.2022
1844 Clouds 2 1006 51 10000 2.02 175 23:25 23.04.2022
1845 Clouds 2 1006 51 10000 2.02 175 22:39 23.04.2022
1846 Clouds 2 1006 49 10000 2.11 182 21:41 23.04.2022
1847 Clouds 3 1006 47 10000 2.3 188 21:22 23.04.2022
1848 Clouds 4 1005 46 10000 2.45 190 19:56 23.04.2022
1849 Clouds 5 1005 45 10000 2.16 186 19:20 23.04.2022
1850 Clouds 5 1005 45 10000 2.16 186 18:54 23.04.2022
1851 Clouds 5 1005 45 10000 2.16 186 18:32 23.04.2022
1852 Clouds 5 1006 44 10000 2.25 166 17:46 23.04.2022
1853 Clouds 5 1006 42 10000 1.63 123 16:45 23.04.2022
1854 Clouds 5 1005 40 10000 1.65 43 15:43 23.04.2022
1855 Clouds 9 1003 31 10000 7.27 280 13:24 23.04.2022
1856 Clouds 9 1003 25 10000 7.67 269 11:29 23.04.2022
1857 Clouds 9 1003 26 10000 7.74 260 09:39 23.04.2022
1858 Clouds 9 1004 26 10000 6.87 260 07:52 23.04.2022
1859 Clouds 4 1007 57 10000 0.94 310 03:57 23.04.2022
1860 Clouds 3 1008 68 10000 1.25 357 02:34 23.04.2022
1861 Clouds 0 1009 91 10000 1.13 154 23:34 22.04.2022
1862 Snow 1 1008 89 10000 1.51 308 22:40 22.04.2022
1863 Clouds 2 1006 97 99 3.03 297 21:55 22.04.2022
1864 Clouds 2 1006 97 99 3.03 297 21:55 22.04.2022
1865 Clouds 2 1006 97 99 3.03 297 21:37 22.04.2022
1866 Clouds 3 1005 81 3631 2.6 288 20:29 22.04.2022
1867 Clouds 4 1004 73 10000 1.8 192 19:23 22.04.2022
1868 Clouds 4 1004 73 10000 1.8 192 18:53 22.04.2022
1869 Clouds 4 1005 73 10000 2.61 272 18:24 22.04.2022
1870 Clouds 5 1005 70 10000 5.57 286 16:53 22.04.2022
1871 Clouds 7 1003 55 10000 8.44 284 15:57 22.04.2022
1872 Clouds 7 1001 49 10000 8.27 268 15:23 22.04.2022
1873 Clouds 7 1001 49 10000 8.27 268 14:37 22.04.2022
1874 Clouds 9 1000 43 10000 9.48 278 13:41 22.04.2022
1875 Clouds 10 999 34 10000 9.62 283 12:35 22.04.2022
1876 Clouds 11 999 28 10000 11.24 265 11:23 22.04.2022
1877 Clouds 11 999 28 10000 11.24 265 10:56 22.04.2022
1878 Clouds 11 999 28 10000 11.24 265 10:32 22.04.2022
1879 Clouds 12 999 27 10000 10.94 265 09:54 22.04.2022
1880 Clouds 11 1000 27 10000 10.43 270 08:56 22.04.2022
1881 Clouds 10 1001 30 10000 10.13 263 08:29 22.04.2022
1882 Clouds 9 1003 30 10000 8.3 251 05:31 22.04.2022
1883 Clouds 1 1008 44 10000 2.21 118 00:53 22.04.2022
1884 Clouds 1 1010 41 10000 2.46 106 23:29 21.04.2022
1885 Clouds 1 1010 41 10000 2.47 110 22:29 21.04.2022
1886 Clouds 0 1011 41 10000 2.85 104 21:22 21.04.2022
1887 Clouds 0 1012 40 10000 2.83 113 20:27 21.04.2022
1888 Clouds 1 1012 36 10000 2.53 128 18:49 21.04.2022
1889 Clouds 1 1012 34 10000 2.25 134 18:19 21.04.2022
1890 Clouds 2 1011 31 10000 2.03 151 16:53 21.04.2022
1891 Clouds 3 1010 29 10000 2 279 15:23 21.04.2022
1892 Clouds 3 1010 29 10000 2 279 14:51 21.04.2022
1893 Clouds 5 1008 27 10000 3.5 291 13:52 21.04.2022
1894 Clouds 6 1007 25 10000 5.96 297 13:19 21.04.2022
1895 Clouds 7 1007 24 10000 7.06 297 11:37 21.04.2022
1896 Clouds 7 1006 23 10000 7.25 273 09:23 21.04.2022
1897 Clouds 7 1007 24 10000 6.44 272 08:29 21.04.2022
1898 Clouds 4 1009 35 10000 2 236 06:25 21.04.2022
1899 Clouds 1 1012 46 10000 1.48 112 03:37 21.04.2022
1900 Clouds 0 1013 44 10000 1.88 107 02:56 21.04.2022
1901 Clouds 0 1013 44 10000 1.88 107 02:38 21.04.2022
1902 Clouds -3 1014 56 10000 1.11 80 00:25 21.04.2022
1903 Clouds -3 1015 58 10000 2.17 84 23:24 20.04.2022
1904 Clouds -3 1015 58 10000 2.17 84 22:52 20.04.2022
1905 Clouds -3 1015 58 10000 2.17 84 22:32 20.04.2022
1906 Clouds -3 1015 58 10000 2.17 84 22:32 20.04.2022
1907 Clouds -3 1015 59 10000 2.17 89 21:35 20.04.2022
1908 Clouds -4 1016 60 10000 2.71 96 20:42 20.04.2022
1909 Clouds -4 1017 59 10000 2.94 103 19:55 20.04.2022
1910 Clouds -3 1016 54 10000 2.52 108 19:29 20.04.2022
1911 Clouds -3 1016 54 10000 2.52 108 18:33 20.04.2022
1912 Clear -2 1015 48 10000 0.75 85 16:58 20.04.2022
1913 Clear -2 1015 48 10000 0.75 85 16:38 20.04.2022
1914 Clear 0 1014 44 10000 2.42 344 14:48 20.04.2022
1915 Clouds 4 1009 31 10000 5.05 341 11:56 20.04.2022
1916 Clouds 4 1009 31 10000 5.18 339 11:29 20.04.2022
1917 Clouds 4 1008 32 10000 5.61 336 10:29 20.04.2022
1918 Clouds 5 1008 35 10000 6.43 344 09:27 20.04.2022
1919 Clouds 5 1007 32 10000 5.85 333 08:24 20.04.2022
1920 Clouds 5 1007 42 10000 5.66 341 08:24 20.04.2022
1921 Clouds 5 1007 32 10000 5.85 333 07:43 20.04.2022
1922 Clouds 3 1007 63 10000 3.02 317 04:37 20.04.2022
1923 Clouds 3 1002 82 10000 2.9 340 00:55 20.04.2022
1924 Rain 3 1001 83 8520 2.06 347 00:20 20.04.2022
1925 Clouds 3 999 81 10000 0.87 139 22:40 19.04.2022
1926 Clouds 4 998 78 9293 1.53 176 22:19 19.04.2022
1927 Clouds 4 998 78 9293 1.53 176 21:38 19.04.2022
1928 Clouds 5 997 60 10000 2.07 269 20:56 19.04.2022
1929 Rain 5 997 60 10000 2.07 269 20:34 19.04.2022
1930 Clouds 7 996 43 10000 1.85 333 19:24 19.04.2022
1931 Clouds 8 995 31 10000 1.01 186 18:18 19.04.2022
1932 Clouds 9 996 27 10000 2.37 146 16:46 19.04.2022
1933 Clouds 9 998 27 10000 1.69 163 16:24 19.04.2022
1934 Clouds 10 999 26 10000 1.74 209 15:20 19.04.2022
1935 Clouds 10 999 26 10000 1.74 209 14:31 19.04.2022
1936 Clouds 13 998 17 10000 8.15 253 12:52 19.04.2022
1937 Clouds 14 999 13 10000 8.48 239 12:26 19.04.2022
1938 Clouds 14 999 13 10000 6.64 244 11:23 19.04.2022
1939 Clouds 14 1001 11 10000 5.61 240 09:26 19.04.2022
1940 Clouds 13 1004 15 10000 3.52 228 07:26 19.04.2022
1941 Clouds 8 1010 25 10000 1.47 155 04:19 19.04.2022
1942 Clouds 3 1013 38 10000 2.88 109 00:56 19.04.2022
1943 Clouds 3 1014 38 10000 2.67 103 23:38 18.04.2022
1944 Clouds 4 1015 37 10000 2.68 103 21:48 18.04.2022
1945 Clouds 4 1016 37 10000 2.6 104 21:24 18.04.2022
1946 Clouds 4 1016 37 10000 2.6 104 20:38 18.04.2022
1947 Clouds 4 1017 37 10000 2.58 111 19:59 18.04.2022
1948 Clouds 5 1018 36 10000 2.67 112 19:29 18.04.2022
1949 Clouds 5 1018 36 10000 2.67 112 18:34 18.04.2022
1950 Clouds 5 1019 35 10000 2.48 120 17:39 18.04.2022
1951 Clouds 5 1019 35 10000 2.48 120 17:39 18.04.2022
1952 Clouds 5 1019 35 10000 2.48 120 17:39 18.04.2022
1953 Clouds 6 1019 32 10000 1.88 148 17:19 18.04.2022
1954 Clouds 6 1019 32 10000 1.88 148 16:35 18.04.2022
1955 Clouds 7 1018 27 10000 1.83 218 15:28 18.04.2022
1956 Clouds 9 1016 26 10000 1.68 246 13:44 18.04.2022
1957 Clouds 11 1016 20 10000 2.91 250 12:40 18.04.2022
1958 Clouds 12 1016 17 10000 3.61 248 11:43 18.04.2022
1959 Clear 13 1016 16 10000 3.72 237 10:43 18.04.2022
1960 Clear 13 1016 16 10000 3.37 226 09:31 18.04.2022
1961 Clear 13 1016 16 10000 3.37 226 09:31 18.04.2022
1962 Clear 11 1018 19 10000 2.54 222 08:29 18.04.2022
1963 Clear 9 1021 29 10000 1.62 171 05:58 18.04.2022
1964 Clear 0 1028 55 10000 2.59 93 02:22 18.04.2022
1965 Clear -2 1029 61 10000 2.88 91 22:53 17.04.2022
1966 Clear -2 1029 61 10000 2.88 91 22:31 17.04.2022
1967 Clear -1 1029 61 10000 2.83 91 21:32 17.04.2022
1968 Clear -1 1029 62 10000 2.87 93 20:50 17.04.2022
1969 Clear 0 1030 64 10000 2.91 94 19:53 17.04.2022
1970 Clear 0 1030 64 10000 2.95 96 18:32 17.04.2022
1971 Clear 1 1029 63 10000 2.91 95 16:44 17.04.2022
1972 Clear 2 1029 61 10000 2.79 94 15:33 17.04.2022
1973 Clear 5 1025 52 10000 2.02 116 14:28 17.04.2022
1974 Clear 7 1024 44 10000 1.5 156 13:20 17.04.2022
1975 Clear 8 1024 41 10000 2.11 159 12:29 17.04.2022
1976 Clear 8 1024 39 10000 2.29 161 10:48 17.04.2022
1977 Clear 8 1024 39 10000 1.98 156 10:29 17.04.2022
1978 Clear 8 1024 39 10000 1.98 156 09:50 17.04.2022
1979 Clear 7 1025 39 10000 1.68 161 08:54 17.04.2022
1980 Clear 6 1025 40 10000 1.42 168 08:27 17.04.2022
1981 Clear 4 1027 39 10000 0.99 115 05:20 17.04.2022
1982 Clear -2 1032 54 10000 2.24 86 01:40 17.04.2022
1983 Clear -4 1032 58 10000 2.55 87 23:59 16.04.2022
1984 Clear -3 1031 58 10000 2.55 83 22:50 16.04.2022
1985 Clear -3 1031 57 10000 2.54 85 21:42 16.04.2022
1986 Clear -3 1031 57 10000 2.54 85 20:54 16.04.2022
1987 Clear -2 1030 56 10000 2.68 83 19:21 16.04.2022
1988 Clear -2 1030 56 10000 2.68 83 18:33 16.04.2022
1989 Clear -1 1029 54 10000 3.05 70 16:42 16.04.2022
1990 Clear -1 1027 54 10000 2.95 64 15:46 16.04.2022
1991 Clear 0 1026 53 10000 2.92 58 14:57 16.04.2022
1992 Clear 2 1024 49 10000 3.51 44 14:29 16.04.2022
1993 Clear 2 1024 49 10000 3.55 41 13:41 16.04.2022
1994 Clouds 4 1022 42 10000 4.8 36 12:35 16.04.2022
1995 Clouds 6 1020 28 10000 4.68 30 11:24 16.04.2022
1996 Clouds 7 1019 25 10000 3.56 31 09:59 16.04.2022
1997 Clouds 6 1020 24 10000 2.11 20 09:19 16.04.2022
1998 Clouds 6 1020 24 10000 2.11 20 08:31 16.04.2022
1999 Clear 5 1022 27 10000 1.94 16 06:59 16.04.2022
2000 Clear 0 1027 48 10000 1.51 54 03:48 16.04.2022
2001 Clear -6 1031 72 10000 2.97 52 00:38 16.04.2022
2002 Clear -6 1032 73 10000 2.78 59 23:34 15.04.2022
2003 Clear -6 1032 74 10000 2.74 68 22:38 15.04.2022
2004 Clear -6 1032 74 10000 2.69 78 21:59 15.04.2022
2005 Clear -5 1032 73 10000 2.73 74 21:18 15.04.2022
2006 Clear -5 1032 73 10000 2.73 74 21:18 15.04.2022
2007 Clear -5 1032 73 10000 2.73 74 21:18 15.04.2022
2008 Clear -5 1032 73 10000 2.73 74 20:31 15.04.2022
2009 Clouds -5 1033 73 10000 2.88 62 19:41 15.04.2022
2010 Clouds -5 1033 73 10000 3.07 63 18:55 15.04.2022
2011 Clouds -4 1033 73 10000 2.42 104 18:25 15.04.2022
2012 Clouds -4 1033 73 10000 2.42 104 17:48 15.04.2022
2013 Clouds -4 1032 71 10000 2.91 47 17:21 15.04.2022
2014 Clouds -3 1032 71 10000 2.03 69 16:23 15.04.2022
2015 Clouds -3 1032 71 10000 2.03 69 15:37 15.04.2022
2016 Clouds 0 1029 63 10000 2.65 40 13:55 15.04.2022
2017 Clouds 2 1027 56 10000 2.9 43 12:46 15.04.2022
2018 Clouds 3 1026 47 10000 3.5 46 11:59 15.04.2022
2019 Clouds 3 1026 47 10000 3.5 46 11:40 15.04.2022
2020 Clouds 4 1025 43 10000 2.62 43 10:45 15.04.2022
2021 Clouds 3 1026 42 10000 1.67 33 09:50 15.04.2022
2022 Clouds 3 1027 40 10000 0.98 51 09:21 15.04.2022
2023 Clouds 2 1028 42 10000 1.15 49 07:53 15.04.2022
2024 Clouds 1 1029 40 10000 0.94 4 06:46 15.04.2022
2025 Clouds -3 1033 51 10000 1.83 35 03:47 15.04.2022
2026 Clouds -8 1035 76 10000 2.62 56 23:32 14.04.2022
2027 Clouds -7 1035 77 10000 2.4 59 22:50 14.04.2022
2028 Clouds -7 1035 77 10000 2.4 59 22:31 14.04.2022
2029 Clouds -7 1034 79 10000 1.98 58 21:59 14.04.2022
2030 Clouds -7 1034 77 10000 2.45 61 21:30 14.04.2022
2031 Clouds -6 1033 82 10000 1.62 99 19:23 14.04.2022
2032 Clouds -6 1033 82 10000 1.62 99 18:30 14.04.2022
2033 Clouds -5 1032 76 10000 1.7 108 17:44 14.04.2022
2034 Clouds -5 1031 69 10000 2.06 95 16:46 14.04.2022
2035 Clouds -4 1030 53 10000 2.59 78 15:28 14.04.2022
2036 Clouds -4 1028 43 10000 1.33 47 13:47 14.04.2022
2037 Clouds -2 1027 33 10000 1.52 95 12:58 14.04.2022
2038 Clouds -2 1027 33 10000 1.52 95 12:31 14.04.2022
2039 Clouds -2 1027 32 10000 1.48 125 11:30 14.04.2022
2040 Snow -2 1027 33 10000 2 138 10:56 14.04.2022
2041 Snow -3 1028 35 6467 2.59 148 10:27 14.04.2022
2042 Snow -3 1028 36 9117 3.7 144 09:26 14.04.2022
2043 Clouds -3 1028 29 10000 3.92 126 07:36 14.04.2022
2044 Clouds -5 1030 47 10000 8.61 72 04:35 14.04.2022
2045 Clouds -9 1033 64 10000 4.63 39 23:45 13.04.2022
2046 Clouds -9 1032 72 10000 4.5 36 22:24 13.04.2022
2047 Clouds -9 1032 72 10000 4.5 36 21:42 13.04.2022
2048 Snow -8 1030 79 1787 2.88 30 20:27 13.04.2022
2049 Snow -8 1030 75 9704 3.69 47 19:46 13.04.2022
2050 Snow -7 1029 79 2167 2.75 23 18:36 13.04.2022
2051 Snow -7 1029 79 2167 2.75 23 18:36 13.04.2022
2052 Snow -7 1027 66 10000 2.31 336 17:24 13.04.2022
2053 Snow -7 1027 66 10000 2.31 336 16:44 13.04.2022
2054 Clouds -6 1026 53 10000 1.91 310 15:44 13.04.2022
2055 Clouds -6 1025 43 10000 2.31 289 15:19 13.04.2022
2056 Clouds -6 1025 43 10000 2.31 289 14:30 13.04.2022
2057 Clouds -5 1023 36 10000 3.63 309 13:36 13.04.2022
2058 Clouds -3 1022 28 10000 5.52 316 12:38 13.04.2022
2059 Clouds -2 1020 26 10000 7.08 323 11:24 13.04.2022
2060 Clouds -1 1020 27 10000 7.05 328 09:45 13.04.2022
2061 Clouds -1 1019 29 10000 6.66 328 08:43 13.04.2022
2062 Snow -1 1020 46 2321 3.83 298 07:23 13.04.2022
2063 Snow -1 1020 46 2321 3.83 298 06:46 13.04.2022
2064 Snow -3 1021 53 10000 1.62 323 06:18 13.04.2022
2065 Snow -5 1024 85 2118 1.19 345 00:25 13.04.2022
2066 Snow -5 1024 85 2118 1.19 345 23:46 12.04.2022
2067 Snow -4 1024 75 3911 1.4 301 22:20 12.04.2022
2068 Snow -4 1024 75 3911 1.4 301 21:42 12.04.2022
2069 Clouds -4 1024 65 10000 1.6 287 20:44 12.04.2022
2070 Clouds -4 1024 62 10000 1.78 279 19:54 12.04.2022
2071 Clouds -4 1025 65 10000 1.74 279 19:35 12.04.2022
2072 Clouds -4 1025 62 10000 1.88 270 18:50 12.04.2022
2073 Clouds -4 1025 58 10000 2.14 264 17:36 12.04.2022
2074 Clouds -3 1025 54 10000 2.59 266 16:33 12.04.2022
2075 Clouds -3 1025 48 10000 3.22 278 15:33 12.04.2022
2076 Clouds -3 1024 40 10000 4.84 287 14:33 12.04.2022
2077 Clouds -1 1023 34 10000 6.17 291 13:39 12.04.2022
2078 Clouds 0 1022 30 10000 7.48 295 13:20 12.04.2022
2079 Clouds 0 1022 28 10000 7.9 295 11:47 12.04.2022
2080 Clouds 1 1022 28 10000 7.71 293 11:24 12.04.2022
2081 Clouds 1 1023 25 10000 5.73 297 09:25 12.04.2022
2082 Clouds 0 1024 25 10000 4.56 305 08:26 12.04.2022
2083 Clouds -1 1026 24 10000 3.7 296 06:33 12.04.2022
2084 Clouds -2 1027 27 10000 3.1 301 05:36 12.04.2022
2085 Clear -6 1031 60 10000 1.22 19 01:47 12.04.2022
2086 Clear -7 1030 58 10000 1.81 22 23:20 11.04.2022
2087 Clear -6 1030 53 10000 2.14 20 21:50 11.04.2022
2088 Clear -6 1029 49 10000 2.46 13 21:18 11.04.2022
2089 Clear -6 1029 49 10000 2.46 13 20:30 11.04.2022
2090 Clear -6 1029 49 10000 2.46 13 20:30 11.04.2022
2091 Clouds -5 1029 43 10000 2.65 15 19:57 11.04.2022
2092 Clouds -5 1029 40 10000 2.42 22 19:22 11.04.2022
2093 Clouds -5 1029 40 10000 2.42 22 18:49 11.04.2022
2094 Clouds -4 1028 37 10000 2.68 28 17:57 11.04.2022
2095 Clouds -3 1027 35 10000 2.51 25 16:57 11.04.2022
2096 Clouds -3 1026 33 10000 2.09 30 16:25 11.04.2022
2097 Clouds -3 1026 36 10000 2.19 46 14:36 11.04.2022
2098 Clouds -1 1023 28 7132 3.89 26 12:54 11.04.2022
2099 Clouds -1 1023 28 7132 3.89 26 12:35 11.04.2022
2100 Clouds 0 1022 22 10000 3.34 331 11:42 11.04.2022
2101 Clouds 0 1021 22 10000 3.69 292 10:34 11.04.2022
2102 Clouds 0 1021 20 10000 2.75 265 09:30 11.04.2022
2103 Clouds -2 1025 19 10000 1.27 293 07:19 11.04.2022
2104 Clouds -7 1030 32 10000 1.45 92 02:32 11.04.2022
2105 Clear -9 1033 45 10000 2.25 94 22:54 10.04.2022
2106 Clear -9 1032 45 10000 2.23 98 22:26 10.04.2022
2107 Clear -9 1032 45 10000 2.23 98 21:33 10.04.2022
2108 Clear -8 1032 45 10000 2.24 103 20:33 10.04.2022
2109 Clear -8 1033 44 10000 1.96 94 19:45 10.04.2022
2110 Clear -8 1032 42 10000 2.09 91 19:23 10.04.2022
2111 Clear -8 1032 42 10000 2.09 91 18:45 10.04.2022
2112 Clear -7 1032 41 10000 1.26 78 17:56 10.04.2022
2113 Clear -7 1032 41 10000 1.26 78 17:56 10.04.2022
2114 Clear -7 1032 41 10000 1.26 78 17:37 10.04.2022
2115 Clear -7 1032 40 10000 0.98 44 16:33 10.04.2022
2116 Clear -6 1031 37 10000 2.17 34 15:30 10.04.2022
2117 Clouds -5 1028 30 10000 4.95 4 14:25 10.04.2022
2118 Clouds -4 1026 29 10000 6.41 359 12:35 10.04.2022
2119 Clouds -3 1025 28 10000 7.08 348 11:49 10.04.2022
2120 Clouds -3 1024 26 10000 7.49 338 11:29 10.04.2022
2121 Clouds -3 1024 26 10000 7.49 338 10:56 10.04.2022
2122 Clouds -3 1023 27 10000 7.69 327 09:58 10.04.2022
2123 Clouds -3 1023 27 10000 7.69 327 09:37 10.04.2022
2124 Clouds -3 1023 27 10000 10.5 311 08:22 10.04.2022
2125 Clouds -2 1020 21 10000 10.41 314 07:27 10.04.2022
2126 Clouds -2 1019 28 10000 9.61 320 05:46 10.04.2022
2127 Snow -1 1011 52 10000 3.38 280 02:25 10.04.2022
2128 Clear -2 1011 57 10000 1.56 241 00:27 10.04.2022
2129 Clear -2 1011 57 10000 1.56 241 23:48 09.04.2022
2130 Clear -2 1010 55 10000 1.53 352 22:47 09.04.2022
2131 Clear -1 1009 52 10000 1.6 12 21:35 09.04.2022
2132 Clear 0 1008 44 10000 2.26 352 20:48 09.04.2022
2133 Clouds 1 1006 36 10000 1.49 284 20:25 09.04.2022
2134 Clouds 1 1006 38 10000 2.34 281 19:41 09.04.2022
2135 Clouds 3 1005 33 10000 2.27 245 18:55 09.04.2022
2136 Clouds 3 1004 30 10000 2.31 210 18:19 09.04.2022
2137 Clouds 3 1004 30 10000 2.31 210 17:34 09.04.2022
2138 Clouds 4 1003 28 10000 1.83 212 16:47 09.04.2022
2139 Clouds 4 1004 28 10000 1.07 236 15:55 09.04.2022
2140 Clouds 5 1004 26 10000 2.01 267 15:28 09.04.2022
2141 Clouds 7 1003 21 10000 4.65 269 14:27 09.04.2022
2142 Clouds 7 1003 21 10000 4.65 269 13:54 09.04.2022
2143 Clouds 9 1002 17 10000 6.34 270 12:59 09.04.2022
2144 Clouds 9 1002 17 10000 6.34 270 12:34 09.04.2022
2145 Clouds 9 1003 18 10000 8.7 259 11:21 09.04.2022
2146 Clear 9 1004 18 10000 6.64 263 10:20 09.04.2022
2147 Clear 9 1004 18 10000 6.64 263 09:37 09.04.2022
2148 Clear 9 1004 18 10000 6.61 275 08:50 09.04.2022
2149 Clear 8 1006 14 10000 6.62 289 06:48 09.04.2022
2150 Clouds 3 1007 72 10000 2.24 244 01:31 09.04.2022
2151 Clouds 4 1004 72 10000 3.77 278 23:25 08.04.2022
2152 Rain 6 1002 65 10000 5.12 253 21:58 08.04.2022
2153 Clouds 6 1002 60 10000 3.2 223 20:47 08.04.2022
2154 Clouds 6 1002 52 10000 2.88 207 20:23 08.04.2022
2155 Clouds 7 1002 47 10000 3.06 205 19:18 08.04.2022
2156 Clouds 8 1002 45 10000 3.2 217 18:28 08.04.2022
2157 Clouds 8 1002 45 10000 3.2 217 17:45 08.04.2022
2158 Clouds 8 1002 48 10000 3.06 190 17:22 08.04.2022
2159 Clouds 8 1002 48 10000 3.06 190 16:38 08.04.2022
2160 Clouds 9 1002 47 10000 2.37 170 15:53 08.04.2022
2161 Clouds 10 1003 46 10000 1.49 179 15:23 08.04.2022
2162 Clouds 10 1003 41 10000 0.94 232 14:26 08.04.2022
2163 Clouds 10 1003 43 10000 1.05 56 13:41 08.04.2022
2164 Clouds 11 1002 32 10000 1.86 243 13:22 08.04.2022
2165 Clouds 13 1003 24 10000 6.52 265 11:51 08.04.2022
2166 Rain 14 1002 19 10000 8.06 243 10:32 08.04.2022
2167 Clouds 14 1004 20 10000 4.94 225 09:26 08.04.2022
2168 Clouds 14 1004 20 10000 4.94 225 08:30 08.04.2022
2169 Clouds 13 1007 26 10000 2.96 230 06:47 08.04.2022
2170 Clouds 10 1009 27 10000 1.41 173 04:32 08.04.2022
2171 Clear 2 1013 40 10000 2.86 97 00:33 08.04.2022
2172 Clouds 3 1013 39 10000 2.62 92 23:59 07.04.2022
2173 Clouds 3 1012 39 10000 2.59 92 22:58 07.04.2022
2174 Clouds 3 1012 39 10000 2.59 92 22:37 07.04.2022
2175 Clouds 4 1012 38 10000 2.61 92 22:19 07.04.2022
2176 Clouds 4 1012 38 10000 2.61 92 21:47 07.04.2022
2177 Clear 4 1012 38 10000 2.5 92 20:57 07.04.2022
2178 Clear 4 1012 38 10000 2.5 92 20:30 07.04.2022
2179 Clouds 6 1012 36 10000 2.74 101 17:57 07.04.2022
2180 Clouds 7 1012 35 10000 2.69 104 17:24 07.04.2022
2181 Clouds 7 1012 35 10000 2.69 104 16:43 07.04.2022
2182 Clouds 8 1012 31 10000 1.77 98 16:18 07.04.2022
2183 Clouds 8 1011 29 10000 0.08 353 14:31 07.04.2022
2184 Clouds 10 1009 25 10000 1.64 289 13:41 07.04.2022
2185 Clouds 13 1008 20 10000 3.53 284 12:40 07.04.2022
2186 Clouds 15 1008 17 10000 3.43 257 10:58 07.04.2022
2187 Clouds 15 1008 18 10000 2.92 245 09:36 07.04.2022
2188 Clouds 15 1009 19 10000 2.51 248 08:35 07.04.2022
2189 Clouds 12 1012 25 10000 1.54 177 06:29 07.04.2022
2190 Clouds 5 1016 34 10000 2.26 89 02:40 07.04.2022
2191 Clouds 2 1018 38 10000 2.9 87 01:52 07.04.2022
2192 Clouds 2 1019 40 10000 3.06 85 23:56 06.04.2022
2193 Clouds 2 1019 40 10000 3.06 85 22:46 06.04.2022
2194 Clouds 2 1019 41 10000 3.08 85 22:24 06.04.2022
2195 Clouds 2 1019 41 10000 3.08 85 21:31 06.04.2022
2196 Clouds 3 1020 41 10000 3 88 20:27 06.04.2022
2197 Clouds 2 1021 42 10000 2.98 88 19:53 06.04.2022
2198 Clouds 3 1021 42 10000 3.03 85 18:50 06.04.2022
2199 Clouds 3 1022 42 10000 3.05 83 17:52 06.04.2022
2200 Clouds 4 1022 42 10000 3.05 86 17:28 06.04.2022
2201 Clouds 4 1022 42 10000 3.05 86 16:35 06.04.2022
2202 Clouds 5 1022 42 10000 3.04 87 15:47 06.04.2022
2203 Clouds 7 1020 39 10000 2.7 97 14:20 06.04.2022
2204 Clouds 10 1018 33 10000 2.24 111 12:58 06.04.2022
2205 Clouds 12 1018 29 10000 1.83 121 11:54 06.04.2022
2206 Clouds 12 1019 28 10000 1.36 127 10:43 06.04.2022
2207 Clouds 12 1019 29 10000 1.17 135 10:19 06.04.2022
2208 Clouds 12 1020 30 10000 1.26 139 09:27 06.04.2022
2209 Clouds 12 1020 30 10000 1.26 139 08:30 06.04.2022
2210 Clouds 10 1021 36 10000 1.5 134 07:38 06.04.2022
2211 Clear 2 1028 51 10000 2.05 88 02:57 06.04.2022
2212 Clouds -1 1029 59 10000 2.86 84 23:51 05.04.2022
2213 Clear -1 1029 58 10000 2.67 89 22:28 05.04.2022
2214 Clear 0 1029 58 10000 2.77 88 21:18 05.04.2022
2215 Clear 0 1029 57 10000 2.69 88 20:25 05.04.2022
2216 Clear 0 1029 58 10000 2.51 82 19:26 05.04.2022
2217 Clear 1 1028 56 10000 2.66 80 17:52 05.04.2022
2218 Clear 2 1027 55 10000 2.72 81 16:51 05.04.2022
2219 Clear 3 1026 53 10000 2.86 76 15:53 05.04.2022
2220 Clear 3 1026 53 10000 2.86 76 15:33 05.04.2022
2221 Clouds 6 1022 44 10000 2.23 52 14:22 05.04.2022
2222 Clouds 9 1020 38 10000 2.49 5 12:56 05.04.2022
2223 Clouds 10 1020 38 10000 3.29 358 11:50 05.04.2022
2224 Clouds 10 1020 38 10000 3.29 358 11:32 05.04.2022
2225 Clouds 10 1019 40 10000 2.95 359 09:49 05.04.2022
2226 Clouds 10 1020 40 10000 1.91 357 08:52 05.04.2022
2227 Clouds 9 1021 37 10000 0.49 322 06:43 05.04.2022
2228 Clouds -1 1027 54 10000 2.42 86 00:39 05.04.2022
2229 Clouds -2 1027 55 10000 2.74 88 22:41 04.04.2022
2230 Clouds -1 1027 54 10000 2.83 86 22:19 04.04.2022
2231 Clouds -1 1028 55 10000 2.9 88 21:21 04.04.2022
2232 Clouds -1 1028 55 10000 2.9 88 20:49 04.04.2022
2233 Clouds -1 1028 56 10000 2.9 88 19:44 04.04.2022
2234 Clouds -1 1029 57 10000 3.18 98 19:25 04.04.2022
2235 Clouds -1 1029 58 10000 3.28 98 17:55 04.04.2022
2236 Clouds 0 1029 58 10000 3.45 100 16:36 04.04.2022
2237 Clouds 0 1029 58 10000 3.45 100 16:36 04.04.2022
2238 Clouds 0 1029 57 10000 3.24 101 15:43 04.04.2022
2239 Clouds 2 1026 52 10000 2.78 101 15:25 04.04.2022
2240 Clouds 2 1026 52 10000 2.78 101 14:45 04.04.2022
2241 Clear 7 1022 37 10000 0.75 330 13:22 04.04.2022
2242 Clear 8 1021 37 10000 1.62 323 11:49 04.04.2022
2243 Clear 9 1021 38 10000 2.18 314 11:28 04.04.2022
2244 Clouds 8 1022 35 10000 1.72 256 08:29 04.04.2022
2245 Clouds 2 1026 43 10000 1.06 138 03:52 04.04.2022
2246 Clouds -4 1028 56 10000 2.26 85 00:41 04.04.2022
2247 Clouds -4 1028 55 10000 2.73 95 22:36 03.04.2022
2248 Clouds -4 1027 55 10000 2.61 86 21:44 03.04.2022
2249 Clouds -3 1027 54 10000 2.77 90 20:53 03.04.2022
2250 Clouds -3 1027 52 10000 2.8 89 19:45 03.04.2022
2251 Clouds -3 1027 50 10000 2.84 91 18:31 03.04.2022
2252 Clear -3 1027 49 10000 3.08 90 17:47 03.04.2022
2253 Clear -2 1026 48 10000 3.03 88 16:50 03.04.2022
2254 Clear -2 1026 48 10000 3.03 88 16:31 03.04.2022
2255 Clear 0 1024 43 10000 2.94 73 14:39 03.04.2022
2256 Clouds 3 1021 39 10000 2.81 48 13:47 03.04.2022
2257 Clouds 6 1019 32 10000 3.67 9 12:38 03.04.2022
2258 Clouds 8 1017 27 10000 3.91 346 10:58 03.04.2022
2259 Clouds 8 1017 27 10000 3.87 352 09:36 03.04.2022
2260 Clouds 8 1017 29 10000 2.2 327 08:27 03.04.2022
2261 Clouds 4 1020 29 10000 0.31 108 04:37 03.04.2022
2262 Clouds -3 1024 40 10000 2.7 80 00:41 03.04.2022
2263 Clouds -4 1023 40 10000 2.86 90 23:21 02.04.2022
2264 Clouds -3 1023 39 10000 3.05 93 21:58 02.04.2022
2265 Clouds -3 1023 39 10000 3.05 93 21:36 02.04.2022
2266 Clouds -2 1022 39 10000 2.98 97 21:18 02.04.2022
2267 Clouds -2 1023 38 10000 2.92 94 19:32 02.04.2022
2268 Clouds -2 1023 37 10000 3.38 97 18:21 02.04.2022
2269 Clouds -2 1023 37 10000 3.38 97 17:53 02.04.2022
2270 Clouds 0 1023 41 10000 3.58 97 16:25 02.04.2022
2271 Clouds 1 1021 43 10000 3.35 99 15:21 02.04.2022
2272 Clouds 1 1021 43 10000 3.35 99 14:49 02.04.2022
2273 Clouds 1 1021 43 10000 3.35 99 14:49 02.04.2022
2274 Clouds 2 1019 44 10000 3.04 104 13:35 02.04.2022
2275 Clouds 5 1018 37 10000 2.49 114 12:38 02.04.2022
2276 Clouds 8 1017 30 10000 2.04 148 11:23 02.04.2022
2277 Clouds 8 1018 28 10000 1.75 163 08:50 02.04.2022
2278 Clouds 6 1021 25 10000 1.68 152 06:51 02.04.2022
2279 Clouds 0 1028 27 10000 1.96 101 03:52 02.04.2022
2280 Clouds -6 1034 36 10000 3.35 91 23:57 01.04.2022
2281 Clouds -6 1034 37 10000 3.3 89 23:22 01.04.2022
2282 Clouds -6 1034 37 10000 3.34 91 21:34 01.04.2022
2283 Clouds -6 1035 37 10000 3.39 91 20:51 01.04.2022
2284 Clouds -6 1035 37 10000 3.54 94 20:25 01.04.2022
2285 Clouds -6 1036 37 10000 3.51 94 19:32 01.04.2022
2286 Clouds -5 1036 37 10000 3.51 93 18:45 01.04.2022
2287 Clouds -5 1036 38 10000 3.55 97 17:47 01.04.2022
2288 Clouds -4 1036 41 10000 3.53 95 16:52 01.04.2022
2289 Clouds -3 1035 46 10000 3.56 99 15:39 01.04.2022
2290 Clouds 0 1032 47 10000 3.22 108 14:21 01.04.2022
2291 Clouds -1 1032 47 10000 3.34 106 13:34 01.04.2022
2292 Clouds 2 1030 39 10000 2.76 121 12:32 01.04.2022
2293 Clouds 2 1030 39 10000 2.76 121 12:32 01.04.2022
2294 Clouds 4 1028 33 10000 2.57 141 11:40 01.04.2022
2295 Clouds 5 1029 26 10000 2.23 163 10:19 01.04.2022
2296 Clouds 4 1030 25 10000 2.12 160 08:47 01.04.2022
2297 Clouds 2 1034 22 10000 1.59 153 06:54 01.04.2022
2298 Clouds -2 1039 24 10000 1.66 127 04:51 01.04.2022
2299 Clouds -2 1039 24 10000 1.66 127 04:31 01.04.2022
2300 Clear -11 1048 35 10000 2.68 89 01:56 01.04.2022
2301 Clear -11 1049 46 10000 2.94 84 22:58 31.03.2022
2302 Clear -11 1049 50 10000 2.93 84 21:51 31.03.2022
2303 Clear -11 1049 50 10000 2.93 84 21:32 31.03.2022
2304 Clear -11 1049 57 10000 2.86 84 20:29 31.03.2022
2305 Clear -11 1049 57 10000 2.86 84 19:49 31.03.2022
2306 Clear -10 1049 61 10000 2.9 84 18:44 31.03.2022
2307 Clear -10 1048 61 10000 2.89 79 17:49 31.03.2022
2308 Clear -9 1048 59 10000 3.01 71 16:38 31.03.2022
2309 Clear -8 1047 57 10000 2.97 58 15:43 31.03.2022
2310 Clear -6 1044 53 10000 2.89 54 15:19 31.03.2022
2311 Clear -6 1044 53 10000 2.89 54 14:35 31.03.2022
2312 Clear 0 1036 37 10000 4.02 350 11:57 31.03.2022
2313 Clear 0 1036 32 10000 4.9 339 11:20 31.03.2022
2314 Clear 1 1035 31 10000 5.26 331 09:44 31.03.2022
2315 Clouds 1 1035 34 10000 4.18 319 07:55 31.03.2022
2316 Clouds -2 1037 67 10000 1.77 262 05:23 31.03.2022
2317 Snow -5 1036 89 1802 0.17 107 23:43 30.03.2022
2318 Snow -5 1035 89 598 1.05 34 22:32 30.03.2022
2319 Snow -6 1035 78 2591 1.01 77 21:39 30.03.2022
2320 Clouds -6 1033 70 10000 1.69 117 20:53 30.03.2022
2321 Clouds -5 1032 63 10000 2.25 122 19:59 30.03.2022
2322 Clouds -3 1031 60 10000 2.71 133 19:19 30.03.2022
2323 Snow -3 1030 50 8337 2.27 145 18:18 30.03.2022
2324 Snow -3 1030 50 8337 2.27 145 17:44 30.03.2022
2325 Clouds -3 1030 44 10000 2.27 98 16:54 30.03.2022
2326 Clouds -3 1030 44 10000 2.27 98 16:31 30.03.2022
2327 Clouds -3 1029 44 10000 2.98 83 14:56 30.03.2022
2328 Clouds -2 1028 43 10000 2.67 93 13:35 30.03.2022
2329 Clouds 1 1026 36 10000 2.16 113 12:42 30.03.2022
2330 Clouds 2 1025 29 10000 1.47 145 10:55 30.03.2022
2331 Clouds 2 1025 26 10000 1.46 125 09:58 30.03.2022
2332 Clouds 2 1026 25 10000 1.65 200 08:57 30.03.2022
2333 Clouds 2 1026 22 10000 1.58 232 07:31 30.03.2022
2334 Clear 0 1029 25 10000 1.08 152 05:40 30.03.2022
2335 Clear -4 1032 33 10000 1.95 95 03:31 30.03.2022
2336 Clouds -10 1034 52 10000 2.79 82 23:42 29.03.2022
2337 Clouds -9 1032 60 10000 2.79 80 22:19 29.03.2022
2338 Clouds -9 1032 60 10000 2.79 80 21:41 29.03.2022
2339 Clouds -9 1031 64 10000 2.6 81 20:44 29.03.2022
2340 Clear -8 1031 67 10000 2.75 75 19:47 29.03.2022
2341 Clear -8 1031 68 10000 2.76 75 18:54 29.03.2022
2342 Clear -8 1030 67 10000 2.68 72 18:18 29.03.2022
2343 Clear -7 1030 65 10000 2.71 65 17:20 29.03.2022
2344 Clear -7 1030 65 10000 2.71 65 16:55 29.03.2022
2345 Clear -6 1028 62 10000 2.76 59 15:57 29.03.2022
2346 Clear -5 1026 57 10000 2.87 49 14:44 29.03.2022
2347 Clouds -4 1024 51 10000 2.81 40 13:52 29.03.2022
2348 Clouds -1 1021 38 10000 3.61 22 12:46 29.03.2022
2349 Clouds 1 1018 30 10000 4.71 9 11:28 29.03.2022
2350 Clouds 2 1017 28 10000 3.56 354 10:23 29.03.2022
2351 Clouds 2 1017 31 10000 1.71 315 09:20 29.03.2022
2352 Clouds -1 1021 51 10000 1.41 244 06:54 29.03.2022
2353 Clouds -7 1025 71 10000 1.85 91 03:19 29.03.2022
2354 Clouds -9 1025 76 10000 2.51 82 23:46 28.03.2022
2355 Clouds -9 1024 75 10000 2.61 81 22:58 28.03.2022
2356 Clouds -9 1024 75 10000 2.61 81 22:35 28.03.2022
2357 Clouds -9 1023 73 10000 2.37 82 21:48 28.03.2022
2358 Clouds -8 1022 71 10000 2.34 79 20:41 28.03.2022
2359 Clouds -8 1023 72 10000 2.59 80 19:59 28.03.2022
2360 Clouds -8 1023 72 10000 2.59 80 19:40 28.03.2022
2361 Clouds -8 1023 72 10000 2.95 86 18:51 28.03.2022
2362 Clouds -8 1022 70 10000 2.82 81 18:18 28.03.2022
2363 Clouds -8 1021 69 10000 3.04 76 17:28 28.03.2022
2364 Clouds -7 1020 66 10000 2.89 76 15:38 28.03.2022
2365 Clouds -4 1015 57 10000 2.38 40 14:24 28.03.2022
2366 Clouds -1 1012 50 10000 4 340 13:26 28.03.2022
2367 Clouds 1 1010 43 10000 5.65 323 11:53 28.03.2022
2368 Clouds 2 1009 40 10000 6.37 326 10:35 28.03.2022
2369 Clouds 2 1009 38 10000 7.29 311 09:21 28.03.2022
2370 Clouds 2 1009 38 10000 7.29 311 08:40 28.03.2022
2371 Clouds 2 1009 39 10000 6.34 299 08:20 28.03.2022
2372 Clouds 2 1009 42 10000 4.02 275 06:55 28.03.2022
2373 Clear -4 1013 65 10000 0.89 164 02:44 28.03.2022
2374 Snow -2 1009 71 10000 1.38 122 22:38 27.03.2022
2375 Clouds -2 1009 67 10000 1.19 132 21:48 27.03.2022
2376 Clouds -2 1009 63 10000 1.16 120 21:28 27.03.2022
2377 Snow -2 1009 63 10000 1.16 120 20:41 27.03.2022
2378 Clouds -2 1009 58 10000 2.13 102 19:43 27.03.2022
2379 Snow -2 1010 55 10000 3.02 116 18:45 27.03.2022
2380 Snow -2 1011 53 3025 2.95 110 18:23 27.03.2022
2381 Snow -2 1011 53 3025 2.95 110 17:36 27.03.2022
2382 Clouds -4 1011 54 10000 3.59 97 15:51 27.03.2022
2383 Clouds -3 1011 59 10000 3.18 93 13:59 27.03.2022
2384 Clouds 0 1008 54 10000 2.76 103 13:21 27.03.2022
2385 Clouds 2 1006 46 10000 2.33 110 11:41 27.03.2022
2386 Clouds 3 1007 37 10000 2.53 135 09:49 27.03.2022
2387 Clouds 3 1009 22 10000 2.47 200 07:39 27.03.2022
2388 Clouds -4 1017 32 10000 1.74 95 04:25 27.03.2022
2389 Clouds -9 1022 40 10000 3.02 93 00:26 27.03.2022
2390 Clouds -9 1022 40 10000 3.09 89 22:52 26.03.2022
2391 Clear -9 1023 40 10000 3.4 88 22:22 26.03.2022
2392 Clear -9 1023 40 10000 3.4 88 21:30 26.03.2022
2393 Clear -9 1024 39 10000 3.3 91 19:38 26.03.2022
2394 Clear -10 1026 38 10000 3.26 91 18:44 26.03.2022
2395 Clear -9 1026 38 10000 3.2 93 17:41 26.03.2022
2396 Clear -9 1026 38 10000 3.15 93 16:40 26.03.2022
2397 Clear -9 1026 39 10000 3.52 96 15:42 26.03.2022
2398 Clear -8 1026 49 10000 3.61 102 13:56 26.03.2022
2399 Clear -8 1026 49 10000 3.61 102 13:36 26.03.2022
2400 Clear -3 1021 39 10000 2.43 116 12:18 26.03.2022
2401 Clouds -1 1020 33 10000 1.83 142 10:48 26.03.2022
2402 Clouds -2 1022 29 10000 1.83 154 09:19 26.03.2022
2403 Clouds -4 1026 29 10000 1.77 140 06:56 26.03.2022
2404 Clouds -5 1028 28 10000 1.62 135 05:31 26.03.2022
2405 Clouds -14 1038 39 10000 2.34 93 02:24 26.03.2022
2406 Clear -17 1041 54 10000 2.77 88 22:30 25.03.2022
2407 Clear -17 1041 57 10000 2.61 91 20:58 25.03.2022
2408 Clear -16 1040 58 10000 2.67 86 20:26 25.03.2022
2409 Clouds -16 1038 59 10000 2.59 80 19:19 25.03.2022
2410 Clouds -16 1040 59 10000 2.67 81 18:35 25.03.2022
2411 Clouds -15 1038 59 10000 1.94 75 17:30 25.03.2022
2412 Clouds -13 1034 57 10000 0.69 9 16:27 25.03.2022
2413 Clouds -13 1034 57 10000 0.69 9 15:34 25.03.2022
2414 Clouds -9 1027 62 10000 5.31 352 13:29 25.03.2022
2415 Clouds -6 1022 43 10000 7.06 324 11:25 25.03.2022
2416 Clouds -6 1021 42 10000 8.51 306 09:37 25.03.2022
2417 Clouds -6 1021 41 10000 8.39 299 08:50 25.03.2022
2418 Snow -6 1021 53 10000 8.76 297 07:42 25.03.2022
2419 Clouds -5 1020 43 10000 6.83 279 06:59 25.03.2022
2420 Clouds -11 1025 40 10000 1.27 149 02:37 25.03.2022
2421 Clouds -16 1029 58 10000 3.3 111 22:59 24.03.2022
2422 Clouds -15 1029 58 10000 3.2 118 22:19 24.03.2022
2423 Clouds -14 1028 56 10000 2.93 134 20:52 24.03.2022
2424 Clouds -13 1027 53 10000 2.25 154 19:49 24.03.2022
2425 Clouds -12 1026 52 10000 1.8 187 18:44 24.03.2022
2426 Clouds -11 1025 50 10000 2.44 265 17:36 24.03.2022
2427 Clouds -11 1025 50 10000 2.44 265 17:35 24.03.2022
2428 Clouds -9 1023 45 10000 5.27 284 16:28 24.03.2022
2429 Clouds -9 1022 38 10000 6.59 278 14:51 24.03.2022
2430 Clouds -8 1020 36 10000 7.73 285 14:22 24.03.2022
2431 Clouds -8 1020 36 10000 7.73 285 13:34 24.03.2022
2432 Clouds -6 1016 26 10000 7.52 289 12:24 24.03.2022
2433 Clouds -5 1015 24 10000 6.81 272 11:27 24.03.2022
2434 Clouds -5 1015 24 10000 6.87 275 09:27 24.03.2022
2435 Clouds -5 1015 24 10000 6.87 275 08:34 24.03.2022
2436 Clouds -10 1020 67 10000 1.62 201 05:30 24.03.2022
2437 Clouds -10 1020 67 10000 1.62 201 05:30 24.03.2022
2438 Clouds -20 1028 96 10000 2.96 76 23:59 23.03.2022
2439 Clouds -19 1026 97 7111 2.59 83 22:19 23.03.2022
2440 Clouds -19 1025 96 10000 2.56 80 21:21 23.03.2022
2441 Clouds -17 1023 94 10000 1.88 90 19:56 23.03.2022
2442 Clouds -18 1023 88 10000 1.81 98 19:28 23.03.2022
2443 Clouds -18 1022 82 10000 0.9 75 17:52 23.03.2022
2444 Clouds -14 1018 78 10000 0.51 354 17:24 23.03.2022
2445 Clouds -11 1014 74 10000 1.62 275 15:43 23.03.2022
2446 Clouds -8 1011 67 10000 5.14 296 14:47 23.03.2022
2447 Snow -8 1009 78 9214 3.5 253 13:31 23.03.2022
2448 Snow -4 1003 93 300 2.67 305 11:24 23.03.2022
2449 Clouds -1 1001 59 10000 1.02 191 08:29 23.03.2022
2450 Clouds -4 1006 64 10000 1.93 171 05:50 23.03.2022
2451 Clouds -11 1015 78 10000 2.19 98 02:28 23.03.2022
2452 Clouds -14 1018 73 10000 3.49 82 00:26 23.03.2022
2453 Clouds -14 1018 73 10000 3.49 82 00:26 23.03.2022
2454 Clouds -14 1020 73 10000 3.58 82 21:40 22.03.2022
2455 Clouds -15 1021 73 10000 3.59 84 20:59 22.03.2022
2456 Clouds -15 1023 73 10000 3.69 84 20:18 22.03.2022
2457 Clouds -15 1024 73 10000 3.66 86 19:26 22.03.2022
2458 Clouds -16 1026 75 10000 3.68 87 18:48 22.03.2022
2459 Clouds -16 1027 76 10000 3.39 81 17:43 22.03.2022
2460 Clouds -16 1026 76 10000 3.5 84 16:39 22.03.2022
2461 Clouds -15 1027 76 10000 3.45 80 15:41 22.03.2022
2462 Clouds -15 1026 76 10000 3.27 84 15:20 22.03.2022
2463 Clouds -15 1026 76 10000 3.27 84 14:42 22.03.2022
2464 Clouds -14 1025 76 10000 3.12 79 13:42 22.03.2022
2465 Clouds -9 1019 70 10000 1.4 48 12:18 22.03.2022
2466 Clouds -5 1017 71 10000 0.7 349 11:20 22.03.2022
2467 Clouds -4 1017 52 10000 0.64 161 09:28 22.03.2022
2468 Clouds -5 1018 49 10000 0.83 165 07:30 22.03.2022
2469 Clouds -9 1024 64 10000 1.58 99 03:57 22.03.2022
2470 Clouds -19 1032 73 10000 3.34 81 00:50 22.03.2022
2471 Clouds -17 1030 73 10000 2.74 89 22:48 21.03.2022
2472 Clouds -17 1029 73 10000 2.56 84 21:30 21.03.2022
2473 Clouds -15 1028 74 10000 2.61 84 20:44 21.03.2022
2474 Clouds -13 1026 73 10000 2.32 88 20:23 21.03.2022
2475 Clouds -13 1026 73 10000 2.32 88 19:45 21.03.2022
2476 Clouds -13 1026 72 10000 2.67 98 18:48 21.03.2022
2477 Clouds -15 1029 71 10000 3.04 79 17:36 21.03.2022
2478 Clouds -16 1030 71 10000 3.26 76 16:59 21.03.2022
2479 Clouds -16 1030 71 10000 3.26 76 16:33 21.03.2022
2480 Clouds -17 1032 72 10000 3.5 83 15:43 21.03.2022
2481 Clear -17 1032 73 10000 3.61 82 14:37 21.03.2022
2482 Clear -15 1029 76 10000 3.54 83 13:20 21.03.2022
2483 Clear -12 1025 77 10000 2.56 84 11:58 21.03.2022
2484 Clear -8 1021 74 10000 1.17 83 11:25 21.03.2022
2485 Clear -6 1020 65 10000 1.13 110 09:51 21.03.2022
2486 Clear -6 1022 54 10000 1.22 184 07:39 21.03.2022
2487 Clear -8 1024 56 10000 1.69 156 06:18 21.03.2022
2488 Clear -18 1035 70 10000 3.21 82 01:42 21.03.2022
2489 Clear -21 1039 65 10000 3.49 80 22:57 20.03.2022
2490 Clear -21 1039 64 10000 3.51 78 22:29 20.03.2022
2491 Clear -21 1039 64 10000 3.51 78 21:38 20.03.2022
2492 Clear -21 1039 65 10000 3.55 78 20:55 20.03.2022
2493 Clear -21 1039 65 10000 3.55 78 20:36 20.03.2022
2494 Clear -21 1040 69 10000 3.55 77 19:49 20.03.2022
2495 Clear -21 1040 71 10000 3.57 77 19:24 20.03.2022
2496 Clear -21 1040 73 10000 3.63 77 17:48 20.03.2022
2497 Clear -21 1040 73 10000 3.59 76 17:26 20.03.2022
2498 Clear -21 1040 73 10000 3.59 76 16:35 20.03.2022
2499 Clear -20 1039 73 10000 3.71 74 14:42 20.03.2022
2500 Clear -20 1039 74 10000 3.61 71 13:38 20.03.2022
2501 Clear -15 1032 72 10000 2.01 58 12:19 20.03.2022
2502 Clear -9 1027 60 10000 0.43 339 09:59 20.03.2022
2503 Clear -9 1027 54 10000 0.96 301 08:21 20.03.2022
2504 Clear -10 1028 55 10000 0.91 284 06:37 20.03.2022
2505 Clear -16 1034 69 10000 1.74 74 03:18 20.03.2022
2506 Clouds -22 1040 72 10000 3.18 75 00:53 20.03.2022
2507 Clouds -22 1038 72 10000 3.18 73 00:28 20.03.2022
2508 Clouds -22 1038 71 10000 3.18 73 22:31 19.03.2022
2509 Clouds -20 1036 72 10000 2.97 76 21:26 19.03.2022
2510 Clouds -21 1036 75 10000 3.18 73 19:29 19.03.2022
2511 Clouds -21 1036 75 10000 3.18 73 18:38 19.03.2022
2512 Clouds -20 1036 77 10000 3.24 75 17:49 19.03.2022
2513 Clouds -20 1036 78 10000 3.31 73 16:57 19.03.2022
2514 Clouds -19 1034 78 10000 3.45 67 15:29 19.03.2022
2515 Clear -18 1033 79 10000 3.45 60 13:49 19.03.2022
2516 Clouds -17 1030 78 10000 3.12 52 12:56 19.03.2022
2517 Clouds -17 1030 78 10000 3.12 52 12:36 19.03.2022
2518 Clouds -13 1025 76 10000 2.19 12 11:45 19.03.2022
2519 Clouds -6 1019 59 10000 1.73 302 09:23 19.03.2022
2520 Clouds -7 1020 78 10000 1.31 285 05:44 19.03.2022
2521 Clouds -9 1021 93 3094 0.72 304 02:33 19.03.2022
2522 Snow -10 1020 97 153 0.99 300 23:52 18.03.2022
2523 Snow -10 1020 97 133 0.83 212 22:58 18.03.2022
2524 Snow -11 1019 97 243 1.12 161 22:21 18.03.2022
2525 Snow -10 1019 96 349 0.77 136 20:31 18.03.2022
2526 Snow -9 1019 96 235 1.26 75 19:25 18.03.2022
2527 Snow -10 1019 96 143 1.02 80 18:58 18.03.2022
2528 Snow -10 1020 95 203 1.86 62 16:56 18.03.2022
2529 Snow -10 1020 87 2977 2.04 79 16:24 18.03.2022
2530 Clouds -10 1020 80 10000 2.53 78 14:29 18.03.2022
2531 Clouds -10 1020 80 10000 2.53 78 13:40 18.03.2022
2532 Clouds -9 1019 78 10000 2.1 78 11:37 18.03.2022
2533 Clouds -7 1019 58 10000 1.06 69 10:27 18.03.2022
2534 Clouds -7 1020 56 10000 1.04 112 08:46 18.03.2022
2535 Clouds -8 1022 59 10000 1.35 148 06:59 18.03.2022
2536 Clouds -11 1026 70 10000 1.78 118 05:20 18.03.2022
2537 Clouds -19 1035 84 10000 3.03 76 01:38 18.03.2022
2538 Clouds -21 1037 87 10000 3.56 76 23:59 17.03.2022
2539 Clear -21 1036 89 10000 3.04 84 22:50 17.03.2022
2540 Clear -21 1036 89 10000 3.16 76 22:19 17.03.2022
2541 Clear -21 1036 89 10000 3.16 76 21:31 17.03.2022
2542 Clear -20 1035 89 10000 3.54 74 20:54 17.03.2022
2543 Clear -20 1034 89 10000 2.93 68 20:20 17.03.2022
2544 Clear -20 1034 89 10000 2.93 68 19:38 17.03.2022
2545 Clouds -19 1034 89 10000 3.35 69 18:53 17.03.2022
2546 Clouds -20 1034 88 10000 3.07 76 17:41 17.03.2022
2547 Clouds -18 1033 84 10000 3.19 70 16:29 17.03.2022
2548 Clouds -18 1033 84 10000 3.19 70 15:43 17.03.2022
2549 Clouds -18 1031 84 10000 3.29 77 15:18 17.03.2022
2550 Clouds -17 1030 85 10000 3.21 75 13:47 17.03.2022
2551 Clouds -16 1029 77 10000 2.86 64 12:47 17.03.2022
2552 Clouds -13 1023 74 10000 1.24 29 11:36 17.03.2022
2553 Clouds -7 1019 69 10000 2.44 309 10:44 17.03.2022
2554 Snow -6 1019 62 10000 3.36 289 09:40 17.03.2022
2555 Clouds -7 1019 65 10000 2.08 279 08:20 17.03.2022
2556 Clouds -7 1020 62 10000 1.82 258 05:53 17.03.2022
2557 Clouds -8 1021 66 10000 1.17 239 05:23 17.03.2022
2558 Clouds -16 1027 80 10000 2.76 90 00:27 17.03.2022
2559 Clouds -15 1026 79 10000 2.8 89 22:57 16.03.2022
2560 Clouds -15 1026 79 10000 2.8 89 22:36 16.03.2022
2561 Clouds -16 1026 79 10000 2.61 85 21:56 16.03.2022
2562 Clouds -15 1025 78 10000 2.81 81 20:40 16.03.2022
2563 Clouds -14 1025 77 10000 2.76 77 19:23 16.03.2022
2564 Clouds -13 1025 77 10000 2.56 75 18:42 16.03.2022
2565 Clouds -12 1024 75 10000 2.67 76 17:49 16.03.2022
2566 Clouds -12 1024 75 10000 2.67 76 17:31 16.03.2022
2567 Clouds -13 1026 74 10000 3.15 76 16:21 16.03.2022
2568 Clouds -13 1026 74 10000 3.25 83 14:58 16.03.2022
2569 Clear -14 1027 73 10000 3.48 85 13:36 16.03.2022
2570 Clear -13 1026 73 10000 3.3 85 12:55 16.03.2022
2571 Clear -6 1019 70 10000 0.84 133 11:23 16.03.2022
2572 Clear -6 1019 70 10000 0.84 133 10:32 16.03.2022
2573 Clear -4 1018 69 10000 0.4 266 09:56 16.03.2022
2574 Clear -4 1018 57 10000 2.1 232 07:43 16.03.2022
2575 Clouds -8 1025 78 10000 1.84 84 02:46 16.03.2022
2576 Clouds -13 1027 72 10000 2.87 72 22:56 15.03.2022
2577 Clouds -13 1027 72 10000 2.87 72 22:35 15.03.2022
2578 Clouds -14 1029 73 10000 2.99 77 20:59 15.03.2022
2579 Clouds -14 1029 74 10000 3.18 72 19:39 15.03.2022
2580 Clear -17 1034 77 10000 3.58 79 17:46 15.03.2022
2581 Clear -17 1034 77 10000 3.54 74 16:41 15.03.2022
2582 Clear -17 1033 77 10000 3.88 78 15:38 15.03.2022
2583 Clear -16 1032 77 10000 3.47 78 14:54 15.03.2022
2584 Clear -15 1031 76 10000 3.56 73 13:56 15.03.2022
2585 Clouds -15 1030 77 10000 3.09 71 13:22 15.03.2022
2586 Clouds -11 1025 77 10000 1.32 29 11:33 15.03.2022
2587 Clouds -7 1021 77 10000 1.33 325 10:52 15.03.2022
2588 Clouds -5 1020 68 10000 2.3 299 09:24 15.03.2022
2589 Clouds -6 1021 72 10000 1.67 279 08:24 15.03.2022
2590 Clouds -6 1021 72 10000 1.67 279 07:36 15.03.2022
2591 Clouds -7 1021 74 10000 1.34 253 05:56 15.03.2022
2592 Clouds -17 1030 85 10000 2.6 90 00:58 15.03.2022
2593 Clouds -16 1027 86 10000 2.66 108 23:30 14.03.2022
2594 Clouds -14 1025 86 10000 2.47 105 22:50 14.03.2022
2595 Clouds -13 1023 85 10000 2.06 119 21:53 14.03.2022
2596 Clouds -12 1022 83 10000 2.57 106 20:55 14.03.2022
2597 Clouds -12 1022 85 10000 1.14 129 20:24 14.03.2022
2598 Snow -9 1019 84 10000 2.12 130 19:24 14.03.2022
2599 Snow -7 1018 85 10000 1.39 134 17:58 14.03.2022
2600 Snow -7 1018 85 10000 1.39 134 17:40 14.03.2022
2601 Clouds -8 1019 85 7232 1.1 138 16:33 14.03.2022
2602 Clouds -11 1020 77 10000 2.63 95 14:48 14.03.2022
2603 Clouds -11 1020 75 10000 2.94 90 13:57 14.03.2022
2604 Clouds -4 1013 70 10000 1.63 306 11:26 14.03.2022
2605 Clouds -2 1012 60 10000 6.8 302 09:57 14.03.2022
2606 Clouds -2 1012 60 10000 6.8 302 09:35 14.03.2022
2607 Clouds -1 1011 61 10000 8.23 302 08:58 14.03.2022
2608 Clouds 0 1009 65 10000 9.34 291 08:28 14.03.2022
2609 Clouds 0 1009 66 10000 10.33 280 06:47 14.03.2022
2610 Clouds -2 1010 67 10000 5.6 274 02:59 14.03.2022
2611 Clouds -9 1016 79 10000 1.04 88 01:39 14.03.2022
2612 Clouds -5 1013 79 10000 1.71 176 00:29 14.03.2022
2613 Clouds -9 1016 75 10000 2.78 105 21:49 13.03.2022
2614 Clouds -9 1016 73 10000 2.76 102 21:21 13.03.2022
2615 Clouds -9 1016 73 10000 2.76 102 20:46 13.03.2022
2616 Clouds -8 1016 73 10000 2.85 109 20:22 13.03.2022
2617 Clouds -8 1016 73 10000 2.85 109 19:42 13.03.2022
2618 Clouds -6 1015 73 10000 2.2 119 19:22 13.03.2022
2619 Clouds -6 1015 73 10000 2.2 119 19:22 13.03.2022
2620 Clouds -6 1015 73 10000 2.2 119 18:45 13.03.2022
2621 Clouds -10 1019 70 10000 3.25 97 18:25 13.03.2022
2622 Clouds -10 1019 70 10000 3.25 97 17:36 13.03.2022
2623 Clouds -9 1017 72 10000 3.15 101 16:45 13.03.2022
2624 Clouds -7 1015 74 10000 2.98 102 16:21 13.03.2022
2625 Clouds -7 1015 74 10000 2.98 102 15:39 13.03.2022
2626 Clouds -6 1015 75 10000 2.65 98 14:36 13.03.2022
2627 Clouds -8 1019 77 10000 3.17 95 13:27 13.03.2022
2628 Clouds -7 1018 80 10000 2.72 87 12:22 13.03.2022
2629 Clouds -7 1018 80 10000 2.72 87 11:38 13.03.2022
2630 Clouds -4 1015 79 10000 1.59 124 10:49 13.03.2022
2631 Clouds -1 1014 77 10000 1.21 188 10:25 13.03.2022
2632 Clouds -1 1014 77 10000 1.21 188 09:42 13.03.2022
2633 Clouds -1 1014 70 10000 1.82 204 08:49 13.03.2022
2634 Clouds -2 1015 73 10000 1.8 219 08:23 13.03.2022
2635 Clouds -2 1015 77 10000 2.35 236 06:40 13.03.2022
2636 Snow -4 1016 93 1759 2.15 230 03:56 13.03.2022
2637 Snow -5 1015 96 309 1.65 230 01:46 13.03.2022
2638 Snow -6 1013 97 174 1.17 259 22:51 12.03.2022
2639 Snow -6 1012 97 854 0.26 169 21:29 12.03.2022
2640 Snow -6 1012 97 718 0.47 315 20:18 12.03.2022
2641 Snow -6 1012 97 718 0.47 315 19:43 12.03.2022
2642 Snow -6 1013 97 605 0.57 349 18:34 12.03.2022
2643 Snow -6 1013 97 594 0.22 226 17:46 12.03.2022
2644 Snow -6 1012 97 3648 0.87 20 16:28 12.03.2022
2645 Snow -6 1012 97 3648 0.87 20 15:40 12.03.2022
2646 Snow -6 1011 97 1210 0.77 4 15:18 12.03.2022
2647 Snow -5 1010 95 1975 1.07 58 13:53 12.03.2022
2648 Clouds -3 1008 89 10000 1.7 54 12:25 12.03.2022
2649 Clouds -3 1008 89 10000 1.7 54 11:51 12.03.2022
2650 Snow -2 1007 84 10000 1.64 46 11:20 12.03.2022
2651 Clouds -1 1006 70 10000 0.7 96 09:59 12.03.2022
2652 Clouds -1 1006 70 10000 0.7 96 09:39 12.03.2022
2653 Clouds -1 1007 57 10000 1.32 156 07:51 12.03.2022
2654 Clouds -2 1009 57 10000 1.57 127 05:44 12.03.2022
2655 Clouds -12 1021 68 10000 2.97 77 00:24 12.03.2022
2656 Clouds -12 1022 69 10000 3.16 72 23:28 11.03.2022
2657 Clouds -14 1025 69 10000 3.27 75 21:48 11.03.2022
2658 Clouds -15 1027 70 10000 3.42 74 20:58 11.03.2022
2659 Clouds -15 1027 70 10000 3.42 74 20:37 11.03.2022
2660 Clouds -15 1027 71 10000 3.36 76 19:54 11.03.2022
2661 Clear -15 1027 72 10000 3.54 76 19:27 11.03.2022
2662 Clear -15 1029 76 10000 3.4 74 17:37 11.03.2022
2663 Clear -15 1028 76 10000 3.51 78 17:18 11.03.2022
2664 Clear -15 1028 76 10000 3.39 80 15:57 11.03.2022
2665 Clear -14 1027 77 10000 3.14 87 14:22 11.03.2022
2666 Clouds -12 1025 77 10000 2.81 83 13:21 11.03.2022
2667 Clouds -9 1020 77 10000 0.87 57 12:22 11.03.2022
2668 Clouds -9 1020 77 10000 0.87 57 11:56 11.03.2022
2669 Clouds -2 1014 74 10000 1.88 270 10:18 11.03.2022
2670 Clouds -2 1013 66 10000 4.46 270 08:57 11.03.2022
2671 Clouds -1 1012 61 10000 4.77 254 08:24 11.03.2022
2672 Clouds -1 1012 61 10000 4.77 254 07:46 11.03.2022
2673 Clouds -2 1014 61 10000 3.9 244 05:49 11.03.2022
2674 Clouds -3 1015 73 10000 2.55 274 03:49 11.03.2022
2675 Clouds -8 1017 79 10000 2.35 127 23:46 10.03.2022
2676 Clouds -6 1015 77 10000 2.62 135 22:31 10.03.2022
2677 Clouds -4 1014 77 10000 2.07 118 21:48 10.03.2022
2678 Clouds -4 1014 76 10000 2.49 115 21:20 10.03.2022
2679 Snow -4 1014 76 10000 2.62 111 19:48 10.03.2022
2680 Snow -4 1016 73 3825 3.05 111 18:55 10.03.2022
2681 Clouds -5 1017 70 7524 3 110 17:36 10.03.2022
2682 Clouds -8 1021 62 10000 3.66 95 15:55 10.03.2022
2683 Clouds -9 1022 60 10000 3.82 91 14:48 10.03.2022
2684 Clouds -8 1023 64 10000 3.69 87 13:21 10.03.2022
2685 Clouds -7 1020 70 10000 3.26 80 11:58 10.03.2022
2686 Clouds -3 1017 73 10000 2.22 83 10:54 10.03.2022
2687 Clouds 1 1015 66 10000 0.96 100 09:21 10.03.2022
2688 Clear 1 1016 54 10000 1.1 122 07:38 10.03.2022
2689 Clear -3 1021 57 10000 1.66 81 04:36 10.03.2022
2690 Clouds -13 1029 59 10000 3.39 78 01:46 10.03.2022
2691 Clear -14 1030 63 10000 3.44 76 23:18 09.03.2022
2692 Clear -14 1030 66 10000 3.42 73 21:49 09.03.2022
2693 Clear -14 1030 68 10000 3.61 74 21:27 09.03.2022
2694 Clear -14 1030 70 10000 3.52 74 19:43 09.03.2022
2695 Clouds -14 1030 71 10000 3.57 72 18:33 09.03.2022
2696 Clouds -13 1029 74 10000 3.58 75 17:27 09.03.2022
2697 Clouds -13 1029 74 10000 3.58 75 16:31 09.03.2022
2698 Clouds -13 1029 76 10000 3.41 74 14:59 09.03.2022
2699 Clouds -11 1027 78 10000 3.35 73 13:53 09.03.2022
2700 Clear -11 1026 79 10000 3.08 72 12:45 09.03.2022
2701 Clear -8 1022 77 10000 1.99 74 11:53 09.03.2022
2702 Clear -8 1022 77 10000 1.99 74 11:35 09.03.2022
2703 Clear -2 1016 76 10000 0.39 298 09:54 09.03.2022
2704 Clear -1 1016 63 10000 0.45 303 08:51 09.03.2022
2705 Clear -1 1016 60 10000 0.79 286 07:27 09.03.2022
2706 Clear -9 1024 76 10000 2.3 79 02:42 09.03.2022
2707 Clear -13 1028 76 10000 3.16 77 00:28 09.03.2022
2708 Clear -12 1026 76 10000 3.11 79 22:47 08.03.2022
2709 Clear -12 1026 75 10000 3.3 79 21:58 08.03.2022
2710 Clear -12 1026 74 10000 3.06 84 21:23 08.03.2022
2711 Clear -12 1026 74 10000 2.81 73 20:29 08.03.2022
2712 Clear -12 1026 74 10000 2.81 73 19:30 08.03.2022
2713 Clouds -11 1025 74 10000 2.88 78 18:41 08.03.2022
2714 Clouds -10 1024 75 10000 3.07 92 17:26 08.03.2022
2715 Clouds -8 1021 80 10000 2.61 86 15:19 08.03.2022
2716 Clouds -6 1019 83 10000 2.35 99 14:18 08.03.2022
2717 Clouds -2 1015 85 10000 1.18 124 12:41 08.03.2022
2718 Clouds -1 1013 87 10000 1.51 137 11:44 08.03.2022
2719 Clouds 1 1011 83 10000 0.74 242 10:37 08.03.2022
2720 Clouds 2 1009 83 10000 0.88 350 09:37 08.03.2022
2721 Clouds 3 1009 91 10000 0.4 78 06:34 08.03.2022
2722 Clouds 0 1012 72 10000 0.48 97 04:25 08.03.2022
2723 Clouds -4 1013 67 10000 3.02 86 22:57 07.03.2022
2724 Clouds -4 1013 66 10000 3.27 93 21:46 07.03.2022
2725 Clouds -3 1012 67 10000 3.15 89 21:27 07.03.2022
2726 Clouds -3 1012 67 10000 3.15 89 20:39 07.03.2022
2727 Clouds -3 1014 64 10000 3.46 87 19:50 07.03.2022
2728 Clouds -5 1016 64 10000 3.16 80 19:29 07.03.2022
2729 Clouds -7 1018 63 10000 3.02 79 18:38 07.03.2022
2730 Clouds -5 1017 62 10000 3.24 77 17:33 07.03.2022
2731 Clouds -5 1019 61 10000 3.49 77 16:55 07.03.2022
2732 Clouds -5 1019 60 10000 3.65 72 14:57 07.03.2022
2733 Clouds -6 1019 68 10000 3.57 79 12:35 07.03.2022
2734 Clouds -4 1017 73 10000 2.97 73 11:36 07.03.2022
2735 Clouds -1 1014 74 10000 1.95 72 10:34 07.03.2022
2736 Clouds 2 1012 76 10000 0.18 353 08:35 07.03.2022
2737 Clouds -6 1020 65 10000 2.41 80 02:56 07.03.2022
2738 Clouds -11 1023 59 10000 3.56 91 00:21 07.03.2022
2739 Clouds -10 1021 61 10000 3.13 87 23:28 06.03.2022
2740 Clouds -10 1021 61 10000 3.13 87 22:30 06.03.2022
2741 Clouds -10 1021 59 10000 3.41 81 21:44 06.03.2022
2742 Clouds -9 1021 60 10000 3.43 89 20:29 06.03.2022
2743 Clouds -9 1021 60 10000 3.43 89 19:43 06.03.2022
2744 Clouds -9 1022 62 10000 3.31 93 18:50 06.03.2022
2745 Clouds -10 1022 59 10000 3.38 80 17:49 06.03.2022
2746 Clouds -9 1022 59 10000 3.69 85 17:20 06.03.2022
2747 Clouds -9 1022 59 10000 3.69 85 16:40 06.03.2022
2748 Clouds -9 1022 61 10000 3.59 84 15:31 06.03.2022
2749 Clouds -8 1022 63 10000 3.37 86 14:42 06.03.2022
2750 Clouds -8 1022 64 10000 3.45 86 13:49 06.03.2022
2751 Clouds -8 1021 66 10000 3.55 89 12:40 06.03.2022
2752 Clouds -7 1021 70 10000 3.48 90 11:46 06.03.2022
2753 Clouds -4 1019 75 10000 2.76 90 10:43 06.03.2022
2754 Clouds -1 1018 68 10000 1.84 99 09:21 06.03.2022
2755 Clouds -2 1020 61 10000 1.72 114 08:28 06.03.2022
2756 Clouds -3 1022 61 10000 1.44 118 07:26 06.03.2022
2757 Clouds -13 1033 76 10000 2.54 83 03:18 06.03.2022
2758 Clear -18 1036 76 10000 3.27 76 00:41 06.03.2022
2759 Clear -18 1036 76 10000 3.14 78 00:22 06.03.2022
2760 Clear -18 1036 76 10000 3.27 81 23:19 05.03.2022
2761 Clear -18 1036 76 10000 3.27 81 22:35 05.03.2022
2762 Clear -18 1035 76 10000 3.03 79 21:30 05.03.2022
2763 Clear -18 1034 76 10000 2.98 75 20:38 05.03.2022
2764 Clouds -17 1032 77 10000 2.86 77 19:22 05.03.2022
2765 Clouds -17 1032 77 10000 2.86 77 18:39 05.03.2022
2766 Clouds -17 1032 79 10000 2.76 80 17:34 05.03.2022
2767 Clouds -14 1027 80 10000 2.16 84 16:19 05.03.2022
2768 Clouds -11 1024 80 10000 1.72 90 15:20 05.03.2022
2769 Clouds -11 1024 80 10000 1.72 90 15:20 05.03.2022
2770 Clouds -11 1024 80 10000 1.72 90 14:36 05.03.2022
2771 Clouds -11 1024 82 10000 2.45 95 13:42 05.03.2022
2772 Clouds -11 1023 81 10000 1 78 12:40 05.03.2022
2773 Clouds -7 1018 79 10000 0.56 238 11:20 05.03.2022
2774 Clouds -7 1018 79 10000 0.56 238 10:52 05.03.2022
2775 Clouds -5 1016 70 10000 1.13 263 09:33 05.03.2022
2776 Clouds -5 1016 60 10000 1.45 245 08:28 05.03.2022
2777 Clouds -5 1016 57 10000 1.12 231 07:21 05.03.2022
2778 Clouds -7 1018 59 10000 0.98 138 05:25 05.03.2022
2779 Clouds -17 1027 68 10000 3.09 84 00:33 05.03.2022
2780 Clouds -17 1026 67 10000 3.24 81 22:58 04.03.2022
2781 Clouds -17 1026 67 10000 3.24 81 22:38 04.03.2022
2782 Clouds -16 1026 68 10000 3.21 80 21:43 04.03.2022
2783 Clouds -16 1026 68 10000 3.1 80 20:42 04.03.2022
2784 Clouds -15 1026 68 10000 3.11 83 19:37 04.03.2022
2785 Clouds -14 1025 68 10000 3.17 83 18:56 04.03.2022
2786 Clouds -15 1026 68 10000 3.25 83 18:33 04.03.2022
2787 Clouds -15 1028 70 10000 3.54 78 17:29 04.03.2022
2788 Clouds -15 1029 71 10000 3.48 79 15:54 04.03.2022
2789 Clouds -15 1029 73 10000 3.47 78 15:25 04.03.2022
2790 Clouds -14 1029 75 10000 3.36 78 13:36 04.03.2022
2791 Clouds -14 1029 75 10000 3.37 76 12:47 04.03.2022
2792 Clouds -13 1027 77 10000 2.79 73 11:37 04.03.2022
2793 Clouds -6 1022 75 10000 0.81 58 10:25 04.03.2022
2794 Clouds -6 1022 61 10000 0.36 82 09:27 04.03.2022
2795 Clouds -6 1023 58 10000 0.27 143 07:48 04.03.2022
2796 Clouds -8 1027 56 10000 0.88 98 06:21 04.03.2022
2797 Clear -19 1039 66 10000 3.03 75 01:46 04.03.2022
2798 Clear -21 1040 64 10000 3.24 75 23:35 03.03.2022
2799 Clear -22 1041 66 10000 3.16 79 22:18 03.03.2022
2800 Clear -22 1041 66 10000 3.16 79 21:36 03.03.2022
2801 Clear -23 1042 66 10000 3.15 79 20:48 03.03.2022
2802 Clear -23 1043 66 10000 3.1 79 19:29 03.03.2022
2803 Clear -24 1044 66 10000 3.18 77 18:26 03.03.2022
2804 Clear -24 1044 66 10000 3.18 77 17:31 03.03.2022
2805 Clear -24 1044 68 10000 3.18 78 16:41 03.03.2022
2806 Clear -24 1044 70 10000 3.12 81 15:44 03.03.2022
2807 Clear -23 1043 70 10000 3.16 78 14:44 03.03.2022
2808 Clear -22 1042 71 10000 3.23 73 14:26 03.03.2022
2809 Clear -22 1041 72 10000 3.18 69 12:35 03.03.2022
2810 Clouds -15 1032 71 10000 1.15 19 11:26 03.03.2022
2811 Clouds -15 1032 71 10000 1.15 19 10:38 03.03.2022
2812 Clouds -11 1027 57 10000 3.48 319 08:42 03.03.2022
2813 Clouds -10 1025 62 10000 5.45 335 06:58 03.03.2022
2814 Clouds -9 1024 69 10000 3.76 312 05:44 03.03.2022
2815 Clouds -12 1020 91 10000 1.26 177 00:30 03.03.2022
2816 Clouds -11 1019 87 8568 1.19 151 23:18 02.03.2022
2817 Clouds -11 1019 87 8568 1.19 151 22:42 02.03.2022
2818 Clouds -12 1021 76 10000 1.68 98 21:22 02.03.2022
2819 Clouds -12 1021 76 10000 1.68 98 20:30 02.03.2022
2820 Clouds -13 1022 74 10000 2.23 103 19:43 02.03.2022
2821 Clouds -14 1022 74 10000 2.23 100 19:24 02.03.2022
2822 Clouds -14 1023 72 10000 2.62 98 18:37 02.03.2022
2823 Clouds -14 1023 73 10000 2.43 97 17:45 02.03.2022
2824 Clouds -15 1024 70 10000 2.77 90 16:54 02.03.2022
2825 Clouds -17 1025 70 10000 3.16 87 16:25 02.03.2022
2826 Clouds -17 1025 74 10000 3.14 76 14:39 02.03.2022
2827 Clouds -14 1023 77 10000 3.3 88 13:18 02.03.2022
2828 Clouds -14 1023 77 10000 3.3 88 12:39 02.03.2022
2829 Clouds -14 1023 80 10000 2.77 89 11:38 02.03.2022
2830 Clouds -11 1020 79 10000 1.31 113 11:18 02.03.2022
2831 Clear -8 1018 78 10000 0.84 163 09:40 02.03.2022
2832 Clear -7 1019 66 10000 0.97 222 08:50 02.03.2022
2833 Clouds -8 1020 61 10000 1.53 224 07:25 02.03.2022
2834 Clouds -9 1021 58 10000 1.39 227 05:43 02.03.2022
2835 Clouds -18 1029 66 10000 2.7 85 00:57 02.03.2022
2836 Clouds -18 1029 63 10000 2.84 84 23:45 01.03.2022
2837 Clouds -18 1029 63 10000 2.84 81 22:42 01.03.2022
2838 Clouds -18 1029 62 10000 2.94 80 21:56 01.03.2022
2839 Clouds -18 1029 61 10000 3.12 79 20:56 01.03.2022
2840 Clouds -18 1030 60 10000 3.23 75 20:24 01.03.2022
2841 Clouds -18 1030 61 10000 3.37 73 19:23 01.03.2022
2842 Clouds -18 1030 61 10000 3.41 74 18:32 01.03.2022
2843 Clouds -18 1030 62 10000 3.48 76 17:55 01.03.2022
2844 Clouds -18 1031 64 10000 3.5 76 16:54 01.03.2022
2845 Clouds -17 1032 66 10000 3.52 76 15:59 01.03.2022
2846 Clouds -17 1032 68 10000 3.46 77 15:23 01.03.2022
2847 Clouds -17 1032 68 10000 3.46 77 14:34 01.03.2022
2848 Clouds -16 1032 74 10000 3.35 75 13:27 01.03.2022
2849 Clouds -16 1031 75 10000 3.23 75 12:58 01.03.2022
2850 Clouds -14 1028 75 10000 2.54 75 12:22 01.03.2022
2851 Clouds -7 1021 74 10000 0.15 311 10:27 01.03.2022
2852 Clouds -6 1021 61 10000 0.49 251 08:41 01.03.2022
2853 Clouds -6 1021 54 10000 0.34 272 07:36 01.03.2022
2854 Clouds -11 1029 61 10000 1.76 83 04:28 01.03.2022
2855 Clouds -18 1036 57 10000 3.17 78 01:43 01.03.2022
2856 Clear -19 1036 57 10000 3.22 78 23:48 28.02.2022
2857 Clear -18 1036 57 10000 3.26 76 22:58 28.02.2022
2858 Clear -18 1036 57 10000 3.33 75 21:50 28.02.2022
2859 Clear -18 1037 58 10000 3.36 76 21:24 28.02.2022
2860 Clear -18 1037 60 10000 3.34 77 19:52 28.02.2022
2861 Clouds -18 1038 61 10000 3.34 76 19:26 28.02.2022
2862 Clear -18 1038 61 10000 3.33 77 18:36 28.02.2022
2863 Clear -18 1040 68 10000 3.36 76 17:24 28.02.2022
2864 Clear -18 1040 68 10000 3.36 76 16:33 28.02.2022
2865 Clear -18 1041 76 10000 3.35 79 15:23 28.02.2022
2866 Clear -18 1041 76 10000 3.35 79 14:31 28.02.2022
2867 Clear -18 1042 80 10000 3.27 78 13:34 28.02.2022
2868 Clear -18 1042 83 10000 3.05 79 12:41 28.02.2022
2869 Clear -16 1040 84 10000 2.34 77 11:44 28.02.2022
2870 Clear -13 1036 83 10000 0.89 86 10:48 28.02.2022
2871 Clear -10 1035 81 10000 0.08 288 10:19 28.02.2022
2872 Clear -10 1035 81 10000 0.08 288 09:31 28.02.2022
2873 Clear -10 1036 67 10000 0.44 249 08:29 28.02.2022
2874 Clear -11 1038 65 10000 0.28 185 07:20 28.02.2022
2875 Clear -14 1043 69 10000 0.66 162 04:32 28.02.2022
2876 Clear -16 1045 73 10000 1.04 108 03:58 28.02.2022
2877 Clear -24 1053 83 10000 2.69 80 23:27 27.02.2022
2878 Clear -24 1053 83 10000 2.69 80 22:33 27.02.2022
2879 Clear -24 1053 84 10000 2.78 75 21:49 27.02.2022
2880 Clear -25 1053 84 10000 2.82 75 20:55 27.02.2022
2881 Clear -24 1053 85 10000 2.86 75 20:27 27.02.2022
2882 Clear -24 1053 85 10000 2.86 75 19:57 27.02.2022
2883 Clear -24 1052 86 10000 2.88 75 19:26 27.02.2022
2884 Clear -24 1053 86 10000 2.87 75 18:40 27.02.2022
2885 Clear -24 1052 87 10000 2.94 71 17:54 27.02.2022
2886 Clear -24 1051 87 10000 3.16 67 16:45 27.02.2022
2887 Clear -23 1050 87 10000 3.31 63 16:21 27.02.2022
2888 Clouds -21 1045 86 10000 3.55 47 13:25 27.02.2022
2889 Clouds -20 1044 85 10000 3.61 47 12:32 27.02.2022
2890 Clouds -14 1035 80 10000 3.03 27 10:56 27.02.2022
2891 Clouds -11 1032 72 10000 4.23 27 10:18 27.02.2022
2892 Clouds -11 1032 72 10000 4.23 27 09:44 27.02.2022
2893 Clouds -10 1030 69 10000 4.59 22 09:19 27.02.2022
2894 Clouds -10 1029 66 10000 3.69 5 07:37 27.02.2022
2895 Clouds -10 1030 71 10000 2.87 353 05:38 27.02.2022
2896 Snow -14 1030 97 605 1.15 282 01:53 27.02.2022
2897 Snow -12 1026 97 117 1.06 264 23:22 26.02.2022
2898 Snow -12 1025 91 1022 1.05 251 21:49 26.02.2022
2899 Clouds -13 1025 79 10000 0.7 107 20:58 26.02.2022
2900 Clouds -14 1026 75 10000 1.91 84 20:20 26.02.2022
2901 Clouds -14 1026 75 10000 1.91 84 19:49 26.02.2022
2902 Clouds -15 1026 75 10000 2.32 74 19:22 26.02.2022
2903 Clouds -15 1026 75 10000 2.59 74 17:52 26.02.2022
2904 Clouds -13 1025 75 10000 2.59 76 16:52 26.02.2022
2905 Clouds -13 1025 76 10000 2.83 76 15:57 26.02.2022
2906 Clouds -14 1026 77 10000 3.08 76 15:25 26.02.2022
2907 Clouds -14 1026 77 10000 3.08 76 14:55 26.02.2022
2908 Clouds -14 1026 77 10000 3.08 76 14:36 26.02.2022
2909 Clouds -13 1026 82 10000 2.75 75 13:24 26.02.2022
2910 Clouds -13 1026 81 10000 2.64 75 12:31 26.02.2022
2911 Clouds -9 1022 80 10000 0.81 93 11:29 26.02.2022
2912 Clouds -9 1022 80 10000 0.81 93 10:51 26.02.2022
2913 Clouds -5 1020 66 10000 0.7 239 09:18 26.02.2022
2914 Clouds -5 1021 60 10000 0.87 248 07:43 26.02.2022
2915 Clouds -15 1033 66 10000 2.98 75 01:53 26.02.2022
2916 Clouds -16 1034 66 10000 3.12 77 22:57 25.02.2022
2917 Clouds -16 1034 66 10000 3.16 77 21:46 25.02.2022
2918 Clouds -16 1035 67 10000 3.08 76 21:26 25.02.2022
2919 Clouds -16 1035 67 10000 3.08 76 20:33 25.02.2022
2920 Clouds -15 1035 67 10000 3.17 77 19:22 25.02.2022
2921 Clouds -16 1036 67 10000 3.3 76 17:33 25.02.2022
2922 Clouds -16 1037 69 10000 3.32 78 16:44 25.02.2022
2923 Clouds -16 1037 71 10000 3.32 78 15:48 25.02.2022
2924 Clouds -15 1037 74 10000 3.37 77 15:22 25.02.2022
2925 Clouds -15 1037 74 10000 3.37 77 14:42 25.02.2022
2926 Clouds -15 1037 77 10000 3.31 78 13:58 25.02.2022
2927 Clouds -15 1038 79 10000 3.22 77 13:20 25.02.2022
2928 Clouds -11 1032 81 10000 1.37 72 11:28 25.02.2022
2929 Clouds -11 1032 81 10000 1.37 72 10:48 25.02.2022
2930 Clouds -8 1031 80 10000 0.23 108 10:22 25.02.2022
2931 Clouds -8 1031 80 10000 0.23 108 09:31 25.02.2022
2932 Clouds -8 1032 65 10000 0.82 183 07:44 25.02.2022
2933 Clear -10 1034 60 10000 0.48 153 05:58 25.02.2022
2934 Clear -10 1034 60 10000 0.48 153 05:31 25.02.2022
2935 Clouds -22 1046 79 10000 2.76 77 00:27 25.02.2022
2936 Clouds -22 1046 81 10000 2.58 75 21:59 24.02.2022
2937 Clouds -22 1046 81 10000 2.58 75 21:40 24.02.2022
2938 Clouds -22 1045 82 10000 2.54 77 21:20 24.02.2022
2939 Clouds -22 1045 83 10000 2.5 76 19:53 24.02.2022
2940 Clouds -21 1044 84 10000 2.5 76 18:45 24.02.2022
2941 Clouds -21 1044 86 10000 2.42 80 18:19 24.02.2022
2942 Clouds -21 1044 86 10000 2.42 80 17:40 24.02.2022
2943 Clouds -20 1043 88 10000 2.14 77 16:50 24.02.2022
2944 Clouds -18 1041 90 10000 1.55 67 16:24 24.02.2022
2945 Clouds -17 1038 91 10000 1.11 66 14:56 24.02.2022
2946 Clouds -17 1038 91 10000 1.11 66 14:36 24.02.2022
2947 Clouds -15 1037 92 10000 0.65 72 13:41 24.02.2022
2948 Clouds -14 1035 92 10000 0.18 325 13:21 24.02.2022
2949 Clouds -11 1031 89 10000 1.09 248 10:41 24.02.2022
2950 Clouds -10 1030 82 10000 1.52 252 09:40 24.02.2022
2951 Clouds -9 1029 74 10000 1.59 251 08:42 24.02.2022
2952 Clouds -9 1029 59 10000 1.12 254 05:59 24.02.2022
2953 Clouds -15 1035 71 10000 2.15 75 02:59 24.02.2022
2954 Clouds -16 1034 68 10000 2.32 77 23:45 23.02.2022
2955 Clouds -16 1034 66 10000 2.55 81 21:53 23.02.2022
2956 Clouds -17 1035 64 10000 2.88 83 20:32 23.02.2022
2957 Clouds -18 1036 62 10000 3.02 80 19:49 23.02.2022
2958 Clouds -19 1037 62 10000 3.15 77 18:42 23.02.2022
2959 Clear -18 1037 63 10000 3.2 77 17:45 23.02.2022
2960 Clear -17 1036 69 10000 3.33 80 15:26 23.02.2022
2961 Clear -17 1036 76 10000 3.18 75 13:28 23.02.2022
2962 Clear -15 1033 77 10000 2.89 77 12:24 23.02.2022
2963 Clear -11 1029 77 10000 1.79 76 10:44 23.02.2022
2964 Clear -6 1026 70 10000 0.2 267 09:24 23.02.2022
2965 Clear -6 1027 61 10000 0.09 149 08:27 23.02.2022
2966 Clouds -7 1028 60 10000 0.24 113 07:18 23.02.2022
2967 Clear -20 1042 74 10000 3.19 76 01:21 23.02.2022
2968 Clear -20 1043 74 10000 3.15 76 23:39 22.02.2022
2969 Clear -20 1043 75 10000 3.08 77 22:51 22.02.2022
2970 Clear -20 1042 75 10000 3.03 75 21:56 22.02.2022
2971 Clear -20 1042 75 10000 3.03 75 21:37 22.02.2022
2972 Clear -20 1043 75 10000 3.04 75 21:18 22.02.2022
2973 Clear -20 1043 75 10000 3.04 75 20:31 22.02.2022
2974 Clear -20 1042 76 10000 3.02 75 19:51 22.02.2022
2975 Clear -20 1042 76 10000 3.02 75 19:31 22.02.2022
2976 Clear -20 1043 78 10000 3.02 75 18:23 22.02.2022
2977 Clear -19 1043 78 10000 3.09 77 17:26 22.02.2022
2978 Clear -19 1043 78 10000 3.09 77 16:41 22.02.2022
2979 Clear -19 1043 80 10000 3.05 77 15:59 22.02.2022
2980 Clear -19 1042 81 10000 3.04 78 14:48 22.02.2022
2981 Clear -18 1041 85 10000 2.88 76 12:52 22.02.2022
2982 Clear -13 1034 84 10000 0.89 71 10:53 22.02.2022
2983 Clear -8 1031 70 10000 0.76 266 08:53 22.02.2022
2984 Clear -9 1032 64 10000 0.45 163 07:27 22.02.2022
2985 Clear -9 1032 64 10000 0.45 163 06:52 22.02.2022
2986 Clear -18 1042 80 10000 2.62 80 02:47 22.02.2022
2987 Clear -21 1046 83 10000 3.16 78 23:18 21.02.2022
2988 Clear -21 1046 84 10000 3.12 78 21:56 21.02.2022
2989 Clear -21 1047 84 10000 3.09 78 20:38 21.02.2022
2990 Clear -21 1048 85 10000 2.96 78 18:47 21.02.2022
2991 Clear -21 1048 86 10000 2.9 78 17:41 21.02.2022
2992 Clear -21 1048 86 10000 2.9 78 17:41 21.02.2022
2993 Clouds -21 1049 89 10000 2.85 76 15:26 21.02.2022
2994 Clouds -21 1049 91 10000 2.81 75 14:22 21.02.2022
2995 Clouds -21 1049 91 10000 2.81 75 13:30 21.02.2022
2996 Clouds -19 1045 96 10000 1.8 71 12:24 21.02.2022
2997 Clouds -17 1042 95 10000 0.28 246 11:20 21.02.2022
2998 Clouds -13 1040 90 10000 1.15 248 09:54 21.02.2022
2999 Clear -14 1041 75 10000 0.97 257 05:35 21.02.2022
3000 Clear -24 1051 86 10000 2.4 76 00:20 21.02.2022
3001 Clear -24 1051 86 10000 2.36 76 22:28 20.02.2022
3002 Clear -24 1051 86 10000 2.36 76 21:43 20.02.2022
3003 Clear -24 1051 86 10000 2.37 78 21:19 20.02.2022
3004 Clear -24 1051 86 10000 2.37 78 20:41 20.02.2022
3005 Clear -24 1051 87 10000 2.39 79 19:42 20.02.2022
3006 Clear -24 1050 87 10000 2.43 78 18:52 20.02.2022
3007 Clouds -24 1051 87 10000 2.43 79 18:32 20.02.2022
3008 Clouds -24 1051 88 10000 2.46 77 17:52 20.02.2022
3009 Clear -23 1050 90 10000 2.54 76 15:54 20.02.2022
3010 Clear -23 1050 91 10000 2.59 74 14:52 20.02.2022
3011 Clouds -23 1049 93 10000 2.53 74 13:33 20.02.2022
3012 Clear -22 1048 94 10000 2.26 72 12:34 20.02.2022
3013 Clear -17 1040 96 10000 0.37 276 10:47 20.02.2022
3014 Clear -13 1038 90 10000 1.2 254 10:20 20.02.2022
3015 Clear -12 1037 82 10000 1.26 259 08:51 20.02.2022
3016 Clouds -25 1049 89 10000 2.7 74 00:54 20.02.2022
3017 Clouds -25 1049 89 10000 2.72 75 00:30 20.02.2022
3018 Clouds -25 1049 89 10000 2.65 74 23:18 19.02.2022
3019 Clouds -25 1050 89 10000 2.65 74 22:22 19.02.2022
3020 Clouds -25 1050 88 10000 2.64 74 21:25 19.02.2022
3021 Clouds -25 1050 88 10000 2.69 74 19:53 19.02.2022
3022 Clouds -25 1050 88 10000 2.69 74 19:30 19.02.2022
3023 Clouds -25 1051 87 10000 2.7 74 18:33 19.02.2022
3024 Clouds -25 1051 87 10000 2.69 74 17:36 19.02.2022
3025 Clouds -25 1052 87 10000 2.8 74 16:28 19.02.2022
3026 Clouds -25 1052 87 10000 2.76 75 14:56 19.02.2022
3027 Clouds -25 1052 87 10000 2.76 75 14:37 19.02.2022
3028 Clouds -25 1051 87 10000 2.58 73 13:22 19.02.2022
3029 Clouds -22 1046 85 10000 1.36 77 11:38 19.02.2022
3030 Clouds -16 1042 80 10000 0.86 249 09:55 19.02.2022
3031 Clouds -16 1043 56 10000 0.59 237 06:54 19.02.2022
3032 Clouds -21 1049 67 10000 1.5 81 03:38 19.02.2022
3033 Clouds -28 1056 76 10000 2.99 75 23:33 18.02.2022
3034 Clouds -28 1057 78 10000 2.99 75 21:50 18.02.2022
3035 Clouds -28 1057 79 10000 3.03 75 20:51 18.02.2022
3036 Clear -29 1058 81 10000 3.14 76 19:53 18.02.2022
3037 Clear -29 1059 83 10000 3.09 75 18:50 18.02.2022
3038 Clear -29 1059 84 10000 3.12 76 18:22 18.02.2022
3039 Clear -29 1059 84 10000 3.12 76 17:50 18.02.2022
3040 Clear -29 1060 88 10000 3.11 78 14:50 18.02.2022
3041 Clear -29 1060 90 10000 3.05 79 13:55 18.02.2022
3042 Clear -29 1059 91 10000 2.87 78 12:53 18.02.2022
3043 Clear -29 1059 90 10000 2.9 78 12:32 18.02.2022
3044 Clear -24 1051 90 10000 0.08 254 11:22 18.02.2022
3045 Clear -20 1048 85 10000 1.11 246 09:52 18.02.2022
3046 Clear -19 1047 68 10000 1.42 255 06:54 18.02.2022
3047 Clear -20 1048 64 10000 1.1 245 05:39 18.02.2022
3048 Clouds -28 1053 76 10000 3.07 75 22:57 17.02.2022
3049 Clouds -28 1053 76 10000 3.11 75 21:44 17.02.2022
3050 Clouds -28 1052 77 10000 3.11 75 21:19 17.02.2022
3051 Clouds -28 1052 77 10000 3.11 75 20:36 17.02.2022
3052 Clouds -28 1052 77 10000 3.14 74 19:48 17.02.2022
3053 Clouds -28 1053 80 10000 3.2 73 18:41 17.02.2022
3054 Clouds -28 1053 82 10000 3.25 73 17:50 17.02.2022
3055 Clouds -28 1052 84 10000 3.24 74 16:20 17.02.2022
3056 Clouds -28 1052 84 10000 3.24 74 16:20 17.02.2022
3057 Clouds -28 1051 85 10000 3.21 74 15:26 17.02.2022
3058 Clouds -27 1050 86 10000 3.17 74 14:21 17.02.2022
3059 Clouds -26 1045 89 10000 2.24 70 12:24 17.02.2022
3060 Clouds -22 1040 91 10000 0.21 93 11:21 17.02.2022
3061 Clear -17 1036 76 10000 1.12 271 08:43 17.02.2022
3062 Clouds -29 1046 86 10000 2.88 74 00:29 17.02.2022
3063 Clouds -29 1045 86 10000 2.77 75 22:41 16.02.2022
3064 Clear -29 1044 84 10000 2.85 71 20:46 16.02.2022
3065 Clear -28 1043 84 10000 2.95 75 19:43 16.02.2022
3066 Clouds -26 1041 81 10000 2.66 82 18:36 16.02.2022
3067 -273 0 0 0 0 0 17:39 16.02.2022
3068 Clouds -27 1041 81 10000 3.02 84 15:30 16.02.2022
3069 Clouds -26 1040 81 10000 3.04 83 14:57 16.02.2022
3070 Clear -25 1038 88 10000 2.99 80 12:35 16.02.2022
3071 Clear -24 1035 88 10000 2.04 72 11:53 16.02.2022
3072 Clear -20 1030 89 10000 0.6 159 11:23 16.02.2022
3073 Clear -16 1027 85 10000 1.53 203 10:29 16.02.2022
3074 Clouds -14 1027 74 10000 1.75 245 06:57 16.02.2022
3075 Clouds -15 1028 78 10000 1.59 268 04:42 16.02.2022
3076 Clouds -18 1029 81 10000 1.36 129 23:35 15.02.2022
3077 Clouds -18 1028 79 10000 2.27 86 22:18 15.02.2022
3078 Clouds -18 1028 79 10000 2.27 86 21:45 15.02.2022
3079 Clouds -18 1028 78 10000 2.12 90 21:26 15.02.2022
3080 Clouds -18 1028 78 10000 2.12 90 20:53 15.02.2022
3081 Clouds -16 1027 79 10000 2.59 76 19:48 15.02.2022
3082 Clouds -14 1026 76 10000 2.75 95 18:45 15.02.2022
3083 Clouds -15 1028 79 10000 2.82 73 18:19 15.02.2022
3084 Clouds -15 1028 79 10000 2.82 73 17:47 15.02.2022
3085 Clouds -20 1033 82 10000 2.93 80 16:30 15.02.2022
3086 Clouds -20 1034 87 10000 3.39 82 14:47 15.02.2022
3087 Clouds -20 1035 91 10000 3.12 79 13:26 15.02.2022
3088 Clouds -19 1033 88 10000 2.54 78 11:54 15.02.2022
3089 Clouds -16 1028 87 10000 0.7 86 10:57 15.02.2022
3090 Clouds -11 1025 72 10000 0.9 230 09:25 15.02.2022
3091 Clouds -12 1026 65 10000 0.42 91 06:48 15.02.2022
3092 Clouds -24 1039 80 10000 3.11 75 00:48 15.02.2022
3093 Clouds -23 1039 78 10000 2.53 76 22:20 14.02.2022
3094 Clouds -22 1037 79 10000 2.28 75 21:24 14.02.2022
3095 Clouds -20 1036 80 10000 2.04 80 20:24 14.02.2022
3096 Clouds -20 1036 80 10000 2.04 80 19:30 14.02.2022
3097 Clouds -19 1035 80 10000 1.81 81 18:27 14.02.2022
3098 Clouds -19 1035 80 10000 1.81 81 17:43 14.02.2022
3099 Clouds -19 1035 80 10000 1.81 81 17:43 14.02.2022
3100 Clouds -19 1035 80 10000 1.81 81 17:43 14.02.2022
3101 Clouds -20 1035 79 10000 2.03 77 17:23 14.02.2022
3102 Clouds -20 1036 79 10000 2.25 75 15:58 14.02.2022
3103 Clouds -21 1036 80 10000 2.41 72 13:40 14.02.2022
3104 Clouds -22 1037 80 10000 2.53 73 13:22 14.02.2022
3105 Clouds -22 1037 80 10000 2.53 73 12:32 14.02.2022
3106 Clouds -22 1036 81 10000 2.7 72 11:47 14.02.2022
3107 Clear -17 1032 80 10000 0.6 80 10:25 14.02.2022
3108 Clear -16 1031 68 10000 0.28 243 08:34 14.02.2022
3109 Clouds -17 1032 63 10000 0.22 138 07:26 14.02.2022
3110 Clear -30 1046 79 10000 2.9 77 23:37 13.02.2022
3111 Clear -30 1046 78 10000 2.89 77 22:41 13.02.2022
3112 Clear -30 1045 77 10000 2.95 77 22:23 13.02.2022
3113 Clear -30 1046 77 10000 2.99 77 21:27 13.02.2022
3114 Clear -30 1046 77 10000 2.99 77 20:30 13.02.2022
3115 Clear -30 1045 78 10000 2.92 77 19:24 13.02.2022
3116 Clear -30 1046 78 10000 2.95 77 18:42 13.02.2022
3117 Clear -29 1045 79 10000 2.9 78 17:54 13.02.2022
3118 Clear -29 1045 80 10000 2.87 79 15:54 13.02.2022
3119 Clear -29 1045 80 10000 2.87 79 15:54 13.02.2022
3120 Clear -29 1045 80 10000 2.87 79 15:54 13.02.2022
3121 Clear -29 1045 80 10000 2.87 79 15:54 13.02.2022
3122 Clear -29 1044 81 10000 2.89 80 14:58 13.02.2022
3123 Clear -28 1043 82 10000 2.84 81 13:59 13.02.2022
3124 Clear -28 1042 83 10000 2.75 80 12:49 13.02.2022
3125 Clear -23 1034 83 10000 0.41 97 11:24 13.02.2022
3126 Clear -19 1031 81 10000 0.39 279 10:28 13.02.2022
3127 Clear -19 1031 81 10000 0.39 279 09:41 13.02.2022
3128 Clear -18 1030 62 10000 0.37 238 07:19 13.02.2022
3129 Clouds -31 1046 90 10000 2.95 77 00:35 13.02.2022
3130 Clouds -31 1046 91 10000 2.97 77 23:39 12.02.2022
3131 Clouds -31 1046 92 10000 2.96 76 22:33 12.02.2022
3132 Clouds -31 1047 93 10000 2.87 77 21:19 12.02.2022
3133 Clouds -31 1047 93 10000 2.87 77 20:32 12.02.2022
3134 Clouds -31 1048 94 10000 2.81 76 19:21 12.02.2022
3135 Clouds -31 1048 94 10000 2.81 76 18:50 12.02.2022
3136 Clouds -31 1048 94 10000 2.81 76 18:32 12.02.2022
3137 Clouds -30 1048 95 10000 2.76 76 16:55 12.02.2022
3138 Clouds -30 1048 95 10000 2.74 76 16:25 12.02.2022
3139 Clouds -30 1048 95 10000 2.74 76 15:49 12.02.2022
3140 Clouds -30 1048 96 9283 2.71 77 14:30 12.02.2022
3141 Clouds -29 1047 98 7605 2.62 75 12:55 12.02.2022
3142 Clouds -24 1040 99 10000 0.08 144 10:36 12.02.2022
3143 Clouds -21 1037 95 10000 1.08 242 09:39 12.02.2022
3144 Clouds -19 1036 88 10000 1.17 252 08:48 12.02.2022
3145 Clouds -19 1036 87 10000 1.25 262 07:53 12.02.2022
3146 Clear -20 1039 84 10000 0.68 236 05:33 12.02.2022
3147 Clouds -24 1043 89 10000 1.43 77 03:32 12.02.2022
3148 Clouds -29 1049 92 10000 2.82 74 02:18 12.02.2022
3149 Clouds -29 1047 95 8444 2.66 72 22:28 11.02.2022
3150 Clouds -29 1047 95 8444 2.66 72 21:47 11.02.2022
3151 Clouds -28 1046 96 7284 2.43 71 20:39 11.02.2022
3152 Clouds -26 1045 96 5070 1.89 69 19:35 11.02.2022
3153 Clouds -26 1045 96 4022 1.84 70 18:59 11.02.2022
3154 Clouds -25 1044 97 2495 1.64 71 17:41 11.02.2022
3155 Clouds -25 1044 97 2375 1.68 76 17:22 11.02.2022
3156 Clouds -25 1044 97 2355 1.71 80 15:55 11.02.2022
3157 Clouds -25 1044 99 2228 1.67 81 14:38 11.02.2022
3158 Clouds -24 1043 100 2306 1.35 81 14:20 11.02.2022
3159 Clouds -24 1043 100 2306 1.35 81 13:52 11.02.2022
3160 Clouds -24 1043 100 2306 1.35 81 13:34 11.02.2022
3161 Clouds -21 1039 100 1032 0.78 240 11:32 11.02.2022
3162 Clouds -18 1036 94 1476 1.43 248 09:45 11.02.2022
3163 Clouds -18 1036 92 1118 1.56 249 08:40 11.02.2022
3164 Clouds -18 1036 93 868 1.74 250 08:22 11.02.2022
3165 Clouds -18 1036 92 1473 1.7 252 06:33 11.02.2022
3166 Clouds -25 1043 82 10000 1.68 87 02:26 11.02.2022
3167 Clouds -25 1042 82 10000 1.96 75 00:47 11.02.2022
3168 Clouds -27 1044 82 10000 2.76 71 22:45 10.02.2022
3169 Clouds -27 1044 83 10000 2.58 74 21:45 10.02.2022
3170 Clouds -26 1044 84 10000 2.64 74 20:54 10.02.2022
3171 Clouds -26 1044 84 10000 2.64 74 20:30 10.02.2022
3172 Clouds -26 1044 86 10000 2.93 71 19:25 10.02.2022
3173 Clouds -27 1044 87 10000 2.93 72 18:44 10.02.2022
3174 Clouds -27 1045 89 10000 2.9 71 17:26 10.02.2022
3175 Clouds -27 1045 89 10000 2.9 71 16:50 10.02.2022
3176 Clouds -26 1044 90 10000 2.83 72 15:47 10.02.2022
3177 Clouds -26 1044 91 10000 2.81 74 15:28 10.02.2022
3178 Clouds -26 1044 91 10000 2.81 74 14:46 10.02.2022
3179 Clouds -26 1044 93 10000 2.89 71 14:23 10.02.2022
3180 Clouds -26 1044 95 10000 2.83 72 13:22 10.02.2022
3181 Clouds -25 1042 95 10000 2.19 72 12:23 10.02.2022
3182 Clouds -25 1042 95 10000 2.19 72 11:33 10.02.2022
3183 Clouds -22 1037 98 10000 0.87 57 10:35 10.02.2022
3184 Clouds -19 1035 95 10000 0.36 299 09:49 10.02.2022
3185 Clouds -17 1034 89 10000 0.68 256 08:53 10.02.2022
3186 Clouds -18 1033 90 10000 1.04 252 06:50 10.02.2022
3187 Clouds -20 1036 97 4687 0.24 123 03:55 10.02.2022
3188 Clouds -22 1036 99 1636 0.92 80 01:43 10.02.2022
3189 Clouds -22 1035 100 1084 0.41 80 00:42 10.02.2022
3190 Clouds -21 1034 100 722 0.36 82 00:24 10.02.2022
3191 Clouds -20 1033 98 615 0.28 40 22:58 09.02.2022
3192 Clouds -20 1033 98 615 0.28 40 22:33 09.02.2022
3193 Clouds -20 1032 95 963 0.26 104 21:49 09.02.2022
3194 Clouds -20 1032 88 8674 0.76 87 21:28 09.02.2022
3195 Clouds -20 1032 88 8674 0.76 87 20:45 09.02.2022
3196 Clouds -20 1032 84 10000 1.26 74 20:23 09.02.2022
3197 Clouds -20 1032 84 10000 1.26 74 19:43 09.02.2022
3198 Clouds -20 1032 83 10000 1.63 72 18:55 09.02.2022
3199 Clouds -22 1034 84 10000 1.73 79 17:24 09.02.2022
3200 Clouds -22 1034 85 10000 1.87 76 16:25 09.02.2022
3201 Clouds -22 1034 85 10000 1.92 78 15:27 09.02.2022
3202 Clouds -23 1035 86 10000 2.02 79 13:32 09.02.2022
3203 Clouds -23 1034 84 10000 1.93 76 11:52 09.02.2022
3204 Clouds -21 1030 85 10000 0.53 73 10:37 09.02.2022
3205 Clouds -18 1027 83 10000 0.64 251 09:56 09.02.2022
3206 Clouds -16 1026 72 10000 0.91 254 09:22 09.02.2022
3207 Clouds -16 1026 72 10000 0.91 254 08:51 09.02.2022
3208 Clouds -16 1026 61 10000 1.15 252 06:56 09.02.2022
3209 Clear -17 1028 59 10000 0.45 104 04:36 09.02.2022
3210 Clouds -20 1031 70 10000 1.67 81 03:49 09.02.2022
3211 Clear -25 1037 68 10000 2.9 75 23:45 08.02.2022
3212 Clear -25 1037 69 10000 2.92 74 23:19 08.02.2022
3213 Clear -25 1037 69 10000 2.92 74 22:38 08.02.2022
3214 Clear -25 1038 70 10000 2.92 75 22:20 08.02.2022
3215 Clouds -25 1038 71 10000 2.87 75 21:22 08.02.2022
3216 Clouds -25 1038 71 10000 2.87 75 20:58 08.02.2022
3217 Clouds -25 1038 71 10000 2.87 75 20:38 08.02.2022
3218 Clouds -26 1039 71 10000 2.83 75 19:28 08.02.2022
3219 Clouds -26 1040 71 10000 2.8 75 18:24 08.02.2022
3220 Clouds -26 1040 71 10000 2.8 75 17:30 08.02.2022
3221 Clouds -26 1041 73 10000 2.87 74 15:47 08.02.2022
3222 Clouds -26 1041 75 10000 2.84 76 15:28 08.02.2022
3223 Clouds -25 1040 77 10000 2.82 75 13:50 08.02.2022
3224 Clouds -23 1037 79 10000 1.99 73 12:24 08.02.2022
3225 Clouds -20 1033 82 10000 0.65 78 10:52 08.02.2022
3226 Clouds -17 1030 81 10000 0.55 222 09:50 08.02.2022
3227 Clouds -14 1029 75 10000 1.07 251 08:53 08.02.2022
3228 Clouds -14 1029 75 10000 1.07 251 08:53 08.02.2022
3229 Clear -13 1029 57 10000 1 247 06:49 08.02.2022
3230 Clear -15 1032 59 10000 0.82 94 04:40 08.02.2022
3231 Clear -19 1036 67 10000 2.07 78 04:22 08.02.2022
3232 Clear -19 1036 67 10000 2.07 78 03:36 08.02.2022
3233 Clear -22 1039 62 10000 2.77 77 03:18 08.02.2022
3234 Clear -22 1039 62 10000 2.77 77 02:59 08.02.2022
3235 Clear -22 1039 62 10000 2.77 77 02:36 08.02.2022
3236 Clear -23 1041 60 10000 3.1 76 02:18 08.02.2022
3237 Clear -23 1041 60 10000 3.1 76 01:44 08.02.2022
3238 Clear -23 1041 61 10000 3.05 76 01:25 08.02.2022
3239 Clear -23 1040 63 10000 3.01 76 00:55 08.02.2022
3240 Clear -23 1040 63 10000 3.01 76 00:32 08.02.2022
3241 Clear -23 1040 64 10000 3.03 75 23:44 07.02.2022
3242 Clear -23 1040 65 10000 3.06 76 23:18 07.02.2022
3243 Clear -23 1040 65 10000 3.06 76 22:59 07.02.2022
3244 Clear -23 1040 65 10000 3.06 76 22:59 07.02.2022
3245 Clear -22 1040 65 10000 3.09 75 22:19 07.02.2022
3246 Clear -22 1040 65 10000 3.09 75 21:51 07.02.2022
3247 Clear -22 1041 66 10000 3.08 75 21:27 07.02.2022
3248 Clear -22 1041 66 10000 3.08 75 20:45 07.02.2022
3249 Clear -22 1041 67 10000 3.08 74 20:27 07.02.2022
3250 Clear -22 1041 67 10000 3.08 74 19:47 07.02.2022
3251 Clear -22 1042 69 10000 3.02 75 18:37 07.02.2022
3252 Clear -22 1042 71 10000 2.94 76 17:23 07.02.2022
3253 Clear -22 1042 71 10000 2.94 76 16:52 07.02.2022
3254 Clear -22 1042 73 10000 3 75 15:48 07.02.2022
3255 Clear -22 1043 78 10000 2.97 75 13:58 07.02.2022
3256 Clear -22 1043 81 10000 2.87 73 13:27 07.02.2022
3257 Clear -22 1043 81 10000 2.87 73 12:35 07.02.2022
3258 Clear -21 1042 83 10000 2.53 73 11:40 07.02.2022
3259 Clear -18 1039 85 10000 1.4 71 11:22 07.02.2022
3260 Clear -18 1039 85 10000 1.4 71 10:41 07.02.2022
3261 Clear -15 1037 83 10000 0.09 311 10:22 07.02.2022
3262 Clear -15 1037 83 10000 0.09 311 09:51 07.02.2022
3263 Clear -13 1035 76 10000 0.65 263 09:18 07.02.2022
3264 Clear -13 1035 69 10000 0.97 252 07:44 07.02.2022
3265 Clear -13 1035 66 10000 0.92 256 06:34 07.02.2022
3266 Clear -15 1038 65 10000 0.38 110 04:31 07.02.2022
3267 Clear -23 1046 73 10000 2.61 75 01:37 07.02.2022
3268 Clear -23 1046 73 10000 2.6 76 00:20 07.02.2022
3269 Clear -24 1046 73 10000 2.56 78 23:20 06.02.2022
3270 Clear -24 1046 73 10000 2.56 78 22:41 06.02.2022
3271 Clear -24 1046 72 10000 2.5 77 21:38 06.02.2022
3272 Clear -24 1046 72 10000 2.41 77 21:20 06.02.2022
3273 Clear -24 1046 72 10000 2.41 77 20:48 06.02.2022
3274 Clear -23 1046 72 10000 2.34 78 20:23 06.02.2022
3275 Clear -23 1046 73 10000 2.32 79 19:18 06.02.2022
3276 Clear -23 1047 74 10000 2.34 77 18:28 06.02.2022
3277 Clear -23 1047 74 10000 2.34 77 17:37 06.02.2022
3278 Clear -23 1047 75 10000 2.42 79 16:52 06.02.2022
3279 Clear -23 1047 76 10000 2.42 78 16:20 06.02.2022
3280 Clear -23 1047 76 10000 2.42 78 15:47 06.02.2022
3281 Clear -23 1046 78 10000 2.47 76 15:24 06.02.2022
3282 Clear -23 1047 81 10000 2.6 73 14:19 06.02.2022
3283 Clear -23 1047 83 10000 2.57 74 13:21 06.02.2022
3284 Clear -22 1046 83 10000 2.1 72 12:27 06.02.2022
3285 Clear -20 1043 85 10000 0.5 85 10:33 06.02.2022
3286 Clear -17 1040 82 10000 0.62 248 09:43 06.02.2022
3287 Clear -15 1039 73 10000 0.81 262 08:41 06.02.2022
3288 Clear -15 1040 63 10000 1.2 257 06:34 06.02.2022
3289 Clear -16 1043 59 10000 0.31 84 05:28 06.02.2022
3290 Clear -25 1053 66 10000 2.53 77 02:25 06.02.2022
3291 Clear -25 1053 66 10000 2.68 76 00:33 06.02.2022
3292 Clear -25 1054 67 10000 2.63 74 23:39 05.02.2022
3293 Clear -26 1055 68 10000 2.56 76 21:47 05.02.2022
3294 Clear -26 1055 69 10000 2.58 77 20:41 05.02.2022
3295 Clear -26 1056 70 10000 2.61 76 20:20 05.02.2022
3296 Clear -26 1056 70 10000 2.61 76 19:42 05.02.2022
3297 Clear -26 1056 71 10000 2.66 75 18:30 05.02.2022
3298 Clear -26 1057 73 10000 2.73 74 17:35 05.02.2022
3299 Clear -26 1057 78 10000 2.78 75 15:51 05.02.2022
3300 Clear -26 1057 81 10000 2.81 72 15:29 05.02.2022
3301 Clear -26 1057 85 10000 2.75 74 13:38 05.02.2022
3302 Clear -26 1057 89 10000 2.7 73 12:46 05.02.2022
3303 Clear -25 1056 91 10000 2.25 73 11:45 05.02.2022
3304 Clear -22 1052 95 10000 1.03 65 10:43 05.02.2022
3305 Clear -19 1050 94 10000 0.66 260 09:50 05.02.2022
3306 Clear -17 1048 87 10000 1.12 252 08:39 05.02.2022
3307 Clear -17 1048 78 10000 1.04 265 06:59 05.02.2022
3308 Clear -17 1048 78 10000 1.04 265 06:35 05.02.2022
3309 Clear -26 1058 86 10000 2.29 77 02:40 05.02.2022
3310 Clouds -27 1059 87 10000 2.62 73 01:18 05.02.2022
3311 Clouds -27 1059 88 10000 2.64 73 00:36 05.02.2022
3312 Clouds -27 1059 88 10000 2.65 74 23:33 04.02.2022
3313 Clouds -27 1059 88 10000 2.69 75 22:39 04.02.2022
3314 Clouds -27 1059 89 10000 2.69 75 21:36 04.02.2022
3315 Clouds -27 1060 89 10000 2.61 74 21:18 04.02.2022
3316 Clouds -27 1059 90 10000 2.54 74 20:29 04.02.2022
3317 Clouds -27 1059 90 10000 2.59 74 18:35 04.02.2022
3318 Clouds -27 1058 93 10000 2.58 75 16:22 04.02.2022
3319 Clouds -26 1058 94 10000 2.61 73 15:18 04.02.2022
3320 Clouds -26 1058 94 10000 2.61 73 14:40 04.02.2022
3321 Clouds -26 1057 98 8165 2.54 72 12:43 04.02.2022
3322 Clouds -25 1055 100 6997 2.02 71 11:45 04.02.2022
3323 Clouds -23 1051 100 10000 0.46 62 10:53 04.02.2022
3324 Clouds -19 1049 99 10000 0.93 249 09:35 04.02.2022
3325 Clouds -17 1047 92 10000 1.28 252 07:44 04.02.2022
3326 Clouds -21 1051 94 7765 1.26 78 03:30 04.02.2022
3327 Clouds -24 1054 95 4358 2 75 02:33 04.02.2022
3328 Clouds -21 1050 97 2277 1.32 81 23:34 03.02.2022
3329 Clouds -21 1050 98 1078 1.18 82 22:48 03.02.2022
3330 Clouds -21 1049 97 2181 1.16 81 21:51 03.02.2022
3331 Clouds -20 1049 97 1863 1.34 81 21:18 03.02.2022
3332 Clouds -20 1048 98 1142 1.33 79 20:21 03.02.2022
3333 Clouds -20 1048 98 1142 1.33 79 19:34 03.02.2022
3334 Clouds -20 1048 98 804 1.28 84 18:50 03.02.2022
3335 Clouds -20 1049 98 1010 1.15 88 17:51 03.02.2022
3336 Clouds -21 1049 98 1633 1.19 86 16:46 03.02.2022
3337 Clouds -19 1048 99 1623 0.96 86 14:54 03.02.2022
3338 Clouds -19 1046 100 1125 0.46 90 13:19 03.02.2022
3339 Clouds -20 1046 100 2247 0.42 77 11:43 03.02.2022
3340 Clouds -14 1040 90 3100 1.28 261 08:55 03.02.2022
3341 Clouds -14 1040 90 1984 1.41 262 07:40 03.02.2022
3342 Clouds -18 1042 99 488 0.7 100 00:34 03.02.2022
3343 Clouds -18 1041 99 461 0.78 97 23:45 02.02.2022
3344 Clouds -18 1040 99 433 0.92 94 22:36 02.02.2022
3345 Clouds -18 1040 99 455 1.02 90 21:37 02.02.2022
3346 Clouds -18 1040 97 699 1.09 79 20:56 02.02.2022
3347 Clouds -18 1040 95 1417 1.23 77 20:00 02.02.2022
3348 Clouds -18 1040 95 1417 1.23 77 19:41 02.02.2022
3349 Clouds -18 1040 93 3533 1.13 75 18:53 02.02.2022
3350 Clouds -18 1040 90 10000 1.18 80 18:22 02.02.2022
3351 Clouds -18 1040 89 10000 1.19 80 17:20 02.02.2022
3352 Clouds -18 1040 89 10000 1.19 80 16:47 02.02.2022
3353 Clouds -18 1039 88 10000 1.27 78 14:18 02.02.2022
3354 Clouds -17 1038 88 10000 0.39 66 12:26 02.02.2022
3355 Clouds -17 1038 88 10000 0.39 66 11:37 02.02.2022
3356 Clouds -16 1036 86 10000 0.61 247 10:38 02.02.2022
3357 Clouds -14 1034 69 10000 1.36 253 07:42 02.02.2022
3358 Clouds -22 1043 69 10000 2.64 75 00:34 02.02.2022
3359 Clouds -24 1045 68 10000 2.8 75 21:55 01.02.2022
3360 Clouds -23 1045 68 10000 2.85 75 20:47 01.02.2022
3361 Clouds -24 1046 69 10000 2.88 75 17:59 01.02.2022
3362 Clouds -23 1046 70 10000 2.92 74 16:43 01.02.2022
3363 Clouds -23 1046 74 10000 2.92 74 14:56 01.02.2022
3364 Clouds -22 1045 80 10000 2.83 73 12:48 01.02.2022
3365 Clouds -20 1042 82 10000 2.41 74 11:34 01.02.2022
3366 Clear -16 1039 66 10000 0.43 110 05:43 01.02.2022
3367 Clear -25 1047 76 10000 2.89 75 23:53 31.01.2022
3368 Clear -25 1047 76 10000 2.89 75 23:34 31.01.2022
3369 Clear -25 1047 76 10000 2.89 75 23:34 31.01.2022
3370 Clear -25 1047 76 10000 2.9 75 22:26 31.01.2022
3371 Clear -25 1047 76 10000 2.9 75 21:33 31.01.2022
3372 Clear -25 1047 76 10000 2.87 76 20:33 31.01.2022
3373 Clear -25 1048 77 10000 2.85 76 19:46 31.01.2022
3374 Clear -25 1047 78 10000 2.86 76 18:26 31.01.2022
3375 Clear -25 1048 78 10000 2.83 76 17:43 31.01.2022
3376 Clear -25 1048 79 10000 2.87 76 16:43 31.01.2022
3377 Clear -25 1048 80 10000 2.85 76 15:43 31.01.2022
3378 Clear -25 1048 84 10000 2.9 75 14:24 31.01.2022
3379 Clear -25 1048 87 10000 2.82 74 12:39 31.01.2022
3380 Clear -24 1046 89 10000 2.51 73 11:58 31.01.2022
3381 Clear -22 1042 92 10000 1.37 76 10:51 31.01.2022
3382 Clear -22 1042 92 10000 1.37 76 10:32 31.01.2022
3383 Clear -16 1037 86 10000 1.01 254 09:27 31.01.2022
3384 Clear -16 1037 86 10000 1.01 254 08:51 31.01.2022
3385 Clear -15 1037 77 10000 0.8 261 08:20 31.01.2022
3386 Clear -17 1039 75 10000 0.2 110 06:21 31.01.2022
3387 Clear -22 1044 84 10000 2 76 03:33 31.01.2022
3388 Clear -27 1048 82 10000 2.75 73 23:19 30.01.2022
3389 Clear -27 1048 81 10000 2.71 73 22:29 30.01.2022
3390 Clear -27 1048 81 10000 2.71 73 21:42 30.01.2022
3391 Clear -27 1049 78 10000 2.75 74 21:19 30.01.2022
3392 Clear -27 1049 78 10000 2.75 74 20:49 30.01.2022
3393 Clear -27 1049 78 10000 2.79 74 20:29 30.01.2022
3394 Clear -27 1049 78 10000 2.79 74 19:52 30.01.2022
3395 Clouds -27 1050 79 10000 2.72 73 18:44 30.01.2022
3396 Clouds -27 1050 80 10000 2.61 72 18:20 30.01.2022
3397 Clouds -27 1049 81 10000 2.44 72 17:27 30.01.2022
3398 Clouds -27 1049 81 10000 2.44 72 16:40 30.01.2022
3399 Clouds -27 1049 81 10000 2.44 72 16:40 30.01.2022
3400 Clouds -25 1047 84 10000 1.99 74 16:22 30.01.2022
3401 Clouds -25 1047 84 10000 1.99 74 15:51 30.01.2022
3402 Clouds -25 1047 84 10000 1.99 74 15:32 30.01.2022
3403 Clouds -24 1047 85 10000 1.93 79 14:46 30.01.2022
3404 Clouds -21 1043 87 10000 1.37 74 12:47 30.01.2022
3405 Clouds -21 1042 87 10000 0.96 79 12:25 30.01.2022
3406 Clouds -20 1041 86 10000 0.04 253 10:36 30.01.2022
3407 Clouds -18 1040 84 10000 0.57 250 09:56 30.01.2022
3408 Clouds -17 1039 74 10000 0.4 240 08:56 30.01.2022
3409 Clouds -18 1040 68 10000 0.45 271 07:29 30.01.2022
3410 Clouds -29 1052 77 10000 2.89 74 01:56 30.01.2022
3411 Clouds -29 1052 79 10000 2.89 74 00:34 30.01.2022
3412 Clouds -29 1053 80 10000 2.65 77 23:20 29.01.2022
3413 Clouds -29 1053 81 10000 2.67 76 21:58 29.01.2022
3414 Clouds -29 1053 82 10000 2.65 76 21:25 29.01.2022
3415 Clouds -29 1053 82 10000 2.65 76 20:35 29.01.2022
3416 Clouds -29 1053 83 10000 2.61 75 19:35 29.01.2022
3417 Clear -29 1053 84 10000 2.82 75 18:53 29.01.2022
3418 Clear -29 1053 85 10000 2.76 75 18:24 29.01.2022
3419 Clear -29 1053 85 10000 2.76 75 17:35 29.01.2022
3420 Clear -29 1053 85 10000 2.89 75 16:37 29.01.2022
3421 Clear -29 1053 88 10000 2.9 74 14:23 29.01.2022
3422 Clear -29 1053 88 10000 2.9 74 13:45 29.01.2022
3423 Clear -29 1052 90 10000 2.88 74 13:24 29.01.2022
3424 Clear -28 1051 91 10000 2.55 72 11:50 29.01.2022
3425 Clear -26 1047 94 10000 1.46 67 11:24 29.01.2022
3426 Clear -21 1042 90 10000 0.85 257 08:57 29.01.2022
3427 Clouds -21 1042 85 10000 0.94 276 06:55 29.01.2022
3428 Clouds -29 1049 94 6238 2.44 74 00:36 29.01.2022
3429 Clouds -29 1048 94 4432 2.41 74 23:52 28.01.2022
3430 Clouds -28 1047 95 3648 2.4 72 22:50 28.01.2022
3431 Clouds -28 1047 95 3769 2.35 71 22:21 28.01.2022
3432 Clouds -28 1047 95 3769 2.35 71 21:36 28.01.2022
3433 Clouds -25 1043 97 3933 1.73 67 20:29 28.01.2022
3434 Clouds -24 1041 97 2352 1.41 71 19:29 28.01.2022
3435 Clouds -24 1041 97 2352 1.41 71 18:42 28.01.2022
3436 Clouds -23 1041 98 1081 1.24 77 16:54 28.01.2022
3437 Clouds -23 1041 98 1151 1.3 79 15:20 28.01.2022
3438 Clouds -22 1040 99 927 0.97 83 13:50 28.01.2022
3439 Clouds -22 1039 100 1171 0.34 270 12:29 28.01.2022
3440 Clouds -20 1037 100 930 1.09 260 11:24 28.01.2022
3441 Clouds -18 1036 95 861 1.5 251 09:52 28.01.2022
3442 Clouds -18 1036 92 539 1.92 244 07:44 28.01.2022
3443 Clouds -18 1036 93 558 1.9 243 06:44 28.01.2022
3444 Clouds -19 1037 97 472 0.99 217 03:56 28.01.2022
3445 Clouds -20 1038 98 436 0.69 126 02:31 28.01.2022
3446 Clouds -21 1039 99 432 1.05 107 01:59 28.01.2022
3447 Clouds -21 1039 99 432 1.05 107 01:30 28.01.2022
3448 Clouds -20 1038 93 610 1.26 122 22:48 27.01.2022
3449 Clouds -21 1038 83 10000 1.41 105 21:45 27.01.2022
3450 Clouds -21 1038 79 10000 1.82 85 21:26 27.01.2022
3451 Clouds -22 1040 77 10000 2.4 80 20:24 27.01.2022
3452 Clouds -24 1042 73 10000 2.89 81 18:24 27.01.2022
3453 Clouds -24 1043 73 10000 3.03 79 17:26 27.01.2022
3454 Clouds -24 1043 73 10000 3.16 80 14:25 27.01.2022
3455 Clouds -23 1042 74 10000 3.19 80 13:19 27.01.2022
3456 Clear -22 1041 73 10000 3.15 78 12:20 27.01.2022
3457 Clear -17 1035 76 10000 1.55 76 09:51 27.01.2022
3458 Clear -15 1033 75 10000 0.9 68 08:41 27.01.2022
3459 Clear -14 1033 69 10000 0.81 81 07:58 27.01.2022
3460 Clear -21 1042 66 10000 2.73 81 03:34 27.01.2022
3461 Clear -25 1046 64 10000 3.27 77 00:25 27.01.2022
3462 Clear -25 1046 65 10000 3.24 77 22:31 26.01.2022
3463 Clear -25 1046 66 10000 3.21 78 21:44 26.01.2022
3464 Clear -25 1047 67 10000 3.22 77 20:57 26.01.2022
3465 Clear -25 1047 67 10000 3.22 77 20:33 26.01.2022
3466 Clear -25 1047 68 10000 3.21 77 19:49 26.01.2022
3467 Clear -25 1047 67 10000 3.18 77 18:52 26.01.2022
3468 Clear -25 1048 68 10000 3.15 77 18:24 26.01.2022
3469 Clear -25 1048 68 10000 3.15 77 17:34 26.01.2022
3470 Clear -25 1048 70 10000 3.14 77 16:56 26.01.2022
3471 Clouds -25 1048 72 10000 3.11 77 16:23 26.01.2022
3472 Clouds -25 1048 74 10000 3.07 77 14:54 26.01.2022
3473 Clear -25 1047 80 10000 2.85 75 12:22 26.01.2022
3474 Clear -22 1043 80 10000 2.04 76 10:56 26.01.2022
3475 Clear -20 1040 81 10000 0.96 75 09:55 26.01.2022
3476 Clear -20 1040 81 10000 0.96 75 09:36 26.01.2022
3477 Clouds -17 1039 68 10000 0.42 282 06:42 26.01.2022
3478 Clouds -27 1048 76 10000 2.74 77 00:26 26.01.2022
3479 Clouds -27 1048 76 10000 2.74 77 23:43 25.01.2022
3480 Clouds -27 1048 77 10000 2.68 75 22:49 25.01.2022
3481 Clouds -27 1048 78 10000 2.68 77 22:19 25.01.2022
3482 Clouds -27 1048 79 10000 2.65 76 21:27 25.01.2022
3483 Clouds -27 1048 79 10000 2.65 76 20:45 25.01.2022
3484 Clouds -27 1048 80 10000 2.74 74 19:57 25.01.2022
3485 Clouds -27 1048 81 10000 2.78 74 19:28 25.01.2022
3486 Clouds -27 1049 84 10000 2.71 75 17:56 25.01.2022
3487 Clouds -27 1049 85 10000 2.65 74 17:20 25.01.2022
3488 Clouds -27 1049 85 10000 2.65 74 16:34 25.01.2022
3489 Clouds -27 1049 86 10000 2.67 75 15:39 25.01.2022
3490 Clouds -27 1049 88 10000 2.63 76 15:19 25.01.2022
3491 Clouds -27 1049 88 10000 2.63 76 14:56 25.01.2022
3492 Clear -27 1047 93 10000 2.45 73 12:21 25.01.2022
3493 Clear -22 1041 95 10000 0.13 241 09:35 25.01.2022
3494 Clouds -19 1040 86 10000 0.92 253 07:52 25.01.2022
3495 Clouds -20 1040 83 10000 0.94 252 07:21 25.01.2022
3496 Clouds -21 1042 77 10000 0.34 92 05:23 25.01.2022
3497 Clear -28 1047 79 10000 2.41 75 00:35 25.01.2022
3498 Clear -27 1046 78 10000 2.39 78 23:36 24.01.2022
3499 Clear -27 1045 77 10000 2.39 81 23:18 24.01.2022
3500 Clear -27 1045 77 10000 2.39 81 22:42 24.01.2022
3501 Clear -26 1044 76 10000 2.46 81 22:19 24.01.2022
3502 Clear -26 1044 76 10000 2.46 81 21:40 24.01.2022
3503 Clear -25 1043 75 10000 2.54 81 21:19 24.01.2022
3504 Clear -25 1042 74 10000 2.68 78 20:26 24.01.2022
3505 Clear -25 1042 74 10000 2.68 78 20:26 24.01.2022
3506 Clear -25 1042 74 10000 2.68 78 19:38 24.01.2022
3507 Clear -24 1041 74 10000 2.79 76 18:50 24.01.2022
3508 Clear -23 1040 75 10000 3.19 72 17:25 24.01.2022
3509 Clear -23 1040 75 10000 3.19 72 16:59 24.01.2022
3510 Clear -23 1040 75 10000 3.19 72 16:30 24.01.2022
3511 Clear -23 1040 79 10000 3.26 72 14:56 24.01.2022
3512 Clear -23 1040 81 10000 3.27 73 13:39 24.01.2022
3513 Clear -23 1040 84 10000 3.22 73 12:33 24.01.2022
3514 Clear -23 1040 86 10000 3.09 73 11:41 24.01.2022
3515 Clear -18 1035 88 10000 1.35 70 10:18 24.01.2022
3516 Clear -18 1035 88 10000 1.35 70 09:44 24.01.2022
3517 Clear -16 1034 80 10000 0.08 214 07:40 24.01.2022
3518 Clear -26 1046 89 10000 2.79 75 01:38 24.01.2022
3519 Clouds -26 1046 90 10000 2.8 75 00:50 24.01.2022
3520 Clouds -26 1046 91 10000 2.74 76 00:29 24.01.2022
3521 Clouds -27 1047 92 10000 2.71 75 22:58 23.01.2022
3522 Clouds -26 1047 93 10000 2.75 75 21:52 23.01.2022
3523 Clouds -26 1047 94 10000 2.78 74 21:27 23.01.2022
3524 Clouds -26 1047 94 10000 2.78 74 20:55 23.01.2022
3525 Clouds -26 1047 95 10000 2.79 75 20:21 23.01.2022
3526 Clouds -26 1047 95 8516 2.78 75 18:53 23.01.2022
3527 Clouds -26 1047 96 5314 2.64 77 18:22 23.01.2022
3528 Clouds -25 1047 96 3998 2.56 76 16:55 23.01.2022
3529 Clouds -25 1047 97 3385 2.44 77 15:46 23.01.2022
3530 Clouds -24 1046 97 3272 2.36 77 14:48 23.01.2022
3531 Clouds -24 1045 99 2944 2.17 77 14:18 23.01.2022
3532 Clouds -24 1044 99 3306 2.21 76 12:44 23.01.2022
3533 Clouds -23 1042 100 4229 1.71 69 12:19 23.01.2022
3534 Clouds -21 1039 100 6423 0.55 59 11:26 23.01.2022
3535 Clouds -21 1039 100 6423 0.55 59 10:57 23.01.2022
3536 Clouds -18 1037 99 10000 0.63 259 10:25 23.01.2022
3537 Clouds -18 1037 99 10000 0.63 259 09:31 23.01.2022
3538 Clouds -16 1035 93 10000 0.92 260 08:33 23.01.2022
3539 Clouds -18 1038 96 2179 1.07 82 03:34 23.01.2022
3540 Clouds -21 1039 97 1549 1.93 77 01:37 23.01.2022
3541 Clouds -21 1038 98 929 1.91 80 00:47 23.01.2022
3542 Clouds -20 1038 98 725 1.75 80 23:59 22.01.2022
3543 Clouds -20 1037 98 771 1.65 85 22:49 22.01.2022
3544 Clouds -19 1036 99 743 1.46 89 22:19 22.01.2022
3545 Clouds -18 1035 99 726 1.31 87 20:33 22.01.2022
3546 Clouds -18 1034 99 514 1.28 88 19:46 22.01.2022
3547 Clouds -17 1034 99 423 1.17 95 18:37 22.01.2022
3548 Clouds -16 1034 98 355 1.01 111 17:46 22.01.2022
3549 Snow -16 1033 98 320 0.86 128 17:25 22.01.2022
3550 Snow -16 1033 98 320 0.86 128 16:54 22.01.2022
3551 Clouds -16 1032 98 332 0.84 149 15:45 22.01.2022
3552 Snow -15 1031 98 295 0.84 169 14:55 22.01.2022
3553 Snow -15 1030 98 287 0.86 183 13:31 22.01.2022
3554 Snow -14 1029 99 365 0.84 205 12:40 22.01.2022
3555 Clouds -14 1028 99 415 0.96 218 12:20 22.01.2022
3556 Clouds -13 1027 98 416 1.33 229 10:54 22.01.2022
3557 Snow -11 1026 95 448 1.6 236 10:25 22.01.2022
3558 Snow -11 1025 93 364 1.84 241 08:59 22.01.2022
3559 Snow -11 1025 93 364 1.84 241 08:39 22.01.2022
3560 Snow -10 1024 92 278 1.97 250 06:46 22.01.2022
3561 Snow -12 1025 96 231 0.73 231 02:40 22.01.2022
3562 Snow -11 1023 97 130 0.81 235 23:52 21.01.2022
3563 Snow -11 1022 97 131 0.85 237 23:21 21.01.2022
3564 Snow -11 1022 97 123 0.92 226 21:34 21.01.2022
3565 Snow -10 1022 97 133 0.55 201 19:35 21.01.2022
3566 Snow -10 1022 97 132 0.19 192 17:53 21.01.2022
3567 Snow -10 1022 97 189 0.32 18 16:37 21.01.2022
3568 Clouds -10 1023 96 288 0.08 343 15:23 21.01.2022
3569 Snow -10 1022 91 10000 0.69 57 12:48 21.01.2022
3570 Clouds -9 1022 91 7054 1.05 300 11:29 21.01.2022
3571 Clouds -9 1022 91 7054 1.05 300 10:47 21.01.2022
3572 Clouds -8 1021 80 10000 0.56 249 09:24 21.01.2022
3573 Clouds -8 1021 75 10000 0.53 246 08:20 21.01.2022
3574 Clouds -11 1025 78 10000 1.65 89 01:55 21.01.2022
3575 Clouds -11 1025 75 10000 2.06 90 22:51 20.01.2022
3576 Clouds -12 1026 74 10000 2.44 89 21:49 20.01.2022
3577 Clouds -12 1026 74 10000 2.25 84 21:27 20.01.2022
3578 Clouds -12 1025 73 10000 2.39 83 19:55 20.01.2022
3579 Clouds -12 1025 71 10000 2.61 82 19:18 20.01.2022
3580 Clouds -13 1027 72 10000 2.77 78 17:37 20.01.2022
3581 Clouds -14 1028 72 10000 3 80 16:24 20.01.2022
3582 Clouds -14 1028 72 10000 3 80 15:31 20.01.2022
3583 Clouds -14 1029 72 10000 3.05 74 14:37 20.01.2022
3584 Clouds -15 1029 73 10000 2.96 73 12:53 20.01.2022
3585 Clouds -14 1028 72 10000 3.03 74 12:29 20.01.2022
3586 Clear -13 1026 73 10000 2.79 73 11:19 20.01.2022
3587 Clear -10 1024 74 10000 1.84 73 10:18 20.01.2022
3588 Clear -8 1022 75 10000 1.03 64 08:51 20.01.2022
3589 Clear -8 1022 69 10000 0.83 103 07:23 20.01.2022
3590 Clouds -16 1029 71 10000 2.53 77 00:40 20.01.2022
3591 Clouds -14 1026 72 10000 2.4 72 22:39 19.01.2022
3592 Clouds -14 1026 71 10000 2.72 76 21:36 19.01.2022
3593 Clouds -14 1026 72 10000 2.69 75 20:59 19.01.2022
3594 Clouds -14 1026 72 10000 2.69 75 20:40 19.01.2022
3595 Clouds -14 1026 74 10000 2.5 74 19:18 19.01.2022
3596 Clouds -14 1027 75 10000 2.46 78 17:51 19.01.2022
3597 Clouds -13 1026 76 10000 2.4 73 17:18 19.01.2022
3598 Clouds -13 1026 77 10000 2.31 77 15:35 19.01.2022
3599 Clouds -12 1025 79 10000 2.1 77 13:38 19.01.2022
3600 Clouds -9 1021 81 10000 1.06 80 12:20 19.01.2022
3601 Clouds -9 1021 81 10000 1.06 80 11:38 19.01.2022
3602 Clouds -7 1019 80 10000 0.32 64 09:49 19.01.2022
3603 Clouds -6 1018 78 10000 0.44 301 09:22 19.01.2022
3604 Clouds -7 1021 72 10000 0.7 141 05:29 19.01.2022
3605 Clouds -11 1026 73 10000 2.13 81 00:22 19.01.2022
3606 Clouds -11 1026 73 10000 2.24 77 23:18 18.01.2022
3607 Clouds -11 1027 73 10000 2.23 76 21:50 18.01.2022
3608 Clouds -12 1027 73 10000 2.23 79 20:38 18.01.2022
3609 Clouds -12 1028 71 10000 2.47 82 19:51 18.01.2022
3610 Clouds -12 1028 71 10000 2.47 82 19:33 18.01.2022
3611 Clouds -13 1030 72 10000 2.5 79 18:23 18.01.2022
3612 Clouds -13 1030 72 10000 2.5 79 17:32 18.01.2022
3613 Clouds -12 1029 71 10000 2.65 85 16:22 18.01.2022
3614 Clouds -12 1029 71 10000 2.63 83 15:25 18.01.2022
3615 Clouds -12 1029 72 10000 2.4 88 14:23 18.01.2022
3616 Clouds -11 1027 74 10000 2.31 79 11:45 18.01.2022
3617 Clouds -10 1026 74 10000 2.31 79 10:30 18.01.2022
3618 Clouds -4 1020 76 10000 0.15 356 08:29 18.01.2022
3619 Clouds -4 1020 76 10000 0.15 356 07:44 18.01.2022
3620 Clouds -9 1025 63 10000 2.93 80 00:42 18.01.2022
3621 Clouds -10 1026 62 10000 3.3 77 22:46 17.01.2022
3622 Clouds -10 1026 61 10000 3.09 80 21:44 17.01.2022
3623 Clouds -10 1027 61 10000 3.37 82 21:24 17.01.2022
3624 Clouds -11 1028 62 10000 3.44 80 18:51 17.01.2022
3625 Clouds -11 1029 63 10000 3.24 74 18:25 17.01.2022
3626 Clouds -10 1028 66 10000 2.9 72 17:22 17.01.2022
3627 Clouds -10 1028 65 10000 3.24 85 15:58 17.01.2022
3628 Clouds -10 1029 67 10000 2.88 66 14:58 17.01.2022
3629 Clouds -10 1029 67 10000 2.88 66 14:31 17.01.2022
3630 Clouds -10 1029 68 10000 3.03 80 13:18 17.01.2022
3631 Clouds -10 1029 68 10000 3.03 80 13:18 17.01.2022
3632 Clouds -10 1029 70 10000 2.85 76 12:22 17.01.2022
3633 Clouds -9 1028 73 10000 2.6 73 10:53 17.01.2022
3634 Clouds -7 1026 75 10000 2.21 72 09:53 17.01.2022
3635 Clouds -5 1024 77 10000 1.88 88 08:44 17.01.2022
3636 Clouds -4 1024 76 10000 1.69 82 07:20 17.01.2022
3637 Clouds -12 1033 72 10000 3.23 85 00:59 17.01.2022
3638 Clouds -13 1035 72 10000 3.24 76 23:33 16.01.2022
3639 Clear -14 1037 68 10000 3.33 71 20:51 16.01.2022
3640 Clear -15 1037 68 10000 3.25 78 20:18 16.01.2022
3641 Clear -15 1038 70 10000 3.36 81 18:45 16.01.2022
3642 Clear -15 1039 71 10000 3.2 79 17:47 16.01.2022
3643 Clear -15 1039 73 10000 3.28 78 16:53 16.01.2022
3644 Clear -15 1040 75 10000 3.19 79 15:40 16.01.2022
3645 Clear -15 1040 77 10000 3.09 81 14:29 16.01.2022
3646 Clouds -15 1038 78 10000 3.02 74 13:21 16.01.2022
3647 Clouds -14 1038 80 10000 2.77 74 11:56 16.01.2022
3648 Clouds -12 1035 80 10000 2.06 73 11:27 16.01.2022
3649 Clouds -9 1032 81 10000 1.28 70 10:27 16.01.2022
3650 Clouds -9 1032 81 10000 1.28 70 09:57 16.01.2022
3651 Clouds -9 1031 80 10000 1.3 69 09:23 16.01.2022
3652 Clouds -9 1031 80 10000 1.3 69 08:53 16.01.2022
3653 Clear -11 1033 78 10000 1.52 80 05:51 16.01.2022
3654 Clear -18 1038 81 10000 2.99 74 00:18 16.01.2022
3655 Clear -18 1037 81 10000 3.05 75 22:38 15.01.2022
3656 Clear -18 1037 81 10000 2.98 74 21:21 15.01.2022
3657 Clear -18 1037 81 10000 2.98 74 20:43 15.01.2022
3658 Clear -18 1037 81 10000 3 73 19:58 15.01.2022
3659 Clear -19 1037 80 10000 3.01 73 19:23 15.01.2022
3660 Clear -19 1037 81 10000 3 76 17:49 15.01.2022
3661 Clear -19 1037 81 10000 2.9 77 16:42 15.01.2022
3662 Clear -18 1037 81 10000 3.09 75 13:57 15.01.2022
3663 Clear -18 1035 82 10000 2.91 77 12:23 15.01.2022
3664 Clear -18 1034 82 10000 2.57 78 11:18 15.01.2022
3665 Clear -13 1029 79 10000 0.86 89 08:36 15.01.2022
3666 Clear -21 1038 62 10000 3.07 77 00:52 15.01.2022
3667 Clear -23 1040 60 10000 3.39 78 21:57 14.01.2022
3668 Clear -23 1040 61 10000 3.36 77 20:42 14.01.2022
3669 Clear -23 1041 61 10000 3.4 78 20:23 14.01.2022
3670 Clear -23 1041 61 10000 3.4 78 19:40 14.01.2022
3671 Clear -24 1042 65 10000 3.23 78 18:28 14.01.2022
3672 Clear -24 1042 67 10000 3.24 77 16:50 14.01.2022
3673 Clear -24 1041 69 10000 3.25 76 15:48 14.01.2022
3674 Clear -24 1041 72 10000 3.21 76 14:46 14.01.2022
3675 Clear -23 1041 75 10000 3.18 76 13:37 14.01.2022
3676 Clouds -23 1039 83 10000 3.09 73 12:29 14.01.2022
3677 Clouds -22 1037 88 10000 2.58 73 11:27 14.01.2022
3678 Clouds -18 1032 90 10000 1.43 73 09:50 14.01.2022
3679 Clouds -16 1030 90 10000 0.55 73 08:51 14.01.2022
3680 Clouds -14 1029 83 10000 0.43 270 06:57 14.01.2022
3681 Clouds -18 1031 91 10000 2.14 60 01:33 14.01.2022
3682 Clouds -14 1025 94 2654 1.56 25 23:19 13.01.2022
3683 Snow -14 1024 95 755 1.3 23 21:38 13.01.2022
3684 Clouds -14 1024 86 2952 1.03 37 21:19 13.01.2022
3685 Clouds -14 1023 75 10000 1.17 81 19:40 13.01.2022
3686 Clouds -15 1023 72 10000 1.28 80 19:22 13.01.2022
3687 Clouds -18 1026 70 10000 2.14 84 17:52 13.01.2022
3688 Clouds -19 1026 66 10000 2.7 79 16:21 13.01.2022
3689 Clouds -19 1026 66 10000 2.7 79 15:37 13.01.2022
3690 Clouds -19 1026 66 10000 2.82 80 14:46 13.01.2022
3691 Clouds -19 1026 68 10000 3.02 87 12:44 13.01.2022
3692 Clouds -15 1020 73 10000 2.11 87 10:25 13.01.2022
3693 Clouds -12 1018 74 10000 1.52 77 08:58 13.01.2022
3694 Clouds -11 1017 73 10000 1.43 90 08:26 13.01.2022
3695 Clouds -11 1018 70 10000 1.57 97 07:23 13.01.2022
3696 Clouds -12 1020 68 10000 1.85 90 05:59 13.01.2022
3697 Clouds -12 1020 68 10000 1.85 90 05:59 13.01.2022
3698 Clouds -14 1022 66 10000 2.48 87 05:19 13.01.2022
3699 Clouds -18 1028 62 10000 3.4 83 01:58 13.01.2022
3700 Clouds -18 1028 62 10000 3.37 82 00:54 13.01.2022
3701 Clouds -18 1029 62 10000 3.37 84 23:49 12.01.2022
3702 Clear -18 1029 63 10000 3.35 82 23:19 12.01.2022
3703 Clear -18 1030 63 10000 3.37 81 21:57 12.01.2022
3704 Clear -18 1031 64 10000 3.37 82 21:22 12.01.2022
3705 Clear -18 1031 64 10000 3.37 82 20:56 12.01.2022
3706 Clear -18 1031 65 10000 3.37 82 19:43 12.01.2022
3707 Clear -18 1032 67 10000 3.33 83 18:30 12.01.2022
3708 Clear -18 1034 68 10000 3.25 81 17:20 12.01.2022
3709 Clear -18 1034 69 10000 3.2 81 16:28 12.01.2022
3710 Clouds -18 1035 69 10000 3.13 83 14:48 12.01.2022
3711 Clouds -17 1035 70 10000 3.12 81 12:59 12.01.2022
3712 Clouds -16 1034 73 10000 3.04 77 10:48 12.01.2022
3713 Clouds -12 1031 74 10000 2.08 75 08:38 12.01.2022
3714 Clear -11 1031 72 10000 1.84 76 07:49 12.01.2022
3715 Clear -11 1031 72 10000 1.84 76 07:31 12.01.2022
3716 Clear -22 1047 63 10000 2.98 77 23:40 11.01.2022
3717 Clear -22 1048 63 10000 2.93 77 22:54 11.01.2022
3718 Clear -23 1049 63 10000 2.9 78 22:22 11.01.2022
3719 Clear -23 1050 63 10000 2.85 76 20:54 11.01.2022
3720 Clear -23 1050 63 10000 2.84 77 19:50 11.01.2022
3721 Clear -24 1051 63 10000 2.83 76 18:31 11.01.2022
3722 Clear -24 1052 63 10000 2.91 76 17:24 11.01.2022
3723 Clear -24 1052 63 10000 2.91 76 16:37 11.01.2022
3724 Clear -24 1053 65 10000 2.92 75 15:39 11.01.2022
3725 Clear -24 1053 67 10000 2.92 76 14:42 11.01.2022
3726 Clear -24 1053 69 10000 2.95 75 13:55 11.01.2022
3727 Clear -24 1053 69 10000 2.95 75 13:35 11.01.2022
3728 Clear -24 1052 72 10000 2.93 76 12:43 11.01.2022
3729 Clear -24 1051 77 10000 2.89 75 11:43 11.01.2022
3730 Clear -18 1043 87 10000 0.46 14 09:29 11.01.2022
3731 Clouds -16 1041 81 10000 0.7 307 06:37 11.01.2022
3732 Clouds -22 1045 92 10000 2.32 63 00:31 11.01.2022
3733 Clouds -21 1043 91 10000 2.09 65 23:41 10.01.2022
3734 Clouds -20 1042 90 10000 1.89 67 23:22 10.01.2022
3735 Clouds -19 1040 89 10000 1.73 75 22:19 10.01.2022
3736 Clouds -19 1040 89 10000 1.73 75 21:54 10.01.2022
3737 Clouds -19 1040 89 10000 1.96 74 21:20 10.01.2022
3738 Clouds -19 1040 89 10000 1.96 74 20:56 10.01.2022
3739 Clouds -19 1040 88 10000 2.2 71 20:28 10.01.2022
3740 Clouds -19 1040 88 10000 2.2 71 19:42 10.01.2022
3741 Clouds -20 1041 85 10000 2.33 71 19:20 10.01.2022
3742 Clouds -20 1041 85 10000 2.33 71 18:48 10.01.2022
3743 Clouds -19 1040 84 10000 2.14 76 17:41 10.01.2022
3744 Clouds -19 1040 83 10000 2.29 79 16:42 10.01.2022
3745 Clouds -18 1039 82 10000 2.31 76 15:45 10.01.2022
3746 Clouds -17 1038 80 10000 2.23 81 14:26 10.01.2022
3747 Clouds -16 1036 78 10000 2.53 80 11:58 10.01.2022
3748 Clouds -15 1034 77 10000 2.18 77 11:25 10.01.2022
3749 Clouds -12 1031 76 10000 1.61 75 09:48 10.01.2022
3750 Clouds -9 1029 75 10000 1.01 86 07:18 10.01.2022
3751 Clouds -10 1031 72 10000 1.56 89 05:49 10.01.2022
3752 Clear -17 1038 68 10000 3.11 78 01:30 10.01.2022
3753 Clouds -17 1038 70 10000 3.31 79 00:25 10.01.2022
3754 Clouds -17 1038 70 10000 3.31 79 23:33 09.01.2022
3755 Clouds -17 1038 74 10000 3.32 78 22:37 09.01.2022
3756 Clouds -17 1039 78 10000 3.36 78 21:46 09.01.2022
3757 Clouds -17 1040 81 10000 3.39 82 21:23 09.01.2022
3758 Clouds -17 1040 81 10000 3.39 82 20:51 09.01.2022
3759 Clouds -17 1040 81 10000 3.39 82 20:33 09.01.2022
3760 Clouds -17 1041 84 10000 3.3 78 19:44 09.01.2022
3761 Clouds -18 1042 86 10000 3.21 79 19:23 09.01.2022
3762 Clear -18 1042 86 10000 3.22 79 18:52 09.01.2022
3763 Clear -18 1042 86 10000 3.22 79 18:33 09.01.2022
3764 Clear -18 1043 88 10000 3.14 77 17:31 09.01.2022
3765 Clear -18 1043 88 10000 3.24 80 16:53 09.01.2022
3766 Clear -18 1044 89 10000 3.14 80 15:57 09.01.2022
3767 Clear -18 1044 89 10000 3.14 80 15:35 09.01.2022
3768 Clear -19 1045 90 10000 3.01 77 14:40 09.01.2022
3769 Clear -19 1045 90 10000 2.88 76 13:50 09.01.2022
3770 Clear -19 1045 90 10000 2.68 76 12:50 09.01.2022
3771 Clear -18 1044 91 10000 2.76 74 11:51 09.01.2022
3772 Clear -18 1043 91 10000 2.38 74 10:52 09.01.2022
3773 Clear -15 1040 90 10000 1.37 67 09:47 09.01.2022
3774 Clear -13 1038 89 10000 0.9 75 08:51 09.01.2022
3775 Clouds -15 1040 87 10000 1.18 85 05:21 09.01.2022
3776 Clouds -19 1042 90 10000 2.3 75 01:24 09.01.2022
3777 Clouds -18 1040 90 10000 1.97 74 23:44 08.01.2022
3778 Clouds -17 1039 89 10000 1.71 75 23:26 08.01.2022
3779 Clouds -16 1038 88 10000 1.39 81 22:28 08.01.2022
3780 Clouds -15 1037 87 10000 1.37 89 21:25 08.01.2022
3781 Clouds -15 1037 87 10000 1.37 89 20:42 08.01.2022
3782 Clouds -16 1037 87 10000 1.54 90 20:20 08.01.2022
3783 Clouds -15 1037 87 10000 1.59 79 18:40 08.01.2022
3784 Clouds -14 1036 85 10000 1.67 78 17:22 08.01.2022
3785 Clouds -14 1036 84 10000 1.87 77 15:52 08.01.2022
3786 Clouds -14 1036 84 10000 2.18 76 14:44 08.01.2022
3787 Clouds -13 1035 84 10000 1.98 71 13:25 08.01.2022
3788 Clouds -11 1032 82 10000 1.29 70 11:28 08.01.2022
3789 Clouds -10 1031 82 10000 0.62 77 10:25 08.01.2022
3790 Clouds -10 1031 82 10000 0.62 77 09:48 08.01.2022
3791 Clouds -8 1030 80 10000 0.94 71 07:50 08.01.2022
3792 Clouds -13 1036 77 10000 2.48 76 02:50 08.01.2022
3793 Clouds -15 1038 81 10000 2.76 75 00:41 08.01.2022
3794 Clouds -13 1036 79 10000 2.34 78 22:47 07.01.2022
3795 Clouds -14 1037 77 10000 2.44 71 20:58 07.01.2022
3796 Clouds -11 1034 79 10000 1.9 81 20:19 07.01.2022
3797 Clouds -10 1034 80 10000 1.73 81 19:23 07.01.2022
3798 Clouds -10 1034 80 10000 1.73 81 18:44 07.01.2022
3799 Clouds -10 1034 79 10000 1.67 89 17:28 07.01.2022
3800 Clouds -10 1034 79 10000 1.67 89 16:39 07.01.2022
3801 Clouds -10 1035 78 10000 1.99 76 13:56 07.01.2022
3802 Clouds -10 1035 78 10000 1.99 76 13:38 07.01.2022
3803 Clouds -10 1035 77 10000 2.11 82 12:49 07.01.2022
3804 Clouds -11 1035 77 10000 2 80 12:49 07.01.2022
3805 Clouds -9 1032 76 10000 1.39 76 09:42 07.01.2022
3806 Clear -14 1038 70 10000 2.94 75 02:56 07.01.2022
3807 Clear -14 1038 70 10000 3 76 01:55 07.01.2022
3808 Clouds -14 1038 70 10000 3.01 76 01:28 07.01.2022
3809 Clouds -14 1038 70 10000 3.01 76 00:59 07.01.2022
3810 Clouds -14 1038 69 10000 3.01 77 00:28 07.01.2022
3811 Clouds -15 1038 70 10000 2.95 75 21:34 06.01.2022
3812 Clouds -14 1038 70 10000 3.04 77 20:22 06.01.2022
3813 Clouds -14 1038 70 10000 3.04 77 19:45 06.01.2022
3814 Clouds -15 1038 72 10000 2.91 77 18:34 06.01.2022
3815 Clouds -14 1038 72 10000 2.81 79 17:41 06.01.2022
3816 Clouds -13 1037 72 10000 2.58 82 16:52 06.01.2022
3817 Clouds -12 1036 72 10000 2.49 79 15:48 06.01.2022
3818 Clouds -12 1035 71 10000 2.44 76 15:27 06.01.2022
3819 Clouds -12 1035 71 10000 2.44 76 14:54 06.01.2022
3820 Clouds -13 1036 69 10000 2.74 76 14:18 06.01.2022
3821 Clouds -14 1037 67 10000 3 76 12:56 06.01.2022
3822 Clouds -14 1036 67 10000 3.1 74 11:43 06.01.2022
3823 Clouds -13 1035 68 10000 3 72 11:23 06.01.2022
3824 Clear -9 1031 73 10000 2.11 70 08:59 06.01.2022
3825 Clouds -16 1038 64 10000 3.15 80 01:37 06.01.2022
3826 Clouds -16 1037 67 10000 2.67 78 23:38 05.01.2022
3827 Clouds -14 1035 67 10000 2.79 79 22:59 05.01.2022
3828 Clouds -14 1035 67 10000 2.79 79 22:33 05.01.2022
3829 Clouds -14 1035 68 10000 2.77 81 21:52 05.01.2022
3830 Clouds -14 1034 69 10000 2.52 83 21:21 05.01.2022
3831 Clouds -14 1033 69 10000 2.15 84 20:19 05.01.2022
3832 Clouds -12 1031 69 10000 2.52 85 18:50 05.01.2022
3833 Clouds -13 1033 68 10000 2.5 85 17:45 05.01.2022
3834 Clouds -12 1032 66 10000 2.54 84 16:51 05.01.2022
3835 Clouds -15 1035 64 10000 3.12 83 15:43 05.01.2022
3836 Clouds -15 1035 63 10000 3.18 79 14:24 05.01.2022
3837 Clouds -15 1035 63 10000 3.28 81 13:25 05.01.2022
3838 Clouds -14 1034 64 10000 3.21 81 11:36 05.01.2022
3839 Clear -10 1029 72 10000 1.53 85 07:47 05.01.2022
3840 Clear -11 1030 69 10000 1.86 85 06:25 05.01.2022
3841 Clouds -17 1035 63 10000 3.25 79 00:59 05.01.2022
3842 Clouds -17 1034 65 10000 3.12 79 23:28 04.01.2022
3843 Clouds -17 1034 65 10000 3.12 79 22:55 04.01.2022
3844 Clouds -16 1034 66 10000 3.04 79 21:31 04.01.2022
3845 Clouds -16 1034 66 10000 3.04 79 21:31 04.01.2022
3846 Clouds -16 1034 66 10000 3.04 79 21:31 04.01.2022
3847 Clouds -17 1033 64 10000 3.26 79 19:22 04.01.2022
3848 Clouds -16 1034 65 10000 3.11 78 17:54 04.01.2022
3849 Clouds -17 1034 64 10000 3.24 78 16:53 04.01.2022
3850 Clouds -17 1034 64 10000 3.2 79 16:25 04.01.2022
3851 Clouds -17 1034 65 10000 3.2 79 14:54 04.01.2022
3852 Clouds -17 1034 65 10000 3.2 79 14:35 04.01.2022
3853 Clouds -16 1033 67 10000 3.23 79 13:29 04.01.2022
3854 Clouds -15 1031 73 10000 3.03 79 10:41 04.01.2022
3855 Clouds -13 1028 75 10000 2.63 79 09:47 04.01.2022
3856 Clouds -11 1026 76 10000 2.05 79 08:34 04.01.2022
3857 Clear -17 1034 72 10000 3.23 78 02:52 04.01.2022
3858 Clear -17 1034 73 10000 3.19 76 00:42 04.01.2022
3859 Clear -17 1034 73 10000 3.2 75 23:34 03.01.2022
3860 Clear -18 1035 73 10000 3.12 75 21:52 03.01.2022
3861 Clear -18 1035 73 10000 3.12 75 21:34 03.01.2022
3862 Clear -18 1036 73 10000 3.1 75 20:26 03.01.2022
3863 Clear -18 1036 72 10000 3.13 76 18:54 03.01.2022
3864 Clear -18 1037 73 10000 3.11 74 18:28 03.01.2022
3865 Clear -19 1038 73 10000 3.11 74 16:59 03.01.2022
3866 Clear -19 1038 73 10000 3.01 75 15:40 03.01.2022
3867 Clear -19 1039 73 10000 3 75 14:31 03.01.2022
3868 Clear -19 1039 73 10000 3 75 14:31 03.01.2022
3869 Clear -19 1039 72 10000 2.95 75 12:48 03.01.2022
3870 Clear -19 1039 73 10000 2.93 71 11:38 03.01.2022
3871 Clear -19 1038 75 10000 2.67 76 10:36 03.01.2022
3872 Clear -14 1033 74 10000 1.23 78 08:48 03.01.2022
3873 Clear -13 1033 75 10000 0.81 80 07:36 03.01.2022
3874 Clouds -19 1037 67 10000 2.77 75 00:29 03.01.2022
3875 Clouds -19 1038 66 10000 2.98 76 23:22 02.01.2022
3876 Clouds -19 1038 66 10000 2.98 76 22:55 02.01.2022
3877 Clouds -19 1038 66 10000 3.08 73 21:46 02.01.2022
3878 Clear -20 1038 66 10000 3.05 76 20:38 02.01.2022
3879 Clear -20 1038 67 10000 3.03 74 20:18 02.01.2022
3880 Clear -20 1038 67 10000 3.03 74 19:31 02.01.2022
3881 Clear -20 1038 66 10000 3.08 76 18:47 02.01.2022
3882 Clear -20 1038 66 10000 3.12 75 17:54 02.01.2022
3883 Clear -20 1038 66 10000 3.12 75 17:36 02.01.2022
3884 Clear -20 1039 66 10000 3.09 78 17:18 02.01.2022
3885 Clear -20 1039 66 10000 3.08 75 16:26 02.01.2022
3886 Clear -20 1039 66 10000 3.07 75 14:34 02.01.2022
3887 Clear -20 1039 67 10000 2.99 75 12:54 02.01.2022
3888 Clear -20 1039 67 10000 2.93 75 12:22 02.01.2022
3889 Clear -20 1039 67 10000 2.93 75 11:32 02.01.2022
3890 Clear -20 1039 70 10000 2.78 74 10:46 02.01.2022
3891 Clear -18 1036 72 10000 2.12 76 09:45 02.01.2022
3892 Clouds -15 1034 68 10000 1.37 85 05:50 02.01.2022
3893 Clouds -20 1037 66 10000 2.52 73 01:48 02.01.2022
3894 Clouds -19 1036 68 10000 2.28 74 23:40 01.01.2022
3895 Clouds -18 1035 68 10000 2.26 78 22:57 01.01.2022
3896 Clouds -18 1034 68 10000 2.19 79 22:23 01.01.2022
3897 Clouds -18 1034 68 10000 2.19 79 21:44 01.01.2022
3898 Clouds -17 1034 68 10000 2.19 78 20:55 01.01.2022
3899 Clouds -18 1034 68 10000 2.31 80 19:58 01.01.2022
3900 Clouds -19 1035 67 10000 2.44 81 19:19 01.01.2022
3901 Clouds -18 1035 64 10000 2.45 81 17:59 01.01.2022
3902 Clouds -20 1037 62 10000 2.86 76 16:41 01.01.2022
3903 Clouds -18 1035 65 10000 2.4 75 16:19 01.01.2022
3904 Clouds -18 1034 65 10000 2.52 75 15:26 01.01.2022
3905 Clouds -17 1034 65 10000 2.53 83 13:58 01.01.2022
3906 Clouds -17 1035 64 10000 2.6 84 12:50 01.01.2022
3907 Clouds -19 1036 63 10000 2.91 79 11:56 01.01.2022
3908 Clouds -20 1037 65 10000 3.05 78 11:23 01.01.2022
3909 Clouds -18 1035 69 10000 2.62 81 10:27 01.01.2022
3910 Clouds -18 1035 69 10000 2.62 81 09:46 01.01.2022
3911 Clouds -15 1033 69 10000 1.6 84 08:26 01.01.2022
3912 Clouds -15 1033 69 10000 1.6 84 07:44 01.01.2022
3913 Clouds -15 1034 66 10000 1.5 88 06:47 01.01.2022
3914 Clouds -18 1039 62 10000 2.46 82 05:27 01.01.2022
3915 Clouds -18 1039 62 10000 2.46 82 04:38 01.01.2022
3916 Clouds -22 1044 57 10000 3.26 77 02:44 01.01.2022
3917 Clear -23 1046 56 10000 3.41 76 23:39 31.12.2021
3918 Clear -24 1048 57 10000 3.43 78 21:53 31.12.2021
3919 Clear -24 1049 57 10000 3.36 79 20:38 31.12.2021
3920 Clear -25 1050 58 10000 3.29 77 19:30 31.12.2021
3921 Clear -25 1050 57 10000 3.3 77 18:37 31.12.2021
3922 Clear -25 1052 58 10000 3.27 77 17:43 31.12.2021
3923 Clear -26 1052 60 10000 3.16 78 17:19 31.12.2021
3924 Clear -26 1052 60 10000 3.16 78 16:38 31.12.2021
3925 Clouds -26 1053 61 10000 3.16 77 15:57 31.12.2021
3926 Clouds -26 1053 63 10000 3.16 78 15:29 31.12.2021
3927 Clouds -26 1053 63 10000 3.16 78 14:56 31.12.2021
3928 Clouds -26 1053 63 10000 3.16 78 14:30 31.12.2021
3929 Clouds -25 1053 67 10000 3.15 76 13:36 31.12.2021
3930 Clouds -25 1052 71 10000 3.08 75 12:45 31.12.2021
3931 Clouds -24 1051 78 10000 2.95 73 11:51 31.12.2021
3932 Clouds -24 1051 78 10000 2.95 73 11:30 31.12.2021
3933 Clouds -23 1049 87 10000 2.52 66 10:38 31.12.2021
3934 Clear -21 1045 92 10000 1.45 42 09:55 31.12.2021
3935 Clear -21 1045 92 10000 1.45 42 09:33 31.12.2021
3936 Clear -18 1041 93 10000 0.75 336 08:39 31.12.2021
3937 Clouds -15 1039 90 10000 1.19 300 07:31 31.12.2021
3938 Clouds -18 1034 71 10000 2.66 79 23:32 30.12.2021
3939 Clouds -16 1033 71 10000 2.43 78 22:34 30.12.2021
3940 Clouds -16 1032 70 10000 2.63 83 21:59 30.12.2021
3941 Clouds -16 1032 70 10000 2.63 83 21:59 30.12.2021
3942 Clouds -16 1032 70 10000 2.63 83 21:37 30.12.2021
3943 Clouds -16 1032 70 10000 2.63 83 21:37 30.12.2021
3944 Clouds -14 1030 70 10000 2.45 90 20:47 30.12.2021
3945 Clouds -14 1030 69 10000 2.78 90 20:28 30.12.2021
3946 Clouds -14 1030 69 10000 2.78 90 19:48 30.12.2021
3947 Clouds -14 1030 69 10000 2.62 89 18:51 30.12.2021
3948 Clouds -14 1030 66 10000 2.76 87 18:20 30.12.2021
3949 Clouds -16 1033 62 10000 3.34 84 16:27 30.12.2021
3950 Clouds -16 1033 62 10000 3.34 84 15:52 30.12.2021
3951 Clouds -16 1033 62 10000 3.34 84 15:52 30.12.2021
3952 Clouds -16 1034 61 10000 3.4 83 14:41 30.12.2021
3953 Clouds -16 1034 60 10000 3.49 86 13:57 30.12.2021
3954 Clouds -16 1034 59 10000 3.53 85 12:52 30.12.2021
3955 Clouds -15 1033 64 10000 3.34 84 11:22 30.12.2021
3956 Clouds -13 1031 68 10000 2.92 86 10:27 30.12.2021
3957 Clouds -11 1029 70 10000 2.56 94 09:27 30.12.2021
3958 Clouds -9 1029 71 10000 1.86 93 06:54 30.12.2021
3959 Clear -14 1036 64 10000 3.3 84 04:20 30.12.2021
3960 Clear -14 1036 64 10000 3.3 84 03:39 30.12.2021
3961 Clear -17 1039 65 10000 3.44 79 00:35 30.12.2021
3962 Clear -17 1040 66 10000 3.45 78 23:35 29.12.2021
3963 Clear -17 1041 68 10000 3.4 76 22:30 29.12.2021
3964 Clear -17 1042 70 10000 3.33 76 21:53 29.12.2021
3965 Clear -17 1042 71 10000 3.28 78 20:40 29.12.2021
3966 Clear -18 1043 72 10000 3.14 77 19:54 29.12.2021
3967 Clear -18 1043 73 10000 3.03 77 19:25 29.12.2021
3968 Clear -18 1044 74 10000 2.9 77 18:26 29.12.2021
3969 Clear -18 1045 75 10000 2.88 75 17:29 29.12.2021
3970 Clear -18 1045 75 10000 2.88 75 16:58 29.12.2021
3971 Clear -18 1045 76 10000 2.84 75 16:19 29.12.2021
3972 Clear -18 1046 77 10000 2.84 75 14:46 29.12.2021
3973 Clouds -19 1047 80 10000 2.82 74 12:49 29.12.2021
3974 Clear -19 1047 82 10000 2.74 73 12:27 29.12.2021
3975 Clear -19 1046 83 10000 2.47 75 10:36 29.12.2021
3976 Clouds -14 1042 82 10000 0.53 68 08:24 29.12.2021
3977 Clear -14 1042 78 10000 0.33 74 06:48 29.12.2021
3978 Clear -15 1044 77 10000 0.56 71 06:27 29.12.2021
3979 Clear -15 1044 77 10000 0.56 71 05:43 29.12.2021
3980 Clear -21 1051 83 10000 2.27 76 03:20 29.12.2021
3981 Clear -21 1051 83 10000 2.27 76 03:20 29.12.2021
3982 Clear -22 1051 82 10000 2.17 78 00:25 29.12.2021
3983 Clear -22 1051 82 10000 2.17 78 23:49 28.12.2021
3984 Clear -22 1050 82 10000 2.23 76 22:45 28.12.2021
3985 Clear -22 1050 82 10000 2.18 73 22:24 28.12.2021
3986 Clear -22 1050 82 10000 2.18 73 21:53 28.12.2021
3987 Clear -22 1050 81 10000 2.07 81 20:48 28.12.2021
3988 Clear -22 1050 81 10000 1.97 79 19:44 28.12.2021
3989 Clouds -21 1049 80 10000 2.04 79 18:44 28.12.2021
3990 Clouds -21 1049 80 10000 2.15 81 18:23 28.12.2021
3991 Clouds -21 1048 80 10000 2.19 78 16:35 28.12.2021
3992 Clouds -21 1048 80 10000 2.2 80 15:52 28.12.2021
3993 Clouds -20 1047 80 10000 1.98 78 15:25 28.12.2021
3994 Clouds -20 1047 80 10000 1.98 78 14:52 28.12.2021
3995 Clouds -19 1046 81 10000 1.97 83 14:21 28.12.2021
3996 Clouds -19 1046 81 10000 1.97 83 13:54 28.12.2021
3997 Clouds -19 1046 81 10000 1.97 83 13:31 28.12.2021
3998 Clouds -18 1044 81 10000 2.19 81 12:55 28.12.2021
3999 Clouds -18 1043 80 10000 2.3 76 11:51 28.12.2021
4000 Clouds -15 1040 80 10000 1.69 70 09:30 28.12.2021
4001 Clouds -13 1037 80 10000 0.64 66 07:31 28.12.2021
4002 Clear -21 1046 67 10000 2.68 74 02:22 28.12.2021
4003 Clear -22 1047 63 10000 2.5 76 23:26 27.12.2021
4004 Clear -22 1047 62 10000 2.42 75 21:54 27.12.2021
4005 Clear -22 1047 62 10000 2.49 75 21:29 27.12.2021
4006 Clear -22 1047 62 10000 2.49 73 20:24 27.12.2021
4007 Clear -22 1047 62 10000 2.49 73 20:24 27.12.2021
4008 Clear -22 1047 62 10000 2.49 73 19:45 27.12.2021
4009 Clouds -22 1048 63 10000 2.52 74 18:54 27.12.2021
4010 Clouds -23 1048 63 10000 2.56 75 17:50 27.12.2021
4011 Clouds -23 1048 63 10000 2.62 77 17:18 27.12.2021
4012 Clouds -23 1048 63 10000 2.43 76 15:53 27.12.2021
4013 Clouds -22 1047 65 10000 2.25 75 14:34 27.12.2021
4014 Clouds -22 1047 65 10000 2.37 76 13:58 27.12.2021
4015 Clouds -22 1047 64 10000 2.61 74 12:49 27.12.2021
4016 Clouds -21 1045 66 10000 2.29 72 10:37 27.12.2021
4017 Clouds -18 1042 68 10000 1.57 73 10:18 27.12.2021
4018 Clouds -16 1040 68 10000 1.07 71 08:41 27.12.2021
4019 Clouds -15 1039 70 10000 1.01 77 07:33 27.12.2021
4020 Clouds -22 1047 55 10000 3.04 77 02:29 27.12.2021
4021 Clear -21 1046 54 10000 3.07 77 00:29 27.12.2021
4022 Clear -21 1046 54 10000 3.07 77 23:42 26.12.2021
4023 Clear -21 1046 54 10000 3.14 77 22:49 26.12.2021
4024 Clear -21 1046 53 10000 3.15 78 21:30 26.12.2021
4025 Clouds -21 1046 53 10000 3.27 78 19:54 26.12.2021
4026 Clouds -20 1047 53 10000 3.3 79 18:29 26.12.2021
4027 Clouds -20 1047 53 10000 3.3 79 17:51 26.12.2021
4028 Clouds -20 1047 53 10000 3.39 79 15:31 26.12.2021
4029 Clouds -20 1047 53 10000 3.46 79 13:43 26.12.2021
4030 Clouds -19 1047 54 10000 3.49 79 13:21 26.12.2021
4031 Clouds -19 1047 54 10000 3.48 80 12:35 26.12.2021
4032 Clouds -18 1046 61 10000 3.42 80 11:18 26.12.2021
4033 Clouds -16 1044 65 10000 3.08 81 09:30 26.12.2021
4034 Clouds -14 1042 68 10000 2.64 84 08:45 26.12.2021
4035 Clouds -13 1041 69 10000 2.25 86 08:23 26.12.2021
4036 Clouds -19 1051 55 10000 3.39 81 01:45 26.12.2021
4037 Clouds -19 1051 55 10000 3.48 80 00:28 26.12.2021
4038 Clouds -19 1051 55 10000 3.48 80 23:35 25.12.2021
4039 Clouds -19 1052 55 10000 3.54 80 22:29 25.12.2021
4040 Clouds -19 1052 55 10000 3.53 80 21:29 25.12.2021
4041 Clouds -19 1053 54 10000 3.53 79 20:18 25.12.2021
4042 Clear -19 1053 55 10000 3.46 80 19:18 25.12.2021
4043 Clear -20 1054 55 10000 3.34 79 18:29 25.12.2021
4044 Clear -19 1054 55 10000 3.36 79 16:49 25.12.2021
4045 Clear -19 1054 54 10000 3.4 79 15:30 25.12.2021
4046 Clear -20 1055 55 10000 3.38 78 14:22 25.12.2021
4047 Clear -19 1055 59 10000 3.32 77 12:21 25.12.2021
4048 Clear -19 1055 64 10000 3.09 76 10:38 25.12.2021
4049 Clear -17 1052 69 10000 2.59 75 09:48 25.12.2021
4050 Clear -14 1050 68 10000 1.47 75 07:27 25.12.2021
4051 Clear -22 1058 57 10000 3.04 75 01:36 25.12.2021
4052 Clear -23 1058 58 10000 3.05 75 00:21 25.12.2021
4053 Clear -23 1058 59 10000 3.1 77 21:57 24.12.2021
4054 Clear -23 1057 63 10000 3.09 75 19:27 24.12.2021
4055 Clear -23 1057 63 10000 3.09 75 18:55 24.12.2021
4056 Clear -22 1056 70 10000 3.13 76 16:44 24.12.2021
4057 Clear -22 1056 74 10000 3.2 76 15:50 24.12.2021
4058 Clear -22 1056 74 10000 3.2 76 15:50 24.12.2021
4059 Clear -22 1055 77 10000 3.15 76 15:20 24.12.2021
4060 Clear -22 1055 77 10000 3.15 76 14:34 24.12.2021
4061 Clear -21 1054 80 10000 3.22 74 13:57 24.12.2021
4062 Clear -21 1054 80 10000 3.22 74 13:32 24.12.2021
4063 Clear -21 1052 82 10000 3.24 72 12:45 24.12.2021
4064 Clear -20 1051 83 10000 3.2 68 11:45 24.12.2021
4065 Clear -20 1049 83 10000 3.01 66 11:24 24.12.2021
4066 Clear -20 1049 83 10000 3.01 66 10:35 24.12.2021
4067 Clear -15 1042 81 10000 1.49 55 08:58 24.12.2021
4068 Clear -13 1040 80 10000 1.11 51 07:58 24.12.2021
4069 Clear -13 1040 80 10000 1.11 51 07:58 24.12.2021
4070 Clear -13 1040 80 10000 1.11 51 07:31 24.12.2021
4071 Clear -20 1045 73 10000 2.77 74 00:47 24.12.2021
4072 Clear -20 1045 72 10000 2.87 74 23:50 23.12.2021
4073 Clear -20 1044 72 10000 2.94 74 22:53 23.12.2021
4074 Clear -20 1044 72 10000 2.91 76 22:24 23.12.2021
4075 Clear -20 1044 72 10000 2.91 76 21:47 23.12.2021
4076 Clear -20 1044 72 10000 2.9 77 20:31 23.12.2021
4077 Clear -20 1044 72 10000 2.9 76 19:30 23.12.2021
4078 Clear -20 1044 71 10000 2.96 73 18:27 23.12.2021
4079 Clear -20 1044 71 10000 2.96 73 17:46 23.12.2021
4080 Clear -19 1044 72 10000 3.03 75 16:27 23.12.2021
4081 Clear -19 1044 72 10000 3.03 75 15:54 23.12.2021
4082 Clear -19 1044 72 10000 3.03 75 15:30 23.12.2021
4083 Clear -20 1044 72 10000 2.91 75 14:42 23.12.2021
4084 Clear -19 1044 73 10000 2.88 76 13:49 23.12.2021
4085 Clear -19 1043 76 10000 2.81 75 11:59 23.12.2021
4086 Clear -18 1042 78 10000 2.58 77 10:36 23.12.2021
4087 Clear -16 1039 78 10000 1.93 75 09:34 23.12.2021
4088 Clear -14 1037 77 10000 1.25 78 08:41 23.12.2021
4089 Clear -13 1037 75 10000 1.18 85 06:20 23.12.2021
4090 Clear -19 1043 74 10000 2.64 77 03:22 23.12.2021
4091 Clear -19 1042 75 10000 2.72 75 22:54 22.12.2021
4092 Clear -19 1042 74 10000 2.73 76 22:22 22.12.2021
4093 Clear -19 1042 74 10000 2.73 76 21:48 22.12.2021
4094 Clear -19 1042 73 10000 2.88 73 21:25 22.12.2021
4095 Clear -19 1042 73 10000 2.88 73 20:41 22.12.2021
4096 Clear -19 1042 73 10000 2.93 73 19:57 22.12.2021
4097 Clear -19 1042 73 10000 2.98 74 18:56 22.12.2021
4098 Clouds -19 1042 76 10000 2.9 75 17:38 22.12.2021
4099 Clouds -19 1042 78 10000 2.84 75 16:32 22.12.2021
4100 Clouds -18 1041 84 10000 2.84 75 15:21 22.12.2021
4101 Clouds -18 1040 90 10000 2.84 73 12:59 22.12.2021
4102 Clouds -17 1039 93 10000 2.77 72 11:50 22.12.2021
4103 Clouds -14 1035 96 10000 1.64 65 09:53 22.12.2021
4104 Clouds -12 1032 97 10000 0.64 45 08:34 22.12.2021
4105 Clouds -10 1031 93 4917 0.33 291 05:56 22.12.2021
4106 Clouds -10 1031 93 4917 0.33 291 05:37 22.12.2021
4107 Clouds -10 1032 94 2283 0.43 27 05:19 22.12.2021
4108 Clouds -10 1032 94 2283 0.43 27 04:42 22.12.2021
4109 Clouds -12 1033 95 1586 0.68 66 03:54 22.12.2021
4110 Clouds -12 1033 95 1586 0.68 66 03:31 22.12.2021
4111 Clouds -12 1031 83 10000 1.62 73 23:49 21.12.2021
4112 Clouds -11 1030 80 10000 1.61 76 22:41 21.12.2021
4113 Clouds -11 1030 78 10000 1.95 76 21:58 21.12.2021
4114 Clouds -11 1030 78 10000 1.95 76 21:33 21.12.2021
4115 Clouds -11 1030 77 10000 2.17 75 20:44 21.12.2021
4116 Clouds -12 1030 76 10000 2.38 79 20:19 21.12.2021
4117 Clouds -12 1030 76 10000 2.38 79 19:40 21.12.2021
4118 Clouds -12 1032 76 10000 2.51 82 18:33 21.12.2021
4119 Clouds -12 1032 75 10000 2.7 80 17:59 21.12.2021
4120 Clouds -12 1032 75 10000 2.7 80 17:40 21.12.2021
4121 Clouds -13 1033 75 10000 2.82 80 15:46 21.12.2021
4122 Clouds -14 1034 73 10000 3.07 76 14:24 21.12.2021
4123 Clouds -14 1034 73 10000 3.07 76 13:42 21.12.2021
4124 Clouds -14 1033 73 10000 3.12 76 12:39 21.12.2021
4125 Clouds -13 1032 75 10000 2.86 74 10:52 21.12.2021
4126 Clear -12 1030 76 10000 2.59 76 09:56 21.12.2021
4127 Clear -10 1028 76 10000 2.17 78 08:57 21.12.2021
4128 Clear -9 1027 76 10000 1.82 75 07:45 21.12.2021
4129 Clouds -9 1027 75 10000 1.68 83 07:23 21.12.2021
4130 Clouds -13 1032 74 10000 2.33 80 04:26 21.12.2021
4131 Clouds -14 1032 73 10000 2.57 83 02:31 21.12.2021
4132 Clouds -12 1027 77 10000 2.15 83 23:55 20.12.2021
4133 Clouds -11 1026 76 10000 2.11 80 22:44 20.12.2021
4134 Clouds -10 1025 75 10000 2.2 81 22:25 20.12.2021
4135 Clouds -10 1025 74 10000 1.62 95 21:27 20.12.2021
4136 Clouds -10 1025 74 10000 1.62 95 20:55 20.12.2021
4137 Clouds -9 1024 73 10000 1.68 86 20:24 20.12.2021
4138 Clouds -9 1024 73 10000 1.68 86 19:38 20.12.2021
4139 Clouds -10 1024 70 10000 2.19 83 19:19 20.12.2021
4140 Clouds -10 1023 71 10000 1.97 86 18:33 20.12.2021
4141 Clouds -11 1024 71 10000 2.04 87 17:51 20.12.2021
4142 Clouds -10 1023 71 10000 2 88 16:47 20.12.2021
4143 Clouds -9 1022 72 10000 1.94 92 16:18 20.12.2021
4144 Clouds -9 1022 72 10000 1.94 92 15:40 20.12.2021
4145 Clouds -10 1022 69 10000 2.42 85 13:49 20.12.2021
4146 Clouds -10 1021 69 10000 2.34 87 12:30 20.12.2021
4147 Clouds -11 1022 67 10000 2.73 80 10:50 20.12.2021
4148 Clouds -10 1021 69 10000 2.61 83 09:40 20.12.2021
4149 Clouds -8 1018 72 10000 1.9 85 08:50 20.12.2021
4150 Clouds -8 1018 72 10000 1.9 85 08:32 20.12.2021
4151 Clouds -7 1017 71 10000 1.68 93 07:35 20.12.2021
4152 Clouds -7 1018 70 10000 1.57 90 06:39 20.12.2021
4153 Clouds -14 1024 61 10000 3.31 81 00:26 20.12.2021
4154 Clouds -14 1025 61 10000 3.3 77 22:58 19.12.2021
4155 Clouds -14 1025 61 10000 3.3 77 22:40 19.12.2021
4156 Clouds -14 1025 60 10000 3.38 77 21:32 19.12.2021
4157 Clouds -14 1026 61 10000 3.36 77 20:42 19.12.2021
4158 Clouds -14 1026 62 10000 3.32 79 20:23 19.12.2021
4159 Clouds -14 1026 62 10000 3.32 79 19:41 19.12.2021
4160 Clouds -14 1027 63 10000 3.27 78 18:42 19.12.2021
4161 Clouds -14 1027 64 10000 3.24 79 17:53 19.12.2021
4162 Clouds -14 1027 64 10000 3.24 79 17:30 19.12.2021
4163 Clouds -15 1027 64 10000 3.23 77 16:41 19.12.2021
4164 Clouds -14 1027 65 10000 3.19 77 15:56 19.12.2021
4165 Clouds -14 1027 67 10000 3.09 81 15:24 19.12.2021
4166 Clouds -14 1027 67 10000 3.09 81 14:45 19.12.2021
4167 Clouds -14 1027 68 10000 2.99 83 13:32 19.12.2021
4168 Clouds -14 1026 69 10000 3.12 78 12:59 19.12.2021
4169 Clouds -13 1025 71 10000 2.95 82 12:29 19.12.2021
4170 Clouds -13 1025 71 10000 2.95 82 11:37 19.12.2021
4171 Clouds -12 1025 73 10000 2.78 84 10:50 19.12.2021
4172 Clouds -11 1023 75 10000 2.39 89 10:22 19.12.2021
4173 Clouds -10 1022 76 10000 2.05 92 08:50 19.12.2021
4174 Clear -8 1021 75 10000 1.7 103 06:45 19.12.2021
4175 Clear -15 1027 69 10000 3.22 78 01:51 19.12.2021
4176 Clouds -15 1027 70 10000 3.18 79 00:54 19.12.2021
4177 Clouds -15 1027 70 10000 3.06 81 23:18 18.12.2021
4178 Clouds -15 1028 70 10000 3.06 81 22:24 18.12.2021
4179 Clouds -15 1028 70 10000 3.06 81 21:43 18.12.2021
4180 Clouds -15 1028 69 10000 3.14 83 21:22 18.12.2021
4181 Clear -15 1029 69 10000 3.18 79 20:26 18.12.2021
4182 Clear -15 1029 69 10000 3.18 79 19:35 18.12.2021
4183 Clouds -15 1030 69 10000 3.13 79 18:24 18.12.2021
4184 Clouds -15 1030 69 10000 3.13 79 17:49 18.12.2021
4185 Clouds -15 1030 69 10000 3.14 80 16:36 18.12.2021
4186 Clouds -15 1031 69 10000 3.18 80 16:18 18.12.2021
4187 Clouds -16 1031 69 10000 3.12 80 14:54 18.12.2021
4188 Clouds -16 1032 70 10000 3.02 83 13:44 18.12.2021
4189 Clouds -15 1030 70 10000 2.92 84 11:55 18.12.2021
4190 Clouds -12 1027 74 10000 1.92 96 09:54 18.12.2021
4191 Clouds -12 1027 74 10000 1.92 96 09:31 18.12.2021
4192 Clouds -10 1026 75 10000 1.5 105 08:36 18.12.2021
4193 Clouds -11 1028 72 10000 1.59 89 06:28 18.12.2021
4194 Clouds -18 1036 74 10000 2.93 83 01:45 18.12.2021
4195 Clouds -19 1037 76 10000 3 78 23:49 17.12.2021
4196 Clouds -19 1038 77 10000 2.99 79 22:39 17.12.2021
4197 Clouds -18 1038 78 10000 2.78 76 21:31 17.12.2021
4198 Clouds -19 1040 77 10000 3.1 81 20:43 17.12.2021
4199 Clouds -20 1041 78 10000 3.12 79 19:56 17.12.2021
4200 Clouds -20 1043 79 10000 3.03 76 18:39 17.12.2021
4201 Clouds -21 1043 80 10000 3 77 17:50 17.12.2021
4202 Clouds -21 1044 82 10000 2.82 77 16:51 17.12.2021
4203 Clouds -21 1044 83 10000 2.7 81 16:27 17.12.2021
4204 Clouds -21 1044 83 10000 2.7 81 15:38 17.12.2021
4205 Clouds -21 1044 84 10000 2.69 79 14:42 17.12.2021
4206 Clouds -22 1046 85 10000 3.02 81 13:45 17.12.2021
4207 Clear -22 1046 84 10000 3.06 82 12:36 17.12.2021
4208 Clear -22 1045 87 10000 2.65 79 10:42 17.12.2021
4209 Clouds -20 1043 86 10000 2.07 82 09:47 17.12.2021
4210 Clouds -17 1040 85 10000 1.26 92 08:31 17.12.2021
4211 Clouds -16 1039 83 10000 0.56 108 07:30 17.12.2021
4212 Clouds -17 1041 87 10000 1.32 81 04:40 17.12.2021
4213 Clouds -17 1039 73 10000 0.94 121 00:22 17.12.2021
4214 Clouds -18 1039 69 10000 1.42 95 22:24 16.12.2021
4215 Clouds -18 1039 69 10000 1.42 95 21:51 16.12.2021
4216 Clouds -18 1039 69 10000 1.42 95 21:33 16.12.2021
4217 Clouds -19 1040 67 10000 1.82 86 20:31 16.12.2021
4218 Clouds -20 1042 66 10000 2.23 80 19:51 16.12.2021
4219 Clouds -21 1043 65 10000 2.48 81 18:42 16.12.2021
4220 Clouds -22 1044 63 10000 2.78 79 18:22 16.12.2021
4221 Clouds -22 1044 63 10000 2.78 79 17:32 16.12.2021
4222 Clouds -23 1047 65 10000 2.99 78 16:23 16.12.2021
4223 Clouds -23 1047 66 10000 3.02 75 15:20 16.12.2021
4224 Clouds -24 1049 68 10000 3.18 79 13:44 16.12.2021
4225 Clouds -23 1049 73 10000 2.92 77 11:48 16.12.2021
4226 Clouds -24 1051 76 10000 3.14 76 11:18 16.12.2021
4227 Clouds -24 1051 76 10000 3.14 76 10:32 16.12.2021
4228 Clear -21 1047 79 10000 2.13 79 08:56 16.12.2021
4229 Clear -21 1050 72 10000 1.36 96 06:23 16.12.2021
4230 Clear -28 1057 80 10000 2.75 78 02:59 16.12.2021
4231 Clear -29 1056 82 10000 2.83 76 23:36 15.12.2021
4232 Clear -29 1056 82 10000 2.7 75 22:49 15.12.2021
4233 Clouds -28 1055 82 10000 2.73 75 22:19 15.12.2021
4234 Clouds -28 1055 82 10000 2.73 75 21:31 15.12.2021
4235 Clouds -28 1055 83 10000 2.69 76 20:32 15.12.2021
4236 Clouds -28 1054 83 10000 2.7 75 19:53 15.12.2021
4237 Clouds -28 1054 83 10000 2.69 73 18:40 15.12.2021
4238 Clouds -28 1054 83 10000 2.73 74 17:57 15.12.2021
4239 Clouds -28 1054 83 10000 2.73 74 17:39 15.12.2021
4240 Clouds -28 1053 84 10000 2.75 75 16:35 15.12.2021
4241 Clouds -28 1052 84 10000 2.73 75 15:47 15.12.2021
4242 Clouds -27 1051 83 10000 2.77 75 15:29 15.12.2021
4243 Clouds -27 1051 82 10000 2.73 76 14:43 15.12.2021
4244 Clouds -26 1049 82 10000 2.79 72 13:27 15.12.2021
4245 Clouds -25 1045 84 10000 2.2 54 10:49 15.12.2021
4246 Clouds -22 1041 84 10000 1.33 5 09:31 15.12.2021
4247 Clouds -18 1036 78 10000 1.53 289 07:47 15.12.2021
4248 Clouds -21 1037 82 10000 2.04 45 02:40 15.12.2021
4249 Clouds -20 1034 88 10000 2.37 42 23:44 14.12.2021
4250 Clouds -20 1032 90 10000 2.42 37 22:52 14.12.2021
4251 Clouds -20 1032 90 10000 2.42 37 22:33 14.12.2021
4252 Clouds -18 1029 93 10000 1.81 30 21:24 14.12.2021
4253 Clouds -18 1028 95 10000 1.35 15 19:44 14.12.2021
4254 Clouds -15 1025 96 9539 1.5 340 19:21 14.12.2021
4255 Snow -15 1024 95 5822 1.44 330 18:34 14.12.2021
4256 Snow -14 1023 97 452 1.56 311 17:50 14.12.2021
4257 Snow -14 1023 98 119 1.29 288 16:43 14.12.2021
4258 Snow -15 1023 99 211 1.12 249 15:52 14.12.2021
4259 Snow -12 1020 97 179 1.72 229 13:33 14.12.2021
4260 Clouds -12 1020 98 276 1.59 228 12:41 14.12.2021
4261 Snow -11 1019 97 165 1.56 229 11:24 14.12.2021
4262 Snow -10 1018 97 212 1.62 233 10:27 14.12.2021
4263 Snow -10 1018 97 212 1.62 233 09:53 14.12.2021
4264 Snow -9 1016 86 1065 2.05 233 08:29 14.12.2021
4265 Snow -9 1016 86 1065 2.05 233 07:59 14.12.2021
4266 Clouds -9 1017 85 10000 1.38 247 06:27 14.12.2021
4267 Clouds -15 1024 88 10000 2.72 81 23:39 13.12.2021
4268 Clouds -15 1024 90 10000 2.6 78 21:57 13.12.2021
4269 Clouds -15 1024 90 10000 2.6 78 21:34 13.12.2021
4270 Clouds -15 1024 90 10000 2.6 78 21:34 13.12.2021
4271 Clouds -14 1023 90 10000 2.38 77 20:50 13.12.2021
4272 Clouds -12 1022 88 10000 2.19 74 19:59 13.12.2021
4273 Clouds -11 1021 84 10000 1.76 92 19:27 13.12.2021
4274 Clouds -12 1022 73 10000 1.7 70 17:27 13.12.2021
4275 Clouds -12 1022 73 10000 1.7 70 17:27 13.12.2021
4276 Clouds -12 1023 71 10000 2.03 75 16:23 13.12.2021
4277 Clouds -12 1023 71 10000 2.03 75 15:43 13.12.2021
4278 Clouds -12 1023 71 10000 2.03 75 15:43 13.12.2021
4279 Clouds -14 1025 70 10000 2.37 77 13:52 13.12.2021
4280 Clouds -16 1027 68 10000 2.86 76 13:18 13.12.2021
4281 Clouds -16 1027 68 10000 2.86 76 12:36 13.12.2021
4282 Clouds -16 1026 70 10000 2.66 75 11:40 13.12.2021
4283 Clouds -15 1026 71 10000 2.73 79 11:19 13.12.2021
4284 Clouds -14 1025 72 10000 2.46 82 10:21 13.12.2021
4285 Clouds -12 1024 73 10000 1.88 80 08:31 13.12.2021
4286 Clouds -11 1024 69 10000 1.5 93 05:37 13.12.2021
4287 Clouds -14 1028 70 10000 2 77 03:32 13.12.2021
4288 Clear -18 1031 64 10000 3.07 76 23:39 12.12.2021
4289 Clear -18 1032 64 10000 2.93 80 21:56 12.12.2021
4290 Clear -18 1032 64 10000 2.94 78 20:46 12.12.2021
4291 Clear -18 1031 63 10000 3.02 82 19:33 12.12.2021
4292 Clear -17 1032 63 10000 3.01 80 17:46 12.12.2021
4293 Clear -17 1032 62 10000 3.16 81 16:29 12.12.2021
4294 Clear -17 1032 62 10000 3.16 81 15:51 12.12.2021
4295 Clear -17 1033 62 10000 3.22 82 15:28 12.12.2021
4296 Clear -17 1033 62 10000 3.22 82 14:37 12.12.2021
4297 Clear -16 1033 62 10000 3.22 81 13:43 12.12.2021
4298 Clear -16 1033 63 10000 3.22 83 12:37 12.12.2021
4299 Clear -15 1033 63 10000 3.26 82 11:45 12.12.2021
4300 Clear -15 1032 65 10000 3.24 82 11:25 12.12.2021
4301 Clear -15 1032 65 10000 3.24 82 10:43 12.12.2021
4302 Clear -13 1031 68 10000 2.85 84 09:45 12.12.2021
4303 Clear -11 1030 70 10000 2.39 87 08:38 12.12.2021
4304 Clear -9 1031 67 10000 2.05 88 06:35 12.12.2021
4305 Clear -12 1036 65 10000 2.37 84 05:28 12.12.2021
4306 Clear -14 1039 63 10000 2.86 80 03:58 12.12.2021
4307 Clear -17 1044 65 10000 3.19 78 00:42 12.12.2021
4308 Clear -18 1046 69 10000 3.07 78 22:42 11.12.2021
4309 Clear -18 1047 71 10000 3.02 77 22:19 11.12.2021
4310 Clear -18 1048 72 10000 2.96 80 21:22 11.12.2021
4311 Clear -19 1049 74 10000 2.93 79 19:40 11.12.2021
4312 Clear -19 1050 75 10000 2.89 77 19:20 11.12.2021
4313 Clear -19 1049 76 10000 2.92 77 18:38 11.12.2021
4314 Clear -19 1050 78 10000 2.84 78 17:41 11.12.2021
4315 Clear -19 1052 80 10000 2.91 76 15:57 11.12.2021
4316 Clear -19 1052 80 10000 2.91 76 15:35 11.12.2021
4317 Clear -19 1053 82 10000 2.92 76 13:46 11.12.2021
4318 Clouds -19 1052 82 10000 2.84 77 11:58 11.12.2021
4319 Clouds -17 1049 81 10000 1.93 80 10:24 11.12.2021
4320 Clouds -17 1049 81 10000 1.93 80 09:37 11.12.2021
4321 Clouds -20 1054 73 10000 2.48 76 03:25 11.12.2021
4322 Clouds -21 1054 75 10000 2.54 75 00:45 11.12.2021
4323 Clouds -21 1054 74 10000 2.6 73 23:40 10.12.2021
4324 Clouds -21 1053 75 10000 2.7 75 22:33 10.12.2021
4325 Clouds -21 1053 76 10000 2.71 76 21:38 10.12.2021
4326 Clouds -21 1053 79 10000 2.67 75 20:22 10.12.2021
4327 Clouds -21 1054 80 10000 2.7 77 19:18 10.12.2021
4328 Clouds -21 1054 79 10000 2.6 77 17:31 10.12.2021
4329 Clouds -21 1054 81 10000 2.67 79 16:34 10.12.2021
4330 Clouds -21 1054 82 10000 2.86 77 15:43 10.12.2021
4331 Clouds -21 1054 84 10000 2.94 77 15:23 10.12.2021
4332 Clouds -21 1054 85 10000 2.95 80 13:53 10.12.2021
4333 Clouds -21 1054 85 10000 2.95 80 13:31 10.12.2021
4334 Clouds -20 1053 87 10000 2.91 79 12:51 10.12.2021
4335 Clouds -21 1052 87 10000 2.83 77 11:36 10.12.2021
4336 Clouds -20 1051 88 10000 2.47 77 10:55 10.12.2021
4337 Clear -18 1047 88 10000 1.47 79 09:36 10.12.2021
4338 Clouds -14 1044 79 10000 0.24 72 07:25 10.12.2021
4339 Clouds -16 1046 78 10000 1.48 76 04:32 10.12.2021
4340 Clouds -20 1048 88 10000 2.6 70 02:29 10.12.2021
4341 Clouds -19 1046 92 10000 2.48 61 23:40 09.12.2021
4342 Clouds -19 1046 92 10000 2.48 61 23:40 09.12.2021
4343 Clouds -18 1044 93 10000 2.41 57 22:41 09.12.2021
4344 Clouds -17 1043 94 10000 2.19 46 22:21 09.12.2021
4345 Clouds -17 1043 94 10000 2.19 46 21:39 09.12.2021
4346 Clouds -15 1040 95 9011 1.45 32 20:34 09.12.2021
4347 Snow -12 1038 95 2139 0.94 13 19:38 09.12.2021
4348 Snow -13 1038 96 212 0.96 41 19:19 09.12.2021
4349 Snow -13 1038 96 243 1.2 66 18:18 09.12.2021
4350 Snow -13 1038 96 243 1.2 66 17:47 09.12.2021
4351 Clouds -14 1037 95 821 1.23 82 17:24 09.12.2021
4352 Clouds -12 1036 94 10000 1.34 114 16:25 09.12.2021
4353 Clouds -12 1034 94 5765 1.55 127 14:59 09.12.2021
4354 Clouds -12 1034 94 5765 1.55 127 14:30 09.12.2021
4355 Clouds -10 1031 91 10000 1.04 151 12:48 09.12.2021
4356 Clouds -10 1030 90 10000 1.39 137 11:33 09.12.2021
4357 Clouds -7 1027 89 10000 0.3 239 10:20 09.12.2021
4358 Snow -5 1023 79 10000 1.53 68 06:59 09.12.2021
4359 Clouds -8 1027 71 10000 2.24 87 03:56 09.12.2021
4360 Clouds -13 1031 74 10000 2.84 74 00:25 09.12.2021
4361 Clouds -13 1031 74 10000 2.84 74 23:37 08.12.2021
4362 Clouds -13 1030 74 10000 3.19 82 22:57 08.12.2021
4363 Clouds -12 1030 75 10000 2.91 81 22:25 08.12.2021
4364 Clouds -12 1030 75 10000 2.91 81 21:33 08.12.2021
4365 Clouds -12 1030 75 10000 2.74 81 20:48 08.12.2021
4366 Clouds -12 1030 75 10000 2.76 81 19:56 08.12.2021
4367 Clouds -12 1031 75 10000 2.85 79 18:58 08.12.2021
4368 Clouds -13 1033 77 10000 3.03 80 18:22 08.12.2021
4369 Clouds -13 1033 78 10000 2.82 77 16:53 08.12.2021
4370 Clouds -13 1033 79 10000 2.81 80 15:42 08.12.2021
4371 Clouds -13 1034 79 10000 2.87 77 15:22 08.12.2021
4372 Clouds -13 1033 79 10000 2.91 80 13:26 08.12.2021
4373 Clouds -12 1031 82 10000 2.64 75 10:44 08.12.2021
4374 Clouds -10 1029 82 10000 2.1 76 09:58 08.12.2021
4375 Clouds -8 1027 82 10000 1.43 69 08:34 08.12.2021
4376 Clear -7 1027 73 10000 1.14 81 06:22 08.12.2021
4377 Clouds -10 1028 74 10000 2.23 86 00:41 08.12.2021
4378 Clouds -7 1024 71 10000 1.52 91 23:22 07.12.2021
4379 Clouds -6 1024 70 10000 2.03 96 21:25 07.12.2021
4380 Clouds -7 1024 69 10000 2.14 83 20:25 07.12.2021
4381 Clouds -8 1025 68 10000 2.29 89 18:59 07.12.2021
4382 Clouds -8 1025 67 10000 2.55 85 18:21 07.12.2021
4383 Clouds -8 1026 67 10000 2.62 82 17:24 07.12.2021
4384 Clouds -8 1026 67 10000 2.62 82 16:53 07.12.2021
4385 Clouds -8 1026 66 10000 2.55 85 16:25 07.12.2021
4386 Clouds -9 1026 65 10000 2.71 85 14:38 07.12.2021
4387 Clouds -9 1027 65 10000 2.76 85 13:40 07.12.2021
4388 Clouds -10 1028 60 10000 3.25 80 12:22 07.12.2021
4389 Clouds -10 1029 61 10000 3.28 80 11:19 07.12.2021
4390 Clouds -9 1028 65 10000 2.88 79 09:36 07.12.2021
4391 Clouds -6 1025 68 10000 1.92 81 07:35 07.12.2021
4392 Clouds -6 1028 63 10000 2.07 79 05:51 07.12.2021
4393 Clouds -8 1030 62 10000 2.42 78 05:26 07.12.2021
4394 Clouds -13 1035 58 10000 3.11 79 23:36 06.12.2021
4395 Clouds -13 1034 58 10000 3.05 81 22:41 06.12.2021
4396 Clouds -13 1034 58 10000 3.07 77 21:59 06.12.2021
4397 Clouds -13 1034 58 10000 3.07 77 21:59 06.12.2021
4398 Clouds -13 1034 58 10000 3.07 77 21:31 06.12.2021
4399 Clouds -12 1034 58 10000 3.09 80 20:32 06.12.2021
4400 Clouds -12 1034 57 10000 3.15 80 19:24 06.12.2021
4401 Clouds -12 1035 57 10000 3.15 79 18:40 06.12.2021
4402 Clouds -12 1035 57 10000 3.18 79 17:54 06.12.2021
4403 Clouds -12 1035 57 10000 3.18 79 17:33 06.12.2021
4404 Clouds -12 1034 57 10000 3.18 80 15:51 06.12.2021
4405 Clouds -11 1034 57 10000 3.3 82 14:38 06.12.2021
4406 Clouds -11 1034 59 10000 3.25 81 13:28 06.12.2021
4407 Clouds -11 1034 59 10000 3.25 81 12:37 06.12.2021
4408 Clouds -7 1029 68 10000 2.75 86 10:23 06.12.2021
4409 Clouds -4 1027 69 10000 1.95 93 07:40 06.12.2021
4410 Clouds -11 1035 55 10000 3.36 83 02:26 06.12.2021
4411 Clouds -12 1037 53 10000 3.58 83 22:26 05.12.2021
4412 Clouds -12 1037 53 10000 3.58 83 21:25 05.12.2021
4413 Clouds -12 1037 53 10000 3.58 83 20:52 05.12.2021
4414 Clouds -12 1038 53 10000 3.65 81 20:18 05.12.2021
4415 Clouds -13 1038 54 10000 3.69 80 19:24 05.12.2021
4416 Clouds -13 1040 55 10000 3.65 80 18:29 05.12.2021
4417 Clouds -13 1040 55 10000 3.65 80 17:49 05.12.2021
4418 Clouds -13 1041 56 10000 3.61 79 17:20 05.12.2021
4419 Clouds -13 1042 58 10000 3.64 79 16:28 05.12.2021
4420 Clouds -13 1042 58 10000 3.64 79 15:59 05.12.2021
4421 Clouds -14 1043 60 10000 3.51 80 14:48 05.12.2021
4422 Clear -14 1043 64 10000 3.5 79 14:29 05.12.2021
4423 Clear -14 1043 64 10000 3.5 79 13:33 05.12.2021
4424 Clear -14 1044 67 10000 3.37 79 12:43 05.12.2021
4425 Clear -14 1043 67 10000 3.31 80 12:25 05.12.2021
4426 Clear -14 1043 67 10000 3.31 80 11:43 05.12.2021
4427 Clear -11 1040 76 10000 2.84 77 10:25 05.12.2021
4428 Clear -11 1040 76 10000 2.84 77 09:35 05.12.2021
4429 Clear -7 1038 75 10000 1.77 76 05:30 05.12.2021
4430 Clear -13 1040 72 10000 3.05 72 01:24 05.12.2021
4431 Clear -13 1040 72 10000 3.05 72 01:24 05.12.2021
4432 Clouds -13 1038 71 10000 2.67 64 22:44 04.12.2021
4433 Clouds -12 1036 69 10000 2.59 69 21:38 04.12.2021
4434 Clouds -12 1035 67 10000 2.76 69 20:47 04.12.2021
4435 Clear -12 1035 65 10000 3 71 19:54 04.12.2021
4436 Clear -12 1035 65 10000 3.01 69 19:24 04.12.2021
4437 Clear -12 1034 63 10000 3.12 79 17:52 04.12.2021
4438 Clear -12 1034 63 10000 3.12 79 17:32 04.12.2021
4439 Clear -12 1035 62 10000 3.12 79 16:47 04.12.2021
4440 Clear -12 1035 61 10000 3.12 82 16:27 04.12.2021
4441 Clouds -11 1033 65 10000 2.8 85 12:57 04.12.2021
4442 Clouds -10 1031 68 10000 2.87 85 11:40 04.12.2021
4443 Clouds -8 1029 69 10000 2.28 102 11:18 04.12.2021
4444 Clouds -6 1026 70 10000 1.76 111 09:44 04.12.2021
4445 Clouds -4 1025 70 10000 1.78 104 08:35 04.12.2021
4446 Clouds -6 1026 63 10000 2.03 93 04:43 04.12.2021
4447 Clouds -8 1028 60 10000 2.62 90 03:36 04.12.2021
4448 Clear -12 1032 50 10000 3.37 77 23:47 03.12.2021
4449 Clear -12 1032 50 10000 3.51 79 22:53 03.12.2021
4450 Clear -12 1033 49 10000 3.67 82 21:57 03.12.2021
4451 Clear -13 1035 52 10000 3.4 79 21:23 03.12.2021
4452 Clear -13 1035 52 10000 3.4 79 20:42 03.12.2021
4453 Clear -13 1035 51 10000 3.52 81 19:28 03.12.2021
4454 Clear -13 1036 52 10000 3.41 79 18:24 03.12.2021
4455 Clear -13 1036 52 10000 3.41 79 17:31 03.12.2021
4456 Clear -13 1037 54 10000 3.14 77 13:40 03.12.2021
4457 Clear -13 1037 54 10000 3.2 78 12:44 03.12.2021
4458 Clear -13 1035 59 10000 3.05 77 11:23 03.12.2021
4459 Clear -9 1031 66 10000 2.12 78 09:25 03.12.2021
4460 Clear -7 1030 67 10000 1.7 79 08:20 03.12.2021
4461 Clear -7 1031 66 10000 1.54 78 06:44 03.12.2021
4462 Clouds -14 1038 53 10000 3.08 75 00:50 03.12.2021
4463 Clear -14 1038 53 10000 3.13 76 00:21 03.12.2021
4464 Clear -14 1038 53 10000 3.13 76 23:38 02.12.2021
4465 Clear -14 1038 52 10000 3.16 74 21:42 02.12.2021
4466 Clear -14 1038 53 10000 3.07 77 20:48 02.12.2021
4467 Clear -14 1038 52 10000 3.05 77 20:29 02.12.2021
4468 Clear -14 1038 52 10000 3.19 75 19:23 02.12.2021
4469 Clear -14 1038 52 10000 3.2 77 17:30 02.12.2021
4470 Clear -13 1039 52 10000 3.3 74 15:42 02.12.2021
4471 Clear -13 1039 53 10000 3.24 76 14:57 02.12.2021
4472 Clear -13 1039 53 10000 3.28 74 13:45 02.12.2021
4473 Clear -13 1038 54 10000 3.29 75 12:52 02.12.2021
4474 Clear -12 1038 55 10000 3.34 73 11:53 02.12.2021
4475 Clear -8 1033 67 10000 2.17 78 09:28 02.12.2021
4476 Clear -7 1032 68 10000 1.71 80 08:27 02.12.2021
4477 Clear -11 1039 61 10000 2.66 75 03:33 02.12.2021
4478 Clear -14 1042 63 10000 3.14 76 00:51 02.12.2021
4479 Clear -14 1043 65 10000 3.22 74 22:41 01.12.2021
4480 Clear -14 1043 65 10000 3.27 74 22:23 01.12.2021
4481 Clear -15 1044 67 10000 3.11 74 20:36 01.12.2021
4482 Clear -15 1045 68 10000 2.95 76 19:51 01.12.2021
4483 Clear -15 1045 69 10000 2.84 75 19:21 01.12.2021
4484 Clear -15 1045 70 10000 2.91 81 17:42 01.12.2021
4485 Clear -15 1046 71 10000 2.88 73 16:38 01.12.2021
4486 Clear -15 1046 72 10000 3.01 75 14:50 01.12.2021
4487 Clear -15 1045 73 10000 3.02 71 13:44 01.12.2021
4488 Clear -14 1044 76 10000 2.72 85 11:42 01.12.2021
4489 Clear -14 1044 78 10000 2.56 85 10:42 01.12.2021
4490 Clear -9 1038 77 10000 1.28 81 08:58 01.12.2021
4491 Clear -8 1037 76 10000 0.7 113 08:26 01.12.2021
4492 Clear -8 1037 76 10000 0.7 113 07:33 01.12.2021
4493 Clear -12 1041 73 10000 2.11 77 04:22 01.12.2021
4494 Clear -12 1041 73 10000 2.11 77 03:39 01.12.2021
4495 Clouds -15 1043 73 10000 2.76 77 00:51 01.12.2021
4496 Clouds -15 1042 73 10000 2.78 75 23:37 30.11.2021
4497 Clouds -15 1042 73 10000 2.74 75 22:48 30.11.2021
4498 Clouds -15 1041 73 10000 2.8 74 20:59 30.11.2021
4499 Clouds -15 1041 73 10000 2.8 74 20:34 30.11.2021
4500 Clouds -15 1041 73 10000 2.79 76 19:53 30.11.2021
4501 Clouds -15 1041 73 10000 2.79 76 19:30 30.11.2021
4502 Clouds -15 1041 72 10000 2.82 75 18:33 30.11.2021
4503 Clouds -14 1041 72 10000 2.74 76 16:34 30.11.2021
4504 Clear -14 1040 72 10000 2.78 75 14:35 30.11.2021
4505 Clear -14 1040 72 10000 2.81 77 13:52 30.11.2021
4506 Clouds -14 1039 72 10000 2.83 77 13:24 30.11.2021
4507 Clouds -14 1039 72 10000 2.83 77 13:24 30.11.2021
4508 Clouds -13 1039 72 10000 2.86 77 12:44 30.11.2021
4509 Clouds -12 1037 75 10000 2.79 72 11:27 30.11.2021
4510 Clouds -12 1037 75 10000 2.79 72 10:47 30.11.2021
4511 Clouds -10 1035 76 10000 2.2 73 10:29 30.11.2021
4512 Clouds -8 1033 75 10000 1.55 72 08:51 30.11.2021
4513 Clouds -7 1032 75 10000 1.08 79 08:20 30.11.2021
4514 Clouds -7 1032 75 10000 1.08 79 07:39 30.11.2021
4515 Clear -14 1041 70 10000 3.07 77 01:52 30.11.2021
4516 Clear -14 1041 70 10000 3.07 77 01:32 30.11.2021
4517 Clear -14 1042 72 10000 3.08 77 23:57 29.11.2021
4518 Clear -14 1042 73 10000 3.01 78 23:21 29.11.2021
4519 Clear -14 1042 73 10000 3.01 78 22:44 29.11.2021
4520 Clear -15 1043 74 10000 3.04 76 22:25 29.11.2021
4521 Clear -15 1044 75 10000 2.99 76 21:22 29.11.2021
4522 Clear -15 1044 75 10000 2.99 76 20:56 29.11.2021
4523 Clear -15 1044 76 10000 3.06 77 20:22 29.11.2021
4524 Clear -15 1044 76 10000 3.06 77 19:44 29.11.2021
4525 Clear -15 1045 77 10000 3.2 77 19:26 29.11.2021
4526 Clear -15 1045 77 10000 3.2 77 18:47 29.11.2021
4527 Clouds -15 1047 80 10000 3.07 78 17:22 29.11.2021
4528 Clouds -15 1047 80 10000 3.07 78 16:56 29.11.2021
4529 Clouds -15 1047 81 10000 2.99 78 16:25 29.11.2021
4530 Clear -15 1047 81 10000 2.88 81 15:24 29.11.2021
4531 Clear -15 1047 81 10000 2.88 81 14:41 29.11.2021
4532 Clear -15 1048 83 10000 2.86 78 13:25 29.11.2021
4533 Clear -14 1046 83 10000 2.69 77 12:22 29.11.2021
4534 Clear -14 1046 83 10000 2.69 77 11:31 29.11.2021
4535 Clear -12 1043 83 10000 1.68 82 10:27 29.11.2021
4536 Clear -9 1041 82 10000 0.77 91 08:30 29.11.2021
4537 Clear -8 1041 71 10000 0.41 35 05:54 29.11.2021
4538 Clouds -15 1046 78 10000 2.51 69 01:31 29.11.2021
4539 Clouds -16 1047 75 10000 2.63 68 00:35 29.11.2021
4540 Clouds -16 1046 73 10000 2.59 71 23:41 28.11.2021
4541 Clouds -16 1046 72 10000 2.62 74 22:30 28.11.2021
4542 Clouds -15 1045 71 10000 2.52 72 21:41 28.11.2021
4543 Clouds -15 1044 71 10000 2.28 73 20:51 28.11.2021
4544 Clouds -14 1044 70 10000 2.14 72 19:54 28.11.2021
4545 Clouds -14 1044 71 10000 2.14 70 18:42 28.11.2021
4546 Clouds -14 1044 70 10000 2.14 65 18:23 28.11.2021
4547 Clouds -14 1044 70 10000 2.14 65 17:46 28.11.2021
4548 Clouds -14 1044 71 10000 2.21 73 17:18 28.11.2021
4549 Clouds -14 1044 69 10000 2.12 77 16:28 28.11.2021
4550 Clouds -14 1044 69 10000 2.12 77 15:51 28.11.2021
4551 Clouds -15 1045 70 10000 2.59 80 14:56 28.11.2021
4552 Clouds -16 1046 69 10000 2.7 84 14:29 28.11.2021
4553 Clear -17 1047 71 10000 2.86 82 12:55 28.11.2021
4554 Clear -17 1047 72 10000 2.86 79 11:56 28.11.2021
4555 Clear -17 1047 75 10000 2.68 85 10:37 28.11.2021
4556 Clear -15 1045 75 10000 1.93 85 10:18 28.11.2021
4557 Clear -15 1045 75 10000 1.93 85 09:36 28.11.2021
4558 Clear -14 1046 59 10000 1.38 93 05:23 28.11.2021
4559 Clear -19 1048 84 10000 2.84 72 22:58 27.11.2021
4560 Clear -18 1047 88 10000 2.95 66 20:33 27.11.2021
4561 Clouds -17 1045 89 10000 2.85 57 18:47 27.11.2021
4562 Clouds -14 1042 89 10000 2.49 44 16:31 27.11.2021
4563 Clouds -13 1040 90 10000 2.17 46 15:32 27.11.2021
4564 Clouds -11 1036 91 10000 1.22 57 13:41 27.11.2021
4565 Clouds -9 1033 91 10000 0.8 47 12:27 27.11.2021
4566 Clouds -9 1032 89 10000 0.44 345 10:31 27.11.2021
4567 Clouds -7 1030 87 10000 0.52 248 09:41 27.11.2021
4568 Snow -5 1027 80 10000 1.5 228 07:44 27.11.2021
4569 Clouds -6 1027 76 10000 1.3 82 04:55 27.11.2021
4570 Clouds -6 1023 73 10000 2.06 66 00:31 27.11.2021
4571 Clouds -6 1023 73 10000 1.9 69 23:29 26.11.2021
4572 Clouds -7 1024 73 10000 1.96 83 22:25 26.11.2021
4573 Clouds -7 1024 73 10000 1.96 83 21:34 26.11.2021
4574 Clouds -7 1023 72 10000 2.02 86 20:45 26.11.2021
4575 Clouds -7 1023 69 10000 2.49 89 19:56 26.11.2021
4576 Clouds -8 1024 68 10000 2.94 84 19:28 26.11.2021
4577 Clouds -8 1024 68 10000 2.9 79 17:55 26.11.2021
4578 Clouds -8 1024 67 10000 3.06 81 17:21 26.11.2021
4579 Clouds -8 1025 67 10000 3.17 84 15:56 26.11.2021
4580 Clouds -7 1023 66 10000 3.16 84 13:35 26.11.2021
4581 Clouds -8 1023 66 10000 3.28 88 12:30 26.11.2021
4582 Clouds -7 1022 69 10000 3.07 90 10:37 26.11.2021
4583 Clouds -4 1019 72 10000 2.43 96 08:58 26.11.2021
4584 Clear -3 1018 72 10000 2.61 106 08:21 26.11.2021
4585 Clouds -2 1018 71 10000 2.35 99 07:26 26.11.2021
4586 Clouds -3 1019 70 10000 2.57 92 06:26 26.11.2021
4587 Clouds -7 1024 69 10000 3.33 91 03:59 26.11.2021
4588 Clouds -9 1026 69 10000 3.57 89 02:52 26.11.2021
4589 Clouds -10 1027 68 10000 3.49 86 23:18 25.11.2021
4590 Clear -10 1028 69 10000 3.32 88 21:27 25.11.2021
4591 Clear -10 1028 69 10000 3.39 87 20:27 25.11.2021
4592 Clear -9 1028 69 10000 3.47 86 18:48 25.11.2021
4593 Clear -9 1029 70 10000 3.54 87 17:48 25.11.2021
4594 Clouds -9 1029 70 10000 3.58 84 17:25 25.11.2021
4595 Clouds -9 1029 70 10000 3.58 84 16:33 25.11.2021
4596 Clouds -9 1030 70 10000 3.5 86 15:33 25.11.2021
4597 Clouds -9 1030 72 10000 3.37 89 13:50 25.11.2021
4598 Clouds -9 1029 73 10000 3.34 86 12:27 25.11.2021
4599 Clouds -9 1029 73 10000 3.34 86 11:50 25.11.2021
4600 Clouds -6 1027 77 10000 2.76 88 09:41 25.11.2021
4601 Clouds -3 1024 73 10000 2.24 95 06:22 25.11.2021
4602 Clear -9 1030 75 10000 3.17 84 02:50 25.11.2021
4603 Clouds -10 1029 76 10000 3.05 86 23:28 24.11.2021
4604 Clouds -10 1030 75 10000 3.2 78 22:25 24.11.2021
4605 Clouds -10 1030 75 10000 3.2 78 21:38 24.11.2021
4606 Clouds -10 1030 75 10000 3.16 76 20:53 24.11.2021
4607 Clouds -10 1029 75 10000 3.12 79 20:26 24.11.2021
4608 Clouds -9 1029 75 10000 3.03 79 18:31 24.11.2021
4609 Clouds -9 1029 75 10000 3 81 17:58 24.11.2021
4610 Clouds -10 1029 74 10000 3.2 81 15:47 24.11.2021
4611 Clouds -10 1028 75 10000 3.06 83 14:54 24.11.2021
4612 Clouds -9 1028 76 10000 3.16 84 14:20 24.11.2021
4613 Clouds -9 1027 77 10000 3.18 83 12:50 24.11.2021
4614 Clouds -9 1025 80 10000 2.7 86 11:22 24.11.2021
4615 Clouds -9 1025 80 10000 2.7 86 10:49 24.11.2021
4616 Clouds -6 1022 80 10000 1.97 101 10:26 24.11.2021
4617 Clouds -3 1019 77 10000 0.62 144 07:55 24.11.2021
4618 Clouds -3 1019 73 10000 1.16 145 06:56 24.11.2021
4619 Clouds -7 1023 69 10000 2.55 104 03:57 24.11.2021
4620 Clouds -11 1026 68 10000 3.07 89 00:58 24.11.2021
4621 Clouds -11 1026 65 10000 3.48 85 22:58 23.11.2021
4622 Clouds -11 1026 65 10000 3.48 85 22:34 23.11.2021
4623 Clouds -11 1026 65 10000 3.33 87 21:45 23.11.2021
4624 Clouds -11 1027 65 10000 3.32 85 20:21 23.11.2021
4625 Clouds -11 1028 64 10000 3.35 88 18:44 23.11.2021
4626 Clouds -11 1029 65 10000 3.11 86 18:24 23.11.2021
4627 Clouds -12 1029 65 10000 3.22 88 17:23 23.11.2021
4628 Clouds -12 1029 65 10000 3.22 88 16:35 23.11.2021
4629 Clouds -12 1030 66 10000 3.17 88 15:23 23.11.2021
4630 Clouds -12 1029 64 10000 3.29 88 14:32 23.11.2021
4631 Clouds -11 1028 68 10000 3.26 93 11:57 23.11.2021
4632 Clouds -9 1025 72 10000 2.64 90 10:24 23.11.2021
4633 Clear -7 1024 72 10000 2.37 91 09:23 23.11.2021
4634 Clouds -5 1024 69 10000 1.21 108 07:28 23.11.2021
4635 Clouds -9 1028 66 10000 2.34 87 03:56 23.11.2021
4636 Clouds -9 1030 67 10000 2.54 95 03:25 23.11.2021
4637 Clouds -12 1031 60 10000 2.77 87 23:23 22.11.2021
4638 Clouds -12 1031 60 10000 2.77 87 22:53 22.11.2021
4639 Clouds -12 1031 59 10000 2.93 84 22:29 22.11.2021
4640 Clouds -12 1031 59 10000 2.93 84 21:44 22.11.2021
4641 Clouds -12 1031 58 10000 2.98 81 20:56 22.11.2021
4642 Clouds -12 1031 58 10000 3.03 80 19:58 22.11.2021
4643 Clouds -12 1031 58 10000 3.09 77 19:19 22.11.2021
4644 Clouds -12 1031 58 10000 3.1 75 18:40 22.11.2021
4645 Clouds -12 1030 58 10000 3.18 78 17:45 22.11.2021
4646 Clouds -12 1031 58 10000 3.31 79 16:22 22.11.2021
4647 Clouds -12 1031 60 10000 3.35 79 14:20 22.11.2021
4648 Clouds -12 1031 62 10000 3.37 79 12:43 22.11.2021
4649 Clouds -11 1030 66 10000 3.29 77 10:43 22.11.2021
4650 Clouds -10 1029 70 10000 2.86 74 09:48 22.11.2021
4651 Clouds -8 1027 71 10000 2.18 76 08:41 22.11.2021
4652 Clear -6 1027 64 10000 1.55 85 06:43 22.11.2021
4653 Clouds -15 1037 68 10000 2.9 78 23:35 21.11.2021
4654 Clouds -15 1037 68 10000 2.89 79 22:51 21.11.2021
4655 Clouds -15 1038 68 10000 2.91 77 22:19 21.11.2021
4656 Clouds -15 1038 68 10000 2.91 79 20:42 21.11.2021
4657 Clouds -15 1039 68 10000 2.91 75 19:59 21.11.2021
4658 Clouds -15 1039 68 10000 2.97 77 18:30 21.11.2021
4659 Clear -15 1040 68 10000 2.95 77 17:39 21.11.2021
4660 Clear -15 1040 68 10000 3 77 16:46 21.11.2021
4661 Clear -16 1042 69 10000 3.08 77 14:46 21.11.2021
4662 Clear -16 1042 69 10000 3.08 77 13:49 21.11.2021
4663 Clear -16 1043 71 10000 3.05 77 12:55 21.11.2021
4664 Clear -16 1043 73 10000 3.03 75 11:57 21.11.2021
4665 Clear -16 1043 73 10000 3.03 75 11:35 21.11.2021
4666 Clear -14 1041 77 10000 2.23 75 10:19 21.11.2021
4667 Clear -12 1039 73 10000 1.33 75 09:20 21.11.2021
4668 Clear -12 1039 73 10000 1.36 75 08:30 21.11.2021
4669 Clear -11 1039 63 10000 0.88 82 07:50 21.11.2021
4670 Clear -13 1042 58 10000 1.15 82 06:20 21.11.2021
4671 Clear -13 1042 58 10000 1.15 82 05:30 21.11.2021
4672 Clouds -19 1050 69 10000 2.37 74 03:20 21.11.2021
4673 Clouds -19 1050 69 10000 2.37 74 02:53 21.11.2021
4674 Clear -21 1052 68 10000 2.7 76 01:23 21.11.2021
4675 Clear -22 1052 67 10000 2.82 77 00:23 21.11.2021
4676 Clear -23 1054 68 10000 2.82 83 21:50 20.11.2021
4677 Clear -23 1054 68 10000 2.82 83 21:30 20.11.2021
4678 Clear -24 1056 75 10000 3.01 77 19:23 20.11.2021
4679 Clear -24 1056 75 10000 3.01 77 18:45 20.11.2021
4680 Clear -24 1056 76 10000 2.85 77 18:19 20.11.2021
4681 Clear -24 1055 78 10000 2.72 77 17:19 20.11.2021
4682 Clear -23 1053 81 10000 2.45 72 14:50 20.11.2021
4683 Clear -23 1051 82 10000 1.93 63 14:28 20.11.2021
4684 Clear -23 1051 82 10000 1.93 63 13:33 20.11.2021
4685 Clouds -18 1043 77 10000 1.79 333 11:24 20.11.2021
4686 Clouds -16 1040 71 10000 3.22 329 09:54 20.11.2021
4687 Clouds -14 1037 62 10000 6.35 323 08:26 20.11.2021
4688 Clouds -13 1034 67 10000 7.37 298 05:30 20.11.2021
4689 Clouds -14 1034 61 10000 5.35 285 04:51 20.11.2021
4690 Clouds -14 1034 70 10000 2.53 223 03:25 20.11.2021
4691 Clouds -16 1034 78 10000 1.64 197 00:42 20.11.2021
4692 Clouds -16 1033 82 10000 1.39 200 23:44 19.11.2021
4693 Clouds -15 1032 81 10000 1.83 196 22:53 19.11.2021
4694 Clouds -14 1031 83 6839 2.21 269 21:23 19.11.2021
4695 Clouds -14 1031 83 6839 2.21 269 20:39 19.11.2021
4696 Clouds -12 1030 81 10000 1.84 288 20:20 19.11.2021
4697 Clouds -12 1030 81 10000 1.84 288 19:43 19.11.2021
4698 Clouds -13 1031 79 10000 1.46 308 18:44 19.11.2021
4699 Clouds -13 1030 77 10000 0.22 163 17:39 19.11.2021
4700 Clouds -14 1031 71 10000 2.02 103 16:22 19.11.2021
4701 Clouds -16 1031 69 10000 3.17 89 14:19 19.11.2021
4702 Clouds -12 1025 74 10000 2.21 87 10:56 19.11.2021
4703 Clouds -10 1024 73 10000 1.85 85 10:23 19.11.2021
4704 Clouds -10 1024 68 10000 1.14 106 08:32 19.11.2021
4705 Clear -12 1028 64 10000 1.88 96 04:58 19.11.2021
4706 Clear -16 1032 75 10000 2.9 91 03:19 19.11.2021
4707 Clear -17 1032 80 10000 2.7 97 23:53 18.11.2021
4708 Clear -16 1031 82 10000 2.59 100 22:43 18.11.2021
4709 Clear -15 1029 85 10000 2.02 106 20:56 18.11.2021
4710 Clear -15 1029 85 10000 2.02 106 20:37 18.11.2021
4711 Clouds -14 1027 86 10000 1.52 102 20:19 18.11.2021
4712 Clouds -14 1027 86 10000 1.52 102 19:36 18.11.2021
4713 Clouds -14 1027 91 10000 1.9 83 18:35 18.11.2021
4714 Clouds -13 1026 90 10000 1.27 62 17:52 18.11.2021
4715 Clouds -11 1024 90 10000 1.1 108 16:47 18.11.2021
4716 Clouds -10 1023 89 10000 1.22 117 15:56 18.11.2021
4717 Snow -7 1021 91 10000 0.74 71 14:40 18.11.2021
4718 Clouds -8 1021 96 490 1.28 53 12:55 18.11.2021
4719 Clouds -9 1020 95 10000 0.77 83 11:44 18.11.2021
4720 Clouds -7 1018 94 10000 0.69 125 11:25 18.11.2021
4721 Snow -5 1017 93 10000 1.16 154 10:22 18.11.2021
4722 Snow -5 1017 93 2831 1.76 151 08:30 18.11.2021
4723 Snow -3 1016 69 4287 2.1 233 06:40 18.11.2021
4724 Clouds -3 1015 66 10000 2.49 235 05:44 18.11.2021
4725 Clouds -7 1018 66 10000 3.01 77 01:26 18.11.2021
4726 Clouds -7 1018 64 10000 3.32 78 23:35 17.11.2021
4727 Clouds -8 1019 64 10000 3.04 79 22:40 17.11.2021
4728 Clouds -9 1019 63 10000 3.06 75 22:19 17.11.2021
4729 Clouds -9 1019 63 10000 3.06 75 21:35 17.11.2021
4730 Clouds -10 1021 64 10000 3.15 72 19:51 17.11.2021
4731 Clouds -9 1021 66 10000 3.06 77 17:35 17.11.2021
4732 Clouds -9 1021 69 10000 3.05 77 15:56 17.11.2021
4733 Clouds -9 1020 77 10000 3 84 13:19 17.11.2021
4734 Clouds -9 1020 77 10000 3 82 12:37 17.11.2021
4735 Clouds -8 1018 80 10000 2.5 91 10:54 17.11.2021
4736 Clouds -8 1018 80 10000 2.5 91 10:54 17.11.2021
4737 Clouds -5 1015 74 10000 1.23 103 09:38 17.11.2021
4738 Clouds -3 1013 70 10000 0.59 180 08:30 17.11.2021
4739 Clouds -2 1012 63 10000 0.86 224 07:41 17.11.2021
4740 Clouds -7 1018 67 10000 2.18 89 02:49 17.11.2021
4741 Clouds -9 1021 69 10000 2.75 88 00:35 17.11.2021
4742 Clouds -11 1024 70 10000 3.08 88 22:32 16.11.2021
4743 Clouds -13 1027 72 10000 3.05 87 20:19 16.11.2021
4744 Clouds -13 1027 72 10000 3.05 87 19:41 16.11.2021
4745 Clouds -13 1028 73 10000 3.02 88 18:52 16.11.2021
4746 Clouds -13 1028 73 10000 3.11 86 18:29 16.11.2021
4747 Clouds -13 1029 73 10000 2.97 84 17:26 16.11.2021
4748 Clouds -12 1029 74 10000 3.04 89 16:20 16.11.2021
4749 Clouds -12 1029 74 10000 3.04 89 15:44 16.11.2021
4750 Clouds -12 1030 74 10000 2.95 93 13:47 16.11.2021
4751 Clouds -8 1025 64 10000 0.62 299 10:27 16.11.2021
4752 Clouds -8 1025 64 10000 0.62 299 09:42 16.11.2021
4753 Clouds -5 1022 49 10000 3.89 269 07:53 16.11.2021
4754 Clouds -5 1022 47 10000 4.2 261 07:28 16.11.2021
4755 Snow -5 1022 96 418 1.74 224 23:54 15.11.2021
4756 Snow -5 1021 95 853 1.01 241 22:41 15.11.2021
4757 Snow -4 1020 93 1360 1.01 119 22:20 15.11.2021
4758 Snow -4 1020 93 1360 1.01 119 21:32 15.11.2021
4759 Snow -5 1020 87 2182 2.25 95 20:59 15.11.2021
4760 Clouds -5 1021 69 10000 2.35 115 19:26 15.11.2021
4761 Clouds -6 1022 67 10000 2.45 102 17:35 15.11.2021
4762 Clouds -7 1023 65 10000 2.66 81 15:55 15.11.2021
4763 Clouds -7 1023 65 10000 2.66 81 15:36 15.11.2021
4764 Clouds -7 1024 65 10000 3.06 83 14:32 15.11.2021
4765 Clouds -7 1023 70 10000 3.08 83 12:38 15.11.2021
4766 Clouds -5 1021 77 10000 2.62 84 10:33 15.11.2021
4767 Clouds -2 1018 71 10000 1.27 88 09:23 15.11.2021
4768 Clouds -1 1018 59 10000 1.03 105 07:23 15.11.2021
4769 Clouds -8 1024 66 10000 2.66 84 02:34 15.11.2021
4770 Clouds -9 1024 69 10000 3.04 82 22:45 14.11.2021
4771 Clouds -9 1025 70 10000 3.01 83 22:19 14.11.2021
4772 Clear -9 1025 68 10000 3.13 81 19:24 14.11.2021
4773 Clear -9 1025 68 10000 3.13 81 18:55 14.11.2021
4774 Clear -9 1025 68 10000 3.13 81 18:37 14.11.2021
4775 Clear -8 1025 68 10000 3.23 82 18:18 14.11.2021
4776 Clear -8 1025 68 10000 3.23 82 17:58 14.11.2021
4777 Clear -8 1025 68 10000 3.23 82 17:40 14.11.2021
4778 Clear -8 1026 68 10000 3.19 78 17:22 14.11.2021
4779 Clear -8 1026 69 10000 3.21 78 16:59 14.11.2021
4780 Clear -8 1026 69 10000 3.21 78 16:40 14.11.2021
4781 Clear -8 1026 70 10000 3.19 80 16:19 14.11.2021
4782 Clear -8 1026 71 10000 3.21 79 15:20 14.11.2021
4783 Clear -8 1026 71 10000 3.21 79 14:45 14.11.2021
4784 Clear -8 1026 72 10000 3.21 80 14:22 14.11.2021
4785 Clear -8 1026 72 10000 3.21 80 13:52 14.11.2021
4786 Clear -8 1026 73 10000 3.18 81 13:27 14.11.2021
4787 Clear -8 1025 75 10000 3.06 81 12:23 14.11.2021
4788 Clear -7 1025 78 10000 2.77 79 11:25 14.11.2021
4789 Clear -7 1025 78 10000 2.77 79 10:37 14.11.2021
4790 Clear -2 1020 71 10000 0.95 85 09:27 14.11.2021
4791 Clear -2 1020 71 10000 0.95 85 08:51 14.11.2021
4792 Clouds -3 1022 63 10000 0.94 94 04:47 14.11.2021
4793 Clouds -9 1026 65 10000 2.97 78 22:50 13.11.2021
4794 Clouds -9 1026 64 10000 2.98 75 22:20 13.11.2021
4795 Clouds -9 1026 64 10000 2.98 75 21:35 13.11.2021
4796 Clouds -9 1027 63 10000 3.04 77 20:43 13.11.2021
4797 Clouds -9 1027 62 10000 3.08 75 18:56 13.11.2021
4798 Clouds -9 1027 62 10000 3.08 75 18:32 13.11.2021
4799 Clouds -9 1027 62 10000 3.02 79 17:38 13.11.2021
4800 Clear -9 1028 62 10000 3.01 79 15:55 13.11.2021
4801 Clear -9 1028 62 10000 2.9 79 14:45 13.11.2021
4802 Clear -9 1028 63 10000 2.9 83 13:47 13.11.2021
4803 Clear -8 1027 63 10000 2.93 82 12:43 13.11.2021
4804 Clear -8 1026 66 10000 2.8 78 11:48 13.11.2021
4805 Clear -7 1025 68 10000 2.48 82 11:21 13.11.2021
4806 Clear -7 1025 68 10000 2.48 82 10:33 13.11.2021
4807 Clear -4 1022 65 10000 1.58 97 09:47 13.11.2021
4808 Clear -2 1020 60 10000 1.21 139 09:22 13.11.2021
4809 Clear -2 1020 60 10000 1.21 139 08:48 13.11.2021
4810 Clear -1 1020 53 10000 0.86 157 07:47 13.11.2021
4811 Clear -3 1023 52 10000 1.61 100 04:42 13.11.2021
4812 Clear -5 1025 56 10000 2.1 84 04:20 13.11.2021
4813 Clouds -8 1026 55 10000 3.06 78 23:35 12.11.2021
4814 Clouds -8 1027 54 10000 3.24 79 21:56 12.11.2021
4815 Clouds -8 1028 54 10000 3.22 79 20:47 12.11.2021
4816 Clouds -8 1028 55 10000 3.21 78 19:32 12.11.2021
4817 Clouds -8 1029 55 10000 3.19 78 18:57 12.11.2021
4818 Clouds -8 1029 55 10000 3.1 78 18:19 12.11.2021
4819 Clouds -8 1030 56 10000 3.04 79 15:55 12.11.2021
4820 Clouds -8 1029 59 10000 3.05 78 13:28 12.11.2021
4821 Clouds -7 1028 67 10000 2.81 79 11:24 12.11.2021
4822 Clouds -4 1026 66 10000 2.19 87 10:20 12.11.2021
4823 Clouds -4 1026 66 10000 2.19 87 10:20 12.11.2021
4824 Clouds -2 1024 62 10000 1.33 87 08:55 12.11.2021
4825 Clear -1 1024 49 10000 0.72 78 06:37 12.11.2021
4826 Clear -10 1032 59 10000 2.98 75 00:21 12.11.2021
4827 Clear -10 1032 60 10000 2.95 77 23:27 11.11.2021
4828 Clear -9 1032 60 10000 3.02 77 22:21 11.11.2021
4829 Clear -9 1032 60 10000 3.06 78 21:26 11.11.2021
4830 Clear -9 1033 61 10000 3.07 79 19:56 11.11.2021
4831 Clouds -9 1033 61 10000 3.04 76 18:40 11.11.2021
4832 Clouds -9 1033 62 10000 3.01 75 17:41 11.11.2021
4833 Clouds -9 1033 64 10000 3 77 15:41 11.11.2021
4834 Clouds -9 1033 64 10000 3.07 79 14:39 11.11.2021
4835 Clouds -9 1033 66 10000 3.08 78 14:21 11.11.2021
4836 Clouds -9 1033 66 10000 3.08 78 13:35 11.11.2021
4837 Clouds -8 1032 70 10000 3 76 12:27 11.11.2021
4838 Clouds -4 1028 71 10000 1.95 73 09:59 11.11.2021
4839 Clouds -2 1026 67 10000 1.21 72 09:23 11.11.2021
4840 Clouds -1 1026 60 10000 0.63 75 07:33 11.11.2021
4841 Clear -10 1037 67 10000 2.79 77 00:40 11.11.2021
4842 Clear -10 1037 68 10000 2.7 77 22:46 10.11.2021
4843 Clear -10 1038 68 10000 2.64 74 21:54 10.11.2021
4844 Clear -10 1038 68 10000 2.65 77 20:56 10.11.2021
4845 Clear -10 1038 68 10000 2.71 74 20:25 10.11.2021
4846 Clear -10 1038 68 10000 2.71 74 19:45 10.11.2021
4847 Clear -10 1039 72 10000 2.5 78 17:28 10.11.2021
4848 Clear -10 1039 73 10000 2.47 74 15:47 10.11.2021
4849 Clear -10 1039 76 10000 2.53 76 14:25 10.11.2021
4850 Clear -10 1039 76 10000 2.53 76 13:37 10.11.2021
4851 Clear -10 1039 80 10000 2.41 76 12:24 10.11.2021
4852 Clear -5 1034 68 10000 0.32 264 09:29 10.11.2021
4853 Clear -5 1034 68 10000 0.32 264 08:42 10.11.2021
4854 Clear -5 1034 68 10000 0.32 264 08:42 10.11.2021
4855 Clouds -4 1034 59 10000 0.79 265 06:50 10.11.2021
4856 Clouds -5 1035 58 10000 0.61 249 05:58 10.11.2021
4857 Clouds -6 1037 59 10000 0.32 142 04:58 10.11.2021
4858 Clear -12 1042 77 10000 2.16 76 22:29 09.11.2021
4859 Clear -12 1043 76 10000 2.15 76 20:50 09.11.2021
4860 Clear -12 1042 76 10000 2.18 72 19:36 09.11.2021
4861 Clear -12 1043 76 10000 2.14 75 18:50 09.11.2021
4862 Clear -12 1043 76 10000 2.19 74 16:57 09.11.2021
4863 Clear -12 1043 76 10000 2.22 75 15:37 09.11.2021
4864 Clear -11 1043 76 10000 2.23 75 13:53 09.11.2021
4865 Clear -11 1042 77 10000 2.22 74 12:47 09.11.2021
4866 Clear -9 1039 73 10000 1.14 71 11:18 09.11.2021
4867 Clear -9 1039 73 10000 1.14 71 10:30 09.11.2021
4868 Clear -5 1036 62 10000 0.74 251 09:21 09.11.2021
4869 Clear -5 1035 57 10000 0.9 266 07:54 09.11.2021
4870 Clear -11 1043 64 10000 1.8 76 02:50 09.11.2021
4871 Clear -13 1044 67 10000 2.29 74 01:55 09.11.2021
4872 Clear -13 1044 67 10000 2.29 74 01:36 09.11.2021
4873 Clear -13 1044 68 10000 2.37 74 23:32 08.11.2021
4874 Clear -13 1044 68 10000 2.45 75 22:47 08.11.2021
4875 Clear -13 1044 68 10000 2.38 75 21:45 08.11.2021
4876 Clear -13 1044 69 10000 2.44 75 20:36 08.11.2021
4877 Clear -13 1044 69 10000 2.38 74 19:40 08.11.2021
4878 Clear -13 1044 70 10000 2.42 75 17:48 08.11.2021
4879 Clear -12 1044 71 10000 2.43 76 15:56 08.11.2021
4880 Clear -12 1044 73 10000 2.45 74 14:57 08.11.2021
4881 Clear -12 1044 73 10000 2.45 74 14:33 08.11.2021
4882 Clear -12 1043 76 10000 2.56 73 13:18 08.11.2021
4883 Clear -11 1042 78 10000 2.36 73 11:55 08.11.2021
4884 Clear -10 1040 75 10000 1.59 70 10:50 08.11.2021
4885 Clear -6 1036 63 10000 0.53 256 09:26 08.11.2021
4886 Clear -6 1036 63 10000 0.53 256 08:42 08.11.2021
4887 Clear -6 1036 55 10000 0.75 298 06:56 08.11.2021
4888 Clear -9 1041 62 10000 1.18 76 03:36 08.11.2021
4889 Clear -14 1045 73 10000 2.41 75 01:35 08.11.2021
4890 Clear -14 1044 77 10000 2.44 75 23:25 07.11.2021
4891 Clear -14 1044 80 10000 2.37 73 21:26 07.11.2021
4892 Clear -14 1043 81 10000 2.34 76 20:28 07.11.2021
4893 Clouds -14 1044 81 10000 2.3 76 18:47 07.11.2021
4894 Clouds -13 1043 82 10000 2.37 73 17:44 07.11.2021
4895 Clouds -13 1043 82 10000 2.37 75 16:42 07.11.2021
4896 Clouds -13 1043 83 10000 2.37 74 15:41 07.11.2021
4897 Clouds -12 1041 84 10000 2.21 76 14:27 07.11.2021
4898 Clouds -10 1039 82 10000 1.76 73 12:50 07.11.2021
4899 Clouds -9 1038 80 10000 1.31 69 11:41 07.11.2021
4900 Clouds -5 1034 65 10000 0.81 260 08:59 07.11.2021
4901 Clouds -8 1037 60 10000 0.57 78 03:40 07.11.2021
4902 Clouds -11 1041 69 10000 1.81 74 02:25 07.11.2021
4903 Clouds -13 1043 68 10000 2.23 72 22:56 06.11.2021
4904 Clouds -14 1044 66 10000 2.23 73 21:59 06.11.2021
4905 Clouds -14 1045 65 10000 2.29 73 21:22 06.11.2021
4906 Clouds -15 1045 64 10000 2.27 71 20:29 06.11.2021
4907 Clouds -15 1047 64 10000 2.17 75 17:32 06.11.2021
4908 Clouds -15 1048 63 10000 2 76 16:35 06.11.2021
4909 Clouds -15 1049 61 10000 1.92 75 13:45 06.11.2021
4910 Clouds -15 1049 61 10000 2.02 77 12:58 06.11.2021
4911 Clouds -13 1047 53 10000 0.93 79 11:24 06.11.2021
4912 Clouds -12 1046 43 10000 0.22 287 08:49 06.11.2021
4913 Clouds -15 1051 41 10000 0.27 141 04:52 06.11.2021
4914 Clear -21 1056 55 10000 2.28 77 00:43 06.11.2021
4915 Clear -21 1056 56 10000 2.24 72 23:31 05.11.2021
4916 Clear -21 1056 56 10000 2.18 70 22:33 05.11.2021
4917 Clear -21 1056 56 10000 2.18 70 22:33 05.11.2021
4918 Clear -21 1056 58 10000 2.37 79 20:41 05.11.2021
4919 Clear -21 1055 59 10000 2.45 75 19:51 05.11.2021
4920 Clear -21 1055 60 10000 2.61 76 18:56 05.11.2021
4921 Clear -21 1055 60 10000 2.61 76 18:37 05.11.2021
4922 Clear -21 1054 63 10000 2.59 75 16:49 05.11.2021
4923 Clear -20 1053 65 10000 2.9 72 14:33 05.11.2021
4924 Clear -19 1049 64 10000 3.04 61 12:27 05.11.2021
4925 Clear -15 1043 55 10000 2.42 41 09:47 05.11.2021
4926 Clear -14 1041 48 10000 2.31 26 08:31 05.11.2021
4927 Clouds -16 1042 56 10000 2.04 14 06:22 05.11.2021
4928 Clouds -19 1045 71 10000 2.16 47 02:38 05.11.2021
4929 Clouds -21 1045 76 10000 2.66 48 02:19 05.11.2021
4930 Clouds -22 1045 79 10000 2.9 51 23:57 04.11.2021
4931 Clouds -21 1043 79 10000 2.85 54 22:36 04.11.2021
4932 Clouds -20 1042 79 10000 3 56 22:18 04.11.2021
4933 Clouds -20 1041 81 10000 2.82 59 21:27 04.11.2021
4934 Clouds -21 1041 83 10000 2.83 63 20:29 04.11.2021
4935 Clouds -21 1041 83 10000 2.83 63 19:49 04.11.2021
4936 Clouds -20 1040 84 10000 2.79 62 19:28 04.11.2021
4937 Clouds -18 1038 85 10000 3.04 53 18:29 04.11.2021
4938 Clouds -17 1036 86 10000 2.29 60 17:26 04.11.2021
4939 Clouds -18 1036 88 10000 1.97 58 15:46 04.11.2021
4940 Clouds -14 1031 87 10000 0.78 56 13:45 04.11.2021
4941 Clouds -9 1024 77 10000 1.9 248 10:48 04.11.2021
4942 Snow -8 1022 84 838 3.26 241 08:41 04.11.2021
4943 Snow -8 1021 87 372 2.37 223 07:49 04.11.2021
4944 Snow -8 1021 87 372 2.37 223 07:31 04.11.2021
4945 Snow -6 1014 94 141 1.73 249 23:18 03.11.2021
4946 Snow -6 1014 94 138 1.95 260 22:25 03.11.2021
4947 Snow -6 1014 94 138 1.95 260 21:37 03.11.2021
4948 Snow -6 1014 94 138 1.95 260 21:37 03.11.2021
4949 Snow -6 1014 93 147 2.07 265 20:44 03.11.2021
4950 Snow -5 1013 89 379 1.62 258 20:25 03.11.2021
4951 Snow -5 1013 89 379 1.62 258 19:33 03.11.2021
4952 Snow -5 1011 80 1802 1.64 278 18:27 03.11.2021
4953 Snow -5 1011 80 1802 1.64 278 18:27 03.11.2021
4954 Snow -5 1011 80 1802 1.64 278 17:42 03.11.2021
4955 Snow -3 1010 65 10000 3.22 300 16:48 03.11.2021
4956 Clouds -1 1006 52 6052 4.65 269 15:49 03.11.2021
4957 Clouds -1 1006 52 6052 4.65 269 15:30 03.11.2021
4958 Snow 0 1005 44 4897 8.55 261 13:41 03.11.2021
4959 Clouds 2 1003 43 10000 11.51 250 11:35 03.11.2021
4960 Clouds 2 1002 42 10000 12.42 255 10:50 03.11.2021
4961 Clouds 3 1002 41 10000 13.19 257 09:46 03.11.2021
4962 Clouds 4 1001 39 10000 12.91 246 08:53 03.11.2021
4963 Clouds 4 1001 43 10000 11.26 238 07:40 03.11.2021
4964 Clouds 3 1003 48 10000 10.45 221 06:32 03.11.2021
4965 Clouds 1 1007 53 10000 2.77 210 04:23 03.11.2021
4966 Snow -2 1009 60 10000 2.01 167 00:58 03.11.2021
4967 Clouds -3 1010 60 10000 2.09 130 23:21 02.11.2021
4968 Clouds -3 1011 58 10000 2.21 137 21:57 02.11.2021
4969 Clouds -2 1011 53 10000 1.92 158 20:43 02.11.2021
4970 Clouds -2 1012 51 10000 1.91 171 19:57 02.11.2021
4971 Clouds -2 1012 49 10000 2.21 177 19:27 02.11.2021
4972 Clouds -2 1012 49 10000 2.21 177 18:35 02.11.2021
4973 Clouds -2 1012 47 10000 1.72 167 17:44 02.11.2021
4974 Clouds -2 1013 46 10000 2.17 145 16:47 02.11.2021
4975 Clouds -2 1013 44 10000 1.81 150 15:50 02.11.2021
4976 Clouds -2 1014 42 10000 2.17 151 14:56 02.11.2021
4977 Clouds -2 1015 42 10000 2.24 141 13:29 02.11.2021
4978 Clouds -2 1015 42 10000 2.24 141 12:46 02.11.2021
4979 Clouds -2 1015 42 10000 2.24 141 12:46 02.11.2021
4980 Clouds -2 1014 41 10000 2.01 162 11:39 02.11.2021
4981 Clouds -2 1014 40 10000 1.67 190 10:55 02.11.2021
4982 Clouds -2 1014 40 10000 1.67 190 10:32 02.11.2021
4983 Clouds 0 1014 33 10000 3.01 230 09:44 02.11.2021
4984 Clouds 1 1014 28 10000 4.57 240 07:46 02.11.2021
4985 Clouds -2 1019 33 10000 2.04 188 04:58 02.11.2021
4986 Clouds -4 1022 38 10000 1.61 124 03:20 02.11.2021
4987 Clouds -6 1023 43 10000 2.24 102 23:39 01.11.2021
4988 Clouds -6 1024 45 10000 2.49 94 21:46 01.11.2021
4989 Clouds -6 1024 45 10000 2.51 98 20:43 01.11.2021
4990 Clouds -6 1024 44 10000 2.36 104 19:58 01.11.2021
4991 Clouds -6 1024 44 10000 2.36 104 19:38 01.11.2021
4992 Clouds -5 1024 44 10000 1.51 120 18:23 01.11.2021
4993 Clouds -5 1024 44 10000 1.51 120 17:36 01.11.2021
4994 Clouds -5 1024 43 10000 1.84 126 16:51 01.11.2021
4995 Clear -5 1024 43 10000 1.4 149 15:57 01.11.2021
4996 Clear -5 1024 43 10000 1.09 205 15:29 01.11.2021
4997 Clear -5 1024 43 10000 1.09 205 14:45 01.11.2021
4998 Clear -4 1024 42 10000 1.68 233 14:23 01.11.2021
4999 Clear -4 1024 42 10000 1.68 233 13:50 01.11.2021
5000 Clouds -4 1023 42 10000 1.5 241 12:34 01.11.2021
5001 Clouds -3 1022 37 10000 4.28 293 11:27 01.11.2021
5002 Clouds -1 1020 37 10000 6.93 301 09:47 01.11.2021
5003 Clouds 0 1017 34 10000 9.03 288 08:18 01.11.2021
5004 Clouds 0 1017 34 10000 9.03 288 07:40 01.11.2021
5005 Snow 0 1017 54 10000 5.46 259 03:48 01.11.2021
5006 Clouds -1 1018 68 10000 2.88 184 01:37 01.11.2021
5007 Clouds -2 1019 60 10000 2.23 137 22:32 31.10.2021
5008 Clouds -1 1020 55 10000 2.18 123 20:50 31.10.2021
5009 Clouds -2 1021 54 10000 2.39 121 19:22 31.10.2021
5010 Clouds -2 1021 54 10000 2.39 121 18:40 31.10.2021
5011 Clouds -1 1022 51 10000 2.56 117 17:32 31.10.2021
5012 Clouds -1 1022 48 10000 2.48 122 15:50 31.10.2021
5013 Clouds -1 1022 45 10000 2.43 133 14:23 31.10.2021
5014 Clouds -1 1022 44 10000 1.87 146 12:49 31.10.2021
5015 Clouds -1 1021 43 10000 1.36 175 11:41 31.10.2021
5016 Clouds 1 1020 39 10000 1.35 209 10:43 31.10.2021
5017 Clouds 5 1019 25 10000 2.23 218 09:21 31.10.2021
5018 Clouds 5 1020 24 10000 1.69 202 08:29 31.10.2021
5019 Clouds -5 1031 71 10000 2.74 91 01:37 31.10.2021
5020 Clouds -4 1031 68 10000 2.54 94 22:47 30.10.2021
5021 Clouds -4 1031 67 10000 2.49 97 21:35 30.10.2021
5022 Clouds -4 1031 65 10000 2.48 100 20:44 30.10.2021
5023 Clear -3 1032 58 10000 2.41 104 18:45 30.10.2021
5024 Clear -3 1031 51 10000 2.68 105 17:25 30.10.2021
5025 Clear -2 1030 49 10000 2.02 100 14:54 30.10.2021
5026 Clouds -1 1028 47 10000 1.08 102 13:40 30.10.2021
5027 Clouds -1 1028 47 10000 0.3 95 13:21 30.10.2021
5028 Clouds -1 1028 47 10000 0.3 95 12:46 30.10.2021
5029 Clouds 0 1027 44 10000 0.48 305 11:42 30.10.2021
5030 Clouds 3 1026 38 10000 0.94 270 10:32 30.10.2021
5031 Clouds 4 1027 31 10000 1.5 219 08:52 30.10.2021
5032 Clouds 3 1028 36 10000 1.16 139 07:19 30.10.2021
5033 Clouds 2 1029 40 10000 1.39 116 05:39 30.10.2021
5034 Clouds -3 1032 59 10000 2.24 87 00:47 30.10.2021
5035 Clouds -2 1032 59 10000 2.14 86 22:43 29.10.2021
5036 Clouds -2 1031 60 10000 2.02 87 22:20 29.10.2021
5037 Clouds -2 1031 60 10000 1.99 87 20:45 29.10.2021
5038 Clear -2 1030 60 10000 1.94 84 19:56 29.10.2021
5039 Clear -2 1030 58 10000 1.83 84 18:33 29.10.2021
5040 Clear -1 1030 58 10000 1.44 89 16:52 29.10.2021
5041 Clear -1 1029 56 10000 1.02 91 14:36 29.10.2021
5042 Clouds 1 1026 49 10000 1.33 243 11:44 29.10.2021
5043 Clouds 3 1024 41 10000 1.63 261 10:35 29.10.2021
5044 Clouds 4 1024 38 10000 1.57 292 08:35 29.10.2021
5045 Clouds -2 1027 58 10000 1.61 81 00:37 29.10.2021
5046 Clouds -2 1026 56 10000 1.46 97 23:19 28.10.2021
5047 Clouds -2 1025 56 10000 1.37 106 22:18 28.10.2021
5048 Clouds -1 1025 54 10000 1.89 109 20:54 28.10.2021
5049 Clouds -1 1025 53 10000 1.39 102 19:50 28.10.2021
5050 Clouds -1 1025 52 10000 1.11 123 18:23 28.10.2021
5051 Clouds -1 1024 52 10000 0.76 137 16:58 28.10.2021
5052 Clouds -1 1024 52 10000 0.56 157 15:48 28.10.2021
5053 Clouds 0 1023 51 10000 0.55 213 14:23 28.10.2021
5054 Clouds 0 1021 48 10000 0.75 216 13:24 28.10.2021
5055 Clouds 0 1021 48 10000 0.75 216 12:41 28.10.2021
5056 Clouds 4 1019 37 10000 1.41 225 10:57 28.10.2021
5057 Clouds 5 1018 32 10000 1.33 246 09:39 28.10.2021
5058 Clouds 5 1018 30 10000 1.49 263 08:59 28.10.2021
5059 Clouds 5 1018 30 10000 1.49 263 08:34 28.10.2021
5060 Clouds 5 1019 31 10000 0.96 274 07:20 28.10.2021
5061 Clouds -1 1021 44 10000 1.99 80 23:59 27.10.2021
5062 Clouds -1 1021 43 10000 2 81 22:31 27.10.2021
5063 Clouds -1 1021 43 10000 1.99 84 21:33 27.10.2021
5064 Clouds -1 1021 42 10000 1.98 86 20:53 27.10.2021
5065 Clouds -1 1021 42 10000 1.98 86 20:33 27.10.2021
5066 Clear 0 1021 41 10000 2 94 19:41 27.10.2021
5067 Clear 0 1021 40 10000 2.1 98 18:52 27.10.2021
5068 Clear 1 1020 39 10000 1.74 89 16:27 27.10.2021
5069 Clear 1 1020 39 10000 1.74 89 15:32 27.10.2021
5070 Clear 1 1019 39 10000 1.44 93 14:40 27.10.2021
5071 Clear 2 1017 35 10000 0.64 285 12:33 27.10.2021
5072 Clear 7 1016 26 10000 1.78 270 10:58 27.10.2021
5073 Clear 9 1016 20 10000 2.35 249 09:51 27.10.2021
5074 Clear 9 1016 19 10000 2.19 238 08:35 27.10.2021
5075 Clear 9 1016 19 10000 1.75 226 07:31 27.10.2021
5076 Clear 0 1023 33 10000 2.57 99 02:30 27.10.2021
5077 Clear -1 1023 36 10000 2.73 98 00:57 27.10.2021
5078 Clear -1 1023 36 10000 2.78 99 00:28 27.10.2021
5079 Clear -1 1023 36 10000 2.78 99 00:28 27.10.2021
5080 Clear -1 1023 36 10000 2.78 99 23:41 26.10.2021
5081 Clear -1 1023 37 10000 2.82 97 22:38 26.10.2021
5082 Clear 0 1023 37 10000 2.84 98 21:59 26.10.2021
5083 Clear 0 1023 37 10000 2.84 98 20:40 26.10.2021
5084 Clear 0 1023 37 10000 2.85 97 19:30 26.10.2021
5085 Clear 0 1023 37 10000 2.85 97 19:30 26.10.2021
5086 Clear 0 1023 36 10000 2.85 95 18:41 26.10.2021
5087 Clear 1 1023 36 10000 3.07 100 16:28 26.10.2021
5088 Clear 2 1023 38 10000 2.95 101 14:30 26.10.2021
5089 Clear 4 1020 36 10000 0.93 96 11:39 26.10.2021
5090 Clear 8 1020 25 10000 0.49 180 10:20 26.10.2021
5091 Clear 7 1022 25 10000 1 133 07:25 26.10.2021
5092 Clear 7 1022 25 10000 1 133 06:40 26.10.2021
5093 Clear -1 1028 47 10000 2.48 90 23:50 25.10.2021
5094 Clear -1 1028 49 10000 2.5 90 22:54 25.10.2021
5095 Clear -1 1028 50 10000 2.47 89 22:19 25.10.2021
5096 Clear -1 1028 50 10000 2.47 89 21:39 25.10.2021
5097 Clear 0 1029 52 10000 2.44 91 19:53 25.10.2021
5098 Clear 0 1030 54 10000 2.33 94 19:25 25.10.2021
5099 Clear 0 1030 54 10000 2.33 94 18:54 25.10.2021
5100 Clear 0 1030 56 10000 2.32 92 17:59 25.10.2021
5101 Clear 0 1029 57 10000 2.29 94 15:45 25.10.2021
5102 Clear 0 1028 57 10000 1.27 71 14:28 25.10.2021
5103 Clear 1 1026 52 10000 0.54 231 12:29 25.10.2021
5104 Clear 5 1025 37 10000 0.76 284 10:20 25.10.2021
5105 Clear 5 1026 37 10000 0.82 292 08:28 25.10.2021
5106 Clear 3 1027 39 10000 0.22 155 05:59 25.10.2021
5107 Clear -2 1029 50 10000 1.72 75 00:54 25.10.2021
5108 Clear -2 1029 50 10000 1.72 75 00:35 25.10.2021
5109 Clear -2 1029 49 10000 1.67 78 23:46 24.10.2021
5110 Clear -2 1029 48 10000 1.5 76 22:43 24.10.2021
5111 Clear -2 1028 48 10000 1.4 70 22:21 24.10.2021
5112 Clear -2 1028 48 10000 1.4 70 21:38 24.10.2021
5113 Clear -2 1028 48 10000 1.17 74 20:42 24.10.2021
5114 Clouds -1 1028 46 10000 1 84 19:54 24.10.2021
5115 Clouds -1 1028 46 10000 0.98 101 18:49 24.10.2021
5116 Clouds -1 1028 45 10000 1.05 101 17:54 24.10.2021
5117 Clouds 0 1026 42 10000 0.83 71 16:40 24.10.2021
5118 Clouds 0 1025 42 10000 0.21 14 15:25 24.10.2021
5119 Clouds 0 1024 40 10000 0.51 258 13:44 24.10.2021
5120 Clear 1 1023 38 10000 0.99 234 12:40 24.10.2021
5121 Clear 3 1022 33 10000 1.69 236 11:37 24.10.2021
5122 Clear 5 1021 27 10000 2.07 247 10:43 24.10.2021
5123 Clear 6 1021 24 10000 2.16 265 08:51 24.10.2021
5124 Clear 3 1024 34 10000 0.5 261 03:30 24.10.2021
5125 Clouds 1 1023 39 10000 0.43 349 00:19 24.10.2021
5126 Clouds 1 1023 38 10000 0.41 166 22:55 23.10.2021
5127 Clouds 2 1023 38 10000 1.44 118 21:21 23.10.2021
5128 Clouds 1 1023 39 10000 1.28 99 19:37 23.10.2021
5129 Clouds 2 1023 38 10000 1.66 105 18:45 23.10.2021
5130 Clouds 2 1023 38 10000 1.81 94 17:46 23.10.2021
5131 Clouds 2 1023 38 10000 2.02 101 17:26 23.10.2021
5132 Clouds 3 1023 35 10000 2.17 98 15:58 23.10.2021
5133 Clouds 3 1022 35 10000 1.55 88 13:47 23.10.2021
5134 Clear -2 1027 44 10000 2.16 77 02:20 23.10.2021
5135 Clear -2 1026 45 10000 2.59 83 23:41 22.10.2021
5136 Clear -2 1026 45 10000 2.4 87 21:39 22.10.2021
5137 Clear -2 1025 44 10000 2.37 89 19:43 22.10.2021
5138 Clear -1 1025 44 10000 2.65 91 18:27 22.10.2021
5139 Clear -1 1025 42 10000 2.57 92 16:44 22.10.2021
5140 Clear 0 1022 40 10000 1.82 86 14:45 22.10.2021
5141 Clear 1 1020 43 10000 0.71 40 12:41 22.10.2021
5142 Clear 6 1019 35 10000 1.26 282 10:57 22.10.2021
5143 Clear 6 1019 35 10000 1.26 282 10:33 22.10.2021
5144 Clear 6 1019 28 10000 1.19 258 09:34 22.10.2021
5145 Clear 6 1020 27 10000 0.94 214 07:40 22.10.2021
5146 Clear 6 1021 27 10000 0.85 181 07:21 22.10.2021
5147 Clear 6 1021 27 10000 0.85 181 07:21 22.10.2021
5148 Clear -1 1026 42 10000 2.42 91 00:54 22.10.2021
5149 Clear -1 1026 41 10000 2.42 91 23:50 21.10.2021
5150 Clear -1 1025 41 10000 2.39 91 22:43 21.10.2021
5151 Clear 0 1025 40 10000 2.47 93 21:28 21.10.2021
5152 Clear 0 1025 39 10000 2.45 93 20:23 21.10.2021
5153 Clear 0 1025 39 10000 2.41 93 19:51 21.10.2021
5154 Clear 0 1026 39 10000 2.43 94 19:24 21.10.2021
5155 Clear 0 1026 39 10000 2.43 94 18:33 21.10.2021
5156 Clear 0 1026 39 10000 2.52 93 17:51 21.10.2021
5157 Clear 0 1026 39 10000 2.7 95 16:47 21.10.2021
5158 Clear 1 1025 38 10000 2.48 104 15:29 21.10.2021
5159 Clear 1 1025 38 10000 2.48 104 14:53 21.10.2021
5160 Clouds 1 1024 37 10000 1.85 109 13:57 21.10.2021
5161 Clear 2 1021 34 10000 0.18 232 11:49 21.10.2021
5162 Clouds 7 1021 21 10000 1.64 219 09:33 21.10.2021
5163 Clouds 6 1022 19 10000 1.28 189 07:48 21.10.2021
5164 Clouds 6 1023 20 10000 1.11 159 06:35 21.10.2021
5165 Clouds -2 1029 30 10000 2.64 90 00:35 21.10.2021
5166 Clouds -2 1029 31 10000 2.61 92 22:29 20.10.2021
5167 Clouds -2 1029 31 10000 2.61 92 21:47 20.10.2021
5168 Clouds -2 1029 31 10000 2.61 92 21:47 20.10.2021
5169 Clouds -2 1029 32 10000 2.67 90 20:58 20.10.2021
5170 Clouds -2 1029 32 10000 2.67 90 20:38 20.10.2021
5171 Clear -2 1029 33 10000 2.58 88 20:18 20.10.2021
5172 Clear -1 1030 32 10000 2.71 87 19:20 20.10.2021
5173 Clear -1 1030 34 10000 2.78 90 18:29 20.10.2021
5174 Clear -1 1029 35 10000 2.64 90 16:27 20.10.2021
5175 Clear 0 1027 33 10000 2.08 81 13:46 20.10.2021
5176 Clear 6 1025 20 10000 0.69 209 09:52 20.10.2021
5177 Clear 3 1030 28 10000 1.17 104 05:30 20.10.2021
5178 Clear -5 1035 50 10000 2.47 88 01:48 20.10.2021
5179 Clear -4 1035 50 10000 2.45 88 00:33 20.10.2021
5180 Clear -4 1034 50 10000 2.46 87 22:30 19.10.2021
5181 Clear -4 1034 50 10000 2.44 89 21:35 19.10.2021
5182 Clear -3 1033 50 10000 2.43 89 20:26 19.10.2021
5183 Clear -3 1033 50 10000 2.43 89 19:56 19.10.2021
5184 Clear -3 1033 51 10000 2.32 87 19:29 19.10.2021
5185 Clear -3 1033 51 10000 2.32 87 18:31 19.10.2021
5186 Clear -3 1033 54 10000 2.45 85 17:20 19.10.2021
5187 Clear -2 1031 54 10000 2.24 94 15:26 19.10.2021
5188 Clear -2 1031 54 10000 2.24 94 14:33 19.10.2021
5189 Clouds -1 1029 51 10000 1.66 102 13:49 19.10.2021
5190 Clouds 2 1026 39 10000 1.27 200 11:59 19.10.2021
5191 Clouds 5 1025 31 10000 1.26 233 11:23 19.10.2021
5192 Clouds 5 1025 27 10000 1.15 252 09:42 19.10.2021
5193 Clouds 5 1025 28 10000 1.16 255 08:56 19.10.2021
5194 Clear -5 1032 59 10000 2.42 87 00:36 19.10.2021
5195 Clear -4 1032 59 10000 2.45 87 23:56 18.10.2021
5196 Clear -4 1032 59 10000 2.45 87 23:36 18.10.2021
5197 Clear -4 1031 59 10000 2.46 85 22:55 18.10.2021
5198 Clear -4 1031 60 10000 2.48 88 22:18 18.10.2021
5199 Clear -4 1031 60 10000 2.5 89 20:46 18.10.2021
5200 Clear -4 1031 61 10000 2.41 93 20:21 18.10.2021
5201 Clear -4 1031 61 10000 2.41 93 19:31 18.10.2021
5202 Clear -3 1031 61 10000 2.43 90 18:58 18.10.2021
5203 Clear -3 1031 61 10000 2.43 90 18:58 18.10.2021
5204 Clear -3 1031 60 10000 2.66 97 16:33 18.10.2021
5205 Clear -1 1029 54 10000 1.94 109 14:42 18.10.2021
5206 Clear 2 1025 46 10000 0.92 223 11:53 18.10.2021
5207 Clear 5 1023 33 10000 1.45 228 09:47 18.10.2021
5208 Clear 4 1024 33 10000 1.45 217 07:31 18.10.2021
5209 Clouds -3 1029 53 10000 2.23 95 00:29 18.10.2021
5210 Clouds -3 1029 53 10000 2.21 94 22:30 17.10.2021
5211 Clouds -3 1029 53 10000 2.32 95 21:44 17.10.2021
5212 Clouds -2 1028 52 10000 2.32 94 20:56 17.10.2021
5213 Clouds -2 1028 52 10000 2.3 90 19:59 17.10.2021
5214 Clouds -2 1028 52 10000 2.3 90 19:38 17.10.2021
5215 Clouds -2 1028 53 10000 2.23 90 18:34 17.10.2021
5216 Clouds -2 1028 56 10000 2.57 95 16:40 17.10.2021
5217 Clear -1 1027 55 10000 1.98 101 14:40 17.10.2021
5218 Clear -1 1025 53 10000 1.41 111 14:20 17.10.2021
5219 Clear -1 1025 53 10000 1.41 111 13:33 17.10.2021
5220 Clear 2 1023 44 10000 1.19 193 11:31 17.10.2021
5221 Clear 5 1022 29 10000 1.03 240 10:19 17.10.2021
5222 Clear 5 1022 29 10000 1.05 247 08:47 17.10.2021
5223 Clear 4 1024 30 10000 0.7 251 06:52 17.10.2021
5224 Clouds -3 1030 51 10000 2.27 94 00:35 17.10.2021
5225 Clouds -3 1030 50 10000 2.24 94 23:22 16.10.2021
5226 Clouds -3 1031 49 10000 2.37 93 20:55 16.10.2021
5227 Clouds -2 1032 48 10000 2.42 92 20:29 16.10.2021
5228 Clouds -2 1032 48 10000 2.42 92 19:41 16.10.2021
5229 Clouds -2 1033 48 10000 2.55 91 19:20 16.10.2021
5230 Clouds -2 1033 48 10000 2.55 91 18:45 16.10.2021
5231 Clouds -3 1034 48 10000 2.64 91 18:24 16.10.2021
5232 Clouds -3 1034 48 10000 2.64 91 17:35 16.10.2021
5233 Clear -3 1034 51 10000 2.98 96 16:28 16.10.2021
5234 Clear -2 1034 58 10000 2.98 99 13:45 16.10.2021
5235 Clear 4 1030 38 10000 1.86 113 11:25 16.10.2021
5236 Clear 4 1031 33 10000 1.57 131 09:38 16.10.2021
5237 Clear 0 1038 37 10000 1.69 101 04:47 16.10.2021
5238 Clear -6 1044 51 10000 2.75 88 01:24 16.10.2021
5239 Clear -5 1043 51 10000 2.67 89 23:27 15.10.2021
5240 Clear -5 1043 52 10000 2.61 92 22:22 15.10.2021
5241 Clear -5 1043 52 10000 2.61 92 21:50 15.10.2021
5242 Clear -5 1043 53 10000 2.58 93 21:19 15.10.2021
5243 Clear -5 1044 54 10000 2.59 93 20:41 15.10.2021
5244 Clear -5 1044 55 10000 2.68 86 19:20 15.10.2021
5245 Clear -4 1044 56 10000 2.67 88 18:29 15.10.2021
5246 Clear -4 1043 57 10000 2.72 87 16:19 15.10.2021
5247 Clear -3 1042 57 10000 2.73 87 14:37 15.10.2021
5248 Clear 1 1036 43 10000 1.47 135 12:27 15.10.2021
5249 Clear 3 1035 33 10000 1.12 140 11:20 15.10.2021
5250 Clear 3 1035 33 10000 1.12 140 10:34 15.10.2021
5251 Clear 3 1035 29 10000 0.75 170 08:36 15.10.2021
5252 Clear 0 1037 33 10000 0.39 96 05:31 15.10.2021
5253 Clear -7 1041 59 10000 2.2 86 00:30 15.10.2021
5254 Clear -7 1041 59 10000 2.3 83 23:34 14.10.2021
5255 Clear -6 1041 59 10000 2.31 83 22:44 14.10.2021
5256 Clear -6 1041 59 10000 2.28 83 21:41 14.10.2021
5257 Clear -6 1041 60 10000 2.3 89 20:22 14.10.2021
5258 Clear -6 1041 60 10000 2.3 89 19:50 14.10.2021
5259 Clear -6 1041 60 10000 2.31 90 18:45 14.10.2021
5260 Clear -5 1041 60 10000 2.52 91 17:24 14.10.2021
5261 Clear -5 1041 60 10000 2.52 91 16:46 14.10.2021
5262 Clear -4 1039 54 10000 1.96 91 15:22 14.10.2021
5263 Clear -4 1039 54 10000 1.96 91 14:40 14.10.2021
5264 Clear -3 1037 52 10000 1.01 111 13:35 14.10.2021
5265 Clear 0 1034 39 10000 1.79 242 11:40 14.10.2021
5266 Clear 2 1033 29 10000 2.33 240 09:33 14.10.2021
5267 Clear 0 1037 40 10000 0.67 244 06:27 14.10.2021
5268 Clear -6 1040 67 10000 1.75 98 00:49 14.10.2021
5269 Clear -5 1038 64 10000 1.41 83 22:47 13.10.2021
5270 Clear -4 1038 62 10000 1.41 63 21:37 13.10.2021
5271 Clear -4 1037 61 10000 1.29 66 20:46 13.10.2021
5272 Clouds -4 1037 58 10000 1.67 119 19:41 13.10.2021
5273 Clouds -4 1037 57 10000 2.04 125 18:48 13.10.2021
5274 Clouds -3 1036 55 10000 1.74 124 17:35 13.10.2021
5275 Clear -3 1034 50 10000 1.4 47 15:21 13.10.2021
5276 Clear -3 1034 50 10000 1.4 47 14:43 13.10.2021
5277 Clouds -1 1031 42 10000 2.59 328 12:48 13.10.2021
5278 Clouds 1 1029 34 10000 4.94 306 11:51 13.10.2021
5279 Clouds 3 1027 27 10000 5.51 268 10:21 13.10.2021
5280 Clouds 3 1028 30 10000 4.16 252 07:54 13.10.2021
5281 Clear 2 1029 39 10000 2.09 235 05:40 13.10.2021
5282 Clouds -4 1033 65 10000 2.65 98 02:23 13.10.2021
5283 Clouds -3 1031 66 10000 2.3 111 23:51 12.10.2021
5284 Clouds -3 1030 65 10000 2.44 103 23:27 12.10.2021
5285 Clouds -3 1030 65 10000 2.44 103 22:41 12.10.2021
5286 Clouds -2 1029 62 10000 2.19 102 20:55 12.10.2021
5287 Clouds -1 1028 61 10000 2.05 145 20:31 12.10.2021
5288 Clouds -1 1028 60 10000 1.27 142 19:50 12.10.2021
5289 Clouds -2 1027 59 10000 1.41 113 18:26 12.10.2021
5290 Clouds -2 1027 59 10000 1.41 113 17:35 12.10.2021
5291 Clouds -1 1025 57 10000 0.5 10 16:24 12.10.2021
5292 Clouds -1 1025 57 10000 0.5 10 15:35 12.10.2021
5293 Clouds 1 1023 56 10000 1.33 334 14:20 12.10.2021
5294 Clouds 1 1024 52 10000 1.64 336 13:41 12.10.2021
5295 Clouds 3 1021 45 10000 3.3 294 11:36 12.10.2021
5296 Clouds 5 1019 42 10000 3.85 271 09:41 12.10.2021
5297 Clouds 6 1019 40 10000 4.37 270 08:31 12.10.2021
5298 Clouds 5 1019 48 10000 1.94 242 06:46 12.10.2021
5299 Clouds 3 1020 61 10000 1.29 137 04:52 12.10.2021
5300 Clouds 2 1021 67 10000 1.94 123 04:28 12.10.2021
5301 Clouds 1 1020 61 10000 2.18 137 23:56 11.10.2021
5302 Clouds 1 1020 61 10000 2.18 137 23:36 11.10.2021
5303 Clouds 1 1019 60 10000 1.51 126 22:52 11.10.2021
5304 Rain 1 1019 59 8916 1.45 120 21:27 11.10.2021
5305 Rain 1 1019 58 4911 2.04 123 20:28 11.10.2021
5306 Rain 1 1019 57 5324 1.91 128 19:35 11.10.2021
5307 Clouds 1 1020 54 10000 2.62 125 18:23 11.10.2021
5308 Clouds 1 1020 55 10000 2.57 110 16:41 11.10.2021
5309 Clouds 0 1020 55 10000 3.04 110 16:20 11.10.2021
5310 Clouds 0 1020 55 10000 3.04 110 15:44 11.10.2021
5311 Clouds 1 1019 54 10000 2.92 110 14:53 11.10.2021
5312 Clouds 2 1018 52 10000 3.21 106 14:19 11.10.2021
5313 Clouds 2 1018 52 10000 3.21 106 13:35 11.10.2021
5314 Clouds 8 1014 33 10000 2.39 141 11:18 11.10.2021
5315 Clouds 9 1014 29 10000 2.19 160 09:47 11.10.2021
5316 Clouds 9 1014 24 10000 1.99 173 08:31 11.10.2021
5317 Clear -3 1025 47 10000 3.1 89 01:45 11.10.2021
5318 Clear -3 1025 49 10000 2.74 92 00:58 11.10.2021
5319 Clear -3 1025 49 10000 2.74 92 00:39 11.10.2021
5320 Clear -3 1025 52 10000 2.83 87 22:41 10.10.2021
5321 Clear -3 1025 53 10000 3.05 91 21:49 10.10.2021
5322 Clear -3 1025 53 10000 2.94 91 21:19 10.10.2021
5323 Clear -3 1025 53 10000 2.96 91 20:39 10.10.2021
5324 Clear -2 1025 52 10000 2.84 91 20:19 10.10.2021
5325 Clear -2 1025 52 10000 2.84 91 19:41 10.10.2021
5326 Clear -2 1026 52 10000 2.77 91 18:57 10.10.2021
5327 Clear -2 1026 52 10000 2.94 90 18:19 10.10.2021
5328 Clear -1 1025 52 10000 3.15 94 15:48 10.10.2021
5329 Clear -1 1025 54 10000 3.36 97 14:45 10.10.2021
5330 Clear 0 1024 60 10000 3.34 99 13:40 10.10.2021
5331 Clouds 1 1022 60 10000 3 107 12:43 10.10.2021
5332 Clouds 4 1020 52 10000 2.32 116 11:30 10.10.2021
5333 Clouds 7 1019 33 10000 1.71 156 10:26 10.10.2021
5334 Clouds 7 1020 33 10000 1.66 162 09:18 10.10.2021
5335 Clouds 7 1020 32 10000 1.64 165 08:50 10.10.2021
5336 Clear 2 1027 35 10000 1.7 103 04:50 10.10.2021
5337 Clear -4 1033 57 10000 2.64 85 02:19 10.10.2021
5338 Clear -5 1034 60 10000 2.64 87 00:47 10.10.2021
5339 Clear -5 1034 65 10000 2.42 86 23:26 09.10.2021
5340 Clear -5 1034 66 10000 2.51 90 21:55 09.10.2021
5341 Clear -5 1034 66 10000 2.51 90 21:30 09.10.2021
5342 Clear -5 1035 68 10000 2.42 91 20:19 09.10.2021
5343 Clear -5 1035 68 10000 2.42 91 19:41 09.10.2021
5344 Clear -5 1036 69 10000 2.39 92 18:48 09.10.2021
5345 Clear -5 1036 69 10000 2.56 93 17:57 09.10.2021
5346 Clear -4 1035 67 10000 2.05 110 16:20 09.10.2021
5347 Clouds -3 1033 62 10000 1.6 154 14:28 09.10.2021
5348 Clouds -3 1033 62 10000 1.6 154 13:38 09.10.2021
5349 Clouds 0 1030 48 10000 1.59 233 12:27 09.10.2021
5350 Clouds 1 1030 42 10000 1.69 242 10:45 09.10.2021
5351 Clouds 1 1030 42 10000 1.72 244 10:19 09.10.2021
5352 Clouds 1 1030 42 10000 1.72 244 10:19 09.10.2021
5353 Clouds 0 1030 44 10000 1.65 257 08:45 09.10.2021
5354 Clear 0 1031 44 10000 1.75 269 08:20 09.10.2021
5355 Clear -1 1032 47 10000 1.4 270 06:37 09.10.2021
5356 Clear -3 1035 55 10000 0.39 306 04:43 09.10.2021
5357 Clear -6 1036 66 10000 0.96 67 02:46 09.10.2021
5358 Clouds -7 1035 73 10000 1.2 48 00:24 09.10.2021
5359 Clouds -7 1035 73 10000 1.2 48 23:33 08.10.2021
5360 Clouds -6 1034 72 10000 1.18 48 22:46 08.10.2021
5361 Clouds -6 1034 72 10000 1.31 41 21:44 08.10.2021
5362 Clouds -6 1033 71 10000 1.72 32 20:27 08.10.2021
5363 Clear -5 1032 72 10000 1.97 21 18:23 08.10.2021
5364 Clear -5 1031 71 10000 2.01 14 16:56 08.10.2021
5365 Clear -4 1030 70 10000 2.12 18 16:25 08.10.2021
5366 Clear -4 1029 69 10000 2.68 1 14:57 08.10.2021
5367 Clouds -3 1027 66 10000 3.25 4 13:46 08.10.2021
5368 Clouds 0 1023 50 10000 5.81 8 11:42 08.10.2021
5369 Clouds 1 1021 35 10000 3.98 349 10:42 08.10.2021
5370 Clouds 1 1020 28 10000 2.12 320 09:47 08.10.2021
5371 Clouds -2 1024 47 10000 1.51 254 04:20 08.10.2021
5372 Clouds -2 1021 68 10000 1.05 328 23:25 07.10.2021
5373 Clouds -2 1021 68 10000 1.05 328 22:35 07.10.2021
5374 Clouds -2 1022 72 10000 0.79 321 21:29 07.10.2021
5375 Clouds -2 1022 72 10000 0.79 321 20:41 07.10.2021
5376 Clouds -1 1021 72 10000 0.9 287 19:34 07.10.2021
5377 Clouds 1 1020 70 10000 1.22 220 18:41 07.10.2021
5378 Clouds 1 1020 70 10000 1.38 209 17:33 07.10.2021
5379 Rain 1 1019 73 6576 0.49 291 16:42 07.10.2021
5380 Clouds 1 1018 73 10000 0.87 206 14:55 07.10.2021
5381 Clouds 1 1018 77 10000 0.94 299 13:43 07.10.2021
5382 Clouds 2 1017 75 10000 1.06 284 12:54 07.10.2021
5383 Clouds 4 1016 68 10000 2.66 269 11:21 07.10.2021
5384 Clouds 4 1016 68 10000 2.66 269 10:46 07.10.2021
5385 Clouds 4 1015 69 10000 2.75 268 09:47 07.10.2021
5386 Clouds 4 1016 72 10000 2.19 264 08:54 07.10.2021
5387 Clouds 3 1016 85 7472 2.27 276 07:58 07.10.2021
5388 Clouds 3 1016 85 7472 2.27 276 07:38 07.10.2021
5389 Clouds 4 1016 78 10000 2.07 264 06:38 07.10.2021
5390 Clouds 3 1018 98 87 1.38 227 00:52 07.10.2021
5391 Rain 3 1017 99 36 1.21 184 23:20 06.10.2021
5392 Rain 3 1017 99 36 1.21 184 22:31 06.10.2021
5393 Clouds 3 1017 99 53 1.3 197 21:26 06.10.2021
5394 Clouds 3 1018 99 57 1.19 163 20:28 06.10.2021
5395 Clouds 3 1018 96 135 1.44 150 18:59 06.10.2021
5396 Clouds 4 1018 75 10000 2 103 17:27 06.10.2021
5397 Clouds 4 1017 72 10000 2.4 100 15:43 06.10.2021
5398 Clouds 5 1017 67 10000 2.65 112 14:43 06.10.2021
5399 Clouds 5 1015 61 10000 2.07 164 13:24 06.10.2021
5400 Clouds 5 1015 61 10000 2.07 164 12:47 06.10.2021
5401 Clouds 7 1014 54 10000 2.66 148 12:25 06.10.2021
5402 Clouds 8 1015 50 10000 1.75 161 11:23 06.10.2021
5403 Clouds 9 1015 44 10000 3.31 152 09:40 06.10.2021
5404 Clouds 9 1016 43 10000 3.01 153 08:58 06.10.2021
5405 Clouds 9 1015 41 10000 3.15 158 08:30 06.10.2021
5406 Clouds 7 1018 50 10000 2.24 142 05:56 06.10.2021
5407 Clouds -1 1024 75 10000 2.82 92 01:56 06.10.2021
5408 Clouds -1 1025 77 10000 2.94 95 00:22 06.10.2021
5409 Clouds -1 1025 77 10000 2.94 95 23:51 05.10.2021
5410 Clouds -1 1025 77 10000 2.84 91 23:29 05.10.2021
5411 Clouds -1 1025 77 10000 2.84 91 22:30 05.10.2021
5412 Clouds -1 1025 77 10000 2.84 91 22:30 05.10.2021
5413 Clouds -1 1025 78 10000 2.9 90 21:56 05.10.2021
5414 Clouds -1 1025 78 10000 2.9 90 21:56 05.10.2021
5415 Clouds -1 1025 79 10000 3.06 99 21:19 05.10.2021
5416 Clouds -1 1026 79 10000 3.2 102 20:26 05.10.2021
5417 Clouds -1 1026 81 10000 3.04 100 19:50 05.10.2021
5418 Clouds -1 1026 82 10000 3.09 102 19:22 05.10.2021
5419 Clouds -1 1026 82 10000 3.02 102 17:40 05.10.2021
5420 Clear 0 1026 84 10000 3.13 106 15:28 05.10.2021
5421 Clouds 1 1024 78 10000 3.39 114 13:49 05.10.2021
5422 Clouds 2 1022 73 10000 3.15 131 13:18 05.10.2021
5423 Clouds 2 1022 73 10000 3.15 131 12:33 05.10.2021
5424 Clouds 6 1020 59 10000 4.99 181 11:22 05.10.2021
5425 Clouds 6 1020 59 10000 4.99 181 10:34 05.10.2021
5426 Clouds 7 1020 25 10000 3.44 215 06:59 05.10.2021
5427 Clouds 1 1025 43 10000 2.4 101 00:58 05.10.2021
5428 Clouds -1 1026 45 10000 2.65 105 22:51 04.10.2021
5429 Clouds -1 1026 44 10000 2.51 94 20:51 04.10.2021
5430 Clear -1 1027 47 10000 2.58 105 18:48 04.10.2021
5431 Clear -1 1027 45 10000 2.66 103 16:55 04.10.2021
5432 Clear 0 1026 42 10000 2.61 96 15:32 04.10.2021
5433 Clear 0 1024 40 10000 2.15 83 14:44 04.10.2021
5434 Clouds 0 1023 39 10000 1.51 74 13:58 04.10.2021
5435 Clouds 0 1023 39 10000 1.51 74 13:31 04.10.2021
5436 Clouds 1 1022 40 10000 0.3 229 12:31 04.10.2021
5437 Clouds 5 1021 34 10000 2 238 11:32 04.10.2021
5438 Clouds 6 1021 24 10000 3.52 227 10:44 04.10.2021
5439 Clouds 6 1021 24 10000 4.1 232 09:33 04.10.2021
5440 Clouds 6 1022 26 10000 3.05 219 07:53 04.10.2021
5441 Clouds 1 1026 35 10000 1.52 97 03:44 04.10.2021
5442 Clouds -3 1028 49 10000 2.21 84 22:48 03.10.2021
5443 Clouds -2 1028 49 10000 2.1 86 21:52 03.10.2021
5444 Clouds -2 1028 49 10000 2.1 86 21:52 03.10.2021
5445 Clouds -2 1028 48 10000 2.07 88 21:29 03.10.2021
5446 Clouds -2 1028 48 10000 2.07 88 20:43 03.10.2021
5447 Clouds -3 1028 49 10000 2.23 89 19:42 03.10.2021
5448 Clouds -2 1028 48 10000 2.01 98 18:29 03.10.2021
5449 Clouds -2 1028 48 10000 2.01 98 17:36 03.10.2021
5450 Clouds -2 1026 45 10000 0.58 190 14:50 03.10.2021
5451 Clouds -1 1025 43 10000 0.81 239 14:29 03.10.2021
5452 Clouds -2 1025 43 10000 0.88 255 13:35 03.10.2021
5453 Clouds -1 1024 39 10000 1.62 276 12:44 03.10.2021
5454 Clouds 3 1022 28 10000 3.91 277 10:58 03.10.2021
5455 Clouds 3 1022 29 10000 4.47 275 09:42 03.10.2021
5456 Clouds 1 1024 41 10000 2.27 251 05:25 03.10.2021
5457 Clouds -3 1022 65 10000 0.75 233 22:49 02.10.2021
5458 Clouds -3 1022 64 10000 0.67 235 21:35 02.10.2021
5459 Clouds -2 1021 57 10000 0.45 208 20:18 02.10.2021
5460 Clouds -2 1021 57 10000 0.45 208 20:18 02.10.2021
5461 Clouds -2 1020 57 10000 0.61 236 18:56 02.10.2021
5462 Clouds -2 1019 55 10000 1.26 348 18:18 02.10.2021
5463 Clouds -2 1019 55 10000 1.26 348 17:36 02.10.2021
5464 Clouds -1 1018 52 10000 1.55 336 16:22 02.10.2021
5465 Clouds 3 1012 47 10000 2.87 274 06:39 02.10.2021
5466 Clouds 5 1011 56 10000 1.07 180 15:37 30.09.2021
5467 Clouds 6 1010 57 10000 1.26 282 13:54 30.09.2021
5468 Clouds 10 1009 41 10000 2.82 258 11:42 30.09.2021
5469 Clouds 10 1009 37 10000 3.62 250 10:46 30.09.2021
5470 Clouds 11 1009 34 10000 2.58 254 10:19 30.09.2021
5471 Clouds 10 1010 35 10000 1.77 227 08:30 30.09.2021
5472 Clouds 10 1012 35 10000 1.94 256 07:34 30.09.2021
5473 Clouds 7 1014 40 10000 0.98 155 05:23 30.09.2021
5474 Clouds 1 1017 58 10000 1.87 101 01:36 30.09.2021
5475 Clouds 1 1016 59 10000 1.78 106 00:23 30.09.2021
5476 Clouds 1 1016 59 10000 1.79 105 22:37 29.09.2021
5477 Clouds 1 1015 60 10000 0.86 109 21:27 29.09.2021
5478 Clouds 2 1015 60 10000 0.66 113 20:28 29.09.2021
5479 Clouds 2 1015 60 10000 0.66 113 19:54 29.09.2021
5480 Clouds 2 1015 58 10000 0.65 116 18:50 29.09.2021
5481 Clouds 3 1014 55 10000 0.8 158 17:41 29.09.2021
5482 Clouds 4 1014 53 10000 1.32 184 16:48 29.09.2021
5483 Clouds 3 1013 54 10000 0.95 218 15:58 29.09.2021
5484 Clouds 4 1013 53 10000 0.8 183 14:39 29.09.2021
5485 Clouds 3 1013 53 10000 1.12 240 13:42 29.09.2021
5486 Clouds 5 1012 49 10000 1.8 230 12:58 29.09.2021
5487 Clouds 8 1011 40 10000 2.13 231 12:19 29.09.2021
5488 Clouds 9 1011 37 10000 1.92 229 10:47 29.09.2021
5489 Clouds 9 1011 37 10000 1.71 241 09:50 29.09.2021
5490 Clouds 8 1012 38 10000 1.46 251 09:24 29.09.2021
5491 Clouds 8 1012 42 10000 1.78 273 07:32 29.09.2021
5492 Clouds 3 1017 60 10000 0.58 116 03:58 29.09.2021
5493 Clouds -2 1019 87 10000 2.17 96 23:26 28.09.2021
5494 Clouds -2 1019 88 10000 1.94 96 22:23 28.09.2021
5495 Clouds -2 1019 88 10000 1.94 96 21:37 28.09.2021
5496 Clouds -2 1019 88 10000 2.18 94 20:36 28.09.2021
5497 Clouds -2 1019 83 10000 1.76 91 19:43 28.09.2021
5498 Clouds -2 1019 84 10000 1.58 112 18:46 28.09.2021
5499 Clouds -1 1018 82 10000 1.4 121 17:59 28.09.2021
5500 Clouds 1 1019 78 10000 1.63 90 16:23 28.09.2021
5501 Clouds -1 1018 83 10000 1.37 98 13:49 28.09.2021
5502 Clouds 1 1017 79 10000 0.81 122 12:48 28.09.2021
5503 Clouds 2 1016 69 10000 1.03 137 12:19 28.09.2021
5504 Clouds 2 1016 69 10000 1.03 137 11:45 28.09.2021
5505 Clouds 2 1017 70 10000 1.37 145 10:58 28.09.2021
5506 Rain 1 1018 73 10000 1.31 151 09:53 28.09.2021
5507 Snow 1 1018 69 10000 0.64 101 08:58 28.09.2021
5508 Snow 1 1018 69 10000 0.64 101 08:38 28.09.2021
5509 Clouds 2 1017 45 10000 1.01 295 07:31 28.09.2021
5510 Clouds 0 1020 31 10000 1.36 175 05:28 28.09.2021
5511 Clouds -3 1023 51 10000 1 68 01:23 28.09.2021
5512 Clouds -4 1024 54 10000 0.81 52 00:25 28.09.2021
5513 Clouds -4 1024 54 10000 0.81 52 23:32 27.09.2021
5514 Clear -4 1024 60 10000 1.38 349 22:55 27.09.2021
5515 Clear -4 1024 65 10000 1.7 324 21:44 27.09.2021
5516 Clear -3 1023 70 10000 1.63 332 20:44 27.09.2021
5517 Clouds -3 1023 69 10000 1.34 314 19:53 27.09.2021
5518 Clouds -3 1022 70 10000 1.69 322 19:27 27.09.2021
5519 Clouds -3 1022 70 10000 1.69 322 18:48 27.09.2021
5520 Clouds -1 1020 67 10000 2.57 349 17:29 27.09.2021
5521 Clouds -1 1020 67 10000 2.57 349 16:48 27.09.2021
5522 Clouds 1 1017 60 10000 3.17 331 15:43 27.09.2021
5523 Clouds 3 1013 52 10000 2.81 298 14:56 27.09.2021
5524 Clouds 4 1011 44 10000 2.67 294 13:32 27.09.2021
5525 Clouds 6 1007 34 10000 5 284 11:31 27.09.2021
5526 Clouds 8 1006 31 10000 5.9 277 10:32 27.09.2021
5527 Clouds 9 1005 27 10000 6.71 262 08:48 27.09.2021
5528 Clouds 7 1006 26 10000 2.25 243 05:22 27.09.2021
5529 Clouds 3 1009 33 10000 1.36 97 03:18 27.09.2021
5530 Clouds 1 1009 38 10000 1.84 155 22:33 26.09.2021
5531 Clouds 1 1009 36 10000 2.21 170 21:50 26.09.2021
5532 Clouds 2 1009 35 10000 2.24 175 21:25 26.09.2021
5533 Clouds 2 1009 33 10000 2.34 173 20:21 26.09.2021
5534 Clouds 2 1009 33 10000 2.34 173 19:48 26.09.2021
5535 Clouds 2 1009 33 10000 2.45 161 18:45 26.09.2021
5536 Clouds 2 1010 34 10000 2.56 156 17:56 26.09.2021
5537 Clouds 3 1010 34 10000 2.89 149 17:22 26.09.2021
5538 Clouds 3 1010 34 10000 2.89 149 16:40 26.09.2021
5539 Clouds 4 1010 31 10000 3 145 15:59 26.09.2021
5540 Clouds 4 1010 31 10000 2.71 135 14:59 26.09.2021
5541 Clouds 4 1010 32 10000 1.32 142 13:57 26.09.2021
5542 Clouds 4 1010 36 10000 0.77 250 13:20 26.09.2021
5543 Clear 8 1010 27 10000 3.7 243 12:25 26.09.2021
5544 Clear 8 1010 27 10000 3.7 243 11:42 26.09.2021
5545 Clear 9 1010 22 10000 6.64 241 10:30 26.09.2021
5546 Clear 8 1012 25 10000 6.36 232 09:20 26.09.2021
5547 Clear 6 1014 44 10000 2.82 176 07:39 26.09.2021
5548 Clear -5 1027 83 10000 2.75 91 00:23 26.09.2021
5549 Clear -5 1027 83 10000 2.75 91 23:30 25.09.2021
5550 Clear -5 1027 84 10000 2.72 94 22:38 25.09.2021
5551 Clear -5 1028 84 10000 2.6 95 21:55 25.09.2021
5552 Clear -5 1028 84 10000 2.6 95 21:32 25.09.2021
5553 Clouds -5 1028 85 10000 2.48 97 20:50 25.09.2021
5554 Clouds -5 1028 86 10000 2.55 93 19:31 25.09.2021
5555 Clouds -4 1028 85 10000 2.4 107 18:25 25.09.2021
5556 Clouds -3 1026 83 10000 1.8 112 15:56 25.09.2021
5557 Clouds -2 1023 81 10000 0.82 260 13:58 25.09.2021
5558 Clouds -2 1023 81 10000 0.82 260 13:32 25.09.2021
5559 Clouds 2 1020 70 10000 3.3 286 12:28 25.09.2021
5560 Clouds 3 1020 72 10000 3.57 277 10:35 25.09.2021
5561 Clouds 2 1020 75 8309 3.72 268 09:40 25.09.2021
5562 Clouds 2 1020 81 3390 4.71 259 08:20 25.09.2021
5563 Rain 2 1019 88 622 5.61 252 06:26 25.09.2021
5564 Clouds 4 1011 93 5894 2.21 234 23:55 24.09.2021
5565 Clouds 5 1011 92 1722 0.26 41 21:50 24.09.2021
5566 Clouds 5 1011 91 4453 0.89 227 20:39 24.09.2021
5567 Clouds 5 1012 92 3656 0.22 88 19:48 24.09.2021
5568 Clouds 6 1013 88 7428 1.47 257 18:35 24.09.2021
5569 Clouds 7 1012 79 8482 0.77 186 17:55 24.09.2021
5570 Clouds 7 1012 79 8482 0.77 186 17:37 24.09.2021
5571 Rain 7 1011 76 8725 2.2 156 17:18 24.09.2021
5572 Clouds 8 1011 68 10000 1.56 113 14:31 24.09.2021
5573 Clouds 10 1009 49 10000 1.31 323 13:18 24.09.2021
5574 Clouds 10 1009 49 10000 1.31 323 12:40 24.09.2021
5575 Clouds 13 1008 35 10000 6.85 248 12:22 24.09.2021
5576 Clouds 14 1007 25 10000 5.27 244 10:27 24.09.2021
5577 Clouds 14 1008 25 10000 5.08 234 08:55 24.09.2021
5578 Clouds 13 1009 28 10000 4.42 229 07:34 24.09.2021
5579 Clouds 12 1010 30 10000 3.31 217 06:46 24.09.2021
5580 Clouds 10 1012 34 10000 1.39 180 04:55 24.09.2021
5581 Clouds 3 1014 48 10000 2.34 142 00:26 24.09.2021
5582 Clouds 4 1013 44 10000 2.42 147 22:30 23.09.2021
5583 Clouds 4 1013 38 10000 2.67 149 21:56 23.09.2021
5584 Clouds 4 1013 35 10000 2.49 149 20:34 23.09.2021
5585 Clouds 4 1013 30 10000 2.98 138 19:46 23.09.2021
5586 Clouds 5 1013 25 10000 2.92 129 17:47 23.09.2021
5587 Clouds 6 1012 25 10000 2.25 150 15:32 23.09.2021
5588 Clouds 7 1011 26 10000 1.35 163 14:59 23.09.2021
5589 Clouds 7 1010 26 10000 0.63 213 13:46 23.09.2021
5590 Clouds 9 1010 30 10000 1.05 241 13:20 23.09.2021
5591 Clouds 9 1010 30 10000 1.05 241 12:52 23.09.2021
5592 Clouds 12 1009 22 10000 2.75 229 12:22 23.09.2021
5593 Clouds 12 1009 22 10000 2.75 229 12:22 23.09.2021
5594 Clouds 12 1009 22 10000 2.75 229 11:40 23.09.2021
5595 Clouds 14 1010 17 10000 4.35 235 10:26 23.09.2021
5596 Clouds 14 1010 17 10000 4.35 235 09:52 23.09.2021
5597 Clouds 12 1011 17 10000 2.85 221 08:21 23.09.2021
5598 Clouds 7 1014 28 10000 1.51 115 04:27 23.09.2021
5599 Clear 1 1015 33 10000 2.25 86 23:27 22.09.2021
5600 Clear 1 1015 35 10000 2.31 81 22:29 22.09.2021
5601 Clear 1 1015 35 10000 2.31 81 21:56 22.09.2021
5602 Clear 1 1015 35 10000 2.31 81 21:34 22.09.2021
5603 Clear 2 1016 36 10000 2.45 82 20:54 22.09.2021
5604 Clear 2 1017 37 10000 2.37 84 19:32 22.09.2021
5605 Clear 2 1017 37 10000 2.33 86 18:39 22.09.2021
5606 Clear 2 1016 36 10000 2.19 87 17:48 22.09.2021
5607 Clear 3 1016 36 10000 1.93 86 16:38 22.09.2021
5608 Clear 3 1015 35 10000 1.54 45 15:19 22.09.2021
5609 Clear 4 1014 35 10000 1.96 7 13:48 22.09.2021
5610 Clear 9 1012 25 10000 3.68 302 11:59 22.09.2021
5611 Clear 9 1012 25 10000 4.95 289 10:52 22.09.2021
5612 Clear 10 1011 27 10000 5.84 274 09:25 22.09.2021
5613 Clouds 9 1011 27 10000 5.72 270 08:29 22.09.2021
5614 Clouds 9 1011 26 10000 6.02 273 07:19 22.09.2021
5615 Clouds 8 1011 25 10000 4.81 259 05:56 22.09.2021
5616 Clouds 8 1011 25 10000 4.81 259 05:34 22.09.2021
5617 Clouds 7 1011 29 10000 2.53 221 03:50 22.09.2021
5618 Clouds 5 1009 30 10000 2.75 196 00:22 22.09.2021
5619 Clouds 5 1008 31 10000 1.97 201 22:56 21.09.2021
5620 Clouds 5 1007 31 10000 2.37 204 21:36 21.09.2021
5621 Clouds 5 1006 30 10000 1.58 149 20:26 21.09.2021
5622 Clouds 5 1007 27 10000 2.4 128 19:22 21.09.2021
5623 Clouds 6 1007 25 10000 2.3 115 17:36 21.09.2021
5624 Clouds 6 1007 24 10000 2.17 113 16:35 21.09.2021
5625 Clouds 6 1007 24 10000 1.8 122 15:39 21.09.2021
5626 Clear 6 1007 24 10000 1.37 142 14:57 21.09.2021
5627 Clear 7 1006 26 10000 0.84 187 13:56 21.09.2021
5628 Clear 7 1006 26 10000 0.84 187 13:36 21.09.2021
5629 Clear 9 1006 27 10000 1.5 237 12:35 21.09.2021
5630 Clear 13 1006 14 10000 6.21 255 10:26 21.09.2021
5631 Clear 13 1007 15 10000 5.65 256 08:29 21.09.2021
5632 Clear 12 1007 17 10000 4.66 252 06:53 21.09.2021
5633 Clouds 5 1009 35 10000 2.5 191 00:30 21.09.2021
5634 Clouds 6 1008 37 10000 2.02 226 22:27 20.09.2021
5635 Clouds 6 1008 37 10000 2.02 226 21:40 20.09.2021
5636 Clouds 8 1008 39 10000 1.94 231 20:34 20.09.2021
5637 Clouds 9 1007 45 10000 1.08 317 19:31 20.09.2021
5638 Clouds 9 1007 62 10000 1.09 237 17:47 20.09.2021
5639 Clouds 10 1007 62 10000 0.41 275 16:49 20.09.2021
5640 Clouds 11 1007 61 10000 0.64 15 15:56 20.09.2021
5641 Clouds 11 1007 61 10000 0.64 15 15:32 20.09.2021
5642 Clouds 13 1006 50 10000 2.35 301 14:24 20.09.2021
5643 Clouds 15 1004 45 10000 2.66 266 12:35 20.09.2021
5644 Clouds 17 1004 35 10000 5.05 273 11:44 20.09.2021
5645 Clouds 19 1004 29 10000 7.77 257 10:24 20.09.2021
5646 Clouds 19 1004 29 10000 7.77 257 09:37 20.09.2021
5647 Clouds 18 1005 30 10000 8.19 254 09:18 20.09.2021
5648 Clear 18 1005 31 10000 6.5 250 07:50 20.09.2021
5649 Clouds 9 1010 50 10000 2.41 106 01:43 20.09.2021
5650 Clouds 9 1010 47 10000 2.52 114 22:26 19.09.2021
5651 Clouds 9 1010 47 10000 2.52 114 21:43 19.09.2021
5652 Clouds 10 1010 44 10000 2.61 103 20:51 19.09.2021
5653 Clouds 9 1011 46 10000 1.95 128 19:32 19.09.2021
5654 Clouds 10 1011 45 10000 2.27 117 18:30 19.09.2021
5655 Clouds 10 1011 43 10000 2.47 111 17:23 19.09.2021
5656 Clouds 11 1011 41 10000 2.52 121 15:59 19.09.2021
5657 Clouds 11 1011 41 10000 2.52 121 15:30 19.09.2021
5658 Clouds 12 1011 40 10000 1.94 142 14:48 19.09.2021
5659 Clouds 14 1010 42 10000 1.34 245 13:29 19.09.2021
5660 Clouds 14 1010 42 10000 1.34 245 12:51 19.09.2021
5661 Clouds 17 1010 27 10000 3.6 254 11:28 19.09.2021
5662 Clouds 17 1010 27 10000 3.6 254 10:56 19.09.2021
5663 Clouds 18 1010 27 10000 3.52 251 09:49 19.09.2021
5664 Clouds 18 1010 27 10000 2.78 251 08:35 19.09.2021
5665 Clear 17 1012 29 10000 1.66 240 06:42 19.09.2021
5666 Clouds 7 1014 61 10000 1.76 92 23:53 18.09.2021
5667 Clouds 7 1014 61 10000 1.9 96 22:31 18.09.2021
5668 Clouds 8 1013 60 10000 1.83 97 20:56 18.09.2021
5669 Clouds 8 1013 60 10000 1.83 97 20:36 18.09.2021
5670 Clouds 8 1014 58 10000 1.86 91 19:40 18.09.2021
5671 Clouds 9 1014 57 10000 1.85 93 19:20 18.09.2021
5672 Clouds 9 1014 57 10000 1.85 93 18:32 18.09.2021
5673 Clouds 9 1014 56 10000 1.69 91 17:34 18.09.2021
5674 Clouds 10 1013 57 10000 1.04 103 16:20 18.09.2021
5675 Clouds 11 1012 56 10000 1.2 89 13:49 18.09.2021
5676 Clouds 13 1011 52 10000 1.14 17 13:29 18.09.2021
5677 Clouds 13 1011 52 10000 1.14 17 12:49 18.09.2021
5678 Clouds 15 1011 41 10000 3.97 329 11:41 18.09.2021
5679 Clouds 17 1010 32 10000 5.07 302 10:32 18.09.2021
5680 Clouds 17 1009 30 10000 2.56 276 09:28 18.09.2021
5681 Clouds 17 1009 30 10000 2.56 276 08:57 18.09.2021
5682 Clouds 15 1011 38 10000 1.13 242 05:49 18.09.2021
5683 Clouds 8 1012 52 10000 2.36 69 00:41 18.09.2021
5684 Clouds 8 1012 52 10000 2.08 68 23:49 17.09.2021
5685 Clouds 8 1012 53 10000 1.77 77 22:38 17.09.2021
5686 Clouds 8 1012 54 10000 1.32 80 22:19 17.09.2021
5687 Clouds 8 1012 50 10000 1.93 77 20:47 17.09.2021
5688 Clouds 9 1012 47 10000 1.7 80 19:22 17.09.2021
5689 Clouds 9 1012 48 10000 1.15 100 17:21 17.09.2021
5690 Clouds 10 1012 48 10000 1 68 16:24 17.09.2021
5691 Clouds 15 1009 35 10000 2.64 258 13:21 17.09.2021
5692 Clouds 18 1008 25 10000 4.14 255 10:42 17.09.2021
5693 Clouds 18 1008 24 10000 3.42 254 08:45 17.09.2021
5694 Clouds 18 1009 24 10000 1.87 233 06:53 17.09.2021
5695 Clouds 10 1012 31 10000 2.46 80 01:26 17.09.2021
5696 Clouds 9 1012 33 10000 1.76 73 23:23 16.09.2021
5697 Clouds 10 1012 34 10000 2.13 97 22:25 16.09.2021
5698 Clouds 10 1012 34 10000 2.13 97 21:41 16.09.2021
5699 Clouds 10 1013 32 10000 2.5 94 21:20 16.09.2021
5700 Clouds 10 1013 33 10000 1.88 98 20:18 16.09.2021
5701 Clouds 9 1013 32 10000 1.83 96 18:20 16.09.2021
5702 Clouds 9 1013 32 10000 1.83 96 17:32 16.09.2021
5703 Clouds 10 1012 33 10000 0.19 250 14:55 16.09.2021
5704 Clouds 11 1011 33 10000 1.11 308 13:55 16.09.2021
5705 Clouds 14 1011 36 10000 1.85 280 12:48 16.09.2021
5706 Clouds 17 1010 28 10000 3.29 266 12:28 16.09.2021
5707 Clouds 17 1011 23 10000 4.86 258 11:25 16.09.2021
5708 Clouds 17 1011 23 10000 4.86 258 10:31 16.09.2021
5709 Clouds 18 1011 23 10000 5.48 250 09:53 16.09.2021
5710 Clouds 18 1011 21 10000 5.83 243 08:42 16.09.2021
5711 Clouds 17 1012 25 10000 4.89 238 07:22 16.09.2021
5712 Clouds 17 1012 25 10000 4.89 238 06:39 16.09.2021
5713 Clouds 15 1014 32 10000 2.21 190 04:34 16.09.2021
5714 Clear 6 1017 44 10000 2.65 101 01:26 16.09.2021
5715 Clear 6 1017 44 10000 2.65 101 01:26 16.09.2021
5716 Clear 7 1017 44 10000 2.57 94 23:35 15.09.2021
5717 Clear 7 1017 44 10000 2.67 89 22:47 15.09.2021
5718 Clear 7 1018 45 10000 2.77 88 21:41 15.09.2021
5719 Clear 8 1018 45 10000 2.72 91 21:23 15.09.2021
5720 Clear 8 1019 44 10000 2.64 94 19:51 15.09.2021
5721 Clear 8 1019 44 10000 2.61 95 19:19 15.09.2021
5722 Clear 9 1019 42 10000 2.43 95 17:49 15.09.2021
5723 Clear 9 1019 41 10000 2.12 100 16:48 15.09.2021
5724 Clear 9 1019 40 10000 1.44 118 15:31 15.09.2021
5725 Clear 10 1019 40 10000 1.19 161 14:44 15.09.2021
5726 Clear 10 1018 39 10000 1.24 197 13:51 15.09.2021
5727 Clear 13 1018 39 10000 1.47 215 13:29 15.09.2021
5728 Clear 13 1018 39 10000 1.47 215 12:34 15.09.2021
5729 Clear 16 1017 28 10000 1.94 237 11:51 15.09.2021
5730 Clear 16 1017 27 10000 2.52 246 11:19 15.09.2021
5731 Clear 16 1017 27 10000 2.52 246 10:35 15.09.2021
5732 Clear 16 1018 28 10000 2.55 249 09:26 15.09.2021
5733 Clear 16 1018 30 10000 2.24 253 07:37 15.09.2021
5734 Clear 12 1020 36 10000 0.96 164 04:19 15.09.2021
5735 Clear 7 1019 42 10000 2.04 80 22:39 14.09.2021
5736 Clear 7 1019 42 10000 2.06 86 21:38 14.09.2021
5737 Clouds 8 1019 41 10000 2.23 105 20:27 14.09.2021
5738 Clouds 8 1019 42 10000 2.16 109 19:41 14.09.2021
5739 Clouds 9 1019 40 10000 2.08 91 17:34 14.09.2021
5740 Clouds 9 1019 40 10000 1.96 106 16:56 14.09.2021
5741 Clouds 9 1018 43 10000 0.72 131 15:27 14.09.2021
5742 Clear 10 1017 43 10000 0.71 237 14:28 14.09.2021
5743 Clear 15 1016 28 10000 3.92 269 11:50 14.09.2021
5744 Clear 15 1015 26 10000 4.79 267 10:49 14.09.2021
5745 Clear 16 1015 26 10000 5.13 262 09:50 14.09.2021
5746 Clear 16 1016 27 10000 4.45 257 08:36 14.09.2021
5747 Clear 15 1017 30 10000 2.67 260 06:22 14.09.2021
5748 Clear 7 1016 43 10000 1.06 78 23:36 13.09.2021
5749 Clear 7 1015 41 10000 1.31 106 22:29 13.09.2021
5750 Clear 7 1015 41 10000 1.31 106 21:59 13.09.2021
5751 Clear 7 1015 41 10000 1.31 106 21:39 13.09.2021
5752 Clouds 8 1016 44 10000 1.77 110 19:48 13.09.2021
5753 Clouds 8 1016 42 10000 1.86 108 18:45 13.09.2021
5754 Clouds 9 1016 39 10000 1.92 114 17:39 13.09.2021
5755 Clouds 10 1015 39 10000 1.79 136 16:50 13.09.2021
5756 Clouds 12 1014 30 10000 3.19 178 14:47 13.09.2021
5757 Clouds 17 1010 26 10000 4.51 262 11:45 13.09.2021
5758 Clouds 18 1010 26 10000 4.71 241 10:58 13.09.2021
5759 Clouds 19 1010 23 10000 6.9 226 08:55 13.09.2021
5760 Clouds 7 1015 65 10000 2.84 114 00:48 13.09.2021
5761 Clear 8 1014 64 10000 2.76 117 22:52 12.09.2021
5762 Clear 8 1013 62 10000 2.94 117 22:23 12.09.2021
5763 Clear 9 1013 61 10000 3 116 21:23 12.09.2021
5764 Clear 9 1014 59 10000 2.99 115 20:19 12.09.2021
5765 Clear 9 1014 59 10000 2.96 112 19:37 12.09.2021
5766 Clear 9 1014 57 10000 3.06 115 19:18 12.09.2021
5767 Clear 10 1014 54 10000 3.19 118 18:18 12.09.2021
5768 Clear 11 1013 46 10000 3.39 118 15:58 12.09.2021
5769 Clear 12 1012 43 10000 3.23 120 14:47 12.09.2021
5770 Clear 15 1010 41 10000 3.03 188 12:43 12.09.2021
5771 Clear 18 1009 25 10000 3.74 200 10:33 12.09.2021
5772 Clear 18 1010 23 10000 2.48 210 08:39 12.09.2021
5773 Clear 17 1011 23 10000 1.93 210 07:33 12.09.2021
5774 Clear 5 1015 50 10000 2.35 88 00:47 12.09.2021
5775 Clear 5 1015 50 10000 2.35 88 00:47 12.09.2021
5776 Clear 6 1015 50 10000 2.21 87 22:59 11.09.2021
5777 Clear 6 1015 49 10000 2.25 86 21:39 11.09.2021
5778 Clear 6 1015 47 10000 1.97 92 19:41 11.09.2021
5779 Clear 7 1014 46 10000 1.76 96 18:30 11.09.2021
5780 Clear 7 1014 45 10000 0.98 79 17:29 11.09.2021
5781 Clear 8 1014 46 10000 0.48 57 15:37 11.09.2021
5782 Clouds 13 1011 39 10000 3.43 290 13:25 11.09.2021
5783 Clouds 15 1010 29 10000 4.84 292 11:44 11.09.2021
5784 Clouds 16 1010 26 10000 5.1 286 10:35 11.09.2021
5785 Clouds 15 1010 28 10000 4.9 254 08:54 11.09.2021
5786 Clouds 12 1012 50 10000 1.64 222 07:44 11.09.2021
5787 Clouds 12 1011 63 10000 2.18 306 04:23 11.09.2021
5788 Clouds 9 1009 74 10000 1.51 104 22:43 10.09.2021
5789 Rain 10 1009 70 10000 1.8 95 21:57 10.09.2021
5790 Rain 10 1009 70 10000 1.8 95 21:38 10.09.2021
5791 Clouds 10 1010 70 10000 2.04 101 19:32 10.09.2021
5792 Clouds 11 1010 64 10000 2.43 140 17:58 10.09.2021
5793 Rain 13 1008 48 10000 1.75 169 16:28 10.09.2021
5794 Clouds 16 1007 45 10000 1.35 311 13:29 10.09.2021
5795 Clouds 18 1006 29 10000 5.18 282 10:52 10.09.2021
5796 Clouds 18 1007 33 10000 4.54 262 07:52 10.09.2021
5797 Clouds 18 1007 33 10000 3.44 265 07:21 10.09.2021
5798 Clouds 9 1009 49 10000 1.43 152 00:24 10.09.2021
5799 Clouds 10 1008 47 10000 1.33 118 21:49 09.09.2021
5800 Clouds 11 1008 46 10000 1.84 128 20:48 09.09.2021
5801 Clouds 11 1008 44 10000 2.26 136 20:27 09.09.2021
5802 Clouds 12 1008 45 10000 1.54 147 18:46 09.09.2021
5803 Clouds 14 1008 40 10000 2.09 132 17:47 09.09.2021
5804 Clouds 13 1008 38 10000 2.71 144 16:28 09.09.2021
5805 Clear 13 1008 38 10000 2.26 141 15:25 09.09.2021
5806 Clear 17 1006 40 10000 1.95 227 12:33 09.09.2021
5807 Clear 20 1006 26 10000 4.55 246 11:22 09.09.2021
5808 Clear 20 1006 25 10000 3.91 242 09:35 09.09.2021
5809 Clear 19 1007 28 10000 2.15 262 07:45 09.09.2021
5810 Clear 17 1009 29 10000 1.23 239 05:47 09.09.2021
5811 Clear 7 1012 53 10000 2.06 96 23:55 08.09.2021
5812 Clear 8 1012 51 10000 1.99 97 21:48 08.09.2021
5813 Clear 8 1012 50 10000 1.76 114 20:49 08.09.2021
5814 Clear 8 1012 49 10000 1.22 137 19:46 08.09.2021
5815 Clear 9 1012 49 10000 1.1 138 18:47 08.09.2021
5816 Clear 9 1012 48 10000 0.71 114 18:25 08.09.2021
5817 Clear 9 1012 48 10000 0.71 114 17:39 08.09.2021
5818 Clear 11 1012 45 10000 1.62 342 15:21 08.09.2021
5819 Clouds 12 1011 47 10000 1.85 312 13:33 08.09.2021
5820 Clouds 15 1010 43 10000 2.99 312 12:41 08.09.2021
5821 Clouds 17 1010 35 10000 5.5 308 12:23 08.09.2021
5822 Clouds 18 1010 31 10000 6.64 303 11:26 08.09.2021
5823 Clouds 18 1010 31 10000 6.64 303 10:31 08.09.2021
5824 Clouds 18 1010 31 10000 6.92 295 09:55 08.09.2021
5825 Clouds 17 1011 35 10000 6.16 287 07:45 08.09.2021
5826 Clouds 16 1012 39 10000 4.6 283 06:43 08.09.2021
5827 Clear 6 1016 70 10000 0.53 182 23:18 07.09.2021
5828 Clouds 6 1016 68 10000 0.43 210 22:19 07.09.2021
5829 Clouds 7 1016 66 10000 0.46 337 20:41 07.09.2021
5830 Clear 8 1016 62 10000 0.97 4 18:53 07.09.2021
5831 Clear 8 1017 60 10000 1.51 4 18:25 07.09.2021
5832 Clear 9 1017 58 10000 1.8 2 17:22 07.09.2021
5833 Clear 9 1016 56 10000 2.12 4 15:56 07.09.2021
5834 Clear 10 1016 54 10000 2.72 6 14:48 07.09.2021
5835 Clear 11 1015 51 10000 3.01 356 13:50 07.09.2021
5836 Clear 16 1013 37 10000 4.86 325 11:58 07.09.2021
5837 Clear 17 1013 32 10000 6.26 319 10:48 07.09.2021
5838 Clear 17 1013 31 10000 7.25 306 09:40 07.09.2021
5839 Clear 18 1013 31 10000 7.53 296 07:46 07.09.2021
5840 Clear 16 1015 36 10000 2.64 285 06:19 07.09.2021
5841 Clear 11 1017 47 10000 1 88 02:38 07.09.2021
5842 Clear 6 1017 60 10000 0.83 87 00:55 07.09.2021
5843 Clear 7 1016 60 10000 0.56 68 23:46 06.09.2021
5844 Clear 7 1016 60 10000 0.4 47 23:28 06.09.2021
5845 Clear 7 1016 60 10000 0.4 47 22:49 06.09.2021
5846 Clear 7 1016 58 10000 0.34 25 21:52 06.09.2021
5847 Clear 8 1016 58 10000 0.88 40 19:44 06.09.2021
5848 Clouds 9 1017 58 10000 1.38 27 19:18 06.09.2021
5849 Clouds 9 1017 58 10000 1.38 27 18:33 06.09.2021
5850 Clouds 9 1016 57 10000 1.3 16 17:50 06.09.2021
5851 Clear 10 1016 54 10000 1.31 315 16:20 06.09.2021
5852 Clear 11 1016 53 10000 1.46 311 14:59 06.09.2021
5853 Clear 16 1014 42 10000 3.95 292 12:49 06.09.2021
5854 Clear 18 1013 35 10000 6.06 297 11:52 06.09.2021
5855 Clear 19 1012 28 10000 7.78 293 10:19 06.09.2021
5856 Clear 18 1014 36 10000 5.41 277 07:35 06.09.2021
5857 Clear 13 1017 48 10000 0.68 237 03:34 06.09.2021
5858 Clear 6 1019 64 10000 1.43 109 23:22 05.09.2021
5859 Clear 6 1019 64 10000 1.43 109 22:32 05.09.2021
5860 Clear 6 1019 63 10000 1.39 104 21:55 05.09.2021
5861 Clear 6 1019 61 10000 1.38 106 21:20 05.09.2021
5862 Clear 7 1019 60 10000 1.72 119 19:30 05.09.2021
5863 Clear 7 1019 59 10000 1.18 154 17:52 05.09.2021
5864 Clear 8 1019 58 10000 0.76 200 15:43 05.09.2021
5865 Clear 8 1019 57 10000 0.89 235 15:19 05.09.2021
5866 Clouds 13 1017 43 10000 3.64 270 12:44 05.09.2021
5867 Clouds 14 1017 36 10000 5.19 255 11:31 05.09.2021
5868 Clouds 15 1017 35 10000 4.8 256 10:39 05.09.2021
5869 Clouds 15 1018 35 10000 4.88 263 09:33 05.09.2021
5870 Clouds 14 1019 39 10000 3.76 256 08:28 05.09.2021
5871 Clouds 8 1022 55 10000 0.7 151 03:22 05.09.2021
5872 Clouds 5 1022 64 10000 1.4 116 00:39 05.09.2021
5873 Clouds 5 1021 63 10000 1.34 89 23:54 04.09.2021
5874 Clouds 5 1021 64 10000 1.46 78 23:22 04.09.2021
5875 Clouds 5 1021 64 10000 1.46 78 22:34 04.09.2021
5876 Clouds 6 1021 64 10000 2.11 59 20:21 04.09.2021
5877 Clouds 6 1021 64 10000 2.03 60 19:33 04.09.2021
5878 Clouds 7 1021 62 10000 2.62 52 17:21 04.09.2021
5879 Clouds 10 1018 52 10000 3.09 31 14:29 04.09.2021
5880 Clouds 14 1016 39 10000 1.75 264 11:22 04.09.2021
5881 Clouds 13 1017 40 10000 1.9 256 10:27 04.09.2021
5882 Clouds 12 1017 43 10000 1.81 269 07:32 04.09.2021
5883 Clouds 4 1020 81 10000 2.18 45 00:49 04.09.2021
5884 Clear 4 1019 79 10000 2.21 42 23:39 03.09.2021
5885 Clear 4 1019 78 10000 2.12 38 23:19 03.09.2021
5886 Clear 5 1019 76 10000 2.16 39 21:41 03.09.2021
5887 Clear 5 1019 74 10000 2.31 38 20:54 03.09.2021
5888 Clear 5 1019 71 10000 2.41 38 20:19 03.09.2021
5889 Clear 5 1019 72 10000 2.36 39 19:30 03.09.2021
5890 Clear 6 1019 64 10000 2.85 26 17:58 03.09.2021
5891 Clear 7 1018 61 10000 2.91 26 16:46 03.09.2021
5892 Clear 7 1017 60 10000 3.02 17 15:38 03.09.2021
5893 Clouds 12 1013 49 10000 5.99 359 12:59 03.09.2021
5894 Clouds 15 1011 40 10000 5.88 350 10:43 03.09.2021
5895 Clouds 16 1011 42 10000 5.12 350 09:20 03.09.2021
5896 Clouds 15 1010 47 10000 4.76 345 07:51 03.09.2021
5897 Clouds 14 1011 58 10000 2.98 332 06:21 03.09.2021
5898 Clouds 10 1012 83 10000 1.03 276 23:54 02.09.2021
5899 Rain 10 1012 84 10000 1.28 199 21:42 02.09.2021
5900 Clouds 11 1012 82 10000 1.83 205 20:24 02.09.2021
5901 Rain 12 1013 83 10000 1.58 164 17:33 02.09.2021
5902 Rain 11 1013 89 10000 0.56 175 16:20 02.09.2021
5903 Clouds 11 1013 90 10000 0.69 207 14:36 02.09.2021
5904 Clouds 15 1010 64 10000 4.02 230 12:58 02.09.2021
5905 Clouds 17 1009 55 10000 4.79 243 11:40 02.09.2021
5906 Clouds 18 1008 49 10000 6.57 249 10:37 02.09.2021
5907 Clouds 20 1008 40 10000 4.44 257 08:49 02.09.2021
5908 Clouds 20 1008 40 10000 2.98 257 07:20 02.09.2021
5909 Clouds 20 1008 40 10000 2.98 257 07:20 02.09.2021
5910 Clouds 19 1009 42 10000 1.49 242 05:31 02.09.2021
5911 Clouds 14 1011 60 10000 1.68 95 02:35 02.09.2021
5912 Clouds 12 1012 67 10000 2.06 93 01:34 02.09.2021
5913 Clouds 11 1012 70 10000 2.12 85 23:40 01.09.2021
5914 Clouds 11 1012 70 10000 2.19 85 22:42 01.09.2021
5915 Clouds 11 1012 70 10000 2.61 82 21:41 01.09.2021
5916 Clouds 11 1012 71 10000 2.34 89 20:53 01.09.2021
5917 Clouds 11 1012 69 10000 2.41 100 19:23 01.09.2021
5918 Clouds 11 1012 68 10000 2.26 108 17:47 01.09.2021
5919 Clouds 11 1012 68 10000 1.93 118 16:48 01.09.2021
5920 Clear 12 1011 66 10000 1.98 120 16:21 01.09.2021
5921 Clouds 13 1010 63 10000 0.76 272 13:40 01.09.2021
5922 Clouds 16 1010 55 10000 2.45 299 11:46 01.09.2021
5923 Clouds 18 1010 46 10000 3.76 277 09:25 01.09.2021
5924 Clouds 17 1010 52 10000 2.82 266 07:53 01.09.2021
5925 Clouds 16 1011 55 10000 2 254 05:40 01.09.2021
5926 Clouds 10 1012 88 10000 1.16 197 23:19 31.08.2021
5927 Clouds 10 1012 87 10000 1.19 210 21:40 31.08.2021
5928 Clouds 11 1012 87 10000 0.75 201 19:48 31.08.2021
5929 Clouds 11 1012 85 10000 1.09 170 18:37 31.08.2021
5930 Clouds 11 1012 84 10000 1.09 131 17:38 31.08.2021
5931 Clouds 12 1012 83 10000 1.3 98 17:20 31.08.2021
5932 Clouds 12 1013 83 10000 1.56 101 16:24 31.08.2021
5933 Clouds 12 1013 83 10000 1.56 101 16:24 31.08.2021
5934 Rain 12 1012 85 10000 1.31 107 13:46 31.08.2021
5935 Rain 12 1012 89 10000 0.61 176 11:36 31.08.2021
5936 Clouds 13 1012 85 9561 0.86 226 10:55 31.08.2021
5937 Clouds 14 1012 75 10000 0.67 341 09:45 31.08.2021
5938 Clouds 14 1013 77 10000 1.44 332 08:40 31.08.2021
5939 Clouds 16 1011 62 10000 3.93 191 07:38 31.08.2021
5940 Clouds 16 1012 59 10000 1.72 194 05:36 31.08.2021
5941 Rain 12 1014 79 10000 1.35 82 23:35 30.08.2021
5942 Clouds 11 1013 79 10000 2.11 61 21:52 30.08.2021
5943 Rain 11 1013 79 10000 2.11 61 21:32 30.08.2021
5944 Clouds 11 1014 83 10000 2.33 80 20:32 30.08.2021
5945 Clouds 11 1014 83 10000 2.59 86 19:29 30.08.2021
5946 Rain 11 1014 83 10000 2.59 86 18:44 30.08.2021
5947 Rain 11 1015 84 10000 2.32 108 17:46 30.08.2021
5948 Clouds 11 1015 85 10000 2.54 94 16:24 30.08.2021
5949 Clouds 11 1015 85 10000 2.54 94 15:39 30.08.2021
5950 Clouds 17 1009 52 10000 1.71 227 13:45 30.08.2021
5951 Clouds 20 1008 40 10000 4.88 256 12:29 30.08.2021
5952 Clouds 21 1008 36 10000 6.09 249 10:33 30.08.2021
5953 Clouds 10 1013 62 10000 2.42 89 23:29 29.08.2021
5954 Clouds 10 1013 61 10000 2.55 87 21:33 29.08.2021
5955 Clouds 11 1013 58 10000 2.41 97 20:27 29.08.2021
5956 Clouds 11 1013 56 10000 2.05 97 19:20 29.08.2021
5957 Clouds 12 1012 55 10000 1.57 97 17:53 29.08.2021
5958 Clouds 13 1011 55 10000 0.17 352 15:49 29.08.2021
5959 Clouds 15 1010 54 10000 1.25 272 14:20 29.08.2021
5960 Clouds 15 1010 53 10000 1.2 257 13:44 29.08.2021
5961 Clouds 18 1009 47 10000 1.65 251 12:32 29.08.2021
5962 Clouds 19 1009 36 10000 3.1 254 11:50 29.08.2021
5963 Clouds 19 1009 35 10000 4.14 248 11:23 29.08.2021
5964 Clouds 19 1009 35 10000 4.14 248 10:43 29.08.2021
5965 Clouds 19 1009 36 10000 4.07 241 10:24 29.08.2021
5966 Clear 18 1010 41 10000 2.26 255 08:24 29.08.2021
5967 Clouds 9 1013 83 10000 1.95 98 00:25 29.08.2021
5968 Clouds 10 1013 81 10000 2.33 96 21:53 28.08.2021
5969 Clouds 10 1014 81 10000 2.01 105 20:22 28.08.2021
5970 Clouds 11 1014 73 10000 2.59 108 18:33 28.08.2021
5971 Clouds 11 1013 71 10000 2.77 111 17:59 28.08.2021
5972 Clouds 12 1013 67 10000 2.17 126 17:18 28.08.2021
5973 Clouds 13 1013 63 10000 2.24 130 15:39 28.08.2021
5974 Clouds 14 1011 62 10000 2.13 195 14:20 28.08.2021
5975 Clouds 14 1012 62 10000 1.98 180 13:44 28.08.2021
5976 Clouds 15 1011 55 10000 3.57 200 12:42 28.08.2021
5977 Clouds 16 1011 50 10000 4.44 204 11:53 28.08.2021
5978 Clouds 17 1011 46 10000 4.52 204 10:41 28.08.2021
5979 Clouds 18 1011 40 10000 4.77 197 08:40 28.08.2021
5980 Clouds 18 1012 40 10000 3.52 206 07:24 28.08.2021
5981 Clouds 8 1016 70 10000 2.38 106 22:29 27.08.2021
5982 Clouds 8 1016 69 10000 2.26 105 20:57 27.08.2021
5983 Clouds 8 1016 69 10000 2.26 105 20:30 27.08.2021
5984 Clouds 9 1016 69 10000 2.1 105 18:57 27.08.2021
5985 Clouds 9 1016 69 10000 2.1 105 18:37 27.08.2021
5986 Clouds 10 1016 67 10000 2.09 119 16:56 27.08.2021
5987 Rain 10 1015 66 10000 1.55 137 15:36 27.08.2021
5988 Clouds 11 1014 64 10000 0.95 153 14:43 27.08.2021
5989 Clouds 15 1013 56 10000 1.07 105 12:30 27.08.2021
5990 Clouds 16 1013 48 10000 1.45 138 11:25 27.08.2021
5991 Clouds 16 1013 48 10000 1.45 138 10:43 27.08.2021
5992 Clouds 16 1014 49 10000 1.35 143 09:31 27.08.2021
5993 Clouds 15 1014 52 10000 1.43 133 08:44 27.08.2021
5994 Clouds 14 1016 56 10000 1.76 173 06:37 27.08.2021
5995 Clouds 10 1018 66 10000 0.99 136 03:48 27.08.2021
5996 Clouds 7 1018 81 10000 1.52 155 00:33 27.08.2021
5997 Rain 8 1017 73 10000 1.28 176 22:41 26.08.2021
5998 Clouds 8 1017 71 10000 1.62 184 22:18 26.08.2021
5999 Clouds 9 1017 65 10000 1.42 162 20:31 26.08.2021
6000 Rain 9 1018 65 10000 1.12 105 18:49 26.08.2021
6001 Clouds 8 1018 66 10000 0.9 94 17:44 26.08.2021
6002 Clouds 9 1017 63 10000 1 114 16:33 26.08.2021
6003 Clouds 9 1017 64 10000 0.84 164 15:54 26.08.2021
6004 Clouds 10 1016 64 10000 0.41 185 13:44 26.08.2021
6005 Clouds 12 1015 52 10000 2.91 187 12:50 26.08.2021
6006 Clouds 13 1015 45 10000 2.55 188 12:24 26.08.2021
6007 Clouds 13 1015 44 10000 2.15 205 09:43 26.08.2021
6008 Clouds 13 1015 46 10000 2.12 218 08:34 26.08.2021
6009 Clouds 8 1018 64 10000 1.36 93 02:32 26.08.2021
6010 Clouds 6 1018 72 10000 1.59 62 22:48 25.08.2021
6011 Clouds 6 1018 74 10000 1.68 56 22:29 25.08.2021
6012 Clouds 6 1018 73 10000 2.03 55 21:25 25.08.2021
6013 Clouds 6 1018 73 10000 2.03 55 20:44 25.08.2021
6014 Clouds 6 1018 72 10000 2.13 65 20:25 25.08.2021
6015 Clouds 6 1018 71 10000 2.43 60 18:42 25.08.2021
6016 Clouds 7 1018 68 10000 2.63 44 17:29 25.08.2021
6017 Clouds 7 1017 67 10000 3.07 41 15:43 25.08.2021
6018 Clouds 8 1017 65 10000 3.4 36 14:47 25.08.2021
6019 Clouds 10 1016 60 10000 3.7 31 14:18 25.08.2021
6020 Clouds 12 1014 48 10000 4 29 12:55 25.08.2021
6021 Clouds 14 1014 41 10000 5.27 17 11:25 25.08.2021
6022 Clouds 14 1014 41 10000 5.27 17 11:25 25.08.2021
6023 Clouds 14 1014 42 10000 5.46 12 10:26 25.08.2021
6024 Clouds 14 1014 42 10000 5.46 12 09:43 25.08.2021
6025 Clouds 15 1014 41 10000 3.91 357 08:40 25.08.2021
6026 Clouds 14 1014 41 10000 2.93 326 07:43 25.08.2021
6027 Clouds 9 1017 70 10000 1.5 30 03:28 25.08.2021
6028 Clouds 5 1017 87 10000 1.79 52 23:40 24.08.2021
6029 Rain 6 1017 88 10000 1.85 63 21:48 24.08.2021
6030 Clouds 6 1018 88 10000 1.95 61 20:38 24.08.2021
6031 Clouds 7 1017 85 10000 2.24 51 19:44 24.08.2021
6032 Clouds 8 1017 78 10000 2.83 33 17:57 24.08.2021
6033 Clouds 8 1017 75 10000 2.82 24 17:22 24.08.2021
6034 Clouds 8 1017 75 10000 2.82 24 16:41 24.08.2021
6035 Clouds 12 1015 62 10000 2.96 6 14:25 24.08.2021
6036 Clouds 14 1014 52 10000 2.28 21 13:23 24.08.2021
6037 Clouds 15 1013 48 10000 2.51 354 11:26 24.08.2021
6038 Clouds 15 1013 48 10000 2.51 354 10:48 24.08.2021
6039 Clouds 16 1013 43 10000 3.52 317 10:25 24.08.2021
6040 Clouds 17 1013 39 10000 2.96 266 08:46 24.08.2021
6041 Clear 15 1015 42 10000 2.18 267 06:35 24.08.2021
6042 Clear 11 1018 51 10000 0.69 207 03:59 24.08.2021
6043 Clear 5 1020 71 10000 1.78 82 00:28 24.08.2021
6044 Clear 5 1020 71 10000 2 73 22:51 23.08.2021
6045 Clear 6 1020 72 10000 2.16 67 21:54 23.08.2021
6046 Clear 6 1020 72 10000 2.55 66 20:27 23.08.2021
6047 Clear 7 1020 72 10000 2.49 61 18:47 23.08.2021
6048 Clear 7 1020 74 10000 2.72 46 16:29 23.08.2021
6049 Clouds 10 1018 67 10000 3.19 26 13:58 23.08.2021
6050 Clouds 13 1017 56 10000 2.81 20 12:34 23.08.2021
6051 Clouds 14 1017 49 10000 2.13 19 11:48 23.08.2021
6052 Clouds 15 1017 47 10000 2.07 16 10:36 23.08.2021
6053 Clouds 14 1018 49 10000 3.05 26 09:24 23.08.2021
6054 Clouds 13 1019 56 10000 3.74 32 07:54 23.08.2021
6055 Clouds 12 1019 59 10000 3.63 33 06:47 23.08.2021
6056 Clouds 9 1020 67 10000 2.55 36 04:46 23.08.2021
6057 Clouds 2 1024 91 10000 2.12 25 00:48 23.08.2021
6058 Clouds 2 1023 91 10000 2.31 20 22:44 22.08.2021
6059 Clouds 3 1023 92 10000 2.78 32 21:58 22.08.2021
6060 Clouds 3 1023 92 10000 2.78 32 21:58 22.08.2021
6061 Clouds 4 1022 92 10000 3.15 18 20:21 22.08.2021
6062 Clouds 4 1022 89 10000 2.91 10 18:54 22.08.2021
6063 Clouds 3 1020 87 10000 2.78 18 16:27 22.08.2021
6064 Clouds 3 1019 86 10000 2.58 20 14:55 22.08.2021
6065 Clouds 5 1017 85 10000 2.54 3 13:59 22.08.2021
6066 Clouds 6 1016 76 10000 3.37 2 13:20 22.08.2021
6067 Clouds 6 1016 76 10000 3.37 2 13:20 22.08.2021
6068 Clouds 6 1016 76 10000 3.37 2 13:20 22.08.2021
6069 Clouds 6 1016 76 10000 3.37 2 12:50 22.08.2021
6070 Clouds 7 1015 69 10000 3.81 360 11:55 22.08.2021
6071 Clouds 7 1015 69 10000 3.81 360 11:33 22.08.2021
6072 Clouds 7 1014 65 10000 3.84 342 09:59 22.08.2021
6073 Clouds 7 1014 67 4730 3.93 326 07:59 22.08.2021
6074 Clouds 3 1016 82 2307 3.15 273 04:46 22.08.2021
6075 Clouds 1 1017 87 10000 1.82 238 22:49 21.08.2021
6076 Clouds 2 1017 88 10000 1.93 278 22:25 21.08.2021
6077 Clouds 6 1014 82 10000 2.14 262 18:59 21.08.2021
6078 Clouds 6 1014 82 10000 2.14 262 18:39 21.08.2021
6079 Clouds 7 1013 77 10000 1.9 308 17:47 21.08.2021
6080 Clouds 7 1012 73 10000 1.33 356 16:50 21.08.2021
6081 Clouds 8 1011 68 10000 1.62 359 15:51 21.08.2021
6082 Clouds 8 1010 66 10000 2.72 16 15:25 21.08.2021
6083 Clouds 9 1010 63 10000 2.81 2 13:48 21.08.2021
6084 Clouds 11 1009 53 10000 5.52 336 12:40 21.08.2021
6085 Clouds 12 1008 44 10000 6.64 324 11:55 21.08.2021
6086 Clouds 12 1008 45 10000 8.03 301 09:18 21.08.2021
6087 Clouds 8 1009 86 10000 3.68 288 00:51 21.08.2021
6088 Clouds 8 1007 90 10000 4.72 264 22:33 20.08.2021
6089 Rain 9 1007 91 10000 1.54 163 19:51 20.08.2021
6090 Clouds 9 1006 85 10000 1.97 129 17:46 20.08.2021
6091 Clouds 12 1005 81 10000 2.74 124 14:35 20.08.2021
6092 Clouds 18 1002 50 10000 3.19 264 12:44 20.08.2021
6093 Clouds 19 1002 40 10000 5.44 259 11:29 20.08.2021
6094 Clouds 20 1003 39 10000 4.09 265 10:23 20.08.2021
6095 Clouds 19 1003 41 10000 3.65 266 09:28 20.08.2021
6096 Clouds 19 1003 41 10000 3.65 266 08:37 20.08.2021
6097 Clouds 13 1010 63 10000 2.35 51 04:46 20.08.2021
6098 Clouds 12 1011 70 10000 3.26 32 04:20 20.08.2021
6099 Clouds 9 1011 72 10000 1.94 91 23:40 19.08.2021
6100 Clouds 9 1011 71 10000 1.83 90 22:38 19.08.2021
6101 Clouds 9 1011 71 10000 1.64 100 21:55 19.08.2021
6102 Clouds 10 1012 68 10000 1.34 130 20:20 19.08.2021
6103 Clouds 10 1012 68 10000 0.99 154 18:56 19.08.2021
6104 Clouds 12 1012 61 10000 1.71 176 16:58 19.08.2021
6105 Clouds 13 1012 59 10000 1.66 167 15:38 19.08.2021
6106 Clouds 16 1010 49 10000 0.74 223 13:18 19.08.2021
6107 Clouds 17 1010 46 10000 0.65 268 12:29 19.08.2021
6108 Clouds 16 1010 47 10000 0.93 307 10:56 19.08.2021
6109 Clouds 16 1011 50 10000 1.56 303 09:49 19.08.2021
6110 Clouds 16 1011 51 10000 2.02 278 09:28 19.08.2021
6111 Clouds 16 1011 53 10000 2.47 285 08:33 19.08.2021
6112 Clouds 15 1012 60 10000 1.96 254 05:39 19.08.2021
6113 Clouds 10 1014 88 10000 0.42 142 02:20 19.08.2021
6114 Clouds 9 1013 92 10000 0.82 273 23:30 18.08.2021
6115 Clouds 9 1013 92 10000 0.82 273 22:38 18.08.2021
6116 Clouds 9 1013 92 10000 0.86 303 21:34 18.08.2021
6117 Clouds 10 1013 93 10000 0.96 292 20:20 18.08.2021
6118 Clouds 10 1013 93 10000 0.96 292 20:20 18.08.2021
6119 Clouds 9 1013 94 10000 1.08 276 19:26 18.08.2021
6120 Clouds 9 1013 94 10000 1.08 276 18:34 18.08.2021
6121 Clouds 10 1012 92 10000 1.12 250 16:56 18.08.2021
6122 Clouds 11 1012 91 10000 1.08 240 15:40 18.08.2021
6123 Clouds 11 1011 90 10000 1.24 240 15:21 18.08.2021
6124 Clouds 12 1010 82 10000 2.53 240 13:21 18.08.2021
6125 Clouds 12 1010 82 10000 2.53 240 12:38 18.08.2021
6126 Clouds 13 1009 75 10000 2.85 237 12:19 18.08.2021
6127 Clouds 16 1008 56 10000 2.5 262 08:43 18.08.2021
6128 Clouds 10 1011 90 10000 0.87 333 02:29 18.08.2021
6129 Clouds 11 1011 91 10000 0.99 246 22:40 17.08.2021
6130 Rain 11 1011 91 10000 1.17 273 21:59 17.08.2021
6131 Rain 11 1011 93 10000 1.65 275 21:22 17.08.2021
6132 Clouds 11 1010 96 10000 1.96 249 20:24 17.08.2021
6133 Clouds 12 1011 98 10000 2.25 213 17:47 17.08.2021
6134 Clouds 12 1011 98 10000 2.17 223 17:26 17.08.2021
6135 Clouds 12 1011 98 8347 2.23 228 15:46 17.08.2021
6136 Clouds 12 1010 98 2237 2.29 230 14:56 17.08.2021
6137 Clouds 12 1011 95 10000 1.91 223 12:44 17.08.2021
6138 Clouds 13 1009 96 3314 2.93 226 09:42 17.08.2021
6139 Clouds 13 1009 95 7918 3.09 209 09:18 17.08.2021
6140 Clouds 13 1009 92 10000 2.5 201 06:57 17.08.2021
6141 Clouds 13 1009 95 9372 1.88 80 23:25 16.08.2021
6142 Rain 13 1009 95 9372 1.88 80 22:53 16.08.2021
6143 Clouds 13 1009 95 9372 1.88 80 22:35 16.08.2021
6144 Clouds 13 1010 95 9046 2 81 21:46 16.08.2021
6145 Clouds 13 1011 94 8080 2.13 87 20:51 16.08.2021
6146 Rain 14 1013 95 5885 1.93 103 19:29 16.08.2021
6147 Rain 14 1013 95 4590 1.78 91 18:26 16.08.2021
6148 Rain 14 1013 95 4590 1.78 91 18:26 16.08.2021
6149 Rain 14 1013 95 4590 1.78 91 18:26 16.08.2021
6150 Clouds 14 1013 95 4590 1.78 91 17:54 16.08.2021
6151 Rain 14 1014 92 6733 1.73 91 16:29 16.08.2021
6152 Rain 14 1013 92 10000 1.86 94 15:23 16.08.2021
6153 Clouds 14 1014 93 7768 0.94 61 13:55 16.08.2021
6154 Clouds 14 1013 91 10000 1.83 26 12:59 16.08.2021
6155 Clouds 14 1013 91 10000 1.83 26 12:59 16.08.2021
6156 Clouds 15 1013 88 10000 0.86 339 11:31 16.08.2021
6157 Rain 16 1013 79 10000 1.49 322 09:33 16.08.2021
6158 Clouds 17 1013 72 10000 2.1 293 08:43 16.08.2021
6159 Clouds 17 1013 75 10000 0.95 265 07:30 16.08.2021
6160 Clouds 20 1011 55 10000 2.38 246 05:56 16.08.2021
6161 Rain 14 1012 80 10000 1.77 39 01:21 16.08.2021
6162 Clouds 15 1013 73 10000 1.09 330 21:34 15.08.2021
6163 Clouds 17 1012 52 10000 2.03 309 19:41 15.08.2021
6164 Clouds 18 1010 47 10000 0.7 83 18:41 15.08.2021
6165 Clouds 18 1009 46 10000 0.87 91 17:49 15.08.2021
6166 Rain 18 1008 45 10000 1.15 117 16:43 15.08.2021
6167 Clouds 18 1008 45 10000 1.29 132 15:35 15.08.2021
6168 Clouds 19 1007 43 10000 1.18 94 14:36 15.08.2021
6169 Clouds 20 1006 51 10000 0.64 310 13:34 15.08.2021
6170 Clouds 25 1005 31 10000 4.89 185 10:41 15.08.2021
6171 Clouds 25 1006 31 10000 7.07 220 06:55 15.08.2021
6172 Clouds 15 1009 60 10000 2.71 96 01:22 15.08.2021
6173 Clouds 15 1009 60 10000 2.71 96 00:32 15.08.2021
6174 Clouds 15 1008 61 10000 2.91 86 21:26 14.08.2021
6175 Clouds 15 1009 62 10000 3.15 80 20:21 14.08.2021
6176 Clouds 15 1008 55 10000 2.99 80 19:31 14.08.2021
6177 Clouds 16 1008 55 10000 3.26 105 17:35 14.08.2021
6178 Clouds 16 1007 56 10000 3.25 114 16:39 14.08.2021
6179 Clouds 17 1006 52 10000 2.74 126 15:34 14.08.2021
6180 Clouds 20 1003 49 10000 1.13 271 13:35 14.08.2021
6181 Clouds 25 1002 29 10000 6.44 264 10:57 14.08.2021
6182 Clouds 26 1002 25 10000 5.43 234 08:53 14.08.2021
6183 Clouds 15 1006 44 10000 3.02 89 00:21 14.08.2021
6184 Clouds 15 1006 44 10000 3.02 89 23:49 13.08.2021
6185 Clouds 14 1006 45 10000 3.04 86 21:50 13.08.2021
6186 Clouds 15 1007 44 10000 2.9 80 19:29 13.08.2021
6187 Clouds 15 1007 44 10000 2.9 80 18:45 13.08.2021
6188 Clouds 16 1007 42 10000 3 80 17:18 13.08.2021
6189 Clouds 16 1006 41 10000 2.44 77 15:53 13.08.2021
6190 Clear 23 1005 25 10000 0.7 198 11:43 13.08.2021
6191 Clear 23 1005 26 10000 1.07 246 11:18 13.08.2021
6192 Clear 23 1006 26 10000 1.32 264 08:39 13.08.2021
6193 Clear 22 1007 28 10000 1.4 278 07:48 13.08.2021
6194 Clear 22 1007 29 10000 1.28 293 06:32 13.08.2021
6195 Clear 11 1011 65 10000 2.05 86 00:27 13.08.2021
6196 Clear 11 1011 61 10000 2.02 79 21:48 12.08.2021
6197 Clear 12 1011 60 10000 1.98 78 20:35 12.08.2021
6198 Clouds 12 1011 60 10000 1.89 66 19:50 12.08.2021
6199 Clouds 13 1011 57 10000 1.91 75 18:29 12.08.2021
6200 Clouds 13 1011 56 10000 1.68 65 16:50 12.08.2021
6201 Clouds 13 1011 56 10000 1.68 65 16:50 12.08.2021
6202 Clouds 14 1010 55 10000 1.25 37 15:39 12.08.2021
6203 Clouds 18 1009 53 10000 1.36 59 13:51 12.08.2021
6204 Clouds 20 1008 39 10000 1.45 32 11:37 12.08.2021
6205 Clouds 21 1008 38 10000 2 266 08:57 12.08.2021
6206 Clear 20 1009 41 10000 1.52 267 07:30 12.08.2021
6207 Clouds 10 1012 86 10000 1.03 95 23:21 11.08.2021
6208 Clouds 10 1012 86 10000 0.52 93 21:44 11.08.2021
6209 Clouds 14 1011 77 10000 1.07 66 18:55 11.08.2021
6210 Clouds 13 1011 81 10000 0.64 306 18:24 11.08.2021
6211 Rain 15 1011 74 10000 2.39 59 15:22 11.08.2021
6212 Rain 15 1011 74 10000 2.39 59 14:54 11.08.2021
6213 Clouds 15 1010 74 10000 0.99 29 12:57 11.08.2021
6214 Clouds 18 1009 58 10000 6.19 193 12:29 11.08.2021
6215 Clouds 18 1009 58 10000 6.19 193 11:42 11.08.2021
6216 Clouds 22 1006 40 10000 4.92 250 11:21 11.08.2021
6217 Clouds 25 1005 28 10000 4.98 229 08:53 11.08.2021
6218 Clouds 23 1008 33 10000 5.22 219 04:58 11.08.2021
6219 Clouds 15 1010 43 10000 2.9 98 22:33 10.08.2021
6220 Clouds 15 1010 43 10000 2.89 97 21:44 10.08.2021
6221 Clouds 14 1010 45 10000 2.97 91 20:51 10.08.2021
6222 Clouds 15 1010 47 10000 2.93 90 19:25 10.08.2021
6223 Clouds 15 1010 46 10000 2.87 91 17:33 10.08.2021
6224 Clouds 16 1009 44 10000 2.32 78 15:37 10.08.2021
6225 Clouds 17 1008 43 10000 2.06 97 14:40 10.08.2021
6226 Clear 23 1007 27 10000 1.64 215 10:53 10.08.2021
6227 Clear 23 1008 29 10000 1.9 271 09:26 10.08.2021
6228 Clear 20 1010 39 10000 1.15 213 05:27 10.08.2021
6229 Clear 11 1012 64 10000 2.24 89 00:38 10.08.2021
6230 Clear 11 1012 64 10000 2.07 87 23:25 09.08.2021
6231 Clear 11 1012 64 10000 2.12 80 21:53 09.08.2021
6232 Clear 12 1012 63 10000 2.14 76 21:19 09.08.2021
6233 Clouds 13 1012 61 10000 2.16 78 17:57 09.08.2021
6234 Clouds 13 1011 59 10000 2.26 78 16:36 09.08.2021
6235 Clouds 14 1010 58 10000 2.22 60 14:37 09.08.2021
6236 Clouds 20 1008 39 10000 2.73 257 13:29 09.08.2021
6237 Clouds 21 1008 34 10000 3.43 250 11:48 09.08.2021
6238 Clouds 21 1008 34 10000 3.43 250 11:48 09.08.2021
6239 Clouds 21 1008 36 10000 2.25 251 09:41 09.08.2021
6240 Clear 20 1009 39 10000 2.32 263 08:18 09.08.2021
6241 Clear 9 1013 78 10000 1.8 68 21:32 08.08.2021
6242 Clear 9 1014 78 10000 1.44 69 20:36 08.08.2021
6243 Clouds 10 1014 76 10000 1.77 45 17:36 08.08.2021
6244 Clouds 11 1013 71 10000 2.34 36 15:46 08.08.2021
6245 Clouds 13 1012 65 10000 2.43 16 14:34 08.08.2021
6246 Clouds 17 1011 49 10000 0.93 168 12:47 08.08.2021
6247 Clouds 17 1011 50 10000 0.84 213 10:36 08.08.2021
6248 Clouds 14 1013 60 10000 1.18 357 06:41 08.08.2021
6249 Clouds 9 1014 89 10000 0.48 313 00:53 08.08.2021
6250 Clouds 9 1013 90 10000 0.77 274 00:24 08.08.2021
6251 Clouds 9 1013 89 10000 0.86 298 21:47 07.08.2021
6252 Clouds 9 1012 89 10000 0.88 303 21:19 07.08.2021
6253 Clouds 10 1012 83 10000 1.07 291 18:21 07.08.2021
6254 Clouds 10 1012 84 10000 1.22 282 16:51 07.08.2021
6255 Clouds 10 1012 84 10000 1.29 299 15:36 07.08.2021
6256 Clouds 10 1011 79 10000 1.58 306 13:35 07.08.2021
6257 Rain 13 1009 67 10000 4.91 309 10:37 07.08.2021
6258 Clouds 13 1008 67 10000 5.01 296 07:44 07.08.2021
6259 Clouds 10 1009 84 10000 1.69 233 02:38 07.08.2021
6260 Clouds 9 1008 90 10000 1.84 224 22:23 06.08.2021
6261 Clouds 9 1008 89 10000 2 225 20:36 06.08.2021
6262 Clouds 9 1008 89 10000 2.25 232 19:59 06.08.2021
6263 Clouds 10 1007 86 10000 2.01 252 19:22 06.08.2021
6264 Clouds 11 1006 81 10000 2.34 246 17:34 06.08.2021
6265 Clouds 17 1002 52 10000 5.41 283 12:23 06.08.2021
6266 Clouds 17 1001 56 10000 8.1 323 09:57 06.08.2021
6267 Clouds 18 1000 49 10000 4.66 272 08:22 06.08.2021
6268 Clouds 13 1003 60 10000 1.89 149 23:35 05.08.2021
6269 Clouds 14 1003 54 10000 2.39 124 22:32 05.08.2021
6270 Clouds 14 1004 54 10000 2.36 105 20:47 05.08.2021
6271 Clouds 15 1005 54 10000 2.72 115 19:29 05.08.2021
6272 Clouds 15 1006 52 10000 2.88 117 17:43 05.08.2021
6273 Clouds 18 1006 45 10000 3.91 224 14:49 05.08.2021
6274 Clouds 23 1003 30 10000 5.88 251 11:39 05.08.2021
6275 Clouds 24 1004 28 10000 6.21 247 08:51 05.08.2021
6276 Clouds 23 1005 28 10000 2.95 228 05:35 05.08.2021
6277 Clouds 14 1009 54 10000 2.71 90 00:54 05.08.2021
6278 Clouds 14 1009 55 10000 2.61 91 21:49 04.08.2021
6279 Clouds 14 1010 54 10000 2.66 81 21:21 04.08.2021
6280 Clouds 15 1009 49 10000 2.63 82 18:56 04.08.2021
6281 Clouds 16 1008 45 10000 2.42 94 16:42 04.08.2021
6282 Clouds 16 1007 46 10000 0.92 187 14:44 04.08.2021
6283 Clear 23 1007 30 10000 0.61 231 11:49 04.08.2021
6284 Clear 19 1012 42 10000 0.55 177 04:55 04.08.2021
6285 Clear 11 1014 68 10000 2.17 78 20:41 03.08.2021
6286 Clear 11 1013 66 10000 2.16 73 19:59 03.08.2021
6287 Clear 12 1013 63 10000 2.41 65 17:50 03.08.2021
6288 Clear 13 1012 58 10000 2.72 52 16:27 03.08.2021
6289 Clear 19 1010 46 10000 3.91 356 12:52 03.08.2021
6290 Clear 20 1009 38 10000 4.91 344 10:40 03.08.2021
6291 Clouds 19 1010 37 10000 4.03 338 07:40 03.08.2021
6292 Clouds 9 1011 70 10000 2.12 353 17:48 02.08.2021
6293 Clouds 10 1011 68 10000 2.37 334 16:38 02.08.2021
6294 Clouds 10 1011 67 10000 2.44 326 15:30 02.08.2021
6295 Clouds 16 1007 49 10000 7.2 328 11:59 02.08.2021
6296 Clouds 16 1007 49 10000 7.2 328 11:36 02.08.2021
6297 Clouds 17 1007 45 10000 7.98 322 09:49 02.08.2021
6298 Clouds 9 1008 92 10000 2.38 266 22:45 01.08.2021
6299 Clouds 10 1008 95 10000 2.11 213 18:20 01.08.2021
6300 Rain 11 1008 95 10000 2.42 191 15:29 01.08.2021
6301 Clouds 11 1007 94 10000 1.5 213 11:38 01.08.2021
6302 Rain 12 1008 94 10000 1.54 210 09:25 01.08.2021
6303 Clouds 13 1008 96 4282 1.97 172 03:48 01.08.2021
6304 Rain 14 1009 92 10000 1.63 163 22:52 31.07.2021
6305 Rain 14 1011 92 10000 1 209 20:53 31.07.2021
6306 Clouds 15 1011 77 10000 1.77 40 17:49 31.07.2021
6307 Rain 16 1011 70 10000 2.47 21 16:36 31.07.2021
6308 Clouds 21 1007 46 10000 1.72 313 12:38 31.07.2021
6309 Clouds 23 1007 31 10000 4.77 191 08:34 31.07.2021
6310 Rain 17 1008 46 10000 3.2 54 01:39 31.07.2021
6311 Clouds 15 1008 46 10000 2.2 55 20:31 30.07.2021
6312 Clouds 14 1008 45 10000 3.2 66 19:23 30.07.2021
6313 Clouds 22 1006 24 10000 1.75 286 07:50 30.07.2021
6314 Clouds 12 1008 59 10000 2.42 50 17:33 29.07.2021
6315 Clouds 22 1002 32 10000 4.74 271 06:32 29.07.2021
6316 Clouds 19 1003 45 10000 1.3 294 04:29 29.07.2021
6317 Clouds 15 1002 45 10000 2.32 64 21:21 28.07.2021
6318 Clear 16 1001 40 10000 2 71 17:22 28.07.2021
6319 Clear 17 999 41 10000 0.39 313 15:25 28.07.2021
6320 Clouds 24 1001 32 10000 4.45 248 07:53 28.07.2021
6321 Clouds 12 1005 72 10000 2.27 94 22:54 27.07.2021
6322 Clouds 14 1005 69 10000 2.13 83 21:27 27.07.2021
6323 Clear 16 1003 63 10000 1.87 45 14:52 27.07.2021
6324 Clouds 21 1002 45 10000 3.05 353 10:46 27.07.2021
6325 Clouds 22 1002 40 10000 3.52 325 08:57 27.07.2021
6326 Clouds 13 1007 80 10000 1.74 132 17:43 26.07.2021
6327 Clouds 13 1006 81 10000 1.18 115 15:31 26.07.2021
6328 Clouds 14 1008 82 10000 1.9 201 04:51 26.07.2021
6329 Clouds 13 1007 81 10000 1.38 94 20:56 25.07.2021
6330 Clouds 14 1007 78 10000 1.28 83 18:24 25.07.2021
6331 Clouds 15 1007 78 10000 1.81 112 15:46 25.07.2021
6332 Rain 20 1004 56 10000 3.77 348 10:56 25.07.2021
6333 Clouds 20 1005 57 10000 3.2 295 08:19 25.07.2021
6334 Clouds 13 1008 88 10000 0.22 127 21:22 24.07.2021
6335 Clouds 13 1008 92 10000 1.2 275 20:18 24.07.2021
6336 Clouds 15 1008 91 4307 5.43 274 13:44 24.07.2021
6337 Clouds 16 1008 90 10000 2.39 91 00:18 24.07.2021
6338 Clouds 22 1005 46 10000 1.11 173 14:37 23.07.2021
6339 Clouds 26 1004 32 10000 0.52 29 12:41 23.07.2021
6340 Clouds 25 1006 34 10000 1.91 160 04:48 23.07.2021
6341 Clouds 18 1007 45 10000 2.35 81 18:23 22.07.2021
6342 Clouds 27 1004 22 10000 0.86 303 11:21 22.07.2021
6343 Clouds 26 1005 24 10000 0.51 282 08:34 22.07.2021
6344 Clear 20 1008 43 10000 1.55 74 02:39 22.07.2021
6345 Clear 15 1009 58 10000 2.94 67 21:43 21.07.2021
6346 Clear 15 1008 58 10000 2.65 60 21:25 21.07.2021
6347 Clouds 25 1003 27 10000 2.61 290 12:38 21.07.2021
6348 Clouds 24 1004 30 10000 2.67 255 09:24 21.07.2021
6349 Clear 22 1006 37 10000 2.04 267 06:54 21.07.2021
6350 Clear 12 1008 76 10000 1.59 118 23:24 20.07.2021
6351 Clouds 16 1007 64 10000 1.99 119 16:37 20.07.2021
6352 Clouds 17 1005 59 10000 2.1 147 15:28 20.07.2021
6353 Clouds 17 1006 69 10000 3.67 70 12:58 20.07.2021
6354 Clouds 24 1003 32 10000 4.06 189 10:21 20.07.2021
6355 Clouds 20 1007 44 10000 1.06 101 03:45 20.07.2021
6356 Clouds 13 1010 64 10000 2.61 73 21:29 19.07.2021
6357 Clouds 21 1005 39 10000 3.71 23 12:53 19.07.2021
6358 Clouds 21 1005 39 10000 3.71 23 12:53 19.07.2021
6359 Clouds 22 1006 34 10000 2.12 278 10:28 19.07.2021
6360 Clouds 16 1007 61 10000 2.22 53 18:30 18.07.2021
6361 Clouds 23 1005 31 10000 1.93 253 10:55 18.07.2021
6362 Clouds 15 1011 67 10000 1.16 71 03:21 18.07.2021
6363 Clouds 14 1011 79 10000 1.59 58 22:22 17.07.2021
6364 Clouds 14 1011 79 10000 1.59 58 21:43 17.07.2021
6365 Clouds 14 1011 81 10000 1.62 64 20:49 17.07.2021
6366 Rain 24 1005 37 10000 4.32 308 12:25 17.07.2021
6367 Clouds 26 1006 29 10000 3.57 247 07:19 17.07.2021
6368 Clouds 26 1006 29 10000 3.57 247 07:19 17.07.2021
6369 Clouds 17 1010 45 10000 3.01 86 20:29 16.07.2021
6370 Clouds 25 1008 33 10000 1.91 274 13:22 16.07.2021
6371 Clear 25 1009 31 10000 1.66 293 07:32 16.07.2021
6372 Clouds 13 1013 76 10000 1.47 100 00:36 16.07.2021
6373 Clouds 20 1009 54 10000 2.32 276 13:52 15.07.2021
6374 Clouds 20 1009 49 10000 2.84 147 10:31 15.07.2021
6375 Clouds 16 1007 45 10000 2.14 111 00:33 15.07.2021
6376 Clouds 15 1007 53 10000 2.96 70 19:22 14.07.2021
6377 Clear 18 1003 43 10000 0.36 204 14:57 14.07.2021
6378 Clear 22 1004 34 10000 1.36 267 07:48 14.07.2021
6379 Clouds 11 1006 75 10000 1.85 81 21:44 13.07.2021
6380 Clouds 11 1006 73 10000 2.16 79 19:55 13.07.2021
6381 Clouds 12 1006 72 10000 2.12 70 19:27 13.07.2021
6382 Clouds 12 1006 72 10000 2.12 70 18:45 13.07.2021
6383 Clouds 12 1005 71 10000 1.75 74 18:27 13.07.2021
6384 Clouds 12 1005 71 10000 1.75 74 17:56 13.07.2021
6385 Rain 18 1002 50 10000 2.02 42 12:52 13.07.2021
6386 Clouds 18 1001 50 10000 3.09 330 08:49 13.07.2021
6387 Clouds 12 1003 88 10000 0.82 109 19:59 12.07.2021
6388 Clouds 12 1004 91 9631 0.37 179 16:45 12.07.2021
6389 Clouds 23 997 38 10000 3.59 255 09:59 12.07.2021
6390 Clouds 13 1004 58 10000 1.94 99 21:59 11.07.2021
6391 Clouds 13 1004 62 10000 2.13 79 19:48 11.07.2021
6392 Clouds 26 999 25 10000 6.4 282 09:19 11.07.2021
6393 Clouds 17 1001 52 10000 2.49 105 22:30 10.07.2021
6394 Clouds 26 998 32 10000 7.31 269 11:37 10.07.2021
6395 Clouds 24 1000 43 10000 5.67 250 07:24 10.07.2021
6396 Clouds 14 1004 75 10000 0.94 137 23:19 09.07.2021
6397 Clouds 16 1005 67 10000 1.99 76 18:20 09.07.2021
6398 Clouds 21 1002 51 10000 1.7 346 14:48 09.07.2021
6399 Clear 25 1004 35 10000 3.81 246 07:36 09.07.2021
6400 Clouds 14 1009 77 10000 0.99 88 23:48 08.07.2021
6401 Rain 14 1009 80 10000 1.09 33 22:18 08.07.2021
6402 Clouds 15 1008 73 10000 2.47 44 18:56 08.07.2021
6403 Clouds 16 1008 70 10000 2.51 43 17:37 08.07.2021
6404 Clouds 24 1004 40 10000 1.55 303 13:31 08.07.2021
6405 Clouds 25 1003 33 10000 2.05 291 12:40 08.07.2021
6406 Clouds 24 1004 34 10000 1.74 315 11:29 08.07.2021
6407 Clouds 23 1005 40 10000 4.55 308 09:51 08.07.2021
6408 Clouds 25 1005 32 10000 1.42 251 04:42 08.07.2021
6409 Clouds 16 1008 54 10000 2.34 88 23:50 07.07.2021
6410 Clouds 16 1008 54 10000 2.19 81 22:21 07.07.2021
6411 Clouds 16 1008 54 10000 2.19 81 21:47 07.07.2021
6412 Clouds 17 1008 55 10000 2.55 73 21:27 07.07.2021
6413 Clouds 16 1008 61 10000 2.41 72 20:42 07.07.2021
6414 Clouds 16 1008 62 10000 2 77 19:55 07.07.2021
6415 Clouds 17 1009 61 10000 2.6 83 19:27 07.07.2021
6416 Clouds 18 1008 57 10000 2.79 65 16:49 07.07.2021
6417 Clouds 22 1006 49 10000 1.61 85 15:25 07.07.2021
6418 Clouds 28 1003 20 10000 6.05 269 12:24 07.07.2021
6419 Clouds 29 1004 23 10000 5.08 248 07:45 07.07.2021
6420 Clouds 27 1005 26 10000 2.47 226 05:57 07.07.2021
6421 Clouds 26 1005 28 10000 2.16 213 04:39 07.07.2021
6422 Clouds 16 1008 50 10000 2.45 99 20:55 06.07.2021
6423 Clear 17 1007 50 10000 2.82 69 19:18 06.07.2021
6424 Clear 17 1007 50 10000 2.82 69 18:45 06.07.2021
6425 Clear 18 1007 50 10000 2.86 74 18:23 06.07.2021
6426 Clouds 25 1004 39 10000 1.28 77 13:44 06.07.2021
6427 Clouds 27 1004 23 10000 2.05 264 10:28 06.07.2021
6428 Clouds 27 1004 23 10000 2.05 264 10:28 06.07.2021
6429 Clouds 27 1004 23 10000 2.05 264 09:40 06.07.2021
6430 Clouds 27 1005 24 10000 1.98 266 08:32 06.07.2021
6431 Clouds 24 1007 30 10000 0.84 222 04:50 06.07.2021
6432 Clouds 15 1010 49 10000 2.61 89 23:59 05.07.2021
6433 Clouds 16 1009 45 10000 2.6 85 21:59 05.07.2021
6434 Clear 17 1009 46 10000 2.84 66 17:22 05.07.2021
6435 Clouds 23 1007 37 10000 3.84 44 14:29 05.07.2021
6436 Clear 22 1009 33 10000 0.97 304 06:27 05.07.2021
6437 Clear 22 1009 33 10000 0.97 304 05:43 05.07.2021
6438 Clear 19 1010 45 10000 0.29 286 04:25 05.07.2021
6439 Clear 11 1012 68 10000 2.41 79 22:56 04.07.2021
6440 Clouds 13 1011 67 10000 2.71 71 18:51 04.07.2021
6441 Clouds 16 1010 58 10000 2.57 56 15:50 04.07.2021
6442 Clouds 21 1007 41 10000 3.12 37 11:48 04.07.2021
6443 Clouds 22 1007 37 10000 1.89 11 09:23 04.07.2021
6444 Clouds 9 1013 85 10000 2.31 21 23:32 03.07.2021
6445 Clouds 9 1012 85 10000 1.48 9 22:34 03.07.2021
6446 Clouds 12 1010 66 10000 2.87 33 14:19 03.07.2021
6447 Clouds 13 1009 62 10000 3.5 24 12:38 03.07.2021
6448 Clouds 14 1007 55 10000 2.55 22 09:29 03.07.2021
6449 Clouds 14 1007 55 10000 2.55 22 08:46 03.07.2021
6450 Clouds 9 1008 67 10000 0.92 18 03:21 03.07.2021
6451 Clouds 13 1006 62 10000 1.38 341 12:51 02.07.2021
6452 Clouds 11 1007 72 10000 0.71 172 07:40 02.07.2021
6453 Clouds 11 1007 80 6733 3.7 230 04:38 02.07.2021
6454 Clouds 10 1007 59 10000 0.58 96 22:33 01.07.2021
6455 Clouds 10 1007 60 10000 2 89 21:53 01.07.2021
6456 Clouds 10 1007 59 10000 2.01 90 20:45 01.07.2021
6457 Clouds 10 1008 60 10000 1.79 51 19:21 01.07.2021
6458 Clouds 10 1008 60 10000 1.79 51 18:59 01.07.2021
6459 Clouds 11 1008 56 10000 2 69 17:52 01.07.2021
6460 Clouds 12 1007 54 10000 2.1 74 17:18 01.07.2021
6461 Clouds 14 1006 50 10000 1.86 47 15:25 01.07.2021
6462 Clouds 17 1005 42 10000 3.17 41 14:23 01.07.2021
6463 Clouds 18 1004 39 10000 5.12 3 10:56 01.07.2021
6464 Clouds 17 1005 34 10000 2.09 318 06:56 01.07.2021
6465 Clouds 7 1011 81 10000 1.58 62 23:23 30.06.2021
6466 Clouds 8 1011 78 10000 1.71 52 22:20 30.06.2021
6467 Clouds 8 1011 80 10000 1.89 47 21:22 30.06.2021
6468 Clouds 8 1011 82 10000 2.08 56 20:27 30.06.2021
6469 Clouds 9 1011 83 10000 2.39 55 18:54 30.06.2021
6470 Clouds 16 1007 50 10000 2.96 7 14:26 30.06.2021
6471 Clouds 16 1007 44 10000 3.47 350 13:23 30.06.2021
6472 Clouds 19 1006 30 10000 3.74 287 08:18 30.06.2021
6473 Clouds 10 1010 50 10000 2.24 57 21:29 29.06.2021
6474 Clouds 10 1009 52 10000 2.86 54 18:36 29.06.2021
6475 Clouds 11 1009 53 10000 2.97 47 17:43 29.06.2021
6476 Clouds 11 1009 52 10000 3.04 32 16:36 29.06.2021
6477 Clouds 12 1008 47 10000 2.83 23 15:49 29.06.2021
6478 Clouds 17 1006 36 10000 2.98 10 13:31 29.06.2021
6479 Clouds 18 1006 31 10000 3.37 17 12:43 29.06.2021
6480 Clouds 7 1013 62 10000 1.81 62 00:41 29.06.2021
6481 Clear 5 1013 66 10000 2 61 21:47 28.06.2021
6482 Clear 6 1013 62 10000 2.57 49 19:48 28.06.2021
6483 Clear 7 1014 64 10000 2.51 40 17:29 28.06.2021
6484 Clear 10 1012 62 10000 3.09 40 15:22 28.06.2021
6485 Clouds 14 1009 44 10000 4.59 4 12:59 28.06.2021
6486 Clouds 12 1011 63 10000 4.57 14 08:59 28.06.2021
6487 Clouds 8 1010 88 10000 2.16 207 23:45 27.06.2021
6488 Clouds 8 1008 75 10000 2.93 170 21:51 27.06.2021
6489 Clouds 11 1006 55 10000 2.88 130 19:40 27.06.2021
6490 Clouds 16 1004 28 10000 3.36 175 16:53 27.06.2021
6491 Clouds 20 1004 30 10000 1.24 337 14:20 27.06.2021
6492 Clouds 22 1005 26 10000 5.28 245 07:38 27.06.2021
6493 Clouds 12 1007 73 10000 1.54 170 23:27 26.06.2021
6494 Clouds 12 1007 72 10000 2.1 83 21:19 26.06.2021
6495 Clouds 12 1007 72 10000 2.1 83 20:40 26.06.2021
6496 Clouds 13 1007 72 10000 2.9 91 19:25 26.06.2021
6497 Clouds 15 1006 55 10000 3.17 125 15:33 26.06.2021
6498 Clouds 23 1003 23 10000 2.49 273 12:29 26.06.2021
6499 Clouds 23 1004 22 10000 4.14 248 09:32 26.06.2021
6500 Clouds 21 1006 34 10000 4.32 242 05:41 26.06.2021
6501 Clouds 14 1004 34 10000 2.62 117 21:21 25.06.2021
6502 Clouds 14 1004 34 10000 2.56 119 19:44 25.06.2021
6503 Clouds 16 1003 31 10000 2.76 108 17:53 25.06.2021
6504 Clouds 16 1002 31 10000 1.44 116 16:51 25.06.2021
6505 Clouds 19 1000 31 10000 1.77 48 14:59 25.06.2021
6506 Clouds 25 999 17 10000 2.4 241 13:18 25.06.2021
6507 Clouds 24 1001 20 10000 3.94 263 09:28 25.06.2021
6508 Clear 23 1002 22 10000 3.71 254 07:20 25.06.2021
6509 Clear 19 1004 26 10000 1.88 192 03:55 25.06.2021
6510 Clear 10 1006 28 10000 2.64 89 22:48 24.06.2021
6511 Clear 11 1006 27 10000 2.63 90 21:47 24.06.2021
6512 Clear 11 1006 27 10000 2.41 84 20:41 24.06.2021
6513 Clouds 11 1007 26 10000 2.93 86 18:50 24.06.2021
6514 Clouds 13 1007 25 10000 2.69 96 16:37 24.06.2021
6515 Clouds 15 1005 32 10000 0.72 188 15:22 24.06.2021
6516 Clouds 15 1005 32 10000 0.72 188 14:49 24.06.2021
6517 Clear 20 1005 16 10000 3.2 245 11:51 24.06.2021
6518 Clear 20 1006 17 10000 4.1 251 09:35 24.06.2021
6519 Clear 18 1007 19 10000 4.89 261 08:24 24.06.2021
6520 Clear 16 1009 21 10000 3.1 270 04:36 24.06.2021
6521 Clouds 10 1010 41 10000 1.22 222 23:28 23.06.2021
6522 Clouds 10 1010 39 10000 1.72 170 21:46 23.06.2021
6523 Clouds 11 1009 35 10000 2.35 159 20:48 23.06.2021
6524 Clouds 12 1008 31 10000 1.93 220 18:38 23.06.2021
6525 Clouds 13 1007 31 10000 2.27 231 17:40 23.06.2021
6526 Clouds 15 1006 33 10000 2.05 217 16:34 23.06.2021
6527 Clouds 20 1004 30 10000 2.67 265 14:29 23.06.2021
6528 Clouds 22 1004 24 10000 5.41 255 12:26 23.06.2021
6529 Clouds 22 1004 23 10000 5.67 247 10:39 23.06.2021
6530 Clouds 22 1004 24 10000 5.83 244 08:52 23.06.2021
6531 Clouds 22 1005 25 10000 6.33 256 08:25 23.06.2021
6532 Clouds 22 1005 25 10000 6.33 256 07:47 23.06.2021
6533 Clouds 20 1005 24 10000 3.6 224 04:34 23.06.2021
6534 Clouds 14 1005 31 10000 2.47 110 00:46 23.06.2021
6535 Clouds 12 1005 27 10000 2.72 110 23:57 22.06.2021
6536 Clouds 12 1005 25 10000 2.51 99 22:46 22.06.2021
6537 Clouds 13 1005 25 10000 2.49 81 22:25 22.06.2021
6538 Clouds 13 1005 25 10000 2.49 81 21:39 22.06.2021
6539 Clear 13 1006 25 10000 2.73 84 19:47 22.06.2021
6540 Clear 14 1006 25 10000 2.56 89 18:57 22.06.2021
6541 Clear 14 1006 24 10000 2.64 87 18:26 22.06.2021
6542 Clouds 15 1005 23 10000 1.78 98 17:22 22.06.2021
6543 Clouds 15 1005 23 10000 1.78 98 16:32 22.06.2021
6544 Clouds 17 1004 29 10000 0.32 220 14:40 22.06.2021
6545 Clear 21 1004 27 10000 1.08 230 14:21 22.06.2021
6546 Clear 22 1003 16 10000 0.83 283 12:56 22.06.2021
6547 Clear 23 1003 15 10000 1.67 273 11:33 22.06.2021
6548 Clear 23 1003 15 10000 1.94 277 10:31 22.06.2021
6549 Clear 21 1005 17 10000 2.38 270 06:52 22.06.2021
6550 Clear 9 1010 51 10000 2.27 82 00:50 22.06.2021
6551 Clear 7 1010 62 10000 2.08 84 23:27 21.06.2021
6552 Clear 7 1010 65 10000 2.35 83 22:22 21.06.2021
6553 Clear 7 1010 68 10000 2.24 89 21:18 21.06.2021
6554 Clear 7 1010 68 10000 2.24 89 20:43 21.06.2021
6555 Clear 7 1011 76 10000 2.14 79 19:53 21.06.2021
6556 Clear 8 1011 76 10000 2.33 71 18:57 21.06.2021
6557 Clear 9 1011 76 10000 2.14 80 17:24 21.06.2021
6558 Clear 9 1011 76 10000 2.14 80 16:41 21.06.2021
6559 Clear 9 1011 74 10000 2.05 74 16:23 21.06.2021
6560 Clear 9 1011 74 10000 2.05 74 15:43 21.06.2021
6561 Clouds 14 1008 56 10000 1.86 35 13:59 21.06.2021
6562 Clouds 14 1008 56 10000 1.86 35 13:33 21.06.2021
6563 Clouds 14 1009 56 10000 1.88 30 12:36 21.06.2021
6564 Clouds 14 1009 57 10000 2.28 337 11:48 21.06.2021
6565 Clouds 14 1008 60 10000 3.85 332 10:30 21.06.2021
6566 Clouds 21 1002 33 10000 4.35 294 09:26 21.06.2021
6567 Clouds 21 1003 31 10000 6.06 299 08:20 21.06.2021
6568 Clouds 21 1003 36 10000 3.81 280 06:47 21.06.2021
6569 Clouds 12 1005 59 10000 2.9 106 00:29 21.06.2021
6570 Clouds 12 1005 59 10000 2.9 106 23:35 20.06.2021
6571 Clouds 12 1005 60 10000 2.99 105 22:58 20.06.2021
6572 Clouds 13 1006 58 10000 3.02 99 21:57 20.06.2021
6573 Clouds 13 1006 59 10000 2.97 98 21:20 20.06.2021
6574 Clouds 12 1005 62 10000 2.52 95 19:41 20.06.2021
6575 Clouds 12 1005 62 10000 2.56 109 19:22 20.06.2021
6576 Clouds 13 1005 60 10000 2.49 101 17:48 20.06.2021
6577 Clouds 13 1005 61 10000 2.43 95 16:51 20.06.2021
6578 Clouds 13 1004 63 10000 2.19 102 15:50 20.06.2021
6579 Clouds 13 1004 63 10000 2.19 102 15:31 20.06.2021
6580 Clouds 15 1004 58 10000 2.68 118 14:46 20.06.2021
6581 Clouds 16 1004 52 10000 2.83 98 13:36 20.06.2021
6582 Clouds 17 1004 52 10000 3.58 115 12:49 20.06.2021
6583 Clouds 17 1004 53 10000 5.04 120 11:46 20.06.2021
6584 Clouds 19 1003 48 10000 6.6 151 10:28 20.06.2021
6585 Clouds 19 1003 48 10000 6.6 151 09:44 20.06.2021
6586 Clouds 22 1002 31 10000 4.72 243 06:57 20.06.2021
6587 Clouds 13 1004 43 10000 2.35 78 23:38 19.06.2021
6588 Clouds 13 1003 41 10000 2.65 66 22:59 19.06.2021
6589 Clouds 14 1003 40 10000 2.74 63 21:51 19.06.2021
6590 Clouds 14 1004 39 10000 2.69 60 21:22 19.06.2021
6591 Clouds 15 1004 36 10000 2.67 67 18:55 19.06.2021
6592 Clouds 15 1004 33 10000 2.82 62 18:22 19.06.2021
6593 Clouds 16 1003 31 10000 2.48 60 17:26 19.06.2021
6594 Clouds 16 1003 31 10000 2.48 60 16:48 19.06.2021
6595 Clouds 17 1003 29 10000 2.43 41 15:40 19.06.2021
6596 Clouds 23 1001 20 10000 2.98 327 12:54 19.06.2021
6597 Clouds 24 1001 19 10000 3.24 302 11:54 19.06.2021
6598 Clouds 24 1002 19 10000 3.78 281 10:46 19.06.2021
6599 Clouds 24 1002 19 10000 3.78 281 10:46 19.06.2021
6600 Clouds 24 1002 19 10000 4.4 259 10:26 19.06.2021
6601 Clouds 24 1002 19 10000 4.4 259 09:56 19.06.2021
6602 Clear 23 1004 21 10000 2.7 245 07:50 19.06.2021
6603 Clear 22 1005 22 10000 2.33 251 06:34 19.06.2021
6604 Clear 16 1008 42 10000 1.05 75 02:28 19.06.2021
6605 Clear 11 1009 54 10000 1.86 86 00:20 19.06.2021
6606 Clear 11 1009 54 10000 1.86 86 23:34 18.06.2021
6607 Clear 11 1009 53 10000 1.87 81 22:53 18.06.2021
6608 Clear 11 1009 52 10000 1.91 80 22:27 18.06.2021
6609 Clear 11 1009 52 10000 1.91 80 21:44 18.06.2021
6610 Clear 12 1009 50 10000 2.2 54 21:22 18.06.2021
6611 Clouds 13 1008 47 10000 2.34 63 20:23 18.06.2021
6612 Clouds 13 1008 46 10000 2.17 80 18:33 18.06.2021
6613 Clouds 15 1008 42 10000 1.94 87 17:40 18.06.2021
6614 Clouds 15 1008 42 10000 1.94 87 17:40 18.06.2021
6615 Clouds 15 1007 40 10000 2.36 62 16:37 18.06.2021
6616 Clouds 16 1007 37 10000 2.58 50 15:46 18.06.2021
6617 Clouds 17 1006 37 10000 2.84 40 14:35 18.06.2021
6618 Clouds 21 1004 28 10000 2.15 345 13:43 18.06.2021
6619 Clouds 22 1004 20 10000 3.13 301 12:52 18.06.2021
6620 Clouds 22 1004 20 10000 3.13 301 12:30 18.06.2021
6621 Clouds 23 1004 19 10000 4.07 283 11:36 18.06.2021
6622 Clouds 23 1005 19 10000 5.2 276 10:57 18.06.2021
6623 Clouds 23 1005 20 10000 5.68 273 10:23 18.06.2021
6624 Clouds 23 1005 20 10000 5.68 273 09:51 18.06.2021
6625 Clouds 23 1006 21 10000 5.18 274 08:56 18.06.2021
6626 Clouds 23 1005 21 10000 4.7 276 08:30 18.06.2021
6627 Clouds 22 1006 23 10000 3.75 268 07:33 18.06.2021
6628 Clear 16 1011 34 10000 0.4 185 03:24 18.06.2021
6629 Clouds 11 1012 51 10000 1.93 78 00:33 18.06.2021
6630 Clouds 9 1012 56 10000 2.01 89 23:22 17.06.2021
6631 Clouds 9 1013 54 10000 2.2 80 22:26 17.06.2021
6632 Clouds 9 1013 54 10000 2.2 80 21:50 17.06.2021
6633 Clouds 10 1013 52 10000 2.55 77 20:59 17.06.2021
6634 Clouds 10 1013 52 10000 2.47 74 20:30 17.06.2021
6635 Clouds 10